# Wetter Temperatur Luftdruck Luftfeuchtigkeit Sichtweite Windgeschwindigkeit Windrichtung Zeit
1 Clouds 10 1006 25 10000 1.79 325 12:18 22.04.2021
2 Clouds 10 1005 25 10000 1.79 321 11:42 22.04.2021
3 Clouds 10 1005 25 10000 1.34 312 11:21 22.04.2021
4 Clouds 11 1005 24 10000 2.24 326 10:42 22.04.2021
5 Clouds 12 1005 24 10000 0.45 301 10:20 22.04.2021
6 Clouds 12 1006 26 10000 1.79 341 09:39 22.04.2021
7 Clouds 12 1006 28 10000 2.24 353 08:57 22.04.2021
8 Clouds 12 1005 28 10000 1.79 326 08:38 22.04.2021
9 Clouds 12 1005 29 10000 2.24 336 08:18 22.04.2021
10 Clouds 12 1005 27 10000 2.68 356 07:37 22.04.2021
11 Clouds 12 1005 27 10000 2.68 345 07:18 22.04.2021
12 Clouds 13 1004 25 10000 3.13 21 06:22 22.04.2021
13 Clouds 13 1003 26 10000 4.47 335 05:24 22.04.2021
14 Clouds 27 1001 19 10000 1.53 241 02:49 22.04.2021
15 Clouds 20 1001 20 10000 3.13 341 00:45 22.04.2021
16 Clouds 28 1001 16 10000 0.22 118 23:44 21.04.2021
17 Clouds 28 1002 16 10000 0.91 77 23:23 21.04.2021
18 Clouds 18 1002 23 10000 1.79 263 22:41 21.04.2021
19 Clouds 18 1002 23 10000 0.87 125 22:23 21.04.2021
20 Clouds 27 1003 17 10000 0.87 125 21:42 21.04.2021
21 Clouds 27 1003 17 10000 0.87 125 21:42 21.04.2021
22 Clouds 26 1004 19 10000 1 141 21:23 21.04.2021
23 Clouds 26 1004 19 10000 1 141 21:23 21.04.2021
24 Clouds 26 1004 19 10000 1 141 20:42 21.04.2021
25 Clear 25 1004 21 10000 1.34 150 20:19 21.04.2021
26 Clear 25 1004 21 10000 1.34 150 19:42 21.04.2021
27 Clear 24 1004 22 10000 1.22 161 19:23 21.04.2021
28 Clear 24 1004 22 10000 1.22 161 18:45 21.04.2021
29 Clear 22 1004 24 10000 2.03 177 18:26 21.04.2021
30 Clear 14 1000 28 10000 1.79 345 17:47 21.04.2021
31 Clear 12 1000 32 10000 0.45 22 17:24 21.04.2021
32 Clear 9 1000 35 10000 0.45 312 16:48 21.04.2021
33 Clear 7 1000 36 10000 2.11 186 15:57 21.04.2021
34 Clear 7 999 35 10000 2.11 186 15:39 21.04.2021
35 Clear 8 999 31 10000 0.45 216 14:55 21.04.2021
36 Clear 9 999 30 10000 2.46 204 14:36 21.04.2021
37 Clear 11 999 28 10000 1.34 191 14:18 21.04.2021
38 Clear 11 999 28 10000 2.24 139 13:40 21.04.2021
39 Clear 9 999 31 10000 1.79 150 13:20 21.04.2021
40 Clear 11 999 29 10000 1.34 203 12:30 21.04.2021
41 Clear 11 999 29 10000 1.34 203 12:30 21.04.2021
42 Clear 11 999 30 10000 4.92 241 11:50 21.04.2021
43 Clear 11 1000 26 10000 2.24 237 11:29 21.04.2021
44 Clear 12 1000 26 10000 2.24 262 10:51 21.04.2021
45 Clear 12 1000 19 10000 0.89 245 10:33 21.04.2021
46 Clear 12 1000 14 10000 6.12 196 09:44 21.04.2021
47 Clear 13 1000 14 10000 0.89 92 09:19 21.04.2021
48 Clear 14 1000 14 10000 1.34 212 08:40 21.04.2021
49 Clouds 15 1001 12 10000 1.34 114 08:20 21.04.2021
50 Clouds 16 1001 12 10000 1.79 237 07:31 21.04.2021
51 Clouds 16 1001 12 10000 2.24 130 06:56 21.04.2021
52 Clouds 19 1000 6 10000 5.36 241 05:22 21.04.2021
53 Clouds 23 1001 12 10000 4.92 235 01:32 21.04.2021
54 Clouds 26 1003 9 10000 3.58 219 23:51 20.04.2021
55 Clouds 26 1003 10 10000 4.02 190 23:31 20.04.2021
56 Clouds 25 1004 9 10000 3.58 209 22:41 20.04.2021
57 Clouds 26 1005 9 10000 4.02 250 22:22 20.04.2021
58 Clouds 33 1006 9 10000 5.76 160 21:47 20.04.2021
59 Clouds 32 1007 9 10000 5.87 154 21:26 20.04.2021
60 Clouds 25 1006 10 10000 2.24 67 20:44 20.04.2021
61 Clouds 24 1006 11 10000 2.68 40 20:24 20.04.2021
62 Clouds 23 1007 11 10000 2.68 9 19:57 20.04.2021
63 Clouds 23 1007 11 10000 3.13 13 19:39 20.04.2021
64 Clouds 23 1007 11 10000 3.13 13 19:39 20.04.2021
65 Clouds 23 1007 11 10000 3.13 13 19:39 20.04.2021
66 Clouds 23 1007 11 10000 2.68 69 19:21 20.04.2021
67 Clouds 22 1007 12 10000 2.24 71 18:36 20.04.2021
68 Clouds 19 1008 13 10000 1.34 14 17:55 20.04.2021
69 Clouds 18 1008 14 10000 0.89 7 17:37 20.04.2021
70 Clouds 27 1009 11 10000 2.42 159 16:50 20.04.2021
71 Clouds 24 1009 12 10000 1.8 159 15:53 20.04.2021
72 Clear 22 1009 12 10000 1.57 145 15:29 20.04.2021
73 Clear 22 1009 12 10000 1.57 145 14:58 20.04.2021
74 Clear 22 1009 12 10000 1.57 145 14:35 20.04.2021
75 Clouds 23 1009 11 10000 1.09 147 13:53 20.04.2021
76 Clouds 23 1009 11 10000 0.42 83 13:24 20.04.2021
77 Clouds 23 1009 11 10000 0.42 83 12:44 20.04.2021
78 Clouds 11 1009 18 10000 0.67 78 12:22 20.04.2021
79 Clouds 12 1009 16 10000 0.67 78 11:45 20.04.2021
80 Clouds 13 1009 15 10000 0.22 31 11:22 20.04.2021
81 Clouds 12 1010 15 10000 0.22 31 10:44 20.04.2021
82 Clouds 13 1010 15 10000 0.72 291 10:23 20.04.2021
83 Clouds 26 1010 8 10000 0.72 291 09:44 20.04.2021
84 Clouds 26 1010 7 10000 1.3 322 08:56 20.04.2021
85 Clear 27 1009 7 10000 1.4 344 08:29 20.04.2021
86 Clear 27 1009 8 10000 0.88 342 07:49 20.04.2021
87 Clear 27 1009 8 10000 0.38 278 06:54 20.04.2021
88 Clear 18 1009 9 10000 0.45 14 05:40 20.04.2021
89 Clear 21 1009 7 10000 0.89 6 04:42 20.04.2021
90 Clear 33 1009 4 10000 1.23 80 01:58 20.04.2021
91 Clear 33 1009 4 10000 1.05 98 00:41 20.04.2021
92 Clear 33 1011 4 10000 1.04 106 23:39 19.04.2021
93 Clear 33 1012 4 10000 1.01 94 22:58 19.04.2021
94 Clear 33 1012 4 10000 1.01 94 22:36 19.04.2021
95 Clear 32 1013 4 10000 1.02 92 21:52 19.04.2021
96 Clear 32 1013 4 10000 1.02 92 21:34 19.04.2021
97 Clear 31 1014 5 10000 0.86 97 20:56 19.04.2021
98 Clear 31 1014 5 10000 0.86 97 20:38 19.04.2021
99 Clear 30 1015 5 10000 0.52 106 20:19 19.04.2021
100 Clear 23 1016 5 10000 0.89 116 19:42 19.04.2021
101 Clear 29 1016 5 10000 0.3 102 19:24 19.04.2021
102 Clear 21 1016 6 10000 0.89 303 18:47 19.04.2021
103 Clear 21 1016 6 10000 0.89 303 18:47 19.04.2021
104 Clear 20 1016 7 10000 1.79 317 18:23 19.04.2021
105 Clear 18 1016 7 10000 0.89 291 17:55 19.04.2021
106 Clear 17 1017 9 10000 0.45 302 17:30 19.04.2021
107 Clear 15 1017 10 10000 1.79 325 16:58 19.04.2021
108 Clear 13 1017 11 10000 1.79 325 16:39 19.04.2021
109 Clear 11 1017 12 10000 0.89 329 16:20 19.04.2021
110 Clear 22 1016 8 10000 0.67 198 15:40 19.04.2021
111 Clear 8 1017 13 10000 0.37 221 15:20 19.04.2021
112 Clear 7 1017 14 10000 0.37 221 14:37 19.04.2021
113 Clear 20 1016 9 10000 0.41 257 14:19 19.04.2021
114 Clear 20 1016 8 10000 0.49 287 13:36 19.04.2021
115 Clear 21 1016 8 10000 0.66 300 13:18 19.04.2021
116 Clear 11 1017 9 10000 0.45 341 12:42 19.04.2021
117 Clear 11 1017 10 10000 1.34 342 12:22 19.04.2021
118 Clear 11 1017 10 10000 1.34 325 11:53 19.04.2021
119 Clear 11 1017 10 10000 0.89 328 11:21 19.04.2021
120 Clear 9 1017 10 10000 1.34 350 10:45 19.04.2021
121 Clear 9 1017 10 10000 0.89 356 10:21 19.04.2021
122 Clear 22 1016 7 10000 0.64 197 09:49 19.04.2021
123 Clear 22 1016 7 10000 0.83 194 09:27 19.04.2021
124 Clear 22 1016 7 10000 0.83 194 08:58 19.04.2021
125 Clear 23 1016 7 10000 0.32 119 08:25 19.04.2021
126 Clear 23 1016 7 10000 0.38 40 07:48 19.04.2021
127 Clear 24 1016 6 10000 0.25 75 07:19 19.04.2021
128 Clear 13 1016 8 10000 0.3 281 05:44 19.04.2021
129 Clear 30 1014 4 10000 4.83 329 02:35 19.04.2021
130 Clear 30 1015 4 10000 4.69 336 00:47 19.04.2021
131 Clear 29 1016 4 10000 5 341 23:49 18.04.2021
132 Clear 29 1017 4 10000 5.35 344 23:18 18.04.2021
133 Clear 29 1017 4 10000 5.35 344 22:46 18.04.2021
134 Clear 28 1018 5 10000 5.28 348 22:24 18.04.2021
135 Clear 27 1019 7 10000 5.3 355 21:29 18.04.2021
136 Clear 19 1020 6 10000 4.92 314 20:59 18.04.2021
137 Clear 19 1020 7 10000 3.13 347 20:39 18.04.2021
138 Clear 19 1020 7 10000 3.13 347 20:39 18.04.2021
139 Clear 18 1020 7 10000 4.47 337 20:20 18.04.2021
140 Clear 17 1020 10 10000 2.68 342 19:45 18.04.2021
141 Clear 16 1020 11 10000 4.92 337 19:25 18.04.2021
142 Clear 15 1020 12 10000 5.81 353 18:54 18.04.2021
143 Clear 15 1020 12 10000 5.81 353 18:54 18.04.2021
144 Clear 15 1020 13 10000 4.02 349 18:30 18.04.2021
145 Clear 14 1021 15 10000 3.13 333 17:50 18.04.2021
146 Clear 12 1020 18 10000 2.68 351 17:31 18.04.2021
147 Clear 10 1020 20 10000 3.58 328 16:55 18.04.2021
148 Clear 9 1020 21 10000 2.68 324 16:36 18.04.2021
149 Clear 6 1020 24 10000 3.13 347 15:57 18.04.2021
150 Clear 6 1020 24 10000 0.45 329 15:38 18.04.2021
151 Clear 7 1019 23 10000 1.34 301 15:18 18.04.2021
152 Clear 8 1019 23 10000 1.34 353 14:41 18.04.2021
153 Clear 8 1019 23 10000 1.34 358 14:18 18.04.2021
154 Clear 8 1019 23 10000 1.34 337 13:49 18.04.2021
155 Clear 8 1019 23 10000 1.34 337 13:49 18.04.2021
156 Clear 9 1019 23 10000 1.34 339 13:29 18.04.2021
157 Clear 9 1018 22 10000 1.34 354 12:38 18.04.2021
158 Clear 10 1017 21 10000 1.79 355 11:59 18.04.2021
159 Clear 10 1017 20 10000 2.68 23 11:40 18.04.2021
160 Clear 11 1018 19 10000 1.79 56 11:20 18.04.2021
161 Clear 11 1017 18 10000 1.79 27 10:44 18.04.2021
162 Clear 11 1017 18 10000 2.68 330 10:19 18.04.2021
163 Clear 11 1017 18 10000 1.79 345 09:39 18.04.2021
164 Clear 11 1017 17 10000 0.89 314 09:21 18.04.2021
165 Clear 12 1017 16 10000 1.34 343 08:47 18.04.2021
166 Clear 11 1016 17 10000 0.89 5 08:28 18.04.2021
167 Clear 12 1016 17 10000 1.34 345 07:41 18.04.2021
168 Clear 12 1016 16 10000 0.89 14 06:56 18.04.2021
169 Clear 13 1014 15 10000 0.45 10 05:27 18.04.2021
170 Clear 14 1014 15 10000 2.24 24 04:44 18.04.2021
171 Clear 28 1013 9 10000 6.65 3 02:23 18.04.2021
172 Clear 28 1013 9 10000 6.84 359 00:58 18.04.2021
173 Clear 27 1014 9 10000 7 4 23:58 17.04.2021
174 Clear 27 1015 10 10000 6.52 1 23:26 17.04.2021
175 Clear 27 1015 10 10000 6.52 1 22:44 17.04.2021
176 Clear 26 1016 12 10000 4.4 13 22:25 17.04.2021
177 Clear 26 1016 12 10000 4.4 13 21:45 17.04.2021
178 Clear 24 1017 15 10000 4.22 13 21:23 17.04.2021
179 Clear 24 1017 15 10000 4.22 13 20:41 17.04.2021
180 Clear 24 1017 18 10000 4.56 14 20:23 17.04.2021
181 Clear 24 1017 18 10000 4.56 14 19:42 17.04.2021
182 Clear 23 1017 20 10000 4.35 26 19:20 17.04.2021
183 Clear 23 1017 20 10000 4.35 26 18:49 17.04.2021
184 Clear 15 1014 22 10000 2.24 322 18:23 17.04.2021
185 Clear 13 1014 25 10000 4.92 323 17:42 17.04.2021
186 Clear 12 1014 27 10000 3.58 357 16:58 17.04.2021
187 Clear 11 1014 28 10000 4.02 344 16:39 17.04.2021
188 Clear 10 1014 31 10000 4.47 332 16:19 17.04.2021
189 Clouds 9 1013 33 10000 2.68 329 15:22 17.04.2021
190 Clouds 9 1013 34 10000 0.89 337 14:43 17.04.2021
191 Clouds 9 1013 34 10000 0.45 34 14:19 17.04.2021
192 Clouds 9 1013 32 10000 1.34 339 13:42 17.04.2021
193 Clouds 11 1013 29 10000 2.24 4 12:55 17.04.2021
194 Clouds 12 1012 27 10000 3.13 318 12:32 17.04.2021
195 Clouds 12 1012 25 10000 3.13 327 11:51 17.04.2021
196 Clouds 12 1012 25 10000 3.13 318 11:32 17.04.2021
197 Clouds 12 1013 26 10000 1.34 318 10:51 17.04.2021
198 Clouds 12 1013 27 10000 1.79 326 10:33 17.04.2021
199 Clouds 12 1013 36 10000 0.89 319 09:47 17.04.2021
200 Clouds 12 1013 36 10000 0.89 322 08:54 17.04.2021
201 Clouds 13 1013 30 10000 1.34 302 08:28 17.04.2021
202 Clouds 13 1013 30 10000 1.79 332 07:45 17.04.2021
203 Clouds 14 1012 26 10000 3.58 344 05:42 17.04.2021
204 Clouds 17 1010 17 10000 1.79 11 03:43 17.04.2021
205 Clouds 21 1010 13 10000 1.34 83 00:56 17.04.2021
206 Clouds 21 1010 12 10000 3.13 97 00:30 17.04.2021
207 Clear 28 1009 10 10000 1.51 40 23:58 16.04.2021
208 Clear 28 1009 10 10000 1.51 40 23:34 16.04.2021
209 Clear 28 1010 11 10000 1.61 32 22:51 16.04.2021
210 Clear 27 1011 11 10000 1.77 22 22:23 16.04.2021
211 Clear 27 1011 11 10000 1.77 22 21:56 16.04.2021
212 Clear 27 1011 11 10000 1.77 22 21:38 16.04.2021
213 Clear 26 1012 12 10000 2.27 12 20:55 16.04.2021
214 Clear 26 1012 12 10000 2.27 12 20:36 16.04.2021
215 Clear 25 1012 13 10000 2.69 6 19:58 16.04.2021
216 Clear 25 1012 13 10000 2.69 6 19:40 16.04.2021
217 Clear 24 1013 13 10000 2.64 7 19:18 16.04.2021
218 Clear 16 1013 19 10000 0.89 330 18:25 16.04.2021
219 Clear 14 1013 21 10000 0.89 270 17:48 16.04.2021
220 Clear 12 1013 23 10000 0.45 264 17:19 16.04.2021
221 Clear 9 1013 27 10000 1.79 331 16:44 16.04.2021
222 Clear 9 1013 28 10000 2.24 341 16:26 16.04.2021
223 Clear 8 1013 30 10000 1.79 327 15:55 16.04.2021
224 Clear 7 1013 30 10000 1.79 314 15:29 16.04.2021
225 Clear 8 1013 29 10000 1.79 291 14:44 16.04.2021
226 Clear 8 1013 29 10000 1.34 319 14:23 16.04.2021
227 Clear 8 1013 27 10000 1.34 323 13:55 16.04.2021
228 Clear 8 1013 27 10000 1.79 322 13:22 16.04.2021
229 Clear 8 1014 26 10000 1.34 317 12:53 16.04.2021
230 Clear 9 1014 26 10000 2.24 297 12:34 16.04.2021
231 Clear 10 1014 24 10000 3.58 347 11:59 16.04.2021
232 Clear 9 1014 25 10000 2.68 333 11:39 16.04.2021
233 Clear 20 1012 16 10000 1.89 332 11:20 16.04.2021
234 Clear 20 1012 16 10000 1.89 332 10:41 16.04.2021
235 Clear 21 1012 15 10000 2.13 332 10:20 16.04.2021
236 Clear 21 1012 15 10000 2.13 332 09:44 16.04.2021
237 Clear 21 1012 15 10000 1.78 344 09:21 16.04.2021
238 Clear 21 1012 15 10000 1.78 344 08:44 16.04.2021
239 Clear 21 1012 15 10000 0.49 228 08:19 16.04.2021
240 Clear 21 1012 15 10000 0.49 228 07:42 16.04.2021
241 Clear 22 1012 13 10000 1.69 201 07:18 16.04.2021
242 Clear 22 1012 13 10000 1.69 201 06:35 16.04.2021
243 Clear 11 1012 21 10000 2.31 204 05:32 16.04.2021
244 Clear 26 1010 9 10000 1.09 103 01:40 16.04.2021
245 Clear 26 1010 9 10000 1.35 74 00:44 16.04.2021
246 Clear 26 1011 9 10000 1.21 61 00:21 16.04.2021
247 Clear 26 1011 9 10000 1.21 61 23:52 15.04.2021
248 Clear 26 1011 9 10000 1.21 61 23:32 15.04.2021
249 Clear 25 1012 10 10000 1.46 36 22:50 15.04.2021
250 Clear 25 1013 11 10000 2.02 22 22:23 15.04.2021
251 Clear 17 1013 14 10000 0.89 252 21:43 15.04.2021
252 Clear 24 1013 12 10000 2.49 9 21:25 15.04.2021
253 Clear 24 1013 12 10000 2.49 9 20:49 15.04.2021
254 Clear 23 1014 14 10000 2.93 3 20:25 15.04.2021
255 Clear 23 1014 14 10000 2.93 3 19:57 15.04.2021
256 Clear 23 1014 14 10000 2.93 3 19:39 15.04.2021
257 Clear 22 1014 16 10000 3.27 8 19:20 15.04.2021
258 Clear 11 1013 28 10000 0.89 289 18:39 15.04.2021
259 Clear 12 1013 27 10000 0.45 231 18:18 15.04.2021
260 Clear 11 1013 29 10000 1.34 344 17:53 15.04.2021
261 Clear 9 1013 32 10000 0.45 358 17:30 15.04.2021
262 Clear 6 1013 41 10000 0.89 337 16:44 15.04.2021
263 Clear 5 1013 43 10000 3.13 343 16:24 15.04.2021
264 Clear 4 1012 46 10000 3.13 4 15:50 15.04.2021
265 Clear 4 1012 47 10000 3.58 324 15:27 15.04.2021
266 Clear 3 1012 48 10000 2.24 326 14:44 15.04.2021
267 Clear 3 1012 48 10000 2.24 326 14:44 15.04.2021
268 Clear 3 1012 47 10000 1.34 296 14:26 15.04.2021
269 Clear 4 1012 47 10000 1.34 303 13:51 15.04.2021
270 Clear 4 1011 46 10000 2.68 274 13:25 15.04.2021
271 Clear 4 1011 45 10000 2.68 268 12:53 15.04.2021
272 Clear 4 1011 46 10000 3.58 326 12:27 15.04.2021
273 Clear 4 1011 45 10000 3.13 326 11:48 15.04.2021
274 Clear 4 1011 45 10000 3.13 326 11:48 15.04.2021
275 Clear 5 1011 44 10000 1.34 347 11:30 15.04.2021
276 Clear 5 1011 44 10000 1.34 345 10:59 15.04.2021
277 Clear 5 1011 44 10000 2.24 347 10:40 15.04.2021
278 Clear 6 1011 43 10000 0.89 279 10:22 15.04.2021
279 Clear 6 1010 45 10000 1.34 256 09:33 15.04.2021
280 Clear 6 1010 44 10000 0.45 13 08:54 15.04.2021
281 Clear 7 1010 43 10000 1.34 312 08:35 15.04.2021
282 Clear 7 1009 40 10000 1.34 291 07:48 15.04.2021
283 Clear 8 1009 40 10000 1.79 312 07:20 15.04.2021
284 Clear 8 1008 42 10000 1.79 272 06:37 15.04.2021
285 Clouds 8 1008 41 10000 2.24 218 06:19 15.04.2021
286 Clouds 12 1004 29 10000 4.47 334 04:23 15.04.2021
287 Clear 26 1004 12 10000 0.57 96 00:23 15.04.2021
288 Clear 26 1004 12 10000 0.57 96 23:36 14.04.2021
289 Clear 25 1006 15 10000 0.92 125 23:18 14.04.2021
290 Clear 25 1006 15 10000 0.92 125 22:43 14.04.2021
291 Clear 24 1006 18 10000 1.25 150 22:22 14.04.2021
292 Clear 24 1006 18 10000 1.25 150 21:42 14.04.2021
293 Clear 23 1007 21 10000 1.45 158 21:23 14.04.2021
294 Clear 23 1007 21 10000 1.45 158 20:55 14.04.2021
295 Clear 23 1007 22 10000 1.03 146 20:32 14.04.2021
296 Clear 22 1007 26 10000 0.88 142 19:51 14.04.2021
297 Clear 21 1008 30 10000 1.18 161 19:20 14.04.2021
298 Clear 21 1008 30 10000 1.18 161 18:56 14.04.2021
299 Clear 20 1007 36 10000 1.48 162 18:21 14.04.2021
300 Clear 20 1007 36 10000 1.48 162 17:58 14.04.2021
301 Clear 18 1007 41 10000 1.53 159 17:25 14.04.2021
302 Clear 9 1004 21 10000 1.34 340 16:54 14.04.2021
303 Clear 7 1003 23 10000 0.89 338 16:26 14.04.2021
304 Clear 6 1002 15 10000 0.89 305 15:42 14.04.2021
305 Clear 6 1002 13 10000 1.79 322 15:24 14.04.2021
306 Clear 6 1002 11 10000 1.13 175 14:49 14.04.2021
307 Clear 5 1002 15 10000 0.45 113 14:27 14.04.2021
308 Clear 7 1001 14 10000 0.97 168 13:58 14.04.2021
309 Clear 8 1001 13 10000 0.45 245 13:37 14.04.2021
310 Clear 9 1001 13 10000 3.58 206 12:39 14.04.2021
311 Clear 10 1001 15 10000 2.24 229 11:44 14.04.2021
312 Clear 10 1001 15 10000 3.58 272 11:25 14.04.2021
313 Clear 11 1001 12 10000 1.79 269 10:55 14.04.2021
314 Clear 11 1000 11 10000 1.79 308 10:33 14.04.2021
315 Clear 12 1000 11 10000 1.79 228 09:42 14.04.2021
316 Clear 12 1000 13 10000 2.68 295 09:21 14.04.2021
317 Clear 12 1000 13 10000 2.24 240 08:47 14.04.2021
318 Clear 13 1000 11 10000 4.47 176 08:22 14.04.2021
319 Clear 11 1000 11 10000 1.79 247 07:26 14.04.2021
320 Clear 12 999 17 10000 0.45 144 06:26 14.04.2021
321 Clear 16 998 14 10000 0.45 121 05:23 14.04.2021
322 Clear 22 996 10 10000 4.92 283 01:54 14.04.2021
323 Clear 23 996 10 10000 5.36 197 00:49 14.04.2021
324 Clear 23 996 11 10000 7.6 221 00:25 14.04.2021
325 Clear 24 996 8 10000 3.58 252 23:31 13.04.2021
326 Clear 24 997 8 10000 5.81 202 22:44 13.04.2021
327 Clear 23 998 8 10000 3.13 182 22:20 13.04.2021
328 Clear 31 1000 16 10000 6.57 165 21:48 13.04.2021
329 Clear 30 1001 17 10000 5.57 164 21:29 13.04.2021
330 Clear 30 1002 17 10000 5.63 164 20:48 13.04.2021
331 Clear 28 1003 18 10000 4.19 166 20:24 13.04.2021
332 Clear 28 1003 18 10000 4.19 166 19:57 13.04.2021
333 Clear 27 1004 19 10000 3.02 167 19:25 13.04.2021
334 Clear 27 1004 19 10000 3.02 167 18:48 13.04.2021
335 Clear 27 1004 19 10000 3.02 167 18:30 13.04.2021
336 Clear 16 1002 19 10000 1.79 258 17:40 13.04.2021
337 Clear 16 1002 20 10000 0.89 256 17:19 13.04.2021
338 Clear 13 1002 24 10000 0.89 292 16:45 13.04.2021
339 Clear 13 1002 25 10000 0.45 266 16:26 13.04.2021
340 Clear 13 1002 25 10000 0.45 266 16:26 13.04.2021
341 Clear 12 1002 27 10000 1.34 321 15:55 13.04.2021
342 Clear 12 1002 27 10000 1.34 321 15:36 13.04.2021
343 Clear 12 1001 27 10000 1.34 262 14:54 13.04.2021
344 Clouds 12 1001 26 10000 0.89 318 14:24 13.04.2021
345 Clouds 13 1001 26 10000 2.68 307 13:53 13.04.2021
346 Clouds 12 1002 26 10000 2.24 331 13:27 13.04.2021
347 Clouds 12 1002 25 10000 1.79 333 12:59 13.04.2021
348 Clouds 12 1002 24 10000 1.34 333 12:41 13.04.2021
349 Clouds 13 1002 24 10000 2.68 341 12:22 13.04.2021
350 Clouds 13 1002 20 10000 1.79 277 11:36 13.04.2021
351 Clouds 13 1003 21 10000 2.68 348 10:57 13.04.2021
352 Clouds 13 1003 22 10000 2.24 333 10:39 13.04.2021
353 Clouds 14 1003 22 10000 1.79 325 10:18 13.04.2021
354 Clouds 14 1003 22 10000 1.79 320 09:46 13.04.2021
355 Clouds 27 1003 11 10000 0.35 250 09:19 13.04.2021
356 Clouds 27 1002 11 10000 0.95 168 08:43 13.04.2021
357 Clouds 27 1003 10 10000 0.67 198 08:21 13.04.2021
358 Clouds 27 1003 10 10000 0.67 198 07:38 13.04.2021
359 Clouds 14 1003 20 10000 0.44 234 07:19 13.04.2021
360 Clouds 17 1002 18 10000 0.45 147 06:19 13.04.2021
361 Clouds 22 1002 13 10000 2.24 216 03:41 13.04.2021
362 Clouds 32 1002 7 10000 0.98 158 01:31 13.04.2021
363 Clear 32 1004 7 10000 0.71 34 23:50 12.04.2021
364 Clear 32 1004 7 10000 0.71 34 23:32 12.04.2021
365 Clear 32 1005 7 10000 1.57 23 22:46 12.04.2021
366 Clear 31 1006 8 10000 2.6 12 22:28 12.04.2021
367 Clear 31 1006 8 10000 2.6 12 21:48 12.04.2021
368 Clear 30 1007 8 10000 3.51 7 21:24 12.04.2021
369 Clouds 30 1007 8 10000 3.39 7 20:46 12.04.2021
370 Clouds 29 1007 8 10000 4.1 6 20:26 12.04.2021
371 Clouds 20 1006 10 10000 1.79 249 19:59 12.04.2021
372 Clouds 19 1006 11 10000 1.79 337 19:39 12.04.2021
373 Clouds 19 1006 11 10000 1.34 264 19:20 12.04.2021
374 Clouds 18 1006 12 10000 1.34 314 18:48 12.04.2021
375 Clouds 17 1005 14 10000 1.34 297 18:30 12.04.2021
376 Clouds 15 1005 16 10000 1.79 276 17:55 12.04.2021
377 Clouds 14 1005 17 10000 3.13 339 17:37 12.04.2021
378 Clouds 13 1005 18 10000 3.58 331 17:19 12.04.2021
379 Clouds 25 1007 9 10000 3.18 5 16:37 12.04.2021
380 Clouds 10 1005 21 10000 4.92 318 16:18 12.04.2021
381 Clouds 10 1004 22 10000 4.92 342 15:33 12.04.2021
382 Clouds 11 1004 21 10000 4.47 326 14:56 12.04.2021
383 Clouds 11 1004 21 10000 4.92 324 14:37 12.04.2021
384 Clouds 11 1004 21 10000 4.47 337 14:19 12.04.2021
385 Clouds 11 1004 21 10000 6.26 353 13:40 12.04.2021
386 Clouds 11 1004 21 10000 4.47 341 13:19 12.04.2021
387 Clouds 12 1004 21 10000 4.02 330 12:43 12.04.2021
388 Clouds 12 1004 22 10000 4.47 321 12:22 12.04.2021
389 Clouds 12 1004 23 10000 4.47 340 11:41 12.04.2021
390 Clouds 13 1004 23 10000 3.58 323 10:51 12.04.2021
391 Clouds 13 1004 22 10000 4.02 345 10:28 12.04.2021
392 Clouds 14 1004 21 10000 4.92 349 09:53 12.04.2021
393 Clouds 14 1004 21 10000 1.34 244 09:25 12.04.2021
394 Clouds 27 1004 11 10000 2.09 350 08:54 12.04.2021
395 Clouds 28 1004 10 10000 0.68 212 07:58 12.04.2021
396 Clouds 28 1004 10 10000 0.68 212 07:30 12.04.2021
397 Clouds 16 1003 22 10000 1.27 191 06:40 12.04.2021
398 Clouds 17 1003 19 10000 1.07 178 05:48 12.04.2021
399 Clouds 23 1001 10 10000 1.34 225 03:33 12.04.2021
400 Clouds 33 1003 6 10000 0.72 102 00:43 12.04.2021
401 Clouds 33 1003 6 10000 0.58 109 00:22 12.04.2021
402 Clouds 33 1003 6 10000 0.58 109 23:44 11.04.2021
403 Clouds 33 1004 6 10000 0.45 93 23:22 11.04.2021
404 Clouds 33 1004 6 10000 0.45 93 22:39 11.04.2021
405 Clouds 33 1004 6 10000 0.45 93 22:39 11.04.2021
406 Clouds 32 1005 7 10000 0.36 92 22:19 11.04.2021
407 Clouds 32 1005 7 10000 0.36 92 21:44 11.04.2021
408 Clouds 31 1006 7 10000 0.53 67 21:24 11.04.2021
409 Clouds 31 1006 7 10000 0.53 67 21:24 11.04.2021
410 Clouds 31 1007 8 10000 0.53 70 20:49 11.04.2021
411 Clouds 30 1007 8 10000 0.68 40 20:25 11.04.2021
412 Clouds 30 1007 8 10000 0.68 40 19:44 11.04.2021
413 Clouds 29 1008 9 10000 0.87 31 19:21 11.04.2021
414 Clouds 29 1008 9 10000 0.87 31 18:58 11.04.2021
415 Clouds 29 1008 9 10000 0.87 31 18:40 11.04.2021
416 Clouds 28 1008 10 10000 0.79 34 18:22 11.04.2021
417 Clouds 19 1006 12 10000 1.79 315 17:43 11.04.2021
418 Clouds 18 1007 13 10000 1.34 332 17:24 11.04.2021
419 Clouds 16 1006 15 10000 1.79 319 16:46 11.04.2021
420 Clouds 14 1006 17 10000 2.68 333 16:22 11.04.2021
421 Clouds 13 1006 18 10000 2.24 299 15:48 11.04.2021
422 Clouds 13 1005 17 10000 1.79 316 15:26 11.04.2021
423 Clouds 13 1005 17 10000 1.79 320 14:52 11.04.2021
424 Clouds 13 1005 16 10000 1.34 297 14:31 11.04.2021
425 Clear 12 1005 16 10000 0.89 284 13:51 11.04.2021
426 Clear 11 1005 18 10000 1.79 304 13:30 11.04.2021
427 Clear 12 1005 16 10000 1.16 354 12:49 11.04.2021
428 Clear 14 1005 15 10000 1.79 325 12:21 11.04.2021
429 Clear 12 1005 18 10000 2.24 310 11:50 11.04.2021
430 Clear 25 1006 13 10000 1.1 348 11:23 11.04.2021
431 Clear 25 1006 13 10000 1.1 348 10:48 11.04.2021
432 Clear 25 1006 13 10000 1.1 348 10:30 11.04.2021
433 Clear 26 1007 13 10000 0.91 339 09:56 11.04.2021
434 Clear 26 1007 13 10000 0.91 339 09:33 11.04.2021
435 Clear 26 1007 12 10000 0.73 311 08:51 11.04.2021
436 Clear 27 1007 11 10000 0.94 228 08:24 11.04.2021
437 Clear 27 1007 11 10000 1.4 230 07:22 11.04.2021
438 Clear 27 1007 11 10000 1.4 230 06:50 11.04.2021
439 Clear 17 1006 15 10000 0.45 136 05:42 11.04.2021
440 Clear 18 1006 14 10000 1.31 227 05:20 11.04.2021
441 Clear 20 1006 12 10000 1.31 227 04:34 11.04.2021
442 Clear 33 1006 7 10000 1.5 37 01:49 11.04.2021
443 Clear 33 1006 8 10000 1.62 33 00:34 11.04.2021
444 Clear 33 1007 8 10000 1.89 29 23:48 10.04.2021
445 Clear 32 1008 9 10000 1.8 28 23:25 10.04.2021
446 Clear 32 1008 9 10000 1.8 28 22:43 10.04.2021
447 Clear 31 1009 10 10000 1.74 20 22:20 10.04.2021
448 Clear 31 1009 10 10000 1.74 20 21:41 10.04.2021
449 Clear 30 1010 11 10000 1.26 15 21:21 10.04.2021
450 Clear 30 1010 11 10000 1.26 15 20:46 10.04.2021
451 Clouds 29 1010 13 10000 1.26 25 20:23 10.04.2021
452 Clouds 29 1010 13 10000 1.26 25 19:45 10.04.2021
453 Clouds 27 1011 15 10000 0.97 71 19:25 10.04.2021
454 Clouds 27 1011 15 10000 0.97 71 18:51 10.04.2021
455 Clear 26 1011 17 10000 0.79 140 18:29 10.04.2021
456 Clear 17 1010 16 10000 1.34 314 17:38 10.04.2021
457 Clear 16 1010 16 10000 2.24 326 17:20 10.04.2021
458 Clear 12 1010 21 10000 2.68 316 16:30 10.04.2021
459 Clear 12 1009 22 10000 1.34 320 15:55 10.04.2021
460 Clear 12 1009 22 10000 3.13 302 15:29 10.04.2021
461 Clear 13 1008 21 10000 2.68 326 14:45 10.04.2021
462 Clear 13 1008 22 10000 2.24 223 14:19 10.04.2021
463 Clear 13 1008 24 10000 2.24 310 13:43 10.04.2021
464 Clear 12 1009 26 10000 0.45 331 12:55 10.04.2021
465 Clear 12 1009 25 10000 1.79 346 12:34 10.04.2021
466 Clear 12 1009 27 10000 0.45 266 11:52 10.04.2021
467 Clear 24 1009 17 10000 0.14 175 11:26 10.04.2021
468 Clear 24 1009 17 10000 0.14 175 10:52 10.04.2021
469 Clear 24 1009 17 10000 0.14 175 10:31 10.04.2021
470 Clear 25 1009 15 10000 0.75 191 09:52 10.04.2021
471 Clear 26 1009 15 10000 1.06 170 09:28 10.04.2021
472 Clear 25 1009 15 10000 1.03 168 08:49 10.04.2021
473 Clear 26 1009 14 10000 1.23 140 08:29 10.04.2021
474 Clear 26 1009 14 10000 1.23 140 08:29 10.04.2021
475 Clear 26 1009 14 10000 1.23 140 07:50 10.04.2021
476 Clear 27 1009 13 10000 0.88 162 07:21 10.04.2021
477 Clear 27 1009 13 10000 0.5 189 06:26 10.04.2021
478 Clear 19 1008 16 10000 0.12 231 04:42 10.04.2021
479 Clear 23 1008 12 10000 1.79 143 02:54 10.04.2021
480 Clear 23 1008 12 10000 1.79 204 02:35 10.04.2021
481 Clouds 31 1010 8 10000 0.79 105 00:50 10.04.2021
482 Clouds 31 1011 8 10000 0.65 87 00:29 10.04.2021
483 Clouds 31 1011 8 10000 0.65 87 23:44 09.04.2021
484 Clouds 31 1012 8 10000 0.93 66 23:19 09.04.2021
485 Clouds 31 1012 8 10000 0.93 66 22:42 09.04.2021
486 Clouds 30 1013 9 10000 1.49 27 22:24 09.04.2021
487 Clouds 30 1013 9 10000 1.49 27 21:39 09.04.2021
488 Clouds 29 1014 9 10000 2.1 20 21:19 09.04.2021
489 Clouds 29 1014 9 10000 2.1 20 20:45 09.04.2021
490 Clouds 28 1014 9 10000 2.81 12 20:23 09.04.2021
491 Clouds 28 1014 9 10000 2.81 12 19:57 09.04.2021
492 Clouds 20 1013 13 10000 1.34 209 19:38 09.04.2021
493 Clouds 18 1013 14 10000 2.92 10 19:20 09.04.2021
494 Clouds 18 1013 15 10000 0.89 256 18:41 09.04.2021
495 Clear 18 1013 15 10000 1.79 340 18:19 09.04.2021
496 Clear 16 1012 17 10000 1.34 271 17:41 09.04.2021
497 Clear 15 1012 18 10000 1.79 322 17:21 09.04.2021
498 Clear 12 1012 22 10000 1.34 326 16:39 09.04.2021
499 Clear 11 1012 24 10000 2.24 347 15:59 09.04.2021
500 Clear 11 1012 24 10000 1.79 344 15:40 09.04.2021
501 Clear 11 1012 24 10000 2.24 343 15:19 09.04.2021
502 Clear 12 1011 23 10000 1.79 312 14:42 09.04.2021
503 Clear 12 1011 21 10000 2.24 332 13:57 09.04.2021
504 Clear 12 1011 21 10000 1.79 331 13:38 09.04.2021
505 Clear 12 1011 21 10000 2.68 322 13:19 09.04.2021
506 Clear 12 1011 20 10000 3.13 349 12:39 09.04.2021
507 Clear 13 1011 18 10000 2.24 6 11:48 09.04.2021
508 Clear 13 1011 18 10000 1.79 343 11:23 09.04.2021
509 Clear 13 1011 17 10000 1.79 264 10:50 09.04.2021
510 Clear 14 1011 16 10000 1.34 271 10:30 09.04.2021
511 Clear 14 1011 14 10000 1.79 322 09:51 09.04.2021
512 Clear 15 1011 11 10000 2.68 328 09:26 09.04.2021
513 Clear 16 1011 9 10000 2.68 297 08:54 09.04.2021
514 Clear 17 1010 8 10000 4.02 351 08:23 09.04.2021
515 Clear 27 1011 13 10000 3.33 25 07:21 09.04.2021
516 Clear 28 1010 16 10000 1.45 357 06:21 09.04.2021
517 Clear 30 1009 14 10000 0.42 226 03:54 09.04.2021
518 Clear 30 1009 14 10000 0.42 226 03:30 09.04.2021
519 Clouds 32 1009 14 10000 1.67 24 00:38 09.04.2021
520 Clouds 32 1009 15 10000 1.45 38 00:20 09.04.2021
521 Clouds 32 1009 15 10000 1.45 38 23:31 08.04.2021
522 Clouds 31 1010 15 10000 1.33 44 22:47 08.04.2021
523 Clouds 31 1011 17 10000 1.44 32 22:27 08.04.2021
524 Clouds 31 1011 17 10000 1.44 32 21:58 08.04.2021
525 Clouds 31 1011 17 10000 1.44 32 21:40 08.04.2021
526 Clouds 31 1011 17 10000 1.44 32 21:40 08.04.2021
527 Clouds 30 1012 19 10000 1.51 32 21:21 08.04.2021
528 Clouds 30 1012 19 10000 1.51 32 20:54 08.04.2021
529 Clouds 30 1012 19 10000 1.51 32 20:34 08.04.2021
530 Clouds 29 1012 21 10000 0.66 40 19:58 08.04.2021
531 Clouds 27 1012 24 10000 0.56 62 19:25 08.04.2021
532 Clouds 27 1012 24 10000 0.56 62 18:57 08.04.2021
533 Clouds 27 1012 24 10000 0.56 62 18:38 08.04.2021
534 Clouds 26 1012 26 10000 0.17 40 18:19 08.04.2021
535 Clouds 17 1011 22 10000 1.34 329 17:40 08.04.2021
536 Clouds 16 1011 23 10000 1.79 336 17:18 08.04.2021
537 Clouds 14 1011 25 10000 2.24 324 16:43 08.04.2021
538 Clouds 13 1010 26 10000 1.34 262 16:22 08.04.2021
539 Clouds 12 1010 28 10000 4.02 342 15:43 08.04.2021
540 Clouds 12 1010 29 10000 3.58 332 15:23 08.04.2021
541 Clouds 8 1010 39 10000 0.45 323 14:42 08.04.2021
542 Clouds 23 1010 31 10000 0.75 210 14:20 08.04.2021
543 Clouds 9 1010 37 10000 0.75 210 13:46 08.04.2021
544 Clouds 11 1009 35 10000 1.03 203 13:23 08.04.2021
545 Clouds 23 1010 30 10000 1.03 203 12:53 08.04.2021
546 Clouds 9 1010 36 10000 1.03 203 12:33 08.04.2021
547 Clouds 10 1010 35 10000 0.45 294 11:57 08.04.2021
548 Clouds 11 1011 32 10000 1.43 209 11:25 08.04.2021
549 Clouds 13 1011 31 10000 0.45 308 10:51 08.04.2021
550 Clouds 11 1011 33 10000 1.61 214 10:25 08.04.2021
551 Clouds 11 1011 33 10000 1.61 214 10:25 08.04.2021
552 Clouds 12 1011 32 10000 0.45 289 09:44 08.04.2021
553 Clouds 12 1011 31 10000 0.45 289 09:25 08.04.2021
554 Clouds 13 1011 28 10000 2.11 209 08:40 08.04.2021
555 Clouds 13 1011 28 10000 1.34 98 08:22 08.04.2021
556 Clouds 15 1011 24 10000 1.8 191 07:43 08.04.2021
557 Clouds 17 1009 20 10000 2.23 164 05:45 08.04.2021
558 Clouds 26 1011 12 10000 2.24 186 01:25 08.04.2021
559 Clouds 32 1010 9 10000 2.06 150 00:31 08.04.2021
560 Clouds 32 1011 10 10000 2.24 145 23:48 07.04.2021
561 Clouds 31 1012 11 10000 1.79 146 23:25 07.04.2021
562 Clouds 31 1012 11 10000 1.79 146 22:57 07.04.2021
563 Clouds 31 1012 11 10000 1.79 146 22:38 07.04.2021
564 Clouds 31 1013 13 10000 1.38 147 22:20 07.04.2021
565 Clouds 31 1013 13 10000 1.38 147 21:34 07.04.2021
566 Clouds 30 1014 14 10000 1.25 147 20:54 07.04.2021
567 Clouds 28 1014 15 10000 1.06 154 20:29 07.04.2021
568 Clouds 28 1014 15 10000 1.06 154 19:52 07.04.2021
569 Clouds 28 1014 15 10000 1.06 154 19:34 07.04.2021
570 Clouds 27 1015 17 10000 1.12 162 18:59 07.04.2021
571 Clouds 27 1015 17 10000 1.12 162 18:41 07.04.2021
572 Clouds 26 1015 19 10000 1.47 176 18:18 07.04.2021
573 Clouds 13 1015 30 10000 1.47 176 17:45 07.04.2021
574 Clouds 11 1015 33 10000 0.79 163 17:26 07.04.2021
575 Clouds 25 1015 19 10000 0.79 163 16:45 07.04.2021
576 Clouds 22 1014 22 10000 0.82 139 16:21 07.04.2021
577 Clouds 22 1014 22 10000 0.82 139 15:53 07.04.2021
578 Clouds 22 1014 22 10000 0.82 139 15:53 07.04.2021
579 Clouds 22 1014 22 10000 0.82 139 15:32 07.04.2021
580 Clouds 22 1013 24 10000 1.33 147 14:47 07.04.2021
581 Clouds 22 1013 23 10000 0.96 152 14:24 07.04.2021
582 Clouds 22 1013 24 10000 0.67 161 13:45 07.04.2021
583 Clouds 23 1013 22 10000 0.72 133 13:20 07.04.2021
584 Clouds 23 1013 22 10000 0.72 133 12:46 07.04.2021
585 Clouds 23 1013 22 10000 0.77 150 12:19 07.04.2021
586 Clouds 23 1013 22 10000 0.77 150 11:45 07.04.2021
587 Clouds 24 1013 20 10000 1.33 176 11:22 07.04.2021
588 Clouds 24 1013 20 10000 1.33 176 10:50 07.04.2021
589 Clouds 25 1013 18 10000 0.98 183 09:51 07.04.2021
590 Clouds 25 1013 16 10000 1.32 184 09:28 07.04.2021
591 Clouds 25 1013 16 10000 1.32 184 08:53 07.04.2021
592 Clouds 25 1013 16 10000 1.38 175 08:32 07.04.2021
593 Clouds 13 1014 31 10000 1.82 182 07:54 07.04.2021
594 Clouds 26 1013 14 10000 1.24 183 07:29 07.04.2021
595 Clouds 26 1013 14 10000 1.24 183 06:44 07.04.2021
596 Clouds 26 1012 14 10000 1.17 179 06:18 07.04.2021
597 Clouds 20 1011 13 10000 1.34 252 03:32 07.04.2021
598 Clouds 30 1011 9 10000 0.88 92 23:52 06.04.2021
599 Clouds 29 1012 10 10000 0.86 88 23:23 06.04.2021
600 Clouds 29 1012 10 10000 0.86 88 22:59 06.04.2021
601 Clouds 28 1012 10 10000 0.68 57 22:22 06.04.2021
602 Clouds 28 1012 10 10000 0.68 57 21:57 06.04.2021
603 Clouds 28 1012 10 10000 0.68 57 21:38 06.04.2021
604 Clouds 27 1013 10 10000 1.25 40 21:20 06.04.2021
605 Clouds 27 1013 10 10000 1.25 40 20:50 06.04.2021
606 Clear 26 1013 11 10000 1.83 31 20:21 06.04.2021
607 Clouds 26 1013 12 10000 1.91 27 19:49 06.04.2021
608 Clouds 19 1012 14 10000 0.45 277 19:30 06.04.2021
609 Clear 17 1012 17 10000 0.45 259 18:47 06.04.2021
610 Clouds 15 1011 21 10000 1.34 305 18:24 06.04.2021
611 Clouds 14 1011 23 10000 2.24 324 17:51 06.04.2021
612 Clouds 13 1011 24 10000 1.79 331 17:29 06.04.2021
613 Clouds 11 1010 27 10000 1.34 334 16:56 06.04.2021
614 Clouds 11 1010 28 10000 0.89 334 16:38 06.04.2021
615 Clouds 9 1009 30 10000 1.79 239 15:41 06.04.2021
616 Clouds 9 1009 30 10000 1.79 239 15:20 06.04.2021
617 Clouds 10 1009 30 10000 3.13 343 14:39 06.04.2021
618 Clouds 9 1009 30 10000 4.47 333 14:19 06.04.2021
619 Clouds 10 1008 31 10000 2.68 248 13:44 06.04.2021
620 Clouds 11 1008 30 10000 2.68 312 13:25 06.04.2021
621 Clouds 10 1008 31 10000 1.34 329 12:42 06.04.2021
622 Clouds 11 1008 31 10000 1.79 326 12:22 06.04.2021
623 Clouds 11 1008 30 10000 3.13 358 11:52 06.04.2021
624 Clouds 11 1008 29 10000 2.68 318 11:21 06.04.2021
625 Clouds 11 1007 29 10000 3.13 336 10:48 06.04.2021
626 Clouds 11 1007 28 10000 1.79 341 10:29 06.04.2021
627 Clouds 11 1007 27 10000 1.34 311 09:57 06.04.2021
628 Clouds 11 1007 27 10000 0.89 344 09:36 06.04.2021
629 Clouds 13 1006 26 10000 1.62 344 08:45 06.04.2021
630 Clouds 13 1006 26 10000 0.6 306 08:45 06.04.2021
631 Clouds 14 1006 24 10000 1.75 334 08:19 06.04.2021
632 Clouds 15 1005 22 10000 1.79 254 06:56 06.04.2021
633 Clouds 16 1005 23 10000 0.89 316 06:20 06.04.2021
634 Clear 23 1003 9 10000 2.24 308 02:59 06.04.2021
635 Clear 25 1003 7 10000 4.02 286 00:46 06.04.2021
636 Clear 25 1002 6 10000 2.68 241 00:21 06.04.2021
637 Clear 26 1003 6 10000 3.58 243 23:44 05.04.2021
638 Clear 26 1003 6 10000 4.02 359 23:24 05.04.2021
639 Clear 33 1003 8 10000 1.23 164 22:53 05.04.2021
640 Clear 27 1003 4 10000 3.13 245 22:32 05.04.2021
641 Clear 32 1005 9 10000 1.85 176 21:45 05.04.2021
642 Clear 31 1006 10 10000 2.24 171 21:23 05.04.2021
643 Clear 31 1006 10 10000 2.24 171 20:48 05.04.2021
644 Clear 31 1006 10 10000 2.09 167 20:30 05.04.2021
645 Clear 21 1005 12 10000 2.24 68 19:44 05.04.2021
646 Clear 21 1006 13 10000 2.24 29 19:25 05.04.2021
647 Clear 20 1005 13 10000 2.68 30 18:57 05.04.2021
648 Clear 20 1006 13 10000 1.79 40 18:38 05.04.2021
649 Clear 27 1008 14 10000 2.34 178 18:19 05.04.2021
650 Clear 18 1006 15 10000 1.34 54 17:46 05.04.2021
651 Clear 15 1006 17 10000 2.06 175 17:21 05.04.2021
652 Clear 15 1006 17 10000 2.06 175 17:21 05.04.2021
653 Clear 26 1008 16 10000 2.06 175 16:44 05.04.2021
654 Clear 9 1006 24 10000 1.75 190 16:21 05.04.2021
655 Clear 10 1006 22 10000 1.75 190 15:56 05.04.2021
656 Clear 11 1006 20 10000 0.45 68 15:30 05.04.2021
657 Clear 11 1006 20 10000 0.89 71 14:58 05.04.2021
658 Clear 11 1006 20 10000 1.34 87 14:35 05.04.2021
659 Clouds 12 1006 18 10000 0.45 102 13:40 05.04.2021
660 Clouds 12 1006 18 10000 0.45 102 13:40 05.04.2021
661 Clouds 13 1007 19 10000 0.45 75 13:22 05.04.2021
662 Clouds 11 1007 21 10000 2.02 181 12:45 05.04.2021
663 Clouds 25 1008 16 10000 1.92 189 12:22 05.04.2021
664 Clouds 25 1008 16 10000 1.92 189 11:45 05.04.2021
665 Clouds 26 1008 15 10000 1.93 185 11:27 05.04.2021
666 Clouds 26 1008 15 10000 1.93 185 10:46 05.04.2021
667 Clouds 27 1009 13 10000 2.4 194 10:28 05.04.2021
668 Clouds 27 1009 13 10000 2.4 194 09:48 05.04.2021
669 Clouds 28 1008 11 10000 2.55 176 09:25 05.04.2021
670 Clouds 15 1008 18 10000 0.89 119 08:45 05.04.2021
671 Clouds 16 1008 18 10000 2.11 176 08:26 05.04.2021
672 Clouds 16 1008 19 10000 2.11 176 07:38 05.04.2021
673 Clouds 18 1008 17 10000 2.1 175 06:40 05.04.2021
674 Clouds 27 1009 5 10000 2.24 114 02:36 05.04.2021
675 Clouds 35 1009 6 10000 1.87 147 00:53 05.04.2021
676 Clouds 34 1010 7 10000 1.69 133 23:52 04.04.2021
677 Clouds 34 1010 7 10000 1.69 133 23:30 04.04.2021
678 Clouds 34 1012 7 10000 1.38 125 22:54 04.04.2021
679 Clouds 34 1012 7 10000 1.38 125 22:31 04.04.2021
680 Clouds 33 1013 8 10000 1.1 122 21:48 04.04.2021
681 Clear 32 1014 9 10000 0.68 124 21:21 04.04.2021
682 Clear 32 1014 9 10000 0.68 124 20:42 04.04.2021
683 Clear 30 1015 11 10000 0.58 127 20:20 04.04.2021
684 Clear 30 1015 11 10000 0.58 127 20:20 04.04.2021
685 Clear 22 1014 6 10000 1.34 268 19:40 04.04.2021
686 Clear 22 1014 6 10000 2.68 243 19:19 04.04.2021
687 Clear 21 1014 7 10000 1.79 256 18:49 04.04.2021
688 Clear 20 1014 8 10000 2.24 281 18:24 04.04.2021
689 Clear 19 1014 9 10000 1.79 227 17:56 04.04.2021
690 Clear 18 1014 11 10000 3.13 4 17:25 04.04.2021
691 Clear 16 1014 13 10000 1.34 316 16:54 04.04.2021
692 Clear 26 1015 14 10000 0.24 221 16:33 04.04.2021
693 Clear 23 1014 18 10000 0.55 182 15:51 04.04.2021
694 Clear 23 1014 18 10000 0.55 182 15:31 04.04.2021
695 Clear 22 1013 19 10000 0.63 169 14:39 04.04.2021
696 Clouds 23 1013 18 10000 1.3 165 14:19 04.04.2021
697 Clouds 24 1013 17 10000 1.31 171 13:27 04.04.2021
698 Clouds 24 1013 17 10000 1.31 171 12:51 04.04.2021
699 Clouds 25 1013 16 10000 1.52 175 12:28 04.04.2021
700 Clouds 25 1013 16 10000 1.52 175 11:49 04.04.2021
701 Clouds 25 1013 16 10000 1.52 175 11:30 04.04.2021
702 Clouds 26 1013 15 10000 1.88 170 10:47 04.04.2021
703 Clouds 27 1013 14 10000 2.1 177 10:24 04.04.2021
704 Clouds 27 1013 14 10000 2.1 177 09:48 04.04.2021
705 Clouds 28 1013 13 10000 2.17 176 09:21 04.04.2021
706 Clouds 28 1013 13 10000 2.17 176 08:45 04.04.2021
707 Clouds 28 1014 12 10000 1.71 169 08:26 04.04.2021
708 Clouds 19 1015 9 10000 0.89 133 06:40 04.04.2021
709 Clouds 18 1014 9 10000 1.38 171 05:44 04.04.2021
710 Clouds 18 1014 9 10000 1.38 171 05:44 04.04.2021
711 Clear 26 1014 5 10000 2.24 233 02:59 04.04.2021
712 Clear 35 1012 6 10000 1.12 154 00:55 04.04.2021
713 Clear 34 1013 7 10000 1.41 145 00:18 04.04.2021
714 Clear 34 1013 7 10000 1.41 145 23:41 03.04.2021
715 Clear 34 1014 8 10000 1.6 150 22:56 03.04.2021
716 Clear 34 1014 8 10000 1.6 150 22:38 03.04.2021
717 Clear 33 1015 9 10000 1.56 153 22:19 03.04.2021
718 Clear 33 1015 9 10000 1.56 153 21:46 03.04.2021
719 Clear 32 1015 11 10000 1.37 156 21:23 03.04.2021
720 Clear 32 1015 11 10000 1.37 156 20:48 03.04.2021
721 Clear 30 1016 13 10000 1.26 160 20:26 03.04.2021
722 Clear 30 1016 12 10000 1.18 160 19:48 03.04.2021
723 Clear 29 1016 13 10000 0.88 164 19:24 03.04.2021
724 Clear 21 1016 10 10000 0.88 164 18:46 03.04.2021
725 Clear 19 1016 11 10000 0.93 163 18:23 03.04.2021
726 Clear 17 1016 14 10000 0.93 163 17:50 03.04.2021
727 Clear 13 1016 18 10000 0.83 187 17:21 03.04.2021
728 Clear 26 1016 16 10000 0.83 187 16:49 03.04.2021
729 Clouds 23 1015 20 10000 1.18 170 16:21 03.04.2021
730 Clouds 23 1015 20 10000 1.18 170 15:48 03.04.2021
731 Clouds 22 1014 20 10000 1.37 169 15:22 03.04.2021
732 Clouds 22 1014 20 10000 1.37 169 14:44 03.04.2021
733 Clear 23 1014 19 10000 1.54 156 14:23 03.04.2021
734 Clear 23 1013 19 10000 1.31 156 13:50 03.04.2021
735 Clear 24 1013 17 10000 1.2 162 13:24 03.04.2021
736 Clear 24 1013 17 10000 1.2 162 12:56 03.04.2021
737 Clear 24 1013 17 10000 1.2 162 12:32 03.04.2021
738 Clear 25 1013 16 10000 1.46 165 11:39 03.04.2021
739 Clear 25 1013 16 10000 1.46 165 11:39 03.04.2021
740 Clear 25 1013 15 10000 1.69 172 11:19 03.04.2021
741 Clear 12 1014 12 10000 1.69 172 10:43 03.04.2021
742 Clear 26 1013 13 10000 1.93 168 10:22 03.04.2021
743 Clear 27 1013 12 10000 1.74 168 09:29 03.04.2021
744 Clear 27 1013 12 10000 1.74 168 08:58 03.04.2021
745 Clear 27 1013 12 10000 1.74 168 08:31 03.04.2021
746 Clear 28 1012 10 10000 2.16 164 07:29 03.04.2021
747 Clear 28 1012 10 10000 2.16 164 06:50 03.04.2021
748 Clear 30 1011 8 10000 1.27 154 03:53 03.04.2021
749 Clear 33 1011 6 10000 1.73 158 02:53 03.04.2021
750 Clear 33 1010 5 10000 1.64 150 02:27 03.04.2021
751 Clear 33 1010 5 10000 1.69 142 00:31 03.04.2021
752 Clear 33 1011 5 10000 1.53 141 23:55 02.04.2021
753 Clear 33 1012 5 10000 1.29 139 23:27 02.04.2021
754 Clear 33 1012 5 10000 1.29 139 22:56 02.04.2021
755 Clear 33 1012 5 10000 1.29 139 22:37 02.04.2021
756 Clear 32 1013 5 10000 0.93 134 21:56 02.04.2021
757 Clear 32 1013 5 10000 0.93 134 21:38 02.04.2021
758 Clear 31 1013 6 10000 0.65 110 21:18 02.04.2021
759 Clear 31 1013 6 10000 0.65 110 20:38 02.04.2021
760 Clear 30 1014 6 10000 0.48 68 20:18 02.04.2021
761 Clear 30 1014 6 10000 0.48 68 19:40 02.04.2021
762 Clear 28 1014 6 10000 0.63 31 19:22 02.04.2021
763 Clear 21 1014 7 10000 0.89 106 18:43 02.04.2021
764 Clear 19 1014 8 10000 0.45 106 18:23 02.04.2021
765 Clear 16 1014 11 10000 0.48 4 17:54 02.04.2021
766 Clear 13 1014 13 10000 0.22 14 17:22 02.04.2021
767 Clear 21 1013 11 10000 0.26 14 16:24 02.04.2021
768 Clear 21 1013 11 10000 0.26 14 15:43 02.04.2021
769 Clear 20 1012 11 10000 0.52 328 15:19 02.04.2021
770 Clear 20 1012 11 10000 0.52 328 14:33 02.04.2021
771 Clear 21 1011 11 10000 0.68 327 13:50 02.04.2021
772 Clear 21 1011 11 10000 0.46 345 13:27 02.04.2021
773 Clear 21 1011 11 10000 0.46 345 12:53 02.04.2021
774 Clear 22 1011 11 10000 0.4 320 12:21 02.04.2021
775 Clear 22 1011 11 10000 0.4 320 11:58 02.04.2021
776 Clear 22 1011 11 10000 0.4 320 11:38 02.04.2021
777 Clear 22 1011 10 10000 0.31 258 11:18 02.04.2021
778 Clear 22 1011 10 10000 0.31 258 10:42 02.04.2021
779 Clear 23 1011 10 10000 0.49 181 10:20 02.04.2021
780 Clear 23 1011 10 10000 0.49 181 09:39 02.04.2021
781 Clear 23 1012 10 10000 0.94 175 09:20 02.04.2021
782 Clear 23 1012 10 10000 0.94 175 08:44 02.04.2021
783 Clouds 23 1012 9 10000 0.8 154 08:22 02.04.2021
784 Clouds 24 1012 9 10000 0.51 155 07:20 02.04.2021
785 Clouds 24 1012 9 10000 0.51 155 06:31 02.04.2021
786 Clouds 23 1012 4 10000 0.89 123 03:25 02.04.2021
787 Clouds 30 1011 5 10000 1.56 158 01:31 02.04.2021
788 Clear 30 1011 5 10000 0.66 143 00:38 02.04.2021
789 Clear 30 1012 5 10000 1.09 116 23:44 01.04.2021
790 Clear 29 1013 5 10000 0.72 63 23:26 01.04.2021
791 Clear 29 1015 6 10000 0.98 41 22:22 01.04.2021
792 Clear 29 1015 6 10000 0.98 41 21:59 01.04.2021
793 Clear 29 1015 6 10000 0.98 41 21:40 01.04.2021
794 Clear 27 1016 6 10000 1.5 21 21:20 01.04.2021
795 Clear 27 1016 6 10000 1.5 21 20:40 01.04.2021
796 Clear 26 1016 7 10000 1.83 17 20:21 01.04.2021
797 Clear 26 1016 7 10000 1.83 17 19:41 01.04.2021
798 Clear 25 1017 8 10000 1.92 18 19:18 01.04.2021
799 Clear 25 1017 8 10000 1.92 18 18:43 01.04.2021
800 Clear 16 1018 7 10000 0.89 87 18:18 01.04.2021
801 Clear 13 1018 9 10000 0.45 299 17:39 01.04.2021
802 Clear 11 1018 11 10000 1.27 2 17:21 01.04.2021
803 Clear 9 1018 12 10000 1.27 2 16:47 01.04.2021
804 Clouds 19 1018 12 10000 1.49 356 15:59 01.04.2021
805 Clouds 19 1018 12 10000 1.49 356 15:39 01.04.2021
806 Clear 18 1017 13 10000 1.42 356 15:19 01.04.2021
807 Clear 18 1017 13 10000 1.42 356 14:39 01.04.2021
808 Clear 6 1018 14 10000 1.56 358 14:20 01.04.2021
809 Clear 7 1019 12 10000 1.56 358 13:48 01.04.2021
810 Clear 6 1019 13 10000 0.45 331 13:28 01.04.2021
811 Clear 18 1018 12 10000 1.17 356 12:47 01.04.2021
812 Clear 19 1019 12 10000 1.44 356 12:28 01.04.2021
813 Clear 19 1019 12 10000 1.44 356 11:45 01.04.2021
814 Clear 19 1019 11 10000 1.14 352 11:20 01.04.2021
815 Clear 19 1019 11 10000 1.14 352 10:50 01.04.2021
816 Clear 19 1019 11 10000 1.14 352 10:31 01.04.2021
817 Clear 19 1020 11 10000 0.9 349 09:52 01.04.2021
818 Clear 20 1020 11 10000 0.99 355 09:23 01.04.2021
819 Clear 20 1020 11 10000 1.05 356 08:33 01.04.2021
820 Clear 21 1021 9 10000 1.41 345 07:24 01.04.2021
821 Clear 21 1021 9 10000 1.41 345 06:59 01.04.2021
822 Clear 10 1021 8 10000 1.41 345 06:31 01.04.2021
823 Clear 19 1020 2 10000 1.34 50 03:28 01.04.2021
824 Clear 26 1020 6 10000 2.45 346 00:38 01.04.2021
825 Clear 26 1021 7 10000 3.11 350 23:44 31.03.2021
826 Clear 25 1023 7 10000 3.29 357 22:59 31.03.2021
827 Clear 25 1023 7 10000 3.29 357 22:40 31.03.2021
828 Clear 25 1024 8 10000 3.63 6 22:20 31.03.2021
829 Clear 25 1024 8 10000 3.63 6 21:44 31.03.2021
830 Clear 24 1025 9 10000 4.13 11 21:23 31.03.2021
831 Clear 24 1025 9 10000 4.13 11 20:44 31.03.2021
832 Clear 23 1025 9 10000 4.72 9 20:24 31.03.2021
833 Clear 23 1025 9 10000 4.72 9 19:59 31.03.2021
834 Clear 16 1024 10 10000 2.68 50 19:36 31.03.2021
835 Clear 22 1026 10 10000 4.77 6 19:18 31.03.2021
836 Clear 14 1025 10 10000 0.89 18 18:43 31.03.2021
837 Clear 12 1025 11 10000 1.34 325 17:57 31.03.2021
838 Clear 11 1025 12 10000 1.34 350 17:36 31.03.2021
839 Clear 9 1025 14 10000 2.68 337 16:58 31.03.2021
840 Clear 8 1025 14 10000 2.68 345 16:38 31.03.2021
841 Clear 8 1024 15 10000 2.68 344 16:19 31.03.2021
842 Clear 8 1024 15 10000 2.68 344 16:19 31.03.2021
843 Clear 7 1024 15 10000 3.13 354 15:50 31.03.2021
844 Clear 7 1024 14 10000 2.68 351 15:19 31.03.2021
845 Clear 8 1023 14 10000 3.58 360 14:44 31.03.2021
846 Clear 8 1023 13 10000 1.79 360 14:22 31.03.2021
847 Clear 8 1023 12 10000 1.79 336 13:42 31.03.2021
848 Clear 8 1023 12 10000 3.58 341 13:18 31.03.2021
849 Clear 8 1023 12 10000 4.47 356 12:36 31.03.2021
850 Clear 8 1023 12 10000 3.58 342 12:18 31.03.2021
851 Clear 9 1023 10 10000 2.68 356 11:21 31.03.2021
852 Clear 9 1022 10 10000 2.68 340 10:47 31.03.2021
853 Clear 10 1022 10 10000 2.68 343 10:26 31.03.2021
854 Clear 10 1022 10 10000 3.58 21 09:45 31.03.2021
855 Clear 11 1022 9 10000 3.13 347 09:26 31.03.2021
856 Clear 11 1021 8 10000 1.34 353 08:39 31.03.2021
857 Clear 11 1021 8 10000 1.79 333 07:58 31.03.2021
858 Clear 11 1020 8 10000 2.24 27 06:50 31.03.2021
859 Clear 12 1018 7 10000 1.34 358 04:34 31.03.2021
860 Clear 25 1016 6 10000 5.76 0 02:32 31.03.2021
861 Clear 26 1015 6 10000 5.88 354 00:54 31.03.2021
862 Clear 25 1016 6 10000 5.97 354 00:22 31.03.2021
863 Clear 25 1016 6 10000 5.97 354 23:54 30.03.2021
864 Clear 25 1017 6 10000 6.07 356 23:22 30.03.2021
865 Clear 25 1017 6 10000 6.07 356 22:49 30.03.2021
866 Clear 25 1017 6 10000 6.07 356 22:30 30.03.2021
867 Clear 24 1018 7 10000 5.66 2 21:56 30.03.2021
868 Clear 22 1018 8 10000 5.75 8 21:25 30.03.2021
869 Clear 22 1018 8 10000 5.74 10 20:58 30.03.2021
870 Clear 22 1018 8 10000 5.74 10 20:30 30.03.2021
871 Clear 14 1016 12 10000 3.58 327 19:55 30.03.2021
872 Clear 13 1016 12 10000 4.47 349 19:36 30.03.2021
873 Clear 12 1015 13 10000 4.02 341 18:55 30.03.2021
874 Clear 10 1015 15 10000 4.92 360 18:26 30.03.2021
875 Clear 8 1015 17 10000 6.26 356 17:45 30.03.2021
876 Clear 7 1014 22 10000 1.79 318 17:26 30.03.2021
877 Clear 6 1014 21 10000 7.15 314 16:47 30.03.2021
878 Clear 17 1016 19 10000 3.92 358 16:27 30.03.2021
879 Clear 17 1016 19 10000 3.92 358 15:37 30.03.2021
880 Clear 17 1014 19 10000 3.83 358 15:18 30.03.2021
881 Clear 6 1012 29 10000 3.58 308 14:45 30.03.2021
882 Clear 18 1013 20 10000 3.65 353 14:20 30.03.2021
883 Clear 18 1013 20 10000 3.65 353 13:47 30.03.2021
884 Clear 19 1012 22 10000 3.87 358 13:24 30.03.2021
885 Clear 7 1010 32 10000 2.24 287 12:41 30.03.2021
886 Clear 19 1011 23 10000 3.58 5 12:20 30.03.2021
887 Clear 8 1010 33 10000 5.36 331 11:43 30.03.2021
888 Clear 20 1011 23 10000 3.61 12 11:19 30.03.2021
889 Clear 20 1011 23 10000 3.61 12 10:41 30.03.2021
890 Clear 21 1009 21 10000 3.53 16 10:19 30.03.2021
891 Clear 10 1008 30 10000 3.13 337 09:41 30.03.2021
892 Clear 10 1008 30 10000 3.13 337 09:41 30.03.2021
893 Clear 11 1008 29 10000 3.58 347 09:21 30.03.2021
894 Clear 12 1007 26 10000 4.47 347 08:42 30.03.2021
895 Clear 14 1007 20 10000 4.02 337 07:56 30.03.2021
896 Clear 14 1007 18 10000 2.68 318 07:31 30.03.2021
897 Clear 16 1006 12 10000 4.02 5 06:29 30.03.2021
898 Clear 15 1005 12 10000 0.89 310 05:25 30.03.2021
899 Clear 31 1003 8 10000 1.14 44 01:44 30.03.2021
900 Clear 31 1005 8 10000 1.43 137 23:54 29.03.2021
901 Clear 30 1006 9 10000 1.9 151 23:21 29.03.2021
902 Clear 30 1006 9 10000 1.9 151 22:43 29.03.2021
903 Clear 29 1008 10 10000 1.81 154 21:55 29.03.2021
904 Clear 29 1008 10 10000 1.81 154 21:34 29.03.2021
905 Clear 28 1009 11 10000 1.1 145 20:51 29.03.2021
906 Clear 28 1009 11 10000 1.1 145 20:30 29.03.2021
907 Clear 27 1011 12 10000 0.52 116 19:56 29.03.2021
908 Clear 26 1011 13 10000 0.21 43 19:28 29.03.2021
909 Clear 26 1011 13 10000 0.21 43 18:56 29.03.2021
910 Clear 26 1011 13 10000 0.21 43 18:37 29.03.2021
911 Clear 25 1012 13 10000 0.14 299 18:18 29.03.2021
912 Clear 12 1011 22 10000 0.14 299 17:36 29.03.2021
913 Clear 23 1012 16 10000 0.12 30 16:54 29.03.2021
914 Clear 23 1012 16 10000 0.12 30 16:34 29.03.2021
915 Clear 20 1012 20 10000 0.38 174 15:43 29.03.2021
916 Clear 20 1012 20 10000 0.82 169 15:24 29.03.2021
917 Clear 20 1012 20 10000 0.82 169 14:49 29.03.2021
918 Clear 21 1012 18 10000 1.07 181 14:28 29.03.2021
919 Clear 21 1012 19 10000 1.04 176 13:47 29.03.2021
920 Clear 21 1013 17 10000 0.79 175 13:22 29.03.2021
921 Clear 21 1013 17 10000 0.79 175 12:49 29.03.2021
922 Clear 22 1014 16 10000 1.26 172 11:49 29.03.2021
923 Clear 22 1014 16 10000 1.26 172 11:30 29.03.2021
924 Clear 23 1014 15 10000 1.27 166 10:52 29.03.2021
925 Clear 23 1014 15 10000 1.27 166 10:32 29.03.2021
926 Clear 23 1015 14 10000 1.47 172 09:34 29.03.2021
927 Clear 24 1016 14 10000 1.58 166 08:51 29.03.2021
928 Clear 24 1016 14 10000 1.63 160 08:27 29.03.2021
929 Clear 25 1017 14 10000 1.75 160 07:28 29.03.2021
930 Clear 25 1017 13 10000 1.32 154 06:27 29.03.2021
931 Clear 19 1018 11 10000 1.79 233 03:43 29.03.2021
932 Clear 30 1017 8 10000 2 153 01:43 29.03.2021
933 Clear 30 1019 9 10000 1.8 155 00:22 29.03.2021
934 Clear 30 1019 9 10000 1.8 155 23:42 28.03.2021
935 Clear 29 1020 10 10000 1.64 149 23:19 28.03.2021
936 Clear 29 1020 10 10000 1.64 149 22:39 28.03.2021
937 Clear 28 1022 11 10000 1.44 144 22:20 28.03.2021
938 Clear 28 1022 11 10000 1.44 144 21:41 28.03.2021
939 Clear 27 1023 11 10000 1.16 142 21:22 28.03.2021
940 Clear 27 1023 11 10000 1.16 142 20:48 28.03.2021
941 Clear 26 1024 12 10000 0.99 145 20:29 28.03.2021
942 Clear 26 1024 12 10000 0.99 145 19:44 28.03.2021
943 Clear 25 1024 13 10000 0.78 140 19:23 28.03.2021
944 Clear 25 1024 13 10000 0.78 140 18:58 28.03.2021
945 Clear 24 1024 13 10000 0.68 140 18:27 28.03.2021
946 Clear 13 1025 19 10000 0.68 140 17:50 28.03.2021
947 Clear 9 1026 25 10000 0.35 153 17:27 28.03.2021
948 Clear 22 1025 16 10000 0.35 153 16:46 28.03.2021
949 Clear 18 1024 20 10000 0.64 143 16:23 28.03.2021
950 Clear 18 1024 20 10000 0.64 143 15:43 28.03.2021
951 Clear 18 1024 20 10000 0.88 152 15:22 28.03.2021
952 Clear 18 1024 20 10000 0.88 152 14:37 28.03.2021
953 Clear 18 1023 20 10000 0.79 149 13:49 28.03.2021
954 Clear 18 1023 20 10000 0.57 117 13:24 28.03.2021
955 Clear 18 1023 20 10000 0.57 117 12:52 28.03.2021
956 Clear 18 1023 20 10000 0.57 117 12:33 28.03.2021
957 Clear 19 1023 19 10000 0.45 97 11:49 28.03.2021
958 Clear 19 1024 18 10000 0.24 49 11:26 28.03.2021
959 Clear 19 1024 18 10000 0.24 49 10:45 28.03.2021
960 Clear 20 1024 18 10000 0.32 339 10:27 28.03.2021
961 Clear 20 1024 18 10000 0.32 339 09:49 28.03.2021
962 Clear 20 1024 18 10000 0.33 305 09:25 28.03.2021
963 Clear 20 1024 18 10000 0.33 305 08:47 28.03.2021
964 Clear 21 1024 17 10000 0.42 277 07:52 28.03.2021
965 Clear 21 1024 17 10000 0.42 277 07:33 28.03.2021
966 Clear 12 1024 17 10000 0.3 120 05:19 28.03.2021
967 Clear 26 1022 11 10000 1.73 355 01:38 28.03.2021
968 Clear 26 1022 10 10000 2.05 1 00:25 28.03.2021
969 Clear 26 1022 10 10000 2.05 1 23:48 27.03.2021
970 Clear 26 1022 10 10000 2.52 359 23:29 27.03.2021
971 Clear 26 1022 10 10000 2.52 359 22:38 27.03.2021
972 Clear 25 1023 11 10000 3.15 0 22:18 27.03.2021
973 Clear 25 1023 11 10000 3.15 0 21:41 27.03.2021
974 Clear 24 1024 12 10000 3.68 2 21:20 27.03.2021
975 Clear 24 1024 12 10000 3.68 2 20:55 27.03.2021
976 Clear 24 1024 12 10000 3.68 2 20:55 27.03.2021
977 Clear 24 1024 12 10000 3.68 2 20:36 27.03.2021
978 Clear 23 1024 14 10000 3.86 3 19:45 27.03.2021
979 Clear 22 1025 16 10000 3.74 5 19:24 27.03.2021
980 Clear 22 1025 16 10000 3.74 5 18:57 27.03.2021
981 Clear 22 1025 16 10000 3.74 5 18:38 27.03.2021
982 Clear 21 1025 18 10000 3.74 8 18:19 27.03.2021
983 Clear 20 1025 20 10000 3.19 11 17:28 27.03.2021
984 Clear 11 1025 19 10000 4.47 323 16:54 27.03.2021
985 Clear 11 1025 19 10000 5.81 325 16:36 27.03.2021
986 Clear 9 1024 20 10000 5.36 349 16:18 27.03.2021
987 Clear 7 1024 24 10000 3.58 349 15:36 27.03.2021
988 Clear 3 1024 29 10000 2.68 338 14:55 27.03.2021
989 Clear 6 1024 26 10000 0.89 326 14:23 27.03.2021
990 Clear 6 1023 26 10000 2.28 352 13:36 27.03.2021
991 Clear 7 1023 26 10000 2.24 3 13:18 27.03.2021
992 Clear 7 1022 27 10000 4.02 324 12:39 27.03.2021
993 Clear 7 1022 26 10000 4.02 357 11:48 27.03.2021
994 Clear 7 1022 26 10000 2.68 11 11:30 27.03.2021
995 Clear 6 1023 26 10000 2.68 356 10:48 27.03.2021
996 Clear 7 1022 25 10000 2.24 340 10:29 27.03.2021
997 Clear 7 1022 25 10000 2.24 25 09:42 27.03.2021
998 Clear 7 1022 25 10000 3.58 5 09:18 27.03.2021
999 Clear 7 1022 25 10000 3.58 5 09:18 27.03.2021
1000 Clear 7 1022 25 10000 3.58 5 09:18 27.03.2021
1001 Clear 8 1022 25 10000 4.02 329 08:36 27.03.2021
1002 Clear 8 1022 24 10000 4.02 345 07:48 27.03.2021
1003 Clear 8 1022 23 10000 3.58 331 06:59 27.03.2021
1004 Clear 8 1021 23 10000 3.58 338 06:39 27.03.2021
1005 Clear 7 1020 21 10000 0.89 45 04:41 27.03.2021
1006 Clear 23 1014 12 10000 7.08 335 01:36 27.03.2021
1007 Clear 23 1013 11 10000 7.8 341 00:32 27.03.2021
1008 Clear 23 1013 11 10000 7.81 346 23:59 26.03.2021
1009 Clear 23 1013 12 10000 7.86 349 23:24 26.03.2021
1010 Clear 23 1013 12 10000 7.86 349 22:39 26.03.2021
1011 Clear 22 1013 12 10000 7.81 351 21:42 26.03.2021
1012 Clear 21 1014 14 10000 7.88 353 21:23 26.03.2021
1013 Clear 13 1015 17 10000 4.47 11 20:55 26.03.2021
1014 Clear 21 1014 14 10000 7.88 353 20:31 26.03.2021
1015 Clear 20 1014 16 10000 7.9 352 19:52 26.03.2021
1016 Clear 12 1015 23 10000 1.34 355 19:33 26.03.2021
1017 Clear 9 1015 25 10000 4.92 339 18:50 26.03.2021
1018 Clear 9 1014 26 10000 3.58 333 18:30 26.03.2021
1019 Clouds 8 1014 29 10000 5.81 282 17:57 26.03.2021
1020 Clouds 7 1013 30 10000 6.71 329 17:28 26.03.2021
1021 Clouds 6 1012 33 10000 6.71 346 16:49 26.03.2021
1022 Clouds 4 1012 40 10000 1.34 306 16:22 26.03.2021
1023 Clouds 3 1012 39 10000 4.02 343 15:36 26.03.2021
1024 Clouds 2 1010 41 10000 4.47 331 14:45 26.03.2021
1025 Clouds 2 1010 43 10000 3.13 349 13:52 26.03.2021
1026 Clouds 3 1009 42 10000 3.13 343 13:26 26.03.2021
1027 Clouds 4 1009 40 10000 4.47 326 12:40 26.03.2021
1028 Clouds 3 1008 47 10000 2.24 328 11:49 26.03.2021
1029 Clouds 3 1008 50 10000 3.58 340 11:31 26.03.2021
1030 Clouds 2 1008 80 10000 0.45 314 10:44 26.03.2021
1031 Clouds 3 1008 79 10000 0.89 304 10:23 26.03.2021
1032 Clouds 3 1007 64 10000 5.36 31 09:41 26.03.2021
1033 Clouds 5 1006 51 10000 4.47 348 08:49 26.03.2021
1034 Clouds 5 1006 53 10000 6.26 345 08:31 26.03.2021
1035 Clouds 6 1005 48 10000 4.47 306 07:58 26.03.2021
1036 Clouds 7 1004 48 10000 2.68 342 07:22 26.03.2021
1037 Clouds 8 1004 45 10000 1.34 334 06:57 26.03.2021
1038 Clouds 8 1003 41 10000 1.34 302 05:33 26.03.2021
1039 Clouds 9 1002 34 10000 1.34 341 04:43 26.03.2021
1040 Clear 22 998 17 10000 0.96 336 01:36 26.03.2021
1041 Clear 23 998 17 10000 0.93 29 00:23 26.03.2021
1042 Clear 23 998 17 10000 0.93 29 23:42 25.03.2021
1043 Clear 22 999 17 10000 0.66 58 22:50 25.03.2021
1044 Clear 22 1000 18 10000 0.58 87 22:27 25.03.2021
1045 Clear 22 1000 18 10000 0.58 87 21:49 25.03.2021
1046 Clear 22 1000 18 10000 0.58 87 21:30 25.03.2021
1047 Clouds 21 1001 19 10000 0.75 112 20:42 25.03.2021
1048 Clouds 20 1002 21 10000 1.35 141 20:24 25.03.2021
1049 Clouds 20 1002 21 10000 1.35 141 19:43 25.03.2021
1050 Clouds 19 1002 23 10000 2.41 154 19:25 25.03.2021
1051 Clouds 19 1002 23 10000 2.41 154 18:46 25.03.2021
1052 Clouds 18 1003 25 10000 2.19 165 18:26 25.03.2021
1053 Clouds 18 1003 25 10000 2.19 165 18:26 25.03.2021
1054 Clouds 18 1003 25 10000 2.19 165 17:43 25.03.2021
1055 Clouds 17 1003 26 10000 1.56 156 17:24 25.03.2021
1056 Clouds 8 1002 23 10000 0.45 74 16:50 25.03.2021
1057 Clouds 4 1003 27 10000 0.84 130 16:29 25.03.2021
1058 Clouds 2 1003 30 10000 0.84 130 15:43 25.03.2021
1059 Clouds 2 1003 29 10000 1.29 143 15:20 25.03.2021
1060 Clouds 1 1003 33 10000 1.34 11 14:46 25.03.2021
1061 Clouds 15 1003 28 10000 1.51 144 13:49 25.03.2021
1062 Clouds 15 1003 25 10000 1.8 139 13:24 25.03.2021
1063 Clouds 16 1003 26 10000 1.85 146 12:44 25.03.2021
1064 Clouds 16 1004 22 10000 1.73 158 12:20 25.03.2021
1065 Clouds 16 1004 22 10000 1.73 158 11:52 25.03.2021
1066 Clouds 16 1004 22 10000 1.73 158 11:30 25.03.2021
1067 Clouds 16 1004 19 10000 1.79 146 10:55 25.03.2021
1068 Clouds 16 1005 16 10000 1.61 144 10:26 25.03.2021
1069 Clouds 16 1005 16 10000 1.61 144 09:57 25.03.2021
1070 Clouds 16 1005 16 10000 1.61 144 09:38 25.03.2021
1071 Clouds 17 1005 15 10000 1.64 159 08:57 25.03.2021
1072 Clouds 18 1006 14 10000 1.81 170 08:29 25.03.2021
1073 Clouds 18 1007 13 10000 2.1 151 07:23 25.03.2021
1074 Clouds 19 1007 12 10000 2.89 157 06:26 25.03.2021
1075 Clouds 7 1009 25 10000 2.89 157 05:49 25.03.2021
1076 Clouds 9 1010 16 10000 2.2 172 03:59 25.03.2021
1077 Clouds 22 1008 9 10000 0.92 111 00:35 25.03.2021
1078 Clouds 22 1008 9 10000 0.92 111 00:35 25.03.2021
1079 Clouds 21 1010 10 10000 0.94 19 23:55 24.03.2021
1080 Clouds 21 1010 10 10000 0.94 19 23:30 24.03.2021
1081 Clouds 21 1010 10 10000 0.94 19 23:30 24.03.2021
1082 Clouds 21 1011 10 10000 1.66 10 22:50 24.03.2021
1083 Clouds 21 1011 10 10000 1.66 10 22:30 24.03.2021
1084 Clouds 21 1012 11 10000 2.12 11 21:47 24.03.2021
1085 Clear 20 1013 12 10000 3.04 358 21:25 24.03.2021
1086 Clear 20 1013 12 10000 3.04 358 20:45 24.03.2021
1087 Clear 19 1015 14 10000 4.23 359 20:20 24.03.2021
1088 Clear 19 1015 14 10000 4.23 359 19:52 24.03.2021
1089 Clear 19 1015 14 10000 4.13 2 19:31 24.03.2021
1090 Clear 11 1018 17 10000 3.13 355 18:51 24.03.2021
1091 Clear 11 1018 17 10000 3.13 355 18:51 24.03.2021
1092 Clear 9 1018 20 10000 4.92 347 18:24 24.03.2021
1093 Clear 6 1019 30 10000 2.24 229 17:52 24.03.2021
1094 Clear 6 1019 30 10000 2.68 257 17:32 24.03.2021
1095 Clear 6 1019 30 10000 2.68 257 17:32 24.03.2021
1096 Clear 6 1019 24 10000 4.47 320 16:53 24.03.2021
1097 Clear 4 1019 27 10000 4.02 350 16:31 24.03.2021
1098 Clear 2 1019 34 10000 5.36 329 15:57 24.03.2021
1099 Clear 2 1018 34 10000 4.92 334 15:33 24.03.2021
1100 Clear 0 1018 40 10000 4.47 347 14:55 24.03.2021
1101 Clear -1 1018 44 10000 3.58 333 14:28 24.03.2021
1102 Clear -1 1018 45 10000 3.13 310 13:57 24.03.2021
1103 Clear 0 1018 41 10000 2.24 314 13:28 24.03.2021
1104 Clear 2 1018 35 10000 5.36 335 12:48 24.03.2021
1105 Clear 2 1018 36 10000 5.36 345 12:27 24.03.2021
1106 Clear 2 1018 36 10000 5.36 329 11:54 24.03.2021
1107 Clear 2 1018 36 10000 4.02 319 11:35 24.03.2021
1108 Clear 1 1019 39 10000 4.92 335 10:46 24.03.2021
1109 Clear 1 1019 40 10000 2.68 332 10:26 24.03.2021
1110 Clear 1 1019 39 10000 1.34 300 09:54 24.03.2021
1111 Clear 2 1019 36 10000 3.58 325 09:25 24.03.2021
1112 Clear 2 1019 35 10000 3.13 316 08:57 24.03.2021
1113 Clear 2 1019 35 10000 1.79 316 08:32 24.03.2021
1114 Clear 2 1019 38 10000 2.24 319 07:44 24.03.2021
1115 Clouds 3 1018 36 10000 4.92 336 07:18 24.03.2021
1116 Clouds 2 1018 36 10000 5.81 347 06:41 24.03.2021
1117 Clouds 9 1012 21 10000 6.26 343 01:24 24.03.2021
1118 Clouds 11 1011 20 10000 6.26 327 00:33 24.03.2021
1119 Clouds 20 1009 17 10000 13.55 340 23:43 23.03.2021
1120 Clouds 12 1011 17 10000 7.6 358 23:19 23.03.2021
1121 Clouds 20 1009 18 10000 12.92 342 22:44 23.03.2021
1122 Clouds 12 1010 20 10000 5.81 346 22:24 23.03.2021
1123 Clouds 20 1009 20 10000 12.57 343 21:41 23.03.2021
1124 Clouds 12 1010 23 10000 5.36 331 21:22 23.03.2021
1125 Clouds 11 1010 23 10000 7.15 340 20:44 23.03.2021
1126 Clouds 11 1010 24 10000 6.71 347 20:25 23.03.2021
1127 Clouds 10 1010 27 10000 6.26 337 19:47 23.03.2021
1128 Clouds 9 1010 31 10000 5.36 337 19:25 23.03.2021
1129 Clouds 6 1010 43 10000 6.71 333 18:43 23.03.2021
1130 Clouds 6 1010 42 10000 4.92 322 18:22 23.03.2021
1131 Clouds 6 1010 42 10000 6.71 334 17:45 23.03.2021
1132 Clouds 6 1010 48 10000 3.58 356 17:21 23.03.2021
1133 Clouds 4 1009 49 10000 5.81 343 16:39 23.03.2021
1134 Clouds 4 1008 52 10000 4.02 299 16:19 23.03.2021
1135 Clouds 3 1008 69 10000 0.45 282 15:38 23.03.2021
1136 Clouds 3 1008 70 10000 1.34 239 14:52 23.03.2021
1137 Clouds 4 1008 64 10000 3.13 328 14:21 23.03.2021
1138 Clouds 4 1008 64 10000 3.13 328 14:21 23.03.2021
1139 Clouds 4 1008 66 10000 0.89 331 13:55 23.03.2021
1140 Clouds 4 1007 66 10000 2.68 353 13:37 23.03.2021
1141 Clouds 4 1007 66 10000 4.02 341 13:18 23.03.2021
1142 Clouds 5 1007 62 10000 4.47 349 12:41 23.03.2021
1143 Clouds 6 1007 57 10000 4.47 341 12:20 23.03.2021
1144 Clouds 6 1007 53 10000 3.58 339 11:44 23.03.2021
1145 Clouds 6 1008 50 10000 1.34 320 10:44 23.03.2021
1146 Clouds 6 1008 50 10000 2.68 351 10:25 23.03.2021
1147 Clouds 7 1008 48 10000 2.68 322 09:58 23.03.2021
1148 Clouds 7 1009 48 10000 4.47 344 09:38 23.03.2021
1149 Clouds 7 1009 47 10000 4.47 342 09:19 23.03.2021
1150 Clouds 7 1009 44 10000 2.68 333 08:39 23.03.2021
1151 Clouds 7 1009 43 10000 2.68 329 08:21 23.03.2021
1152 Clouds 19 1008 19 10000 1.77 9 07:28 23.03.2021
1153 Clouds 18 1007 20 10000 1.01 24 06:59 23.03.2021
1154 Clouds 19 1007 19 10000 1.22 142 06:26 23.03.2021
1155 Clouds 11 1010 27 10000 1.79 346 03:22 23.03.2021
1156 Clouds 14 1011 19 10000 1.79 17 02:18 23.03.2021
1157 Clouds 23 1010 12 10000 0.7 60 23:43 22.03.2021
1158 Clouds 23 1012 12 10000 1.38 48 22:56 22.03.2021
1159 Clouds 23 1012 12 10000 1.38 48 22:37 22.03.2021
1160 Clouds 23 1013 12 10000 1.03 103 22:18 22.03.2021
1161 Clouds 23 1013 12 10000 1.03 103 21:40 22.03.2021
1162 Clouds 23 1013 12 10000 1.03 103 21:40 22.03.2021
1163 Clouds 22 1014 12 10000 1.64 144 21:21 22.03.2021
1164 Clouds 22 1014 12 10000 1.64 144 20:41 22.03.2021
1165 Clouds 21 1015 13 10000 1.88 157 20:21 22.03.2021
1166 Clouds 21 1015 13 10000 1.88 157 19:53 22.03.2021
1167 Clouds 21 1015 20 10000 1.88 157 19:30 22.03.2021
1168 Clouds 20 1017 18 10000 1.49 152 18:47 22.03.2021
1169 Clear 19 1018 20 10000 0.86 144 18:29 22.03.2021
1170 Clear 11 1019 20 10000 0.86 144 17:59 22.03.2021
1171 Clear 10 1019 20 10000 1.34 165 17:41 22.03.2021
1172 Clear 8 1019 22 10000 0.45 231 17:19 22.03.2021
1173 Clear 6 1019 27 10000 0.97 151 16:44 22.03.2021
1174 Clear 3 1019 30 10000 0.46 150 16:18 22.03.2021
1175 Clear 16 1019 25 10000 0.46 150 15:38 22.03.2021
1176 Clear 12 1019 33 10000 0.28 82 15:18 22.03.2021
1177 Clear 12 1019 33 10000 0.28 82 14:52 22.03.2021
1178 Clear 12 1019 33 10000 0.28 82 14:34 22.03.2021
1179 Clear 13 1018 32 10000 0.67 32 13:48 22.03.2021
1180 Clear 13 1018 31 10000 0.82 21 13:27 22.03.2021
1181 Clear 13 1018 31 10000 0.82 21 12:54 22.03.2021
1182 Clear 14 1019 29 10000 1.07 13 12:25 22.03.2021
1183 Clear 14 1019 29 10000 1.07 13 11:49 22.03.2021
1184 Clouds 2 1019 27 10000 1.04 0 11:27 22.03.2021
1185 Clouds 4 1019 24 10000 1.34 314 10:46 22.03.2021
1186 Clear 4 1019 25 10000 3.13 333 10:24 22.03.2021
1187 Clear 5 1019 23 10000 0.89 329 09:49 22.03.2021
1188 Clear 5 1019 23 10000 1.79 342 09:30 22.03.2021
1189 Clear 6 1019 22 10000 4.47 4 08:46 22.03.2021
1190 Clear 5 1020 24 10000 4.47 344 08:27 22.03.2021
1191 Clear 5 1020 22 10000 3.61 347 07:50 22.03.2021
1192 Clear 6 1020 21 10000 3.61 347 07:30 22.03.2021
1193 Clear 7 1019 20 10000 5.81 344 06:49 22.03.2021
1194 Clear 9 1018 16 10000 3.13 12 02:47 22.03.2021
1195 Clear 21 1016 12 10000 8.54 341 00:44 22.03.2021
1196 Clear 21 1016 12 10000 8.78 343 23:59 21.03.2021
1197 Clear 21 1017 12 10000 9.09 345 23:20 21.03.2021
1198 Clear 21 1017 12 10000 9.09 345 22:59 21.03.2021
1199 Clear 21 1017 12 10000 9.09 345 22:41 21.03.2021
1200 Clear 21 1018 13 10000 9.05 345 21:43 21.03.2021
1201 Clear 20 1019 14 10000 9 346 21:24 21.03.2021
1202 Clear 20 1019 14 10000 9 346 20:56 21.03.2021
1203 Clear 20 1019 14 10000 9 346 20:38 21.03.2021
1204 Clear 19 1019 17 10000 9.28 347 20:19 21.03.2021
1205 Clear 11 1020 21 10000 4.92 339 19:39 21.03.2021
1206 Clear 18 1020 20 10000 8.88 349 19:19 21.03.2021
1207 Clear 9 1020 25 10000 4.47 316 18:41 21.03.2021
1208 Clear 9 1020 26 10000 3.58 308 18:18 21.03.2021
1209 Clear 7 1020 28 10000 4.92 343 17:42 21.03.2021
1210 Clear 7 1020 29 10000 4.47 334 17:18 21.03.2021
1211 Clear 5 1020 32 10000 3.58 288 16:49 21.03.2021
1212 Clear 3 1020 37 10000 1.34 334 16:23 21.03.2021
1213 Clear 3 1020 37 10000 1.34 334 16:23 21.03.2021
1214 Clear 2 1019 40 10000 1.79 331 15:46 21.03.2021
1215 Clear 14 1021 28 10000 3.88 344 15:21 21.03.2021
1216 Clear 14 1021 28 10000 3.88 344 14:48 21.03.2021
1217 Clear 1 1019 42 10000 1.34 342 14:27 21.03.2021
1218 Clear 1 1018 43 10000 2.24 354 13:59 21.03.2021
1219 Clear 1 1018 43 10000 1.79 331 13:40 21.03.2021
1220 Clear 1 1018 45 10000 1.34 346 12:45 21.03.2021
1221 Clear 15 1020 23 10000 3.9 351 12:25 21.03.2021
1222 Clear 15 1020 23 10000 3.9 351 12:25 21.03.2021
1223 Clear 15 1020 23 10000 3.9 351 11:44 21.03.2021
1224 Clear 16 1020 22 10000 3.57 351 11:26 21.03.2021
1225 Clear 2 1017 44 10000 2.24 346 10:48 21.03.2021
1226 Clear 16 1020 22 10000 3.95 351 10:29 21.03.2021
1227 Clear 16 1020 22 10000 3.95 351 09:55 21.03.2021
1228 Clear 3 1017 36 10000 1.34 323 09:37 21.03.2021
1229 Clear 17 1020 22 10000 4.57 359 09:18 21.03.2021
1230 Clear 3 1016 31 10000 0.89 320 08:37 21.03.2021
1231 Clear 4 1016 30 10000 2.24 297 08:19 21.03.2021
1232 Clouds 5 1016 24 10000 1.79 347 07:29 21.03.2021
1233 Clouds 7 1015 23 10000 4.92 341 06:21 21.03.2021
1234 Clouds 8 1014 14 10000 2.68 339 04:57 21.03.2021
1235 Clear 25 1013 11 10000 1.18 113 00:58 21.03.2021
1236 Clear 25 1013 11 10000 1.18 113 00:39 21.03.2021
1237 Clear 25 1013 10 10000 1.12 166 00:20 21.03.2021
1238 Clear 25 1013 10 10000 1.12 166 23:46 20.03.2021
1239 Clear 25 1014 11 10000 1.21 195 23:20 20.03.2021
1240 Clear 25 1014 11 10000 1.21 195 22:47 20.03.2021
1241 Clear 24 1014 13 10000 1.23 215 22:18 20.03.2021
1242 Clear 16 1011 6 10000 1.79 314 21:44 20.03.2021
1243 Clear 16 1011 5 10000 4.02 216 21:24 20.03.2021
1244 Clear 15 1012 6 10000 2.24 253 20:42 20.03.2021
1245 Clear 23 1015 22 10000 3.37 198 20:22 20.03.2021
1246 Clear 14 1012 10 10000 4.02 252 19:47 20.03.2021
1247 Clear 13 1012 14 10000 4.02 239 19:26 20.03.2021
1248 Clear 12 1012 22 10000 4.02 235 18:48 20.03.2021
1249 Clear 11 1012 31 10000 4.02 263 18:25 20.03.2021
1250 Clear 11 1012 37 10000 4.02 197 17:53 20.03.2021
1251 Clear 10 1012 38 10000 4.02 203 17:29 20.03.2021
1252 Clear 9 1012 43 10000 3.58 228 16:45 20.03.2021
1253 Clear 8 1012 47 10000 3.13 193 16:21 20.03.2021
1254 Clear 8 1012 49 10000 3.13 216 15:57 20.03.2021
1255 Clear 7 1011 48 10000 3.13 207 15:39 20.03.2021
1256 Clear 8 1011 42 10000 4.47 216 14:46 20.03.2021
1257 Clear 8 1011 42 10000 2.24 256 14:28 20.03.2021
1258 Clear 8 1011 41 10000 0.89 243 13:40 20.03.2021
1259 Clouds 8 1012 45 10000 0.89 262 12:52 20.03.2021
1260 Clouds 9 1012 43 10000 4.92 250 12:26 20.03.2021
1261 Clouds 9 1011 44 10000 3.13 220 11:47 20.03.2021
1262 Clouds 10 1011 50 10000 3.13 207 11:29 20.03.2021
1263 Clouds 8 1011 60 10000 1.34 229 10:55 20.03.2021
1264 Clouds 8 1011 62 10000 0.45 308 10:37 20.03.2021
1265 Clouds 9 1011 62 10000 8.84 180 10:18 20.03.2021
1266 Clouds 10 1012 61 10000 1.79 220 09:29 20.03.2021
1267 Clouds 12 1012 51 10000 0.45 162 08:58 20.03.2021
1268 Clouds 11 1012 52 10000 1.79 165 08:37 20.03.2021
1269 Clouds 11 1012 58 10000 1.34 135 07:54 20.03.2021
1270 Clouds 11 1013 58 10000 2.24 152 07:32 20.03.2021
1271 Clouds 11 1012 52 10000 2.24 156 06:54 20.03.2021
1272 Clouds 12 1012 52 10000 4.02 192 06:27 20.03.2021
1273 Clouds 14 1012 33 10000 1.34 227 04:23 20.03.2021
1274 Clouds 15 1012 30 10000 0.45 261 03:42 20.03.2021
1275 Clouds 29 1012 25 10000 8.2 193 00:35 20.03.2021
1276 Clouds 29 1012 24 10000 6.91 193 23:32 19.03.2021
1277 Clouds 29 1013 25 10000 6.22 201 22:59 19.03.2021
1278 Clouds 20 1013 25 10000 3.13 159 22:38 19.03.2021
1279 Clouds 28 1014 27 10000 6.3 192 22:20 19.03.2021
1280 Clouds 28 1014 27 10000 6.3 192 22:20 19.03.2021
1281 Clouds 28 1014 27 10000 6.3 192 21:36 19.03.2021
1282 Clouds 27 1016 28 10000 6.22 176 21:18 19.03.2021
1283 Clouds 27 1016 28 10000 6.22 176 20:41 19.03.2021
1284 Clouds 26 1017 31 10000 5.31 169 20:22 19.03.2021
1285 Clouds 17 1015 38 10000 2.24 40 19:46 19.03.2021
1286 Clear 16 1015 39 10000 2.68 33 19:21 19.03.2021
1287 Clear 14 1015 42 10000 2.24 40 18:42 19.03.2021
1288 Clear 14 1015 43 10000 1.79 89 18:20 19.03.2021
1289 Clear 14 1016 46 10000 2.24 89 17:56 19.03.2021
1290 Clear 13 1016 47 10000 2.68 85 17:36 19.03.2021
1291 Clear 11 1016 53 10000 1.79 83 16:57 19.03.2021
1292 Clear 10 1016 56 10000 0.89 85 16:36 19.03.2021
1293 Clear 9 1016 61 10000 0.89 100 16:18 19.03.2021
1294 Clear 7 1016 66 10000 1.34 89 15:32 19.03.2021
1295 Clear 6 1016 65 10000 1.54 152 14:49 19.03.2021
1296 Clear 6 1016 65 10000 0.45 81 14:29 19.03.2021
1297 Clear 7 1015 61 10000 0.45 75 13:48 19.03.2021
1298 Clear 7 1015 58 10000 0.89 86 13:18 19.03.2021
1299 Clear 8 1015 58 10000 1.34 78 12:40 19.03.2021
1300 Clear 9 1015 55 10000 0.89 93 11:55 19.03.2021
1301 Clear 9 1015 57 10000 1.34 98 11:22 19.03.2021
1302 Clear 10 1016 53 10000 0.45 177 10:40 19.03.2021
1303 Clear 10 1016 52 10000 1.79 168 10:21 19.03.2021
1304 Clear 9 1016 53 10000 1.34 143 09:43 19.03.2021
1305 Clear 10 1016 51 10000 1.34 108 09:22 19.03.2021
1306 Clear 9 1016 54 10000 0.45 137 08:51 19.03.2021
1307 Clear 9 1016 52 10000 0.45 137 08:26 19.03.2021
1308 Clear 10 1016 50 10000 2.02 162 07:43 19.03.2021
1309 Clear 10 1017 48 10000 2.44 172 06:59 19.03.2021
1310 Clear 12 1016 37 10000 0.45 147 05:26 19.03.2021
1311 Clouds 18 1016 19 10000 2.24 227 00:59 19.03.2021
1312 Clouds 26 1015 16 10000 2.42 152 23:54 18.03.2021
1313 Clouds 26 1016 17 10000 2.23 155 23:28 18.03.2021
1314 Clouds 26 1016 17 10000 2.23 155 22:44 18.03.2021
1315 Clear 25 1017 18 10000 2.21 160 22:25 18.03.2021
1316 Clear 25 1017 18 10000 2.21 160 21:43 18.03.2021
1317 Clear 24 1019 20 10000 1.94 166 21:25 18.03.2021
1318 Clear 24 1019 20 10000 1.94 166 20:42 18.03.2021
1319 Clear 23 1019 23 10000 1.86 162 20:22 18.03.2021
1320 Clear 16 1018 25 10000 2.24 62 19:42 18.03.2021
1321 Clouds 22 1019 25 10000 1.38 167 19:23 18.03.2021
1322 Clouds 22 1019 24 10000 1.41 160 18:47 18.03.2021
1323 Clouds 21 1019 26 10000 1.05 162 17:58 18.03.2021
1324 Clouds 20 1019 28 10000 0.23 91 17:27 18.03.2021
1325 Clouds 9 1019 38 10000 0.89 124 16:59 18.03.2021
1326 Clouds 8 1019 40 10000 0.23 91 16:41 18.03.2021
1327 Clouds 7 1019 42 10000 0.5 76 16:22 18.03.2021
1328 Clouds 6 1018 43 10000 0.5 76 15:41 18.03.2021
1329 Clouds 6 1018 43 10000 0.45 89 15:21 18.03.2021
1330 Clouds 6 1018 42 10000 1.79 99 14:49 18.03.2021
1331 Clouds 7 1018 40 10000 0.89 107 14:23 18.03.2021
1332 Clouds 7 1018 40 10000 0.89 126 13:43 18.03.2021
1333 Clouds 7 1017 41 10000 0.81 144 13:25 18.03.2021
1334 Clouds 7 1018 39 10000 0.72 135 12:40 18.03.2021
1335 Clouds 8 1018 38 10000 0.99 156 12:22 18.03.2021
1336 Clouds 7 1018 39 10000 0.99 156 11:46 18.03.2021
1337 Clouds 7 1018 39 10000 0.45 135 11:25 18.03.2021
1338 Clouds 8 1018 37 10000 0.89 141 10:42 18.03.2021
1339 Clouds 8 1018 37 10000 1.34 126 10:23 18.03.2021
1340 Clouds 8 1019 36 10000 0.45 103 09:53 18.03.2021
1341 Clouds 8 1019 35 10000 1.34 139 09:27 18.03.2021
1342 Clouds 7 1019 39 10000 1.34 158 08:46 18.03.2021
1343 Clouds 7 1019 39 10000 1.67 162 08:27 18.03.2021
1344 Clouds 8 1019 39 10000 1.34 168 07:50 18.03.2021
1345 Clouds 9 1019 36 10000 0.45 205 06:54 18.03.2021
1346 Clouds 9 1019 36 10000 1.34 149 06:26 18.03.2021
1347 Clouds 9 1019 36 10000 1.79 198 05:40 18.03.2021
1348 Clouds 23 1016 20 10000 3.76 156 00:52 18.03.2021
1349 Clouds 23 1016 21 10000 3.18 158 23:58 17.03.2021
1350 Clouds 14 1018 27 10000 2.24 75 22:44 17.03.2021
1351 Clouds 21 1017 25 10000 2.27 172 22:24 17.03.2021
1352 Clouds 21 1017 25 10000 2.27 172 21:53 17.03.2021
1353 Clouds 21 1017 25 10000 2.27 172 21:33 17.03.2021
1354 Clouds 21 1018 28 10000 2.05 155 20:58 17.03.2021
1355 Clouds 21 1018 28 10000 2.05 155 20:40 17.03.2021
1356 Clouds 20 1019 30 10000 1.51 145 20:20 17.03.2021
1357 Clouds 20 1019 30 10000 1.51 145 19:43 17.03.2021
1358 Clouds 18 1019 33 10000 1.39 153 19:21 17.03.2021
1359 Clouds 19 1019 33 10000 1.05 150 18:52 17.03.2021
1360 Clouds 19 1019 33 10000 1.05 150 18:33 17.03.2021
1361 Clouds 18 1020 36 10000 1.11 143 17:46 17.03.2021
1362 Clouds 8 1021 46 10000 0.89 69 17:23 17.03.2021
1363 Clouds 3 1020 59 10000 0.9 171 16:45 17.03.2021
1364 Clouds 2 1020 65 10000 1.06 194 16:24 17.03.2021
1365 Clouds 15 1020 41 10000 1.06 194 15:53 17.03.2021
1366 Clouds 15 1020 41 10000 1.06 194 15:35 17.03.2021
1367 Clouds 13 1019 46 10000 1.06 170 14:45 17.03.2021
1368 Clear 13 1018 44 10000 0.89 132 14:26 17.03.2021
1369 Clear 13 1018 44 10000 0.89 132 13:55 17.03.2021
1370 Clear 14 1018 42 10000 1.1 141 13:27 17.03.2021
1371 Clear 14 1018 42 10000 1.1 141 12:51 17.03.2021
1372 Clear 13 1018 41 10000 0.65 124 12:31 17.03.2021
1373 Clear 14 1017 39 10000 1.02 139 11:51 17.03.2021
1374 Clear 15 1018 37 10000 1.38 141 11:23 17.03.2021
1375 Clear 15 1018 37 10000 1.38 141 10:55 17.03.2021
1376 Clear 15 1017 35 10000 1.49 147 10:26 17.03.2021
1377 Clear 15 1017 35 10000 1.49 147 09:48 17.03.2021
1378 Clear 16 1017 34 10000 1.6 153 09:26 17.03.2021
1379 Clear 16 1017 34 10000 1.6 153 08:58 17.03.2021
1380 Clear 16 1017 34 10000 1.6 153 08:38 17.03.2021
1381 Clear 16 1017 33 10000 1.61 161 07:50 17.03.2021
1382 Clear 16 1017 33 10000 1.61 161 07:32 17.03.2021
1383 Clear 17 1016 32 10000 1.82 177 06:46 17.03.2021
1384 Clear 7 1016 35 10000 2.14 134 04:26 17.03.2021
1385 Clear 9 1015 30 10000 2.34 148 03:25 17.03.2021
1386 Clear 20 1012 23 10000 1.81 146 00:40 17.03.2021
1387 Clear 20 1012 24 10000 1.31 162 23:38 16.03.2021
1388 Clear 19 1012 25 10000 1.18 152 23:18 16.03.2021
1389 Clear 19 1012 25 10000 1.18 152 22:40 16.03.2021
1390 Clear 19 1013 27 10000 0.82 159 22:21 16.03.2021
1391 Clear 19 1013 27 10000 0.82 159 21:39 16.03.2021
1392 Clear 17 1014 29 10000 0.96 142 21:21 16.03.2021
1393 Clear 17 1014 29 10000 0.96 142 20:46 16.03.2021
1394 Clear 16 1014 31 10000 1.04 174 20:18 16.03.2021
1395 Clear 16 1014 31 10000 1.04 174 19:43 16.03.2021
1396 Clear 15 1015 35 10000 1.54 181 19:24 16.03.2021
1397 Clear 15 1015 35 10000 1.54 181 18:50 16.03.2021
1398 Clear 14 1015 37 10000 1.66 160 18:29 16.03.2021
1399 Clear 14 1015 37 10000 1.66 160 17:51 16.03.2021
1400 Clear 14 1015 37 10000 1.66 160 17:33 16.03.2021
1401 Clear 4 1014 48 10000 0.89 320 16:53 16.03.2021
1402 Clear 4 1014 48 10000 0.89 320 16:53 16.03.2021
1403 Clear 3 1014 50 10000 0.89 304 16:31 16.03.2021
1404 Clear 1 1014 58 10000 0.45 190 15:57 16.03.2021
1405 Clear 0 1013 60 10000 1.34 190 15:36 16.03.2021
1406 Clear 0 1013 60 10000 1.34 190 15:36 16.03.2021
1407 Clear 10 1014 47 10000 0.67 159 15:18 16.03.2021
1408 Clear 10 1014 47 10000 0.67 159 14:41 16.03.2021
1409 Clouds 10 1013 46 10000 0.41 178 14:22 16.03.2021
1410 Clouds 10 1013 46 10000 0.41 178 13:58 16.03.2021
1411 Clouds 11 1012 43 10000 1.13 189 13:29 16.03.2021
1412 Clouds 11 1011 45 10000 1.47 179 12:56 16.03.2021
1413 Clouds 11 1011 45 10000 1.47 179 12:37 16.03.2021
1414 Clouds 12 1011 44 10000 1.56 185 11:56 16.03.2021
1415 Clouds 12 1011 44 10000 1.56 185 11:34 16.03.2021
1416 Clouds 12 1011 41 10000 0.6 132 10:49 16.03.2021
1417 Clouds 12 1010 40 10000 1.4 345 10:21 16.03.2021
1418 Clouds 12 1010 40 10000 1.4 345 09:40 16.03.2021
1419 Clouds 0 1007 47 10000 0.89 311 09:21 16.03.2021
1420 Clouds 0 1007 47 10000 0.89 311 08:55 16.03.2021
1421 Clouds 0 1007 47 10000 0.89 311 08:36 16.03.2021
1422 Clouds 0 1007 47 10000 0.89 311 07:55 16.03.2021
1423 Clouds 0 1007 47 10000 3.58 341 07:27 16.03.2021
1424 Clouds 0 1006 50 10000 3.58 324 06:38 16.03.2021
1425 Clouds 0 1005 53 10000 4.92 349 05:37 16.03.2021
1426 Rain -1 1005 69 10000 5.36 18 04:28 16.03.2021
1427 Clouds -1 1003 81 10000 2.24 317 02:27 16.03.2021
1428 Clouds 7 1000 17 10000 1.79 88 00:47 16.03.2021
1429 Clouds 7 999 19 10000 3.13 152 23:54 15.03.2021
1430 Clouds 7 999 18 10000 3.13 203 23:27 15.03.2021
1431 Clouds 7 999 18 10000 4.47 165 22:49 15.03.2021
1432 Clouds 7 1000 16 10000 4.47 260 22:29 15.03.2021
1433 Clouds 7 1002 25 10000 5.81 195 21:52 15.03.2021
1434 Clouds 7 1002 31 10000 3.13 148 21:32 15.03.2021
1435 Clouds 6 1002 37 10000 5.36 137 20:57 15.03.2021
1436 Clouds 6 1002 38 10000 5.36 131 20:38 15.03.2021
1437 Clouds 6 1002 38 10000 5.36 131 20:38 15.03.2021
1438 Clouds 6 1002 38 10000 5.36 131 20:20 15.03.2021
1439 Clouds 8 1004 36 10000 3.58 176 19:49 15.03.2021
1440 Clouds 9 1003 36 10000 5.81 246 19:30 15.03.2021
1441 Clear 8 1004 47 10000 2.68 183 18:49 15.03.2021
1442 Clear 8 1004 50 10000 4.02 156 18:26 15.03.2021
1443 Clear 7 1004 54 10000 4.47 152 17:55 15.03.2021
1444 Clear 7 1005 58 10000 2.24 200 17:30 15.03.2021
1445 Clear 6 1005 62 10000 2.68 189 16:50 15.03.2021
1446 Clear 5 1006 64 10000 2.68 222 16:31 15.03.2021
1447 Clear 4 1006 64 10000 4.47 190 15:45 15.03.2021
1448 Clear 4 1006 61 10000 4.02 153 15:25 15.03.2021
1449 Clear 13 1008 64 10000 5.06 191 14:44 15.03.2021
1450 Clear 6 1007 44 10000 0.89 262 14:22 15.03.2021
1451 Clear 6 1007 40 10000 0.45 339 13:47 15.03.2021
1452 Clear 4 1007 40 10000 0.89 206 13:25 15.03.2021
1453 Clear 4 1008 36 10000 0.45 239 12:48 15.03.2021
1454 Clear 2 1008 38 10000 0.45 137 12:20 15.03.2021
1455 Clear 3 1008 36 10000 0.45 279 11:52 15.03.2021
1456 Clear 3 1008 35 10000 4.42 189 11:32 15.03.2021
1457 Clear 4 1009 30 10000 0.45 256 10:55 15.03.2021
1458 Clear 5 1009 27 10000 0.89 153 10:31 15.03.2021
1459 Clear 6 1009 26 10000 0.89 266 09:53 15.03.2021
1460 Clear 6 1009 26 10000 0.45 287 09:35 15.03.2021
1461 Clear 8 1010 19 10000 0.89 79 08:54 15.03.2021
1462 Clear 9 1010 18 10000 1.34 60 08:34 15.03.2021
1463 Clear 9 1011 18 10000 2.68 191 07:56 15.03.2021
1464 Clear 9 1011 19 10000 2.68 232 07:32 15.03.2021
1465 Clouds 7 1012 37 10000 2.25 147 06:41 15.03.2021
1466 Clouds 7 1013 38 10000 0.45 193 05:34 15.03.2021
1467 Clouds 12 1015 27 10000 1.79 69 01:47 15.03.2021
1468 Clouds 15 1016 22 10000 2.24 342 23:59 14.03.2021
1469 Clouds 17 1016 20 10000 3.13 40 23:21 14.03.2021
1470 Clouds 17 1017 20 10000 2.24 14 22:47 14.03.2021
1471 Clouds 23 1016 22 10000 2.18 157 22:23 14.03.2021
1472 Clouds 23 1016 22 10000 2.18 157 22:23 14.03.2021
1473 Clouds 23 1016 22 10000 2.18 157 21:50 14.03.2021
1474 Clouds 22 1018 23 10000 2.1 163 21:21 14.03.2021
1475 Clouds 22 1018 23 10000 2.1 163 20:50 14.03.2021
1476 Clouds 21 1018 25 10000 1.95 169 20:27 14.03.2021
1477 Clouds 21 1018 25 10000 1.95 169 19:50 14.03.2021
1478 Clouds 20 1019 26 10000 1.7 164 19:27 14.03.2021
1479 Clouds 20 1019 26 10000 1.7 164 18:58 14.03.2021
1480 Clouds 19 1020 28 10000 1.54 175 18:28 14.03.2021
1481 Clouds 19 1020 28 10000 1.54 175 17:41 14.03.2021
1482 Clear 18 1021 29 10000 1.46 179 17:23 14.03.2021
1483 Clear 18 1021 29 10000 1.46 179 17:23 14.03.2021
1484 Clear 7 1021 32 10000 1.46 179 16:52 14.03.2021
1485 Clear 6 1021 35 10000 1.46 179 16:33 14.03.2021
1486 Clear 16 1021 34 10000 1.04 184 15:57 14.03.2021
1487 Clear 16 1021 34 10000 1.04 184 15:39 14.03.2021
1488 Clear 2 1021 38 10000 0.45 312 14:45 14.03.2021
1489 Clear 1 1021 42 10000 0.45 312 14:26 14.03.2021
1490 Clear 1 1021 41 10000 1.26 174 13:50 14.03.2021
1491 Clear 1 1021 41 10000 0.45 312 13:31 14.03.2021
1492 Clear 1 1021 40 10000 0.89 178 12:48 14.03.2021
1493 Clear 14 1020 27 10000 0.97 194 12:29 14.03.2021
1494 Clear 14 1020 27 10000 0.97 194 11:59 14.03.2021
1495 Clear 14 1020 27 10000 0.97 194 11:37 14.03.2021
1496 Clear 14 1020 25 10000 0.46 232 10:59 14.03.2021
1497 Clear 14 1020 25 10000 0.46 232 10:38 14.03.2021
1498 Clear 14 1020 25 10000 0.46 232 10:38 14.03.2021
1499 Clear 3 1022 35 10000 0.45 312 10:19 14.03.2021
1500 Clear 3 1021 33 10000 0.25 226 09:44 14.03.2021
1501 Clear 3 1021 31 10000 0.89 331 09:23 14.03.2021
1502 Clear 2 1021 34 10000 0.9 200 08:51 14.03.2021
1503 Clear 2 1021 34 10000 0.9 200 08:32 14.03.2021
1504 Clear 16 1020 20 10000 0.99 215 07:48 14.03.2021
1505 Clear 16 1020 20 10000 0.99 215 07:48 14.03.2021
1506 Clear 17 1020 19 10000 1.43 211 07:20 14.03.2021
1507 Clear 4 1021 33 10000 0.43 226 05:33 14.03.2021
1508 Clear 4 1021 33 10000 0.43 226 05:33 14.03.2021
1509 Clear 22 1016 12 10000 4.52 345 00:59 14.03.2021
1510 Clear 22 1017 12 10000 4.77 341 00:20 14.03.2021
1511 Clear 22 1017 12 10000 4.77 341 23:57 13.03.2021
1512 Clear 22 1017 12 10000 4.77 341 23:36 13.03.2021
1513 Clear 21 1018 14 10000 3.8 356 22:55 13.03.2021
1514 Clear 21 1018 14 10000 3.8 356 22:36 13.03.2021
1515 Clouds 20 1018 17 10000 2.46 355 21:50 13.03.2021
1516 Clear 19 1019 21 10000 1.6 352 21:27 13.03.2021
1517 Clear 19 1019 21 10000 1.6 352 20:54 13.03.2021
1518 Clear 19 1019 21 10000 1.6 352 20:32 13.03.2021
1519 Clear 12 1023 18 10000 4.92 6 19:56 13.03.2021
1520 Clear 11 1023 19 10000 5.36 348 19:36 13.03.2021
1521 Clear 16 1020 32 10000 0.89 357 19:18 13.03.2021
1522 Clear 9 1023 23 10000 3.13 288 18:40 13.03.2021
1523 Clear 14 1021 38 10000 0.91 352 18:19 13.03.2021
1524 Clear 5 1023 29 10000 1.79 268 17:44 13.03.2021
1525 Clear 4 1023 30 10000 1.79 293 17:25 13.03.2021
1526 Clear 4 1023 33 10000 1.79 314 16:50 13.03.2021
1527 Clear 2 1023 36 10000 3.13 357 16:29 13.03.2021
1528 Clear 1 1023 36 10000 0.89 259 15:47 13.03.2021
1529 Clear 1 1022 39 10000 2.24 4 14:54 13.03.2021
1530 Clear 1 1022 38 10000 3.58 17 14:36 13.03.2021
1531 Clear 1 1021 39 10000 3.58 353 13:54 13.03.2021
1532 Clouds 1 1021 40 10000 3.58 7 13:25 13.03.2021
1533 Clouds 1 1021 39 10000 2.24 309 12:48 13.03.2021
1534 Clouds 1 1021 40 10000 3.58 311 12:28 13.03.2021
1535 Clouds 1 1021 41 10000 2.68 347 11:51 13.03.2021
1536 Clouds 1 1021 46 10000 1.34 301 11:30 13.03.2021
1537 Clouds 1 1021 47 10000 0.45 299 10:51 13.03.2021
1538 Clouds 1 1021 47 10000 1.79 358 10:30 13.03.2021
1539 Clouds 2 1021 46 10000 1.79 294 09:48 13.03.2021
1540 Clouds 3 1021 43 10000 3.58 352 09:24 13.03.2021
1541 Clouds 3 1021 45 10000 3.13 340 08:44 13.03.2021
1542 Clouds 3 1021 47 10000 3.13 349 08:20 13.03.2021
1543 Clouds 2 1021 58 10000 1.34 257 07:55 13.03.2021
1544 Clouds 2 1022 71 10000 1.34 342 06:54 13.03.2021
1545 Clouds 4 1021 52 10000 2.68 324 02:56 13.03.2021
1546 Clouds 7 1020 44 10000 2.68 315 01:20 13.03.2021
1547 Clouds 8 1021 47 10000 3.13 342 00:20 13.03.2021
1548 Clouds 14 1016 54 10000 2.35 320 23:33 12.03.2021
1549 Clouds 6 1021 53 10000 4.47 198 22:50 12.03.2021
1550 Clouds 7 1021 53 10000 3.13 345 22:29 12.03.2021
1551 Clouds 8 1021 54 10000 3.58 343 21:54 12.03.2021
1552 Clouds 7 1022 54 10000 4.92 341 21:36 12.03.2021
1553 Clouds 14 1019 50 10000 5.34 351 21:18 12.03.2021
1554 Clouds 4 1022 73 10000 4.02 354 20:41 12.03.2021
1555 Clouds 3 1022 73 10000 4.02 335 20:19 12.03.2021
1556 Clouds 2 1023 81 10000 1.79 312 19:43 12.03.2021
1557 Clouds 1 1022 83 10000 1.34 293 19:24 12.03.2021
1558 Clouds 0 1022 87 10000 2.68 352 18:39 12.03.2021
1559 Clouds 0 1022 87 10000 2.68 352 18:19 12.03.2021
1560 Clouds -1 1022 87 10000 1.34 298 17:41 12.03.2021
1561 Clouds 0 1021 86 10000 1.34 310 17:23 12.03.2021
1562 Clouds -1 1021 85 10000 1.34 314 16:43 12.03.2021
1563 Clouds -1 1021 86 10000 0.89 252 16:23 12.03.2021
1564 Clouds -2 1020 87 10000 0.89 299 15:38 12.03.2021
1565 Clouds -2 1020 84 10000 1.79 313 14:52 12.03.2021
1566 Clouds -2 1020 85 10000 1.34 312 14:22 12.03.2021
1567 Clouds -2 1020 85 10000 1.34 312 14:22 12.03.2021
1568 Clouds -2 1020 85 10000 2.24 324 13:55 12.03.2021
1569 Clouds -2 1020 86 10000 2.24 314 13:37 12.03.2021
1570 Clouds -2 1020 86 10000 1.34 339 13:18 12.03.2021
1571 Clouds -2 1019 84 10000 1.34 322 12:43 12.03.2021
1572 Clouds -2 1019 82 10000 2.24 322 12:25 12.03.2021
1573 Clouds -2 1020 83 10000 1.34 322 11:53 12.03.2021
1574 Clouds -2 1020 82 10000 2.24 337 11:24 12.03.2021
1575 Clouds 11 1017 52 10000 2.27 340 10:55 12.03.2021
1576 Clouds 11 1017 51 10000 1.95 335 10:27 12.03.2021
1577 Clouds 11 1017 51 10000 1.95 335 09:57 12.03.2021
1578 Clouds 12 1017 49 10000 1.92 352 09:26 12.03.2021
1579 Clouds 12 1017 49 10000 1.92 352 08:47 12.03.2021
1580 Clouds 12 1017 45 10000 1.7 3 08:26 12.03.2021
1581 Clouds 12 1017 45 10000 1.7 3 07:40 12.03.2021
1582 Clouds -1 1020 73 10000 1.34 323 06:57 12.03.2021
1583 Clouds 13 1016 40 10000 0.42 112 06:29 12.03.2021
1584 Clouds 1 1018 70 10000 1.34 11 02:58 12.03.2021
1585 Clouds 2 1017 78 10000 1.34 260 00:51 12.03.2021
1586 Clouds 15 1013 38 10000 1.29 264 23:40 11.03.2021
1587 Clouds 15 1013 38 10000 1.56 192 22:52 11.03.2021
1588 Clouds 15 1013 38 10000 1.56 192 22:32 11.03.2021
1589 Clouds 1 1017 71 10000 2.24 252 21:58 11.03.2021
1590 Clouds 1 1017 69 10000 1.79 259 21:39 11.03.2021
1591 Clouds 3 1017 53 10000 0.89 272 21:20 11.03.2021
1592 Clouds 14 1016 41 10000 2.05 165 20:44 11.03.2021
1593 Clouds 13 1016 43 10000 1.31 157 20:21 11.03.2021
1594 Clouds 13 1016 43 10000 1.31 157 19:46 11.03.2021
1595 Clouds 12 1016 46 10000 1.62 150 19:27 11.03.2021
1596 Clouds 12 1016 47 10000 1.43 153 18:49 11.03.2021
1597 Clouds 12 1016 47 10000 1.43 153 18:31 11.03.2021
1598 Clouds 2 1016 67 10000 0.45 245 17:45 11.03.2021
1599 Clouds 1 1016 72 10000 0.45 269 17:27 11.03.2021
1600 Clouds -1 1016 80 10000 0.45 295 16:31 11.03.2021
1601 Clouds -2 1015 83 10000 2.04 162 15:49 11.03.2021
1602 Clouds -2 1015 83 10000 1.76 158 15:26 11.03.2021
1603 Clouds -2 1015 84 10000 0.45 343 14:57 11.03.2021
1604 Clouds -2 1015 85 10000 1.76 158 14:37 11.03.2021
1605 Clouds -3 1015 85 10000 1.68 141 14:18 11.03.2021
1606 Clouds -4 1014 90 10000 1.68 141 13:42 11.03.2021
1607 Clear -4 1014 89 10000 0.96 135 13:20 11.03.2021
1608 Clear -4 1014 86 10000 1.72 143 12:44 11.03.2021
1609 Clear -4 1013 87 10000 1.36 170 12:26 11.03.2021
1610 Clear -3 1014 87 10000 1.36 170 11:45 11.03.2021
1611 Clear -3 1014 84 10000 2.11 196 11:27 11.03.2021
1612 Clear -2 1014 85 10000 2.11 196 10:44 11.03.2021
1613 Clear -2 1014 83 10000 3.36 195 10:21 11.03.2021
1614 Clear -2 1014 83 10000 0.89 92 09:45 11.03.2021
1615 Clear -2 1014 81 10000 0.45 92 09:23 11.03.2021
1616 Clear -2 1014 74 10000 0.45 93 08:47 11.03.2021
1617 Clear -1 1013 73 10000 1.34 102 08:20 11.03.2021
1618 Clear -1 1013 74 10000 0.89 89 07:34 11.03.2021
1619 Clouds -1 1012 62 10000 3.9 194 06:50 11.03.2021
1620 Clouds -1 1012 62 10000 3.9 194 06:50 11.03.2021
1621 Clouds -1 1012 65 10000 1.34 156 06:30 11.03.2021
1622 Clouds 0 1012 53 10000 1.79 124 04:44 11.03.2021
1623 Clouds 5 1010 38 10000 5.36 208 01:23 11.03.2021
1624 Clouds 6 1009 35 10000 4.47 273 23:51 10.03.2021
1625 Clouds 6 1009 35 10000 4.47 273 23:51 10.03.2021
1626 Clouds 7 1010 23 10000 5.36 219 23:20 10.03.2021
1627 Clouds 7 1010 32 10000 4.47 208 22:39 10.03.2021
1628 Clouds 8 1011 27 10000 4.47 212 21:47 10.03.2021
1629 Clouds 7 1011 29 10000 6.26 250 21:26 10.03.2021
1630 Clouds 7 1011 36 10000 5.36 264 20:58 10.03.2021
1631 Clouds 6 1011 41 10000 4.92 291 20:39 10.03.2021
1632 Clouds 6 1011 41 10000 5.36 217 20:20 10.03.2021
1633 Clouds 4 1012 50 10000 1.34 227 19:40 10.03.2021
1634 Clouds 5 1011 49 10000 3.13 181 19:20 10.03.2021
1635 Clouds 4 1011 56 10000 3.58 184 18:38 10.03.2021
1636 Clouds 3 1011 61 10000 4.02 223 18:19 10.03.2021
1637 Clouds 2 1011 65 10000 4.02 262 17:42 10.03.2021
1638 Clouds 2 1011 68 10000 3.58 210 17:20 10.03.2021
1639 Clouds 1 1011 70 10000 3.58 234 16:55 10.03.2021
1640 Clouds 0 1011 74 10000 1.34 181 16:37 10.03.2021
1641 Clouds -1 1011 75 10000 1.34 140 16:18 10.03.2021
1642 Clouds -1 1011 74 10000 2.68 219 15:39 10.03.2021
1643 Clouds -1 1011 74 10000 1.79 239 15:21 10.03.2021
1644 Clouds -1 1011 74 10000 1.79 239 15:21 10.03.2021
1645 Clouds -1 1012 69 10000 1.34 151 14:39 10.03.2021
1646 Clouds -1 1012 69 10000 1.34 151 14:19 10.03.2021
1647 Clouds 1 1012 55 10000 1.34 174 13:43 10.03.2021
1648 Clouds 1 1012 53 10000 2.68 179 13:18 10.03.2021
1649 Clouds 1 1012 51 10000 2.68 198 12:41 10.03.2021
1650 Clear 1 1012 55 10000 1.34 150 11:59 10.03.2021
1651 Clear 1 1013 59 10000 1.34 144 11:31 10.03.2021
1652 Clear 1 1013 60 10000 1.79 199 10:57 10.03.2021
1653 Clear 1 1013 62 10000 2.68 165 10:34 10.03.2021
1654 Clear 0 1014 48 10000 1.34 223 09:58 10.03.2021
1655 Clear 1 1014 45 10000 1.79 190 09:40 10.03.2021
1656 Clear 0 1014 45 10000 2.24 227 09:20 10.03.2021
1657 Clear 1 1014 38 10000 1.34 166 08:46 10.03.2021
1658 Clear 2 1014 36 10000 0.89 207 08:28 10.03.2021
1659 Clear 2 1014 36 10000 0.89 207 08:28 10.03.2021
1660 Clear 2 1014 35 10000 1.34 183 07:48 10.03.2021
1661 Clouds 2 1014 33 10000 2.24 173 07:29 10.03.2021
1662 Clouds 2 1014 33 10000 2.24 173 07:29 10.03.2021
1663 Clear 2 1014 32 10000 2.24 122 06:53 10.03.2021
1664 Clouds 3 1013 28 10000 0.89 152 05:59 10.03.2021
1665 Clouds 10 1011 22 10000 6.26 204 00:48 10.03.2021
1666 Clouds 11 1011 26 10000 0.45 101 23:49 09.03.2021
1667 Clouds 20 1011 24 10000 1.87 177 22:59 09.03.2021
1668 Clouds 20 1011 24 10000 1.87 177 22:38 09.03.2021
1669 Clouds 19 1012 26 10000 2.89 175 22:18 09.03.2021
1670 Clouds 19 1012 26 10000 2.89 175 21:45 09.03.2021
1671 Clear 19 1013 27 10000 3.57 175 21:24 09.03.2021
1672 Clear 19 1013 27 10000 3.57 175 20:58 09.03.2021
1673 Clear 19 1013 27 10000 3.57 175 20:39 09.03.2021
1674 Clear 18 1014 29 10000 3.59 167 20:19 09.03.2021
1675 Clear 18 1014 29 10000 3.59 167 19:46 09.03.2021
1676 Clouds 17 1014 31 10000 3.28 164 19:25 09.03.2021
1677 Clouds 17 1015 31 10000 3.56 171 18:48 09.03.2021
1678 Clouds 16 1015 33 10000 2.85 166 18:25 09.03.2021
1679 Clouds 7 1015 35 10000 2.85 166 17:51 09.03.2021
1680 Clouds 6 1014 40 10000 0.45 70 17:29 09.03.2021
1681 Clouds 3 1014 45 10000 2.15 169 16:47 09.03.2021
1682 Clouds 2 1014 49 10000 0.45 327 16:26 09.03.2021
1683 Clouds 1 1014 51 10000 0.45 322 15:59 09.03.2021
1684 Clouds 14 1016 37 10000 1.65 185 15:40 09.03.2021
1685 Clouds 12 1016 42 10000 1.5 170 15:20 09.03.2021
1686 Clouds 12 1016 40 10000 1.23 155 14:28 09.03.2021
1687 Clouds 12 1016 40 10000 1.23 155 13:57 09.03.2021
1688 Clouds 12 1016 40 10000 1.23 155 13:36 09.03.2021
1689 Clouds 13 1016 39 10000 0.78 166 13:18 09.03.2021
1690 Clouds 13 1016 39 10000 1.24 164 12:39 09.03.2021
1691 Clouds 13 1016 38 10000 0.48 119 12:18 09.03.2021
1692 Clouds 13 1016 38 10000 0.48 119 11:41 09.03.2021
1693 Clouds 14 1016 36 10000 0.39 167 11:20 09.03.2021
1694 Clouds 14 1016 36 10000 0.39 167 10:54 09.03.2021
1695 Clouds 1 1015 37 10000 0.39 167 10:36 09.03.2021
1696 Clear 1 1015 36 10000 1.23 197 10:18 09.03.2021
1697 Clear 3 1015 34 10000 1.23 197 09:41 09.03.2021
1698 Clouds 3 1015 34 10000 0.45 73 09:22 09.03.2021
1699 Clouds 4 1015 32 10000 0.45 151 08:36 09.03.2021
1700 Clouds 4 1014 33 10000 2.24 245 08:18 09.03.2021
1701 Clouds 4 1015 32 10000 1.34 139 07:37 09.03.2021
1702 Clear 5 1015 31 10000 1.34 181 07:19 09.03.2021
1703 Clear 7 1014 27 10000 2.24 131 05:55 09.03.2021
1704 Clear 7 1013 27 10000 2.68 192 05:35 09.03.2021
1705 Clear 17 1012 7 10000 6.71 228 00:21 09.03.2021
1706 Clear 17 1012 16 10000 2.68 259 23:42 08.03.2021
1707 Clear 17 1013 18 10000 1.34 164 23:23 08.03.2021
1708 Clear 17 1013 18 10000 2.24 166 22:45 08.03.2021
1709 Clear 24 1013 19 10000 6.56 191 22:26 08.03.2021
1710 Clear 24 1013 19 10000 6.56 191 21:55 08.03.2021
1711 Clear 24 1013 19 10000 6.56 191 21:35 08.03.2021
1712 Clear 14 1014 38 10000 2.24 78 20:47 08.03.2021
1713 Clear 13 1014 42 10000 2.68 50 20:26 08.03.2021
1714 Clear 12 1015 44 10000 1.79 81 19:59 08.03.2021
1715 Clear 11 1014 48 10000 2.68 40 19:28 08.03.2021
1716 Clear 10 1014 54 10000 2.24 84 18:42 08.03.2021
1717 Clear 10 1014 54 10000 2.24 84 18:42 08.03.2021
1718 Clear 9 1014 56 10000 2.24 50 18:21 08.03.2021
1719 Clear 8 1014 61 10000 3.13 24 17:51 08.03.2021
1720 Clear 8 1014 61 10000 3.13 24 17:51 08.03.2021
1721 Clear 8 1014 62 10000 2.24 50 17:32 08.03.2021
1722 Clear 5 1014 73 10000 1.34 67 16:49 08.03.2021
1723 Clear 3 1013 78 10000 1.34 90 16:29 08.03.2021
1724 Clear 2 1013 80 10000 1.34 83 15:52 08.03.2021
1725 Clear 2 1013 80 10000 1.34 83 15:52 08.03.2021
1726 Clear 2 1013 74 10000 0.89 127 15:29 08.03.2021
1727 Clear 2 1013 73 10000 1.79 45 14:49 08.03.2021
1728 Clear 2 1013 72 10000 0.89 100 14:20 08.03.2021
1729 Clear 2 1012 70 10000 1.34 86 13:44 08.03.2021
1730 Clouds 17 1012 31 10000 4.14 174 13:21 08.03.2021
1731 Clouds 17 1012 31 10000 4.14 174 12:49 08.03.2021
1732 Clouds 18 1012 30 10000 3.84 180 12:28 08.03.2021
1733 Clouds 4 1013 53 10000 3.84 180 11:44 08.03.2021
1734 Clouds 4 1013 50 10000 3.73 188 11:19 08.03.2021
1735 Clouds 6 1013 47 10000 0.89 29 10:44 08.03.2021
1736 Clouds 6 1013 45 10000 0.45 73 10:26 08.03.2021
1737 Clouds 7 1013 41 10000 0.89 73 09:45 08.03.2021
1738 Clouds 7 1013 42 10000 1.34 110 09:23 08.03.2021
1739 Clouds 9 1013 39 10000 3.23 192 08:30 08.03.2021
1740 Clouds 8 1014 42 10000 1.34 206 07:48 08.03.2021
1741 Clouds 9 1014 40 10000 1.79 104 07:20 08.03.2021
1742 Clouds 11 1014 38 10000 1.79 82 05:18 08.03.2021
1743 Clouds 13 1013 31 10000 1.79 58 01:27 08.03.2021
1744 Clouds 14 1013 31 10000 2.24 63 00:38 08.03.2021
1745 Clouds 15 1013 29 10000 4.02 40 23:51 07.03.2021
1746 Clouds 17 1013 25 10000 1.79 40 23:20 07.03.2021
1747 Clouds 18 1013 22 10000 2.24 6 22:45 07.03.2021
1748 Clouds 18 1013 22 10000 2.24 6 22:26 07.03.2021
1749 Clouds 17 1014 23 10000 2.24 40 21:49 07.03.2021
1750 Clouds 16 1014 24 10000 3.13 25 21:30 07.03.2021
1751 Clouds 17 1015 23 10000 2.24 56 20:50 07.03.2021
1752 Clouds 17 1015 23 10000 2.24 69 20:32 07.03.2021
1753 Clouds 22 1015 27 10000 1.64 141 19:59 07.03.2021
1754 Clouds 22 1015 27 10000 1.64 141 19:39 07.03.2021
1755 Clouds 21 1015 30 10000 1.72 141 19:21 07.03.2021
1756 Clouds 21 1015 30 10000 1.72 141 18:48 07.03.2021
1757 Clouds 20 1015 31 10000 1.45 177 18:20 07.03.2021
1758 Clouds 13 1016 26 10000 0.45 154 17:56 07.03.2021
1759 Clouds 12 1016 30 10000 0.45 156 17:37 07.03.2021
1760 Clouds 11 1016 33 10000 1.26 175 17:18 07.03.2021
1761 Clouds 19 1015 32 10000 1.26 175 16:39 07.03.2021
1762 Clouds 17 1014 35 10000 1.01 184 16:20 07.03.2021
1763 Clouds 17 1014 35 10000 1.01 184 15:46 07.03.2021
1764 Clouds 16 1014 36 10000 0.85 185 15:28 07.03.2021
1765 Clouds 16 1014 36 10000 0.85 185 14:47 07.03.2021
1766 Clouds 17 1014 34 10000 1.16 201 14:28 07.03.2021
1767 Clouds 17 1014 34 10000 1.16 201 13:44 07.03.2021
1768 Clouds 17 1014 32 10000 0.83 190 13:24 07.03.2021
1769 Clouds 17 1014 32 10000 0.83 190 12:47 07.03.2021
1770 Clouds 17 1014 30 10000 1.24 170 12:29 07.03.2021
1771 Clouds 17 1014 30 10000 1.24 170 12:29 07.03.2021
1772 Clouds 17 1014 30 10000 1.24 170 11:52 07.03.2021
1773 Clouds 18 1014 29 10000 1.42 190 11:23 07.03.2021
1774 Clouds 18 1014 29 10000 1.42 190 10:51 07.03.2021
1775 Clouds 18 1014 29 10000 1.42 190 10:33 07.03.2021
1776 Clouds 18 1014 28 10000 1.52 164 09:52 07.03.2021
1777 Clear 19 1014 27 10000 1.55 158 09:26 07.03.2021
1778 Clear 19 1014 27 10000 1.55 158 08:55 07.03.2021
1779 Clear 19 1014 27 10000 1.55 158 08:37 07.03.2021
1780 Clear 19 1014 26 10000 1.35 153 08:19 07.03.2021
1781 Clouds 8 1011 28 10000 0.35 155 04:57 07.03.2021
1782 Clouds 17 1010 18 10000 2.24 18 02:26 07.03.2021
1783 Clouds 26 1010 15 10000 0.98 163 00:33 07.03.2021
1784 Clouds 26 1010 15 10000 1.88 180 23:40 06.03.2021
1785 Clouds 26 1010 15 10000 2.98 184 23:20 06.03.2021
1786 Clouds 26 1010 15 10000 2.98 184 22:45 06.03.2021
1787 Clouds 26 1011 15 10000 3.82 183 22:21 06.03.2021
1788 Clouds 26 1011 15 10000 3.82 183 21:41 06.03.2021
1789 Clouds 26 1011 15 10000 3.82 183 21:41 06.03.2021
1790 Clouds 26 1013 16 10000 4.39 187 21:20 06.03.2021
1791 Clouds 15 1011 24 10000 3.13 45 20:41 06.03.2021
1792 Clouds 14 1011 26 10000 4.02 12 19:59 06.03.2021
1793 Clouds 13 1010 27 10000 2.68 45 19:37 06.03.2021
1794 Clouds 13 1010 27 10000 4.47 113 19:18 06.03.2021
1795 Clouds 12 1010 28 10000 2.68 63 18:41 06.03.2021
1796 Clouds 12 1010 26 10000 3.58 54 18:20 06.03.2021
1797 Clouds 13 1010 19 10000 3.13 81 17:49 06.03.2021
1798 Clouds 11 1010 20 10000 0.45 156 17:30 06.03.2021
1799 Clear 10 1010 22 10000 3.58 115 16:57 06.03.2021
1800 Clear 8 1010 26 10000 2.68 80 16:32 06.03.2021
1801 Clear 8 1010 30 10000 2.68 167 15:56 06.03.2021
1802 Clear 6 1010 33 10000 2.68 220 15:38 06.03.2021
1803 Clear 4 1011 37 10000 1.34 105 15:19 06.03.2021
1804 Clear 6 1011 32 10000 4.37 172 14:33 06.03.2021
1805 Clear 7 1011 34 10000 0.45 187 13:56 06.03.2021
1806 Clear 7 1011 34 10000 4.24 169 13:37 06.03.2021
1807 Clouds 8 1012 33 10000 2.91 186 13:19 06.03.2021
1808 Clouds 8 1012 28 10000 2.68 206 12:42 06.03.2021
1809 Clouds 8 1012 28 10000 3.13 206 12:18 06.03.2021
1810 Clouds 7 1013 30 10000 0.89 230 11:44 06.03.2021
1811 Clouds 7 1013 30 10000 0.89 256 11:20 06.03.2021
1812 Clouds 20 1013 23 10000 3.02 175 10:44 06.03.2021
1813 Clouds 20 1014 23 10000 2.71 175 09:58 06.03.2021
1814 Clouds 20 1014 23 10000 2.47 168 09:28 06.03.2021
1815 Clouds 20 1014 23 10000 2.47 168 08:58 06.03.2021
1816 Clouds 20 1014 23 10000 2.47 168 08:33 06.03.2021
1817 Clouds 20 1014 23 10000 2.24 172 07:56 06.03.2021
1818 Clouds 21 1015 23 10000 1.69 181 07:23 06.03.2021
1819 Clouds 21 1015 23 10000 1.69 181 06:44 06.03.2021
1820 Clouds 11 1018 23 10000 1.28 167 03:49 06.03.2021
1821 Clouds 16 1018 16 10000 1.79 316 02:24 06.03.2021
1822 Clouds 26 1016 16 10000 2.1 168 00:47 06.03.2021
1823 Clear 26 1017 16 10000 1.36 150 23:52 05.03.2021
1824 Clear 26 1018 17 10000 0.9 135 23:28 05.03.2021
1825 Clear 26 1018 17 10000 0.9 135 22:45 05.03.2021
1826 Clear 25 1019 17 10000 0.67 103 22:23 05.03.2021
1827 Clear 25 1019 17 10000 0.67 103 21:53 05.03.2021
1828 Clear 25 1019 17 10000 0.67 103 21:34 05.03.2021
1829 Clear 24 1021 18 10000 0.65 66 20:54 05.03.2021
1830 Clear 23 1022 19 10000 1.15 15 20:27 05.03.2021
1831 Clear 23 1022 19 10000 1.15 15 19:59 05.03.2021
1832 Clear 22 1023 21 10000 1.6 7 19:27 05.03.2021
1833 Clear 22 1023 21 10000 1.6 7 18:59 05.03.2021
1834 Clear 22 1023 21 10000 1.09 14 18:41 05.03.2021
1835 Clear 21 1023 22 10000 1.11 9 18:23 05.03.2021
1836 Clear 13 1025 23 10000 1.11 9 17:37 05.03.2021
1837 Clear 13 1025 23 10000 1.11 9 17:37 05.03.2021
1838 Clear 20 1024 24 10000 0.98 11 16:58 05.03.2021
1839 Clear 20 1024 24 10000 0.98 11 16:38 05.03.2021
1840 Clear 16 1023 32 10000 0.86 356 16:20 05.03.2021
1841 Clear 16 1023 32 10000 0.86 356 15:46 05.03.2021
1842 Clear 14 1023 36 10000 1 351 15:23 05.03.2021
1843 Clear 14 1023 40 10000 1.02 353 14:39 05.03.2021
1844 Clear 14 1022 40 10000 0.93 351 14:18 05.03.2021
1845 Clear 14 1022 40 10000 0.93 351 13:40 05.03.2021
1846 Clear 14 1023 40 10000 0.85 0 13:19 05.03.2021
1847 Clear 14 1023 40 10000 0.85 0 12:30 05.03.2021
1848 Clear 14 1023 39 10000 0.66 1 11:37 05.03.2021
1849 Clear 15 1024 39 10000 0.28 5 11:18 05.03.2021
1850 Clear 15 1024 39 10000 0.28 5 10:42 05.03.2021
1851 Clear 15 1024 38 10000 0.29 44 10:24 05.03.2021
1852 Clear 15 1024 38 10000 0.29 44 09:50 05.03.2021
1853 Clear 16 1024 37 10000 0.29 77 09:27 05.03.2021
1854 Clear 16 1024 37 10000 0.29 77 08:56 05.03.2021
1855 Clear 16 1024 37 10000 0.29 77 08:36 05.03.2021
1856 Clear 17 1024 35 10000 0.53 170 08:18 05.03.2021
1857 Clear 17 1024 35 10000 0.53 170 07:30 05.03.2021
1858 Clear 17 1024 34 10000 1.01 165 06:33 05.03.2021
1859 Clear 4 1026 34 10000 0.87 169 05:33 05.03.2021
1860 Clear 22 1021 21 10000 0.93 145 00:54 05.03.2021
1861 Clear 22 1021 23 10000 0.97 140 23:45 04.03.2021
1862 Clear 22 1021 22 10000 0.94 132 23:24 04.03.2021
1863 Clear 21 1021 24 10000 1.02 139 22:29 04.03.2021
1864 Clear 21 1021 24 10000 1.02 139 21:53 04.03.2021
1865 Clear 21 1021 24 10000 1.02 139 21:31 04.03.2021
1866 Clear 20 1022 25 10000 1.31 147 20:57 04.03.2021
1867 Clear 20 1022 25 10000 1.31 147 20:38 04.03.2021
1868 Clear 19 1023 27 10000 1.13 143 20:20 04.03.2021
1869 Clear 19 1023 27 10000 1.13 143 20:20 04.03.2021
1870 Clear 19 1023 27 10000 1.13 143 19:49 04.03.2021
1871 Clear 18 1023 29 10000 0.68 179 19:23 04.03.2021
1872 Clear 17 1023 30 10000 0.33 163 18:50 04.03.2021
1873 Clear 16 1023 32 10000 0.59 88 18:29 04.03.2021
1874 Clear 10 1024 28 10000 1.34 247 17:47 04.03.2021
1875 Clear 15 1022 35 10000 0.17 213 17:29 04.03.2021
1876 Clear 6 1024 36 10000 0.89 335 16:50 04.03.2021
1877 Clear 15 1022 35 10000 0.17 213 16:31 04.03.2021
1878 Clear 13 1021 40 10000 0.61 106 15:57 04.03.2021
1879 Clear 13 1021 40 10000 0.61 106 15:38 04.03.2021
1880 Clear 12 1021 44 10000 0.71 168 15:19 04.03.2021
1881 Clear 12 1021 44 10000 0.71 168 14:38 04.03.2021
1882 Clear 12 1020 43 10000 1.01 153 13:54 04.03.2021
1883 Clear 12 1020 43 10000 1.01 153 13:33 04.03.2021
1884 Clouds 12 1019 41 10000 1.09 166 12:58 04.03.2021
1885 Clouds 12 1019 41 10000 1.09 166 12:40 04.03.2021
1886 Clouds 13 1017 40 10000 1.14 154 11:49 04.03.2021
1887 Clouds 13 1016 39 10000 1.18 112 11:28 04.03.2021
1888 Clouds 13 1016 39 10000 1.18 112 10:57 04.03.2021
1889 Clouds 13 1016 39 10000 1.18 112 10:35 04.03.2021
1890 Clouds 14 1016 37 10000 1.14 116 09:51 04.03.2021
1891 Clouds 15 1015 35 10000 1.66 155 09:26 04.03.2021
1892 Clouds 15 1015 35 10000 1.66 155 08:49 04.03.2021
1893 Clouds 15 1014 33 10000 2.6 178 08:23 04.03.2021
1894 Clouds 15 1014 33 10000 2.6 178 07:35 04.03.2021
1895 Clouds 17 1010 27 10000 4.25 181 06:28 04.03.2021
1896 Clouds 17 1010 27 10000 4.25 181 05:52 04.03.2021
1897 Clouds 9 1008 22 10000 0.45 154 02:20 04.03.2021
1898 Clouds 11 1007 18 10000 2.24 120 23:36 03.03.2021
1899 Clouds 10 1008 21 10000 0.89 98 22:29 03.03.2021
1900 Clouds 11 1008 16 10000 1.34 210 21:59 03.03.2021
1901 Clouds 11 1008 16 10000 1.79 358 21:41 03.03.2021
1902 Clouds 11 1008 15 10000 1.79 350 21:22 03.03.2021
1903 Clouds 12 1008 14 10000 1.34 77 20:43 03.03.2021
1904 Clear 12 1008 14 10000 1.34 35 20:24 03.03.2021
1905 Clear 12 1008 16 10000 0.89 112 19:48 03.03.2021
1906 Clear 11 1009 15 10000 0.45 285 19:29 03.03.2021
1907 Clear 11 1009 15 10000 0.45 281 18:55 03.03.2021
1908 Clear 11 1010 14 10000 0.45 282 18:35 03.03.2021
1909 Clear 12 1010 13 10000 1.24 40 17:58 03.03.2021
1910 Clear 9 1010 16 10000 0.71 36 17:21 03.03.2021
1911 Clear 6 1010 20 10000 0.71 36 16:52 03.03.2021
1912 Clear 2 1010 25 10000 1.34 327 16:27 03.03.2021
1913 Clear 15 1009 28 10000 0.77 52 15:54 03.03.2021
1914 Clear 15 1009 28 10000 0.77 52 15:32 03.03.2021
1915 Clear 2 1010 24 10000 0.67 36 14:50 03.03.2021
1916 Clear 2 1010 23 10000 0.45 25 14:27 03.03.2021
1917 Clear 1 1010 26 10000 0.55 32 13:46 03.03.2021
1918 Clear 13 1009 30 10000 0.44 44 13:26 03.03.2021
1919 Clear 13 1009 30 10000 0.44 44 12:43 03.03.2021
1920 Clouds 14 1009 30 10000 0.39 94 12:23 03.03.2021
1921 Clouds 14 1009 30 10000 0.39 94 11:45 03.03.2021
1922 Clouds 14 1010 28 10000 0.64 104 11:27 03.03.2021
1923 Clouds 14 1010 28 10000 0.64 104 10:45 03.03.2021
1924 Clouds 15 1010 27 10000 0.32 120 10:22 03.03.2021
1925 Clouds 4 1013 20 10000 0.32 120 09:43 03.03.2021
1926 Clouds 15 1011 26 10000 0.19 352 08:54 03.03.2021
1927 Clouds 16 1011 26 10000 0.54 359 08:25 03.03.2021
1928 Clouds 16 1011 26 10000 0.54 359 07:58 03.03.2021
1929 Clouds 16 1011 26 10000 0.54 359 07:33 03.03.2021
1930 Clouds 17 1012 25 10000 0.91 15 06:45 03.03.2021
1931 Clouds 17 1012 24 10000 0.81 1 05:44 03.03.2021
1932 Clouds 18 1012 23 10000 1.07 5 04:49 03.03.2021
1933 Clouds 7 1014 15 10000 0.88 345 04:24 03.03.2021
1934 Clouds 23 1011 17 10000 0.58 150 00:37 03.03.2021
1935 Clouds 23 1011 16 10000 0.39 149 23:44 02.03.2021
1936 Clouds 23 1012 17 10000 0.37 86 22:54 02.03.2021
1937 Clouds 22 1013 17 10000 0.63 53 22:24 02.03.2021
1938 Clouds 22 1013 17 10000 0.63 53 21:59 02.03.2021
1939 Clouds 22 1013 17 10000 0.63 53 21:37 02.03.2021
1940 Clouds 21 1015 18 10000 1.09 31 21:18 02.03.2021
1941 Clouds 21 1015 18 10000 1.09 31 20:41 02.03.2021
1942 Clouds 21 1016 19 10000 1.62 22 20:21 02.03.2021
1943 Clouds 21 1016 19 10000 1.62 22 19:49 02.03.2021
1944 Clouds 21 1016 19 10000 1.62 22 19:30 02.03.2021
1945 Clouds 20 1017 21 10000 1.95 20 18:58 02.03.2021
1946 Clouds 20 1017 21 10000 1.95 20 18:39 02.03.2021
1947 Clouds 11 1021 11 10000 0.45 198 18:19 02.03.2021
1948 Clouds 9 1021 13 10000 0.45 114 17:40 02.03.2021
1949 Clouds 8 1021 15 10000 1.6 6 17:20 02.03.2021
1950 Clouds 17 1018 24 10000 1.6 6 16:48 02.03.2021
1951 Clouds 13 1017 31 10000 1.36 347 16:20 02.03.2021
1952 Clouds 13 1017 31 10000 1.36 347 15:47 02.03.2021
1953 Clouds 12 1017 34 10000 0.99 353 15:21 02.03.2021
1954 Clouds 12 1018 33 10000 0.97 7 14:21 02.03.2021
1955 Clouds 12 1018 33 10000 0.97 7 13:48 02.03.2021
1956 Clear 12 1018 32 10000 1.06 351 13:28 02.03.2021
1957 Clear 12 1018 32 10000 1.06 351 12:51 02.03.2021
1958 Clear 13 1018 31 10000 1.43 15 12:29 02.03.2021
1959 Clear 13 1018 31 10000 1.43 15 11:53 02.03.2021
1960 Clear 13 1018 31 10000 1.43 15 11:30 02.03.2021
1961 Clouds 13 1019 31 10000 1.05 346 10:57 02.03.2021
1962 Clouds 13 1019 31 10000 1.05 346 10:31 02.03.2021
1963 Clear 13 1019 30 10000 0.82 5 09:44 02.03.2021
1964 Clear 14 1020 30 10000 0.61 9 09:25 02.03.2021
1965 Clear 14 1020 30 10000 0.61 9 08:56 02.03.2021
1966 Clear 14 1020 30 10000 0.61 9 08:35 02.03.2021
1967 Clear 14 1021 29 10000 0.52 10 07:52 02.03.2021
1968 Clear 15 1022 28 10000 0.61 8 06:50 02.03.2021
1969 Clear 15 1022 27 10000 0.51 16 05:54 02.03.2021
1970 Clear 15 1022 27 10000 0.51 16 05:33 02.03.2021
1971 Clear 5 1024 16 10000 0.22 30 04:39 02.03.2021
1972 Clear 20 1020 19 10000 1.78 158 01:43 02.03.2021
1973 Clear 20 1020 18 10000 2.43 163 01:22 02.03.2021
1974 Clear 20 1021 19 10000 2.01 156 23:45 01.03.2021
1975 Clear 20 1021 19 10000 1.71 153 23:20 01.03.2021
1976 Clear 20 1021 19 10000 1.71 153 22:39 01.03.2021
1977 Clear 19 1022 20 10000 1.46 153 22:21 01.03.2021
1978 Clear 19 1022 20 10000 1.46 153 21:43 01.03.2021
1979 Clear 19 1023 21 10000 1.24 141 21:23 01.03.2021
1980 Clear 19 1023 21 10000 1.24 141 21:23 01.03.2021
1981 Clear 19 1023 21 10000 1.24 141 20:46 01.03.2021
1982 Clear 18 1025 22 10000 0.94 117 20:27 01.03.2021
1983 Clear 18 1025 22 10000 0.94 117 19:45 01.03.2021
1984 Clear 17 1026 23 10000 0.61 95 19:27 01.03.2021
1985 Clear 10 1028 14 10000 2.24 58 18:44 01.03.2021
1986 Clear 16 1027 25 10000 0.43 67 18:24 01.03.2021
1987 Clear 9 1028 16 10000 0.45 40 17:49 01.03.2021
1988 Clear 6 1029 18 10000 0.47 84 17:24 01.03.2021
1989 Clear 15 1027 27 10000 0.47 84 16:48 01.03.2021
1990 Clear 15 1027 27 10000 0.47 84 16:30 01.03.2021
1991 Clear 15 1027 27 10000 0.47 84 16:30 01.03.2021
1992 Clear 11 1026 36 10000 0.31 117 15:58 01.03.2021
1993 Clear 11 1026 36 10000 0.31 117 15:38 01.03.2021
1994 Clear 9 1025 40 10000 0.23 129 15:18 01.03.2021
1995 Clear 9 1025 40 10000 0.23 129 14:41 01.03.2021
1996 Clear 9 1025 39 10000 0.08 91 14:22 01.03.2021
1997 Clear 9 1025 39 10000 0.08 91 13:39 01.03.2021
1998 Clear 10 1026 38 10000 0.31 44 13:20 01.03.2021
1999 Clear 10 1026 38 10000 0.31 44 12:43 01.03.2021
2000 Clear 10 1026 37 10000 0.25 65 12:25 01.03.2021
2001 Clear 10 1026 37 10000 0.25 65 11:57 01.03.2021
2002 Clear 10 1026 37 10000 0.25 65 11:30 01.03.2021
2003 Clear 11 1026 36 10000 0.18 107 10:42 01.03.2021
2004 Clear 11 1026 35 10000 0.25 81 10:22 01.03.2021
2005 Clear 11 1026 35 10000 0.25 81 09:53 01.03.2021
2006 Clear 11 1026 35 10000 0.25 81 09:34 01.03.2021
2007 Clear 12 1025 34 10000 0.26 38 08:57 01.03.2021
2008 Clear 12 1025 34 10000 0.26 38 08:36 01.03.2021
2009 Clear 12 1026 33 10000 0.62 23 07:33 01.03.2021
2010 Clear 13 1025 31 10000 0.33 340 06:25 01.03.2021
2011 Clear 8 1026 15 10000 1.79 27 02:40 01.03.2021
2012 Clouds 18 1023 23 10000 2.74 7 23:54 28.02.2021
2013 Clouds 17 1024 23 10000 2.96 7 23:20 28.02.2021
2014 Clouds 17 1024 23 10000 2.96 7 22:44 28.02.2021
2015 Clear 16 1024 25 10000 3.6 4 22:21 28.02.2021
2016 Clear 16 1024 25 10000 3.6 4 21:47 28.02.2021
2017 Clear 15 1025 26 10000 3.68 4 21:24 28.02.2021
2018 Clear 15 1025 26 10000 3.68 4 20:49 28.02.2021
2019 Clear 15 1025 26 10000 3.68 4 20:30 28.02.2021
2020 Clear 14 1027 29 10000 3.29 6 19:47 28.02.2021
2021 Clouds 13 1027 31 10000 3.08 14 19:27 28.02.2021
2022 Clouds 13 1027 31 10000 3.08 14 18:47 28.02.2021
2023 Clouds 12 1028 33 10000 2.85 19 18:28 28.02.2021
2024 Clouds 4 1027 26 10000 0.89 32 17:58 28.02.2021
2025 Clouds 3 1027 27 10000 1.79 104 17:38 28.02.2021
2026 Clouds 3 1026 29 10000 0.89 115 17:20 28.02.2021
2027 Clouds 1 1026 33 10000 1.79 345 16:48 28.02.2021
2028 Clouds -2 1025 38 10000 2.15 355 16:29 28.02.2021
2029 Clouds -2 1025 37 10000 0.45 29 15:52 28.02.2021
2030 Clear -3 1024 38 10000 3.13 349 15:28 28.02.2021
2031 Clear -3 1024 38 10000 2.51 355 14:58 28.02.2021
2032 Clear -2 1024 37 10000 0.45 337 14:35 28.02.2021
2033 Clear -2 1024 40 10000 0.89 324 13:59 28.02.2021
2034 Clear -3 1024 43 10000 0.89 266 13:38 28.02.2021
2035 Clear -3 1024 43 10000 3.09 359 13:19 28.02.2021
2036 Clear -2 1024 38 10000 3.09 359 12:54 28.02.2021
2037 Clear -1 1023 35 10000 0.45 2 12:35 28.02.2021
2038 Clear 0 1023 34 10000 4.02 23 11:59 28.02.2021
2039 Clear 0 1023 34 10000 4.02 351 11:41 28.02.2021
2040 Clear 0 1023 34 10000 4.47 335 11:22 28.02.2021
2041 Clear 0 1023 36 10000 4.47 359 10:43 28.02.2021
2042 Clear 1 1023 36 10000 4.02 341 10:25 28.02.2021
2043 Clear 1 1023 35 10000 4.02 345 09:40 28.02.2021
2044 Clear 1 1022 34 10000 2.68 16 09:22 28.02.2021
2045 Clear 1 1022 34 10000 3.58 2 08:46 28.02.2021
2046 Clear 2 1022 31 10000 3.13 345 08:28 28.02.2021
2047 Clear 2 1021 28 10000 2.68 8 07:50 28.02.2021
2048 Clear 2 1021 26 10000 3.13 349 07:28 28.02.2021
2049 Clear 3 1019 23 10000 2.24 318 06:25 28.02.2021
2050 Clear 4 1018 21 10000 3.13 337 05:24 28.02.2021
2051 Clear 6 1016 17 10000 1.34 19 03:24 28.02.2021
2052 Clear 17 1016 23 10000 7.48 19 01:36 28.02.2021
2053 Clear 19 1014 23 10000 5.07 12 00:43 28.02.2021
2054 Clear 19 1014 24 10000 3.23 355 00:25 28.02.2021
2055 Clear 19 1014 24 10000 3.23 355 23:44 27.02.2021
2056 Clear 18 1014 25 10000 2.24 11 23:19 27.02.2021
2057 Clear 18 1014 25 10000 2.24 11 22:44 27.02.2021
2058 Clear 18 1014 26 10000 1.7 17 22:19 27.02.2021
2059 Clear 18 1014 26 10000 1.7 17 21:41 27.02.2021
2060 Clear 17 1014 27 10000 1.32 7 21:23 27.02.2021
2061 Clear 17 1014 27 10000 1.32 7 20:48 27.02.2021
2062 Clear 16 1015 29 10000 2.39 5 20:27 27.02.2021
2063 Clear 16 1015 29 10000 2.39 5 19:45 27.02.2021
2064 Clouds 15 1016 31 10000 3.39 11 19:27 27.02.2021
2065 Clouds 15 1016 30 10000 3.43 6 18:45 27.02.2021
2066 Clouds 14 1017 32 10000 4.21 9 18:21 27.02.2021
2067 Clouds 7 1014 24 10000 2.24 339 17:57 27.02.2021
2068 Clouds 6 1013 25 10000 0.89 271 17:38 27.02.2021
2069 Clouds 6 1013 26 10000 1.79 269 17:18 27.02.2021
2070 Clouds 4 1013 28 10000 0.89 322 16:48 27.02.2021
2071 Clear 3 1012 31 10000 2.68 300 16:26 27.02.2021
2072 Clear 1 1012 34 10000 1.34 324 15:43 27.02.2021
2073 Clear 1 1012 35 10000 0.89 327 15:18 27.02.2021
2074 Clear 1 1011 35 10000 1.79 318 14:40 27.02.2021
2075 Clear 2 1011 35 10000 0.45 258 14:21 27.02.2021
2076 Clear 2 1011 35 10000 1.34 323 13:40 27.02.2021
2077 Clear 2 1011 35 10000 1.34 325 13:19 27.02.2021
2078 Clear 3 1011 34 10000 2.24 331 12:45 27.02.2021
2079 Clear 3 1011 32 10000 4.02 328 12:24 27.02.2021
2080 Clear 4 1011 27 10000 1.34 320 11:47 27.02.2021
2081 Clear 4 1011 27 10000 2.24 320 11:29 27.02.2021
2082 Clear 5 1011 26 10000 1.79 316 10:51 27.02.2021
2083 Clear 6 1011 26 10000 2.68 336 10:32 27.02.2021
2084 Clear 6 1011 25 10000 1.79 315 09:53 27.02.2021
2085 Clear 7 1010 24 10000 2.24 326 09:31 27.02.2021
2086 Clear 8 1011 22 10000 1.34 229 08:43 27.02.2021
2087 Clear 8 1011 21 10000 3.13 315 08:24 27.02.2021
2088 Clear 7 1010 23 10000 1.79 360 07:44 27.02.2021
2089 Clear 8 1010 19 10000 2.24 348 06:55 27.02.2021
2090 Clear 15 1010 5 10000 2.68 54 01:24 27.02.2021
2091 Clear 17 1011 4 10000 2.24 27 00:30 27.02.2021
2092 Clear 17 1012 4 10000 3.13 36 23:41 26.02.2021
2093 Clear 24 1012 15 10000 3.59 162 23:21 26.02.2021
2094 Clear 17 1014 4 10000 1.79 35 22:34 26.02.2021
2095 Clear 16 1016 6 10000 1.34 71 21:54 26.02.2021
2096 Clear 16 1016 6 10000 1.79 63 21:35 26.02.2021
2097 Clear 15 1017 6 10000 2.68 70 20:56 26.02.2021
2098 Clear 15 1017 6 10000 2.68 73 20:37 26.02.2021
2099 Clear 14 1018 6 10000 2.68 50 20:18 26.02.2021
2100 Clear 19 1017 19 10000 1.5 157 19:27 26.02.2021
2101 Clear 13 1020 9 10000 0.89 102 18:57 26.02.2021
2102 Clear 12 1019 9 10000 1.34 64 18:36 26.02.2021
2103 Clear 18 1019 20 10000 0.59 134 18:18 26.02.2021
2104 Clear 18 1019 20 10000 0.59 134 17:38 26.02.2021
2105 Clear 17 1020 23 10000 0.43 156 17:19 26.02.2021
2106 Clear 8 1020 15 10000 0.45 312 16:46 26.02.2021
2107 Clear 11 1020 33 10000 0.16 258 16:28 26.02.2021
2108 Clear 6 1020 17 10000 1.34 318 15:45 26.02.2021
2109 Clear 6 1020 17 10000 1.34 318 15:45 26.02.2021
2110 Clear 10 1019 35 10000 0.15 2 15:27 26.02.2021
2111 Clear 10 1019 35 10000 0.15 2 14:58 26.02.2021
2112 Clear 10 1019 35 10000 0.15 2 14:37 26.02.2021
2113 Clear 10 1019 34 10000 0.31 32 14:18 26.02.2021
2114 Clear 10 1020 34 10000 0.16 138 13:39 26.02.2021
2115 Clear 4 1021 18 10000 1.34 319 13:20 26.02.2021
2116 Clear 4 1021 18 10000 1.34 319 13:20 26.02.2021
2117 Clear 2 1021 19 10000 0.31 332 12:33 26.02.2021
2118 Clear 3 1021 20 10000 1.34 318 11:47 26.02.2021
2119 Clear 11 1020 31 10000 0.29 28 11:20 26.02.2021
2120 Clear 11 1020 31 10000 0.29 28 10:45 26.02.2021
2121 Clear 12 1021 31 10000 0.25 234 09:49 26.02.2021
2122 Clear 12 1021 30 10000 0.49 208 09:29 26.02.2021
2123 Clear 12 1021 30 10000 0.49 208 08:51 26.02.2021
2124 Clear 13 1021 29 10000 0.5 174 08:18 26.02.2021
2125 Clear 13 1021 29 10000 0.5 174 07:41 26.02.2021
2126 Clouds 13 1022 28 10000 0.15 230 06:35 26.02.2021
2127 Clouds 3 1023 11 10000 0.5 325 05:21 26.02.2021
2128 Clear 10 1021 6 10000 1.87 353 02:54 26.02.2021
2129 Clear 18 1020 18 10000 3.32 357 01:29 26.02.2021
2130 Clear 18 1021 19 10000 3.81 358 23:44 25.02.2021
2131 Clear 18 1022 20 10000 4.78 355 23:25 25.02.2021
2132 Clear 18 1022 20 10000 4.78 355 22:47 25.02.2021
2133 Clear 17 1023 21 10000 5.21 356 21:58 25.02.2021
2134 Clear 17 1023 21 10000 5.21 356 21:36 25.02.2021
2135 Clear 16 1025 22 10000 4.65 359 21:18 25.02.2021
2136 Clear 16 1025 22 10000 4.65 359 20:40 25.02.2021
2137 Clear 15 1026 24 10000 4.85 0 20:21 25.02.2021
2138 Clear 15 1026 24 10000 4.85 0 19:51 25.02.2021
2139 Clear 14 1028 26 10000 5.66 3 19:21 25.02.2021
2140 Clear 14 1028 26 10000 5.66 3 18:56 25.02.2021
2141 Clear 13 1029 30 10000 6.4 3 18:20 25.02.2021
2142 Clear 13 1029 30 10000 6.4 3 18:20 25.02.2021
2143 Clear 5 1027 14 10000 2.68 349 17:47 25.02.2021
2144 Clear 3 1027 15 10000 4.47 341 17:25 25.02.2021
2145 Clear 1 1026 22 10000 5.36 22 16:43 25.02.2021
2146 Clear -1 1026 24 10000 6.71 328 16:25 25.02.2021
2147 Clear -2 1027 26 10000 5.36 344 15:30 25.02.2021
2148 Clear -2 1027 29 10000 4.02 351 14:49 25.02.2021
2149 Clear -1 1026 25 10000 2.24 343 14:22 25.02.2021
2150 Clear -2 1026 31 10000 2.24 6 13:51 25.02.2021
2151 Clear -2 1027 32 10000 4.02 2 13:25 25.02.2021
2152 Clear -2 1026 33 10000 4.47 347 12:50 25.02.2021
2153 Clear -3 1026 35 10000 2.24 310 12:21 25.02.2021
2154 Clear -2 1025 31 10000 0.45 341 11:45 25.02.2021
2155 Clear -1 1025 31 10000 0.89 45 11:19 25.02.2021
2156 Clear -1 1025 30 10000 3.13 360 10:44 25.02.2021
2157 Clear 0 1025 29 10000 4.02 346 09:59 25.02.2021
2158 Clear 1 1024 27 10000 4.47 275 09:40 25.02.2021
2159 Clear 1 1024 26 10000 4.47 340 08:54 25.02.2021
2160 Clear 1 1023 27 10000 7.15 345 08:23 25.02.2021
2161 Clear 2 1023 26 10000 7.15 346 07:53 25.02.2021
2162 Clear 2 1023 26 10000 5.36 304 07:29 25.02.2021
2163 Clear 3 1023 24 10000 4.92 329 06:51 25.02.2021
2164 Clear 23 1015 17 10000 5.32 18 01:57 25.02.2021
2165 Clear 23 1015 16 10000 4.54 22 01:37 25.02.2021
2166 Clear 24 1014 15 10000 2.49 14 00:39 25.02.2021
2167 Clear 25 1013 15 10000 0.86 34 23:51 24.02.2021
2168 Clear 24 1013 15 10000 0.51 26 23:27 24.02.2021
2169 Clear 24 1013 15 10000 0.51 26 22:44 24.02.2021
2170 Clear 24 1014 15 10000 0.98 5 22:25 24.02.2021
2171 Clear 24 1014 15 10000 0.98 5 21:45 24.02.2021
2172 Clear 16 1016 9 10000 0.45 276 20:56 24.02.2021
2173 Clear 15 1017 9 10000 0.89 246 20:37 24.02.2021
2174 Clear 23 1017 17 10000 2.44 14 20:18 24.02.2021
2175 Clear 13 1017 11 10000 0.89 256 19:29 24.02.2021
2176 Clear 12 1017 13 10000 1.79 234 18:59 24.02.2021
2177 Clear 12 1017 13 10000 2.24 252 18:34 24.02.2021
2178 Clear 12 1018 13 10000 1.34 292 17:56 24.02.2021
2179 Clear 11 1017 14 10000 1.34 277 17:37 24.02.2021
2180 Clear 9 1017 15 10000 2.68 332 17:18 24.02.2021
2181 Clear 7 1017 17 10000 3.58 302 16:43 24.02.2021
2182 Clear 7 1017 17 10000 3.58 325 16:19 24.02.2021
2183 Clear 6 1017 16 10000 3.58 304 15:40 24.02.2021
2184 Clear 7 1016 16 10000 1.79 325 14:55 24.02.2021
2185 Clear 7 1016 16 10000 3.58 312 14:35 24.02.2021
2186 Clear 7 1016 15 10000 1.79 326 13:59 24.02.2021
2187 Clear 7 1016 15 10000 2.68 324 13:39 24.02.2021
2188 Clear 7 1016 14 10000 1.34 312 13:21 24.02.2021
2189 Clear 8 1016 14 10000 2.24 335 12:44 24.02.2021
2190 Clear 8 1016 13 10000 1.79 308 12:24 24.02.2021
2191 Clear 8 1016 13 10000 1.79 244 11:46 24.02.2021
2192 Clear 8 1017 14 10000 1.34 237 10:57 24.02.2021
2193 Clear 8 1017 14 10000 1.34 287 10:32 24.02.2021
2194 Clear 8 1017 14 10000 1.34 316 09:46 24.02.2021
2195 Clear 7 1017 14 10000 1.34 320 09:20 24.02.2021
2196 Clear 18 1017 26 10000 1.8 4 08:34 24.02.2021
2197 Clear 18 1017 25 10000 1.35 9 07:57 24.02.2021
2198 Clouds 6 1018 14 10000 0.45 311 07:20 24.02.2021
2199 Clouds 19 1018 25 10000 1.06 6 06:31 24.02.2021
2200 Clouds 12 1017 7 10000 1.34 339 03:31 24.02.2021
2201 Clouds 19 1017 4 10000 3.13 322 00:26 24.02.2021
2202 Clouds 26 1015 15 10000 5.4 2 23:29 23.02.2021
2203 Clouds 26 1015 15 10000 5.4 2 22:40 23.02.2021
2204 Clouds 26 1016 16 10000 5.33 3 22:20 23.02.2021
2205 Clouds 26 1016 16 10000 5.33 3 22:20 23.02.2021
2206 Clouds 26 1016 16 10000 5.33 3 21:44 23.02.2021
2207 Clouds 26 1018 17 10000 4.58 4 21:24 23.02.2021
2208 Clouds 26 1018 17 10000 4.58 4 20:49 23.02.2021
2209 Clouds 25 1018 17 10000 4.62 6 20:29 23.02.2021
2210 Clouds 25 1018 17 10000 4.62 6 19:49 23.02.2021
2211 Clouds 24 1019 19 10000 3.51 354 19:28 23.02.2021
2212 Clear 16 1019 22 10000 1.34 237 18:59 23.02.2021
2213 Clear 14 1019 24 10000 1.79 285 18:40 23.02.2021
2214 Clear 22 1019 21 10000 2.58 6 18:20 23.02.2021
2215 Clear 12 1020 29 10000 1.79 351 17:39 23.02.2021
2216 Clear 9 1020 34 10000 1.34 329 16:58 23.02.2021
2217 Clear 8 1020 37 10000 2.68 341 16:39 23.02.2021
2218 Clear 7 1020 37 10000 1.34 329 16:20 23.02.2021
2219 Clear 7 1020 38 10000 2.24 339 15:41 23.02.2021
2220 Clear 6 1020 38 10000 1.34 318 15:21 23.02.2021
2221 Clear 6 1020 38 10000 2.24 332 14:45 23.02.2021
2222 Clear 7 1019 36 10000 1.79 326 14:26 23.02.2021
2223 Clear 8 1020 33 10000 2.68 335 13:55 23.02.2021
2224 Clear 8 1019 33 10000 3.58 335 13:31 23.02.2021
2225 Clouds 3 1019 43 10000 0.44 336 12:54 23.02.2021
2226 Clouds 15 1018 32 10000 0.34 301 12:22 23.02.2021
2227 Clouds 15 1018 32 10000 0.34 301 11:51 23.02.2021
2228 Clouds 16 1019 32 10000 0.26 213 11:23 23.02.2021
2229 Clouds 16 1019 32 10000 0.26 213 10:53 23.02.2021
2230 Clouds 16 1019 32 10000 0.26 213 10:35 23.02.2021
2231 Clouds 4 1019 37 10000 0.15 195 09:45 23.02.2021
2232 Clouds 5 1019 36 10000 0.22 258 09:26 23.02.2021
2233 Clouds 6 1020 37 10000 0.22 258 08:57 23.02.2021
2234 Clouds 5 1020 36 10000 0.22 258 08:39 23.02.2021
2235 Clear 6 1020 36 10000 0.22 266 08:20 23.02.2021
2236 Clear 8 1021 30 10000 0.76 342 06:50 23.02.2021
2237 Clear 10 1021 28 10000 0.45 311 05:22 23.02.2021
2238 Clear 19 1021 25 10000 0.78 356 02:36 23.02.2021
2239 Clear 22 1021 21 10000 2.19 350 01:42 23.02.2021
2240 Clear 23 1022 20 10000 3.4 2 00:18 23.02.2021
2241 Clear 22 1023 20 10000 4.05 4 23:25 22.02.2021
2242 Clear 22 1023 20 10000 4.05 4 22:42 22.02.2021
2243 Clear 22 1024 21 10000 3.99 2 22:21 22.02.2021
2244 Clear 22 1024 21 10000 3.99 2 21:54 22.02.2021
2245 Clear 22 1024 21 10000 3.99 2 21:36 22.02.2021
2246 Clear 21 1026 22 10000 3.97 6 21:18 22.02.2021
2247 Clear 21 1026 22 10000 3.97 6 20:42 22.02.2021
2248 Clear 20 1027 24 10000 4.22 7 20:22 22.02.2021
2249 Clear 20 1027 24 10000 4.04 7 19:38 22.02.2021
2250 Clear 19 1028 25 10000 4.34 8 19:19 22.02.2021
2251 Clear 19 1028 25 10000 4.34 8 18:46 22.02.2021
2252 Clear 18 1029 27 10000 4.31 5 18:22 22.02.2021
2253 Clear 18 1029 27 10000 4.31 5 17:43 22.02.2021
2254 Clear 16 1029 30 10000 3.31 3 17:18 22.02.2021
2255 Clear 16 1029 30 10000 3.31 3 16:46 22.02.2021
2256 Clear 14 1029 35 10000 2.64 1 16:25 22.02.2021
2257 Clear 7 1029 32 10000 4.47 359 15:31 22.02.2021
2258 Clear 6 1029 32 10000 4.47 342 14:49 22.02.2021
2259 Clear 6 1028 33 10000 4.47 347 14:30 22.02.2021
2260 Clear 6 1029 33 10000 1.79 351 13:51 22.02.2021
2261 Clear 6 1029 32 10000 3.58 349 13:25 22.02.2021
2262 Clear 6 1029 32 10000 3.58 331 12:45 22.02.2021
2263 Clear 6 1029 32 10000 3.58 339 12:22 22.02.2021
2264 Clear 7 1029 30 10000 4.47 336 11:48 22.02.2021
2265 Clear 7 1029 30 10000 4.02 351 11:28 22.02.2021
2266 Clear 7 1030 30 10000 4.47 345 10:50 22.02.2021
2267 Clear 7 1030 30 10000 3.58 334 10:31 22.02.2021
2268 Clear 7 1030 29 10000 4.47 354 09:52 22.02.2021
2269 Clear 7 1030 29 10000 4.47 336 09:32 22.02.2021
2270 Clear 7 1030 28 10000 4.47 342 08:58 22.02.2021
2271 Clear 7 1030 28 10000 4.47 342 08:39 22.02.2021
2272 Clear 7 1030 28 10000 3.58 359 07:59 22.02.2021
2273 Clear 7 1030 27 10000 3.58 343 07:27 22.02.2021
2274 Clear 7 1030 28 10000 3.58 328 06:47 22.02.2021
2275 Clear 7 1030 27 10000 2.68 4 06:23 22.02.2021
2276 Clear 7 1029 26 10000 4.02 316 03:48 22.02.2021
2277 Clear 11 1028 20 10000 1.34 341 02:55 22.02.2021
2278 Clear 19 1026 23 10000 3.46 350 00:49 22.02.2021
2279 Clear 19 1027 23 10000 4.04 351 00:26 22.02.2021
2280 Clear 19 1027 23 10000 4.04 351 23:50 21.02.2021
2281 Clear 19 1027 23 10000 3.91 354 22:55 21.02.2021
2282 Clear 18 1028 24 10000 4.21 3 22:25 21.02.2021
2283 Clear 18 1028 24 10000 4.21 3 21:50 21.02.2021
2284 Clear 18 1028 24 10000 4.21 3 21:30 21.02.2021
2285 Clouds 18 1030 26 10000 4.25 3 20:55 21.02.2021
2286 Clouds 17 1031 27 10000 4.77 359 20:22 21.02.2021
2287 Clouds 17 1031 27 10000 4.77 359 19:59 21.02.2021
2288 Clouds 17 1031 27 10000 4.77 359 19:39 21.02.2021
2289 Clouds 16 1031 29 10000 4.46 2 19:21 21.02.2021
2290 Clear 15 1031 32 10000 3.97 355 18:28 21.02.2021
2291 Clear 15 1031 32 10000 3.97 355 17:57 21.02.2021
2292 Clear 6 1031 34 10000 3.13 333 17:25 21.02.2021
2293 Clear 4 1030 36 10000 3.58 345 16:53 21.02.2021
2294 Clear 3 1030 37 10000 4.47 26 16:31 21.02.2021
2295 Clear 1 1029 43 10000 0.45 174 15:36 21.02.2021
2296 Clear 2 1028 41 10000 3.58 326 15:18 21.02.2021
2297 Clear 2 1029 44 10000 4.47 333 14:40 21.02.2021
2298 Clear 2 1028 43 10000 4.47 343 14:19 21.02.2021
2299 Clear 2 1028 45 10000 4.92 343 13:30 21.02.2021
2300 Clear 1 1028 45 10000 3.13 351 12:59 21.02.2021
2301 Clear 1 1028 45 10000 3.13 345 12:28 21.02.2021
2302 Clear 1 1028 45 10000 0.45 223 11:43 21.02.2021
2303 Clear 1 1027 44 10000 2.24 333 10:58 21.02.2021
2304 Clear 2 1027 41 10000 1.34 343 10:22 21.02.2021
2305 Clear 3 1027 38 10000 2.68 325 09:52 21.02.2021
2306 Clear 3 1028 38 10000 4.47 343 09:27 21.02.2021
2307 Clear 3 1028 37 10000 3.13 349 08:49 21.02.2021
2308 Clear 3 1027 38 10000 4.02 345 08:19 21.02.2021
2309 Clear 3 1027 35 10000 4.92 348 07:33 21.02.2021
2310 Clear 3 1027 35 10000 1.34 316 06:52 21.02.2021
2311 Clear 7 1022 21 10000 4.02 338 02:49 21.02.2021
2312 Clear 9 1022 17 10000 3.13 326 02:29 21.02.2021
2313 Clear 19 1018 20 10000 9.29 353 00:43 21.02.2021
2314 Clear 20 1018 19 10000 10.7 349 00:19 21.02.2021
2315 Clear 20 1017 18 10000 10.08 348 23:20 20.02.2021
2316 Clear 20 1017 18 10000 10.08 348 22:41 20.02.2021
2317 Clouds 21 1017 18 10000 8.94 339 22:23 20.02.2021
2318 Clouds 21 1017 18 10000 8.94 339 21:44 20.02.2021
2319 Clear 21 1017 20 10000 7.09 342 21:24 20.02.2021
2320 Clear 21 1017 20 10000 7.09 342 20:42 20.02.2021
2321 Clear 19 1018 24 10000 3.68 351 20:21 20.02.2021
2322 Clear 19 1018 24 10000 3.68 351 19:52 20.02.2021
2323 Clear 11 1017 10 10000 2.68 358 19:29 20.02.2021
2324 Clear 9 1016 14 10000 3.13 239 18:41 20.02.2021
2325 Clear 8 1016 22 10000 3.58 260 18:21 20.02.2021
2326 Clear 7 1015 25 10000 4.92 208 17:38 20.02.2021
2327 Clear 7 1015 32 10000 2.68 235 16:57 20.02.2021
2328 Clear 7 1015 32 10000 4.02 245 16:32 20.02.2021
2329 Clear 13 1015 39 10000 2.61 208 15:55 20.02.2021
2330 Clear 13 1015 39 10000 2.61 208 15:36 20.02.2021
2331 Clear 13 1015 39 10000 2.23 191 14:48 20.02.2021
2332 Clear 6 1015 30 10000 3.13 281 14:24 20.02.2021
2333 Clear 3 1016 24 10000 0.45 213 13:48 20.02.2021
2334 Clear 2 1017 26 10000 1.34 351 13:24 20.02.2021
2335 Clear 2 1017 24 10000 0.45 341 12:50 20.02.2021
2336 Clear 14 1016 34 10000 1.31 167 12:24 20.02.2021
2337 Clear 2 1018 30 10000 1.31 167 11:44 20.02.2021
2338 Clear 2 1018 31 10000 0.45 84 11:25 20.02.2021
2339 Clear 14 1017 32 10000 1.71 164 10:50 20.02.2021
2340 Clear 15 1017 31 10000 1.6 163 09:55 20.02.2021
2341 Clear 15 1017 31 10000 1.6 163 09:30 20.02.2021
2342 Clear 15 1018 31 10000 1.21 156 08:43 20.02.2021
2343 Clear 15 1019 31 10000 0.63 146 08:18 20.02.2021
2344 Clear 6 1022 23 10000 0.92 163 03:33 20.02.2021
2345 Clear 12 1021 16 10000 1.34 77 02:28 20.02.2021
2346 Clear 13 1022 15 10000 1.34 353 01:49 20.02.2021
2347 Clouds 20 1019 21 10000 0.58 159 00:45 20.02.2021
2348 Clouds 20 1020 21 10000 0.78 139 00:20 20.02.2021
2349 Clouds 19 1020 21 10000 0.72 132 23:18 19.02.2021
2350 Clouds 19 1022 22 10000 0.68 120 22:28 19.02.2021
2351 Clouds 19 1022 22 10000 0.68 120 21:58 19.02.2021
2352 Clouds 19 1022 22 10000 0.68 120 21:32 19.02.2021
2353 Clouds 18 1023 23 10000 0.54 102 20:57 19.02.2021
2354 Clouds 18 1023 23 10000 0.54 102 20:37 19.02.2021
2355 Clouds 17 1024 24 10000 0.53 103 20:18 19.02.2021
2356 Clouds 17 1024 24 10000 0.53 103 19:30 19.02.2021
2357 Clouds 16 1025 26 10000 0.5 108 18:57 19.02.2021
2358 Clouds 16 1025 25 10000 0.46 103 18:35 19.02.2021
2359 Clouds 8 1027 22 10000 0.45 266 17:56 19.02.2021
2360 Clear 4 1027 28 10000 0.19 77 17:24 19.02.2021
2361 Clear 14 1025 29 10000 0.19 77 16:39 19.02.2021
2362 Clear 11 1025 38 10000 0.32 347 16:20 19.02.2021
2363 Clear 11 1025 28 10000 0.32 347 15:47 19.02.2021
2364 Clear 10 1025 28 10000 0.67 10 15:27 19.02.2021
2365 Clear 10 1025 28 10000 0.67 10 14:44 19.02.2021
2366 Clear 11 1025 28 10000 0.77 18 14:26 19.02.2021
2367 Clear 11 1025 28 10000 0.77 18 13:53 19.02.2021
2368 Clouds -1 1026 35 10000 0.51 29 13:25 19.02.2021
2369 Clouds -1 1026 35 10000 0.89 290 12:52 19.02.2021
2370 Clouds 12 1025 25 10000 0.22 44 12:24 19.02.2021
2371 Clouds 12 1025 25 10000 0.22 44 11:54 19.02.2021
2372 Clouds 12 1025 25 10000 0.17 56 11:26 19.02.2021
2373 Clouds 12 1025 25 10000 0.17 56 10:54 19.02.2021
2374 Clouds 12 1025 25 10000 0.17 56 10:31 19.02.2021
2375 Clouds 13 1026 24 10000 0.27 116 09:51 19.02.2021
2376 Clouds 13 1026 24 10000 0.61 137 09:27 19.02.2021
2377 Clouds 1 1028 32 10000 0.61 137 08:54 19.02.2021
2378 Clouds 14 1027 23 10000 0.73 151 08:26 19.02.2021
2379 Clouds 14 1027 23 10000 0.73 151 07:49 19.02.2021
2380 Clouds 14 1027 23 10000 0.73 151 07:31 19.02.2021
2381 Clouds 2 1029 31 10000 1.2 149 06:54 19.02.2021
2382 Clear 14 1026 21 10000 1.17 145 06:27 19.02.2021
2383 Clear 3 1029 26 10000 1.56 192 04:41 19.02.2021
2384 Clear 17 1026 15 10000 0.89 171 01:48 19.02.2021
2385 Clear 17 1026 15 10000 0.86 161 00:38 19.02.2021
2386 Clear 17 1026 15 10000 0.91 133 23:56 18.02.2021
2387 Clear 17 1026 15 10000 0.91 133 23:35 18.02.2021
2388 Clear 17 1027 15 10000 0.56 93 22:51 18.02.2021
2389 Clear 17 1027 15 10000 0.56 93 22:30 18.02.2021
2390 Clear 16 1028 15 10000 0.61 23 21:56 18.02.2021
2391 Clear 15 1029 16 10000 1.67 359 21:28 18.02.2021
2392 Clear 15 1029 16 10000 1.67 359 20:58 18.02.2021
2393 Clear 15 1029 16 10000 1.67 359 20:38 18.02.2021
2394 Clear 14 1030 18 10000 2.53 4 20:19 18.02.2021
2395 Clear 14 1030 18 10000 2.53 4 19:43 18.02.2021
2396 Clear 14 1030 20 10000 2.66 9 19:19 18.02.2021
2397 Clear 14 1030 22 10000 2.84 1 18:47 18.02.2021
2398 Clear 13 1030 24 10000 2.69 4 18:25 18.02.2021
2399 Clear 4 1031 29 10000 3.13 2 17:45 18.02.2021
2400 Clear 3 1031 32 10000 3.13 339 17:23 18.02.2021
2401 Clear 1 1030 36 10000 3.58 358 16:46 18.02.2021
2402 Clear -1 1030 39 10000 2.24 354 16:28 18.02.2021
2403 Clear -1 1029 39 10000 4.02 16 15:42 18.02.2021
2404 Clear -1 1029 39 10000 4.47 343 15:23 18.02.2021
2405 Clear -1 1029 38 10000 4.02 335 14:52 18.02.2021
2406 Clear -1 1028 38 10000 3.58 15 14:31 18.02.2021
2407 Clear -1 1028 39 10000 4.47 350 13:49 18.02.2021
2408 Clear -1 1027 38 10000 4.47 356 13:21 18.02.2021
2409 Clear -1 1027 38 10000 4.47 355 12:54 18.02.2021
2410 Clear 0 1027 37 10000 3.58 3 12:31 18.02.2021
2411 Clear -1 1026 38 10000 4.47 349 11:47 18.02.2021
2412 Clear -1 1027 38 10000 4.02 13 11:28 18.02.2021
2413 Clear -1 1027 38 10000 2.24 357 10:58 18.02.2021
2414 Clear -1 1027 37 10000 2.68 346 10:37 18.02.2021
2415 Clear 0 1026 36 10000 2.68 359 10:18 18.02.2021
2416 Clear 0 1026 36 10000 4.92 351 09:31 18.02.2021
2417 Clear 1 1026 34 10000 4.47 29 08:50 18.02.2021
2418 Clear 1 1026 34 10000 3.58 349 08:31 18.02.2021
2419 Clear 1 1026 33 10000 3.13 354 07:49 18.02.2021
2420 Clear 1 1025 32 10000 2.24 322 07:24 18.02.2021
2421 Clear 2 1024 29 10000 2.24 354 06:18 18.02.2021
2422 Clear 17 1018 24 10000 9.63 351 00:40 18.02.2021
2423 Clear 18 1017 22 10000 9.61 353 23:45 17.02.2021
2424 Clear 18 1017 22 10000 8.65 347 23:19 17.02.2021
2425 Clear 18 1017 22 10000 8.65 347 22:40 17.02.2021
2426 Clear 18 1017 22 10000 8.65 347 22:40 17.02.2021
2427 Clear 18 1017 24 10000 7.34 345 22:22 17.02.2021
2428 Clear 18 1017 24 10000 7.34 345 22:22 17.02.2021
2429 Clear 18 1017 24 10000 7.34 345 21:45 17.02.2021
2430 Clear 17 1018 26 10000 7.49 352 21:20 17.02.2021
2431 Clear 17 1018 26 10000 7.49 352 20:43 17.02.2021
2432 Clear 16 1019 28 10000 6.4 356 20:24 17.02.2021
2433 Clear 16 1019 28 10000 6.4 356 19:38 17.02.2021
2434 Clear 15 1019 31 10000 5.66 3 19:19 17.02.2021
2435 Clear 7 1019 30 10000 2.68 50 18:41 17.02.2021
2436 Clear 6 1019 32 10000 3.58 326 18:18 17.02.2021
2437 Clear 3 1018 40 10000 1.34 235 17:37 17.02.2021
2438 Clear 3 1018 41 10000 1.79 292 17:18 17.02.2021
2439 Clear 0 1017 49 10000 3.58 351 16:43 17.02.2021
2440 Clear -1 1016 52 10000 3.58 341 16:22 17.02.2021
2441 Clear -2 1016 52 10000 1.34 345 15:44 17.02.2021
2442 Clear -1 1016 51 10000 2.68 324 15:23 17.02.2021
2443 Clear -1 1016 50 10000 1.34 318 14:45 17.02.2021
2444 Clear -1 1016 52 10000 1.34 335 14:26 17.02.2021
2445 Clear -2 1016 51 10000 1.79 331 13:45 17.02.2021
2446 Clear -1 1016 49 10000 0.45 292 13:27 17.02.2021
2447 Clear 0 1015 46 10000 0.89 326 12:47 17.02.2021
2448 Clear 1 1015 44 10000 1.34 302 12:23 17.02.2021
2449 Clear 1 1015 44 10000 2.24 285 11:42 17.02.2021
2450 Clear 1 1015 44 10000 2.68 336 11:19 17.02.2021
2451 Clear 1 1015 42 10000 2.68 354 10:45 17.02.2021
2452 Clear 2 1015 41 10000 1.79 345 10:25 17.02.2021
2453 Clear 2 1015 38 10000 2.68 330 09:45 17.02.2021
2454 Clear 2 1015 40 10000 4.02 348 09:25 17.02.2021
2455 Clear 2 1015 36 10000 3.13 345 08:43 17.02.2021
2456 Clear 2 1015 32 10000 1.34 312 08:22 17.02.2021
2457 Clear 14 1016 34 10000 2.14 23 07:34 17.02.2021
2458 Clear 14 1016 32 10000 2.43 20 06:35 17.02.2021
2459 Clear 14 1016 32 10000 2.43 20 06:35 17.02.2021
2460 Clear 11 1012 18 10000 1.79 345 02:44 17.02.2021
2461 Clear 13 1012 15 10000 1.79 353 02:21 17.02.2021
2462 Clear 21 1011 20 10000 2.3 13 00:35 17.02.2021
2463 Clear 21 1011 20 10000 2.64 1 23:57 16.02.2021
2464 Clear 21 1011 20 10000 2.64 1 23:38 16.02.2021
2465 Clear 21 1011 21 10000 3.48 351 22:45 16.02.2021
2466 Clear 20 1013 22 10000 4.44 349 22:25 16.02.2021
2467 Clear 20 1013 22 10000 4.44 349 21:58 16.02.2021
2468 Clear 20 1013 22 10000 4.44 349 21:39 16.02.2021
2469 Clear 20 1013 24 10000 4.92 353 21:20 16.02.2021
2470 Clear 20 1013 24 10000 4.92 353 20:45 16.02.2021
2471 Clear 19 1014 25 10000 5.16 357 20:20 16.02.2021
2472 Clear 19 1014 25 10000 5.16 357 19:47 16.02.2021
2473 Clouds 18 1014 27 10000 5.05 8 19:27 16.02.2021
2474 Clouds 18 1014 28 10000 4.07 10 18:42 16.02.2021
2475 Clouds 17 1014 30 10000 2.94 16 18:23 16.02.2021
2476 Clouds 9 1014 21 10000 2.24 298 17:53 16.02.2021
2477 Clouds 16 1014 33 10000 2.09 23 17:27 16.02.2021
2478 Clouds 4 1014 29 10000 2.09 23 16:52 16.02.2021
2479 Clouds 3 1014 30 10000 0.89 266 16:30 16.02.2021
2480 Clouds 3 1014 30 10000 0.89 266 16:30 16.02.2021
2481 Clouds 2 1013 38 10000 0.45 321 15:56 16.02.2021
2482 Clouds 3 1013 37 10000 1.34 321 15:36 16.02.2021
2483 Clouds 3 1013 36 10000 0.89 316 15:18 16.02.2021
2484 Clouds 3 1013 37 10000 1.79 341 14:39 16.02.2021
2485 Clouds 3 1013 34 10000 0.89 339 14:21 16.02.2021
2486 Clouds 3 1012 41 10000 1.79 320 13:44 16.02.2021
2487 Clear 3 1012 60 10000 0.45 326 12:59 16.02.2021
2488 Clouds 3 1012 62 10000 1.34 326 12:40 16.02.2021
2489 Clouds 2 1012 67 10000 1.34 320 12:19 16.02.2021
2490 Clouds 2 1011 73 10000 1.34 18 11:39 16.02.2021
2491 Clouds 2 1012 72 10000 1.32 23 11:20 16.02.2021
2492 Clouds 2 1011 73 10000 0.89 252 10:46 16.02.2021
2493 Clouds 15 1010 41 10000 1.05 11 10:27 16.02.2021
2494 Clouds 15 1010 41 10000 1.05 11 09:53 16.02.2021
2495 Clouds 15 1010 40 10000 0.49 287 09:26 16.02.2021
2496 Clouds 15 1010 40 10000 0.49 287 08:51 16.02.2021
2497 Clouds 16 1009 38 10000 0.96 328 08:28 16.02.2021
2498 Clouds 16 1009 38 10000 0.96 328 07:45 16.02.2021
2499 Clouds 16 1009 38 10000 1.19 355 06:55 16.02.2021
2500 Clouds 9 1010 32 10000 0.45 112 02:42 16.02.2021
2501 Clouds 19 1009 27 10000 2.5 160 23:55 15.02.2021
2502 Clouds 19 1010 27 10000 2.27 154 23:29 15.02.2021
2503 Clouds 19 1010 27 10000 2.27 154 22:50 15.02.2021
2504 Clouds 19 1012 27 10000 2.13 161 22:28 15.02.2021
2505 Clouds 19 1012 27 10000 2.13 161 21:47 15.02.2021
2506 Clouds 12 1014 28 10000 1.34 45 21:25 15.02.2021
2507 Clouds 12 1014 26 10000 0.89 65 20:57 15.02.2021
2508 Clouds 18 1013 28 10000 2.26 164 20:39 15.02.2021
2509 Clouds 18 1014 29 10000 2.47 165 19:51 15.02.2021
2510 Clouds 18 1014 29 10000 2.47 165 19:30 15.02.2021
2511 Clouds 17 1014 31 10000 2.89 180 18:58 15.02.2021
2512 Clouds 16 1015 32 10000 2.36 184 18:29 15.02.2021
2513 Clouds 8 1015 31 10000 1.34 66 17:59 15.02.2021
2514 Clouds 8 1015 33 10000 0.45 328 17:40 15.02.2021
2515 Clouds 6 1015 37 10000 1.92 175 17:21 15.02.2021
2516 Clouds 3 1015 42 10000 1.92 175 16:46 15.02.2021
2517 Clouds 13 1014 39 10000 1.44 167 16:22 15.02.2021
2518 Clouds 1 1015 46 10000 1.44 167 15:44 15.02.2021
2519 Clouds 1 1015 46 10000 0.89 339 15:20 15.02.2021
2520 Clouds 1 1015 46 10000 1.34 332 14:49 15.02.2021
2521 Clouds 13 1014 39 10000 0.53 170 14:21 15.02.2021
2522 Clouds 0 1014 48 10000 0.53 170 13:49 15.02.2021
2523 Clouds 1 1015 47 10000 1.82 160 13:27 15.02.2021
2524 Clouds 1 1014 45 10000 1.82 160 12:52 15.02.2021
2525 Clouds 1 1015 44 10000 0.45 93 12:33 15.02.2021
2526 Clouds 13 1014 36 10000 1.04 155 11:54 15.02.2021
2527 Clouds 1 1015 42 10000 1.57 163 11:27 15.02.2021
2528 Clouds 14 1015 35 10000 1.57 163 10:58 15.02.2021
2529 Clouds 14 1015 35 10000 1.57 163 10:40 15.02.2021
2530 Clouds 14 1015 35 10000 0.96 146 10:21 15.02.2021
2531 Clouds 14 1015 35 10000 0.96 146 09:51 15.02.2021
2532 Clouds 14 1015 35 10000 0.96 146 09:32 15.02.2021
2533 Clouds 14 1016 34 10000 0.31 157 08:32 15.02.2021
2534 Clouds 2 1016 36 10000 0.15 154 07:32 15.02.2021
2535 Clouds 3 1016 35 10000 1.22 183 06:42 15.02.2021
2536 Clouds 6 1016 29 10000 1.79 356 04:58 15.02.2021
2537 Clouds 18 1012 24 10000 2.27 38 02:21 15.02.2021
2538 Clouds 11 1013 19 10000 1.34 250 00:24 15.02.2021
2539 Clouds 19 1012 23 10000 3.65 352 23:30 14.02.2021
2540 Clouds 19 1012 23 10000 4.26 353 22:51 14.02.2021
2541 Clouds 19 1012 23 10000 4.26 353 22:30 14.02.2021
2542 Clouds 18 1013 24 10000 4.39 355 21:56 14.02.2021
2543 Clouds 18 1013 24 10000 4.39 355 21:36 14.02.2021
2544 Clouds 18 1014 25 10000 5.43 356 20:56 14.02.2021
2545 Clouds 18 1014 25 10000 5.43 356 20:32 14.02.2021
2546 Clouds 8 1015 24 10000 3.13 342 19:59 14.02.2021
2547 Clouds 8 1015 26 10000 4.02 333 19:38 14.02.2021
2548 Clouds 6 1015 30 10000 3.13 340 18:48 14.02.2021
2549 Clouds 6 1015 32 10000 4.92 343 18:29 14.02.2021
2550 Clouds 5 1015 36 10000 3.58 316 17:48 14.02.2021
2551 Clouds 4 1014 38 10000 4.02 1 17:28 14.02.2021
2552 Clouds 2 1014 43 10000 4.47 350 16:43 14.02.2021
2553 Clear 1 1014 44 10000 4.47 357 16:24 14.02.2021
2554 Clear 1 1014 47 10000 3.13 356 15:45 14.02.2021
2555 Clear 1 1013 47 10000 5.36 326 15:26 14.02.2021
2556 Clear 1 1013 48 10000 4.47 346 14:42 14.02.2021
2557 Clear 1 1013 48 10000 4.47 341 14:20 14.02.2021
2558 Clear 1 1014 47 10000 4.47 347 13:38 14.02.2021
2559 Clear 1 1013 48 10000 4.02 337 13:20 14.02.2021
2560 Clouds 1 1013 48 10000 0.89 353 12:24 14.02.2021
2561 Clouds 1 1012 48 10000 1.79 351 11:52 14.02.2021
2562 Clouds 1 1012 47 10000 1.34 346 11:33 14.02.2021
2563 Clouds 1 1012 48 10000 0.89 40 10:59 14.02.2021
2564 Clouds 1 1012 50 10000 0.89 344 10:23 14.02.2021
2565 Clouds 1 1011 52 10000 0.89 343 09:40 14.02.2021
2566 Clouds 1 1011 52 10000 1.34 339 09:21 14.02.2021
2567 Clouds 1 1011 48 10000 0.89 6 08:57 14.02.2021
2568 Clouds 2 1010 47 10000 4.81 340 07:59 14.02.2021
2569 Clouds 3 1010 46 10000 0.45 312 06:59 14.02.2021
2570 Clear 4 1009 37 10000 1.34 324 05:44 14.02.2021
2571 Clear 6 1008 29 10000 4.47 325 03:59 14.02.2021
2572 Clear 9 1006 23 10000 4.47 318 02:29 14.02.2021
2573 Clouds 21 1006 23 10000 4.88 340 00:59 14.02.2021
2574 Clouds 21 1006 23 10000 4.88 340 00:41 14.02.2021
2575 Clouds 20 1006 30 10000 6.15 352 23:49 13.02.2021
2576 Clouds 15 1004 15 10000 3.58 275 23:25 13.02.2021
2577 Clouds 15 1004 14 10000 4.47 4 22:51 13.02.2021
2578 Clear 14 1004 18 10000 4.47 264 22:22 13.02.2021
2579 Clear 21 1006 23 10000 1.16 23 21:49 13.02.2021
2580 Clear 21 1007 25 10000 1.92 175 21:26 13.02.2021
2581 Clear 14 1004 22 10000 1.79 259 20:44 13.02.2021
2582 Clear 20 1007 27 10000 2.58 175 20:26 13.02.2021
2583 Clear 13 1005 26 10000 2.24 226 19:48 13.02.2021
2584 Clouds 12 1006 28 10000 1.79 243 19:23 13.02.2021
2585 Clouds 12 1005 30 10000 1.34 262 18:49 13.02.2021
2586 Clouds 17 1008 32 10000 1.08 216 18:27 13.02.2021
2587 Clouds 9 1006 53 10000 1.34 69 17:44 13.02.2021
2588 Clouds 8 1006 51 10000 0.45 142 17:25 13.02.2021
2589 Clouds 4 1006 61 10000 1.34 334 16:53 13.02.2021
2590 Clouds 3 1006 70 10000 2.24 45 16:34 13.02.2021
2591 Clouds 14 1008 38 10000 2.49 178 15:43 13.02.2021
2592 Clouds 14 1009 38 10000 2.04 175 15:25 13.02.2021
2593 Clouds 2 1008 72 10000 0.45 162 14:40 13.02.2021
2594 Clouds 3 1008 71 10000 0.45 311 13:49 13.02.2021
2595 Clouds 16 1010 32 10000 2 159 13:27 13.02.2021
2596 Clouds 3 1008 68 10000 0.45 262 12:52 13.02.2021
2597 Clouds 5 1008 65 10000 1.89 144 12:21 13.02.2021
2598 Clouds 6 1008 64 10000 1.79 55 11:55 13.02.2021
2599 Clouds 6 1008 62 10000 1.79 54 11:23 13.02.2021
2600 Clouds 7 1008 55 10000 1.79 90 10:59 13.02.2021
2601 Clouds 6 1008 58 10000 1.34 89 10:41 13.02.2021
2602 Clouds 6 1009 58 10000 0.89 359 10:22 13.02.2021
2603 Clouds 4 1010 68 10000 3.22 176 09:46 13.02.2021
2604 Clouds 4 1010 65 10000 2.25 161 09:25 13.02.2021
2605 Clouds 18 1011 29 10000 2.25 161 08:47 13.02.2021
2606 Clouds 18 1012 28 10000 2.02 165 08:18 13.02.2021
2607 Clouds 18 1012 30 10000 2.02 172 06:59 13.02.2021
2608 Clouds 19 1012 29 10000 1.56 165 06:24 13.02.2021
2609 Clear 7 1010 55 10000 1.29 190 04:31 13.02.2021
2610 Clear 7 1010 55 10000 1.29 190 04:31 13.02.2021
2611 Clear 19 1011 31 10000 0.36 181 02:41 13.02.2021
2612 Clear 23 1010 21 10000 1.78 1 00:54 13.02.2021
2613 Clear 23 1010 21 10000 1.78 1 00:54 13.02.2021
2614 Clouds 22 1010 26 10000 1.42 354 00:18 13.02.2021
2615 Clouds 22 1010 26 10000 1.42 354 23:45 12.02.2021
2616 Clouds 22 1010 28 10000 2.86 352 23:18 12.02.2021
2617 Clouds 22 1010 28 10000 2.86 352 22:32 12.02.2021
2618 Clouds 21 1010 30 10000 3.74 1 21:58 12.02.2021
2619 Clouds 15 1010 35 10000 2.24 337 21:39 12.02.2021
2620 Clouds 20 1011 33 10000 3.8 11 21:21 12.02.2021
2621 Clouds 14 1010 37 10000 6.26 357 20:40 12.02.2021
2622 Clear 19 1011 37 10000 4.9 2 20:21 12.02.2021
2623 Clear 12 1010 46 10000 4.47 322 19:49 12.02.2021
2624 Clouds 16 1011 47 10000 3.48 348 19:28 12.02.2021
2625 Clouds 7 1010 79 10000 2.68 327 18:35 12.02.2021
2626 Clouds 4 1010 87 6611 2.68 344 17:54 12.02.2021
2627 Clouds 4 1009 86 6611 5.36 320 17:35 12.02.2021
2628 Clouds 3 1008 90 10000 1.79 346 16:53 12.02.2021
2629 Clouds 4 1007 87 10000 1.34 308 16:18 12.02.2021
2630 Clouds 4 1006 80 10000 3.58 358 15:41 12.02.2021
2631 Clear 5 1006 79 10000 1.34 199 15:19 12.02.2021
2632 Clear 5 1005 76 10000 0.45 272 14:34 12.02.2021
2633 Clear 6 1006 65 10000 1.34 302 13:49 12.02.2021
2634 Clear 7 1005 59 10000 1.79 269 13:29 12.02.2021
2635 Clear 16 1007 42 10000 1.83 198 12:53 12.02.2021
2636 Clear 16 1007 42 10000 1.83 198 12:35 12.02.2021
2637 Clear 16 1007 43 10000 2.21 210 11:48 12.02.2021
2638 Clear 8 1005 50 10000 1.34 224 11:22 12.02.2021
2639 Clear 8 1006 53 10000 1.79 139 10:48 12.02.2021
2640 Clear 8 1006 51 10000 1.79 180 10:19 12.02.2021
2641 Clear 8 1007 48 10000 1.79 85 09:42 12.02.2021
2642 Clear 8 1007 50 10000 0.89 149 09:23 12.02.2021
2643 Clear 9 1008 47 10000 0.45 58 08:45 12.02.2021
2644 Clear 9 1008 47 10000 1.34 142 08:22 12.02.2021
2645 Clear 19 1009 35 10000 1.26 221 07:52 12.02.2021
2646 Clouds 11 1010 41 10000 3.13 208 07:24 12.02.2021
2647 Clouds 11 1010 41 10000 1.79 210 06:49 12.02.2021
2648 Clouds 11 1010 41 10000 3.13 229 05:37 12.02.2021
2649 Clouds 10 1011 41 10000 0.89 150 03:35 12.02.2021
2650 Clouds 14 1013 26 10000 1.79 56 00:34 12.02.2021
2651 Clouds 15 1013 25 10000 1.79 40 23:38 11.02.2021
2652 Clouds 16 1013 24 10000 2.24 45 23:18 11.02.2021
2653 Clouds 24 1013 24 10000 3.34 166 22:42 11.02.2021
2654 Clouds 23 1014 25 10000 2.85 164 22:23 11.02.2021
2655 Clouds 14 1015 26 10000 1.79 69 21:43 11.02.2021
2656 Clouds 13 1015 26 10000 1.34 57 21:25 11.02.2021
2657 Clouds 15 1016 24 10000 1.34 65 20:57 11.02.2021
2658 Clouds 22 1015 27 10000 2.54 158 20:39 11.02.2021
2659 Clouds 22 1016 27 10000 2.35 161 20:19 11.02.2021
2660 Clouds 14 1017 30 10000 0.89 50 19:46 11.02.2021
2661 Clouds 13 1018 31 10000 0.45 62 19:26 11.02.2021
2662 Clouds 13 1018 31 10000 0.45 62 19:26 11.02.2021
2663 Clouds 13 1018 31 10000 1.34 89 18:42 11.02.2021
2664 Clouds 20 1017 26 10000 0.95 164 18:20 11.02.2021
2665 Clouds 12 1018 33 10000 0.45 320 17:48 11.02.2021
2666 Clouds 11 1018 38 10000 1.34 340 17:21 11.02.2021
2667 Clouds 19 1017 30 10000 1.05 170 16:46 11.02.2021
2668 Clouds 3 1017 53 10000 0.68 170 16:27 11.02.2021
2669 Clouds 4 1017 51 10000 0.68 170 15:47 11.02.2021
2670 Clouds 4 1017 51 10000 0.45 162 15:26 11.02.2021
2671 Clouds 16 1016 34 10000 1.1 163 14:56 11.02.2021
2672 Clouds 16 1016 34 10000 1.1 163 14:31 11.02.2021
2673 Clouds 16 1016 33 10000 0.65 163 13:44 11.02.2021
2674 Clouds 16 1016 33 10000 0.12 180 13:21 11.02.2021
2675 Clouds 16 1016 33 10000 0.12 180 12:56 11.02.2021
2676 Clouds 16 1016 33 10000 0.12 180 12:35 11.02.2021
2677 Clear 16 1016 33 10000 0.25 306 11:49 11.02.2021
2678 Clear 17 1016 32 10000 0.45 338 11:29 11.02.2021
2679 Clear 17 1016 32 10000 0.45 338 10:57 11.02.2021
2680 Clear 17 1016 32 10000 0.45 338 10:39 11.02.2021
2681 Clear 17 1016 31 10000 0.19 173 10:21 11.02.2021
2682 Clear 17 1016 31 10000 0.19 173 09:41 11.02.2021
2683 Clear 17 1016 30 10000 0.38 223 09:19 11.02.2021
2684 Clear 17 1016 30 10000 0.38 223 09:19 11.02.2021
2685 Clear 17 1016 30 10000 0.38 223 08:46 11.02.2021
2686 Clear 18 1016 29 10000 0.48 218 07:53 11.02.2021
2687 Clear 18 1016 31 10000 0.16 311 06:46 11.02.2021
2688 Clear 19 1016 30 10000 0.3 265 06:23 11.02.2021
2689 Clear 8 1016 33 10000 0.45 161 03:46 11.02.2021
2690 Clear 14 1015 23 10000 1.34 7 02:25 11.02.2021
2691 Clear 23 1013 20 10000 1.1 34 00:24 11.02.2021
2692 Clear 23 1013 20 10000 1.1 34 00:24 11.02.2021
2693 Clear 23 1013 20 10000 1.1 34 23:54 10.02.2021
2694 Clear 23 1013 21 10000 1.19 23 23:28 10.02.2021
2695 Clear 23 1013 21 10000 1.19 23 22:48 10.02.2021
2696 Clear 23 1014 21 10000 0.84 24 22:24 10.02.2021
2697 Clear 23 1014 21 10000 0.84 24 21:40 10.02.2021
2698 Clear 22 1014 22 10000 0.65 41 21:21 10.02.2021
2699 Clear 22 1014 22 10000 0.65 41 20:52 10.02.2021
2700 Clear 22 1014 22 10000 0.65 41 20:30 10.02.2021
2701 Clear 21 1015 23 10000 0.73 47 19:59 10.02.2021
2702 Clear 21 1015 23 10000 0.73 47 19:40 10.02.2021
2703 Clouds 20 1016 24 10000 0.61 96 19:19 10.02.2021
2704 Clouds 21 1015 24 10000 0.63 68 18:39 10.02.2021
2705 Clouds 20 1016 25 10000 0.39 149 18:18 10.02.2021
2706 Clouds 8 1017 31 10000 0.39 149 17:45 10.02.2021
2707 Clouds 8 1017 31 10000 0.35 243 17:21 10.02.2021
2708 Clouds 18 1016 28 10000 0.35 243 16:49 10.02.2021
2709 Clouds 14 1014 36 10000 0.44 291 16:28 10.02.2021
2710 Clouds 14 1014 36 10000 0.44 291 15:43 10.02.2021
2711 Clouds 14 1014 36 10000 0.36 6 15:21 10.02.2021
2712 Clouds 14 1014 36 10000 0.36 6 14:40 10.02.2021
2713 Clouds 15 1013 35 10000 0.36 92 13:55 10.02.2021
2714 Clouds 15 1013 35 10000 0.36 92 13:37 10.02.2021
2715 Clouds 15 1013 34 10000 0.16 134 13:18 10.02.2021
2716 Clouds 15 1013 34 10000 0.16 134 12:40 10.02.2021
2717 Clouds 15 1013 34 10000 0.22 339 12:21 10.02.2021
2718 Clouds 15 1013 34 10000 0.22 339 11:41 10.02.2021
2719 Clouds 16 1013 33 10000 0.26 326 11:23 10.02.2021
2720 Clouds 16 1013 33 10000 0.26 326 10:40 10.02.2021
2721 Clouds 16 1013 32 10000 0.37 354 10:19 10.02.2021
2722 Clouds 16 1013 32 10000 0.37 354 09:40 10.02.2021
2723 Clouds 16 1013 32 10000 0.65 334 09:21 10.02.2021
2724 Clouds 16 1013 32 10000 0.65 334 08:43 10.02.2021
2725 Clouds 17 1013 31 10000 0.88 354 07:53 10.02.2021
2726 Clouds 17 1013 33 10000 0.91 358 06:59 10.02.2021
2727 Clear 8 1013 26 10000 0.24 325 03:45 10.02.2021
2728 Clouds 13 1012 19 10000 2.24 56 00:51 10.02.2021
2729 Clouds 14 1012 18 10000 2.24 33 23:36 09.02.2021
2730 Clouds 15 1011 17 10000 1.79 50 22:56 09.02.2021
2731 Clouds 14 1012 18 10000 1.79 60 22:25 09.02.2021
2732 Clouds 14 1012 18 10000 1.34 72 21:54 09.02.2021
2733 Clouds 14 1012 18 10000 1.34 50 21:35 09.02.2021
2734 Clouds 21 1012 23 10000 1.87 150 20:59 09.02.2021
2735 Clouds 21 1012 23 10000 1.87 150 20:40 09.02.2021
2736 Clouds 21 1012 24 10000 2.2 162 20:20 09.02.2021
2737 Clouds 13 1014 21 10000 0.89 137 19:39 09.02.2021
2738 Clouds 12 1013 23 10000 0.45 150 19:20 09.02.2021
2739 Clouds 11 1013 23 10000 1.74 160 18:41 09.02.2021
2740 Clouds 11 1013 24 10000 0.89 80 18:20 09.02.2021
2741 Clouds 9 1012 27 10000 0.89 60 17:42 09.02.2021
2742 Clouds 7 1012 30 10000 0.45 87 17:23 09.02.2021
2743 Clouds 19 1013 26 10000 0.95 177 16:49 09.02.2021
2744 Clouds 5 1012 33 10000 0.65 178 16:19 09.02.2021
2745 Clouds 5 1012 34 10000 0.65 178 15:50 09.02.2021
2746 Clouds 5 1012 35 10000 0.44 133 15:27 09.02.2021
2747 Clouds 5 1011 34 10000 0.44 133 14:56 09.02.2021
2748 Clouds 6 1011 34 10000 0.95 169 14:29 09.02.2021
2749 Clouds 6 1011 32 10000 0.95 169 13:54 09.02.2021
2750 Clouds 6 1011 32 10000 0.96 160 13:29 09.02.2021
2751 Clouds 6 1012 31 10000 0.85 168 12:59 09.02.2021
2752 Clouds 6 1012 31 10000 0.85 168 12:40 09.02.2021
2753 Clouds 6 1012 32 10000 0.45 87 12:21 09.02.2021
2754 Clouds 18 1011 28 10000 1.25 155 11:43 09.02.2021
2755 Clouds 18 1012 27 10000 1.47 148 11:21 09.02.2021
2756 Clouds 18 1012 27 10000 1.47 148 11:21 09.02.2021
2757 Clouds 18 1012 27 10000 1.47 148 11:21 09.02.2021
2758 Clouds 18 1012 27 10000 1.47 148 10:55 09.02.2021
2759 Clouds 17 1012 28 10000 1.21 143 10:20 09.02.2021
2760 Clouds 17 1012 28 10000 1.21 143 09:45 09.02.2021
2761 Clouds 18 1012 27 10000 0.92 140 09:26 09.02.2021
2762 Clouds 18 1012 27 10000 0.92 140 08:53 09.02.2021
2763 Clouds 19 1012 27 10000 0.2 56 08:28 09.02.2021
2764 Clouds 19 1012 27 10000 0.2 56 07:39 09.02.2021
2765 Clouds 19 1012 26 10000 0.58 122 04:59 09.02.2021
2766 Clouds 8 1013 25 10000 1.42 151 03:45 09.02.2021
2767 Clouds 12 1012 18 10000 1.34 14 01:50 09.02.2021
2768 Clouds 17 1011 14 10000 2.24 67 00:18 09.02.2021
2769 Clouds 24 1010 20 10000 1.95 160 23:23 08.02.2021
2770 Clouds 24 1010 20 10000 1.95 160 22:59 08.02.2021
2771 Clouds 24 1010 20 10000 1.95 160 22:39 08.02.2021
2772 Clouds 23 1010 20 10000 1.68 156 22:21 08.02.2021
2773 Clouds 23 1010 20 10000 1.68 156 21:39 08.02.2021
2774 Clouds 23 1012 20 10000 1.7 157 21:20 08.02.2021
2775 Clouds 23 1012 20 10000 1.7 157 20:44 08.02.2021
2776 Clouds 22 1012 21 10000 1.16 150 20:24 08.02.2021
2777 Clouds 22 1012 21 10000 1.16 150 19:49 08.02.2021
2778 Clouds 22 1012 20 10000 1.18 142 19:30 08.02.2021
2779 Clouds 22 1012 21 10000 0.82 172 18:59 08.02.2021
2780 Clouds 14 1013 17 10000 0.82 172 18:40 08.02.2021
2781 Clouds 21 1013 21 10000 0.27 112 18:18 08.02.2021
2782 Clouds 11 1013 20 10000 0.27 112 17:41 08.02.2021
2783 Clouds 18 1012 26 10000 0.34 76 17:22 08.02.2021
2784 Clouds 7 1012 25 10000 0.45 324 16:40 08.02.2021
2785 Clear 7 1012 24 10000 0.15 215 16:20 08.02.2021
2786 Clear 7 1012 24 10000 0.15 215 15:40 08.02.2021
2787 Clear 7 1011 24 10000 1.34 321 15:19 08.02.2021
2788 Clear 7 1011 24 10000 1.34 329 14:51 08.02.2021
2789 Clear 6 1011 27 10000 2.24 324 14:29 08.02.2021
2790 Clear 3 1011 32 10000 0.89 288 13:56 08.02.2021
2791 Clouds 16 1010 29 10000 0.87 170 13:29 08.02.2021
2792 Clouds 15 1011 30 10000 0.69 193 12:49 08.02.2021
2793 Clouds 15 1011 30 10000 0.69 193 12:31 08.02.2021
2794 Clouds 16 1011 30 10000 0.57 180 11:42 08.02.2021
2795 Clouds 16 1011 29 10000 0.52 161 11:18 08.02.2021
2796 Clouds 16 1011 29 10000 0.52 161 10:42 08.02.2021
2797 Clouds 17 1011 28 10000 0.23 165 10:23 08.02.2021
2798 Clouds 17 1011 28 10000 0.23 165 09:50 08.02.2021
2799 Clouds 17 1012 27 10000 0.3 182 09:22 08.02.2021
2800 Clouds 17 1012 27 10000 0.3 182 08:31 08.02.2021
2801 Clear 18 1012 27 10000 0.48 178 07:49 08.02.2021
2802 Clear 18 1012 27 10000 0.71 182 07:21 08.02.2021
2803 Clear 19 1012 25 10000 0.46 180 05:29 08.02.2021
2804 Clear 14 1012 15 10000 1.34 77 02:28 08.02.2021
2805 Clear 25 1011 17 10000 0.74 157 00:43 08.02.2021
2806 Clear 25 1011 17 10000 0.88 132 00:18 08.02.2021
2807 Clear 25 1011 17 10000 0.88 132 23:46 07.02.2021
2808 Clear 25 1011 17 10000 0.58 119 23:19 07.02.2021
2809 Clear 25 1011 17 10000 0.58 119 22:43 07.02.2021
2810 Clear 24 1012 18 10000 0.64 52 22:24 07.02.2021
2811 Clear 24 1012 18 10000 0.64 52 21:52 07.02.2021
2812 Clear 23 1013 18 10000 1.01 15 21:27 07.02.2021
2813 Clear 23 1013 18 10000 1.01 15 20:54 07.02.2021
2814 Clear 23 1013 18 10000 1.01 15 20:33 07.02.2021
2815 Clear 22 1014 19 10000 0.76 22 19:55 07.02.2021
2816 Clear 22 1014 19 10000 0.76 22 19:31 07.02.2021
2817 Clouds 22 1014 20 10000 0.66 23 18:56 07.02.2021
2818 Clouds 22 1014 20 10000 0.23 48 18:36 07.02.2021
2819 Clouds 22 1014 20 10000 0.23 48 18:36 07.02.2021
2820 Clouds 21 1014 21 10000 0.44 6 18:18 07.02.2021
2821 Clouds 14 1015 15 10000 0.45 300 17:44 07.02.2021
2822 Clouds 17 1014 28 10000 0.46 345 17:20 07.02.2021
2823 Clouds 17 1014 28 10000 0.46 345 17:20 07.02.2021
2824 Clouds 9 1015 19 10000 0.46 345 16:47 07.02.2021
2825 Clouds 13 1014 34 10000 0.65 32 16:27 07.02.2021
2826 Clouds 13 1014 34 10000 0.65 32 15:58 07.02.2021
2827 Clouds 13 1014 34 10000 0.65 32 15:40 07.02.2021
2828 Clouds 14 1013 34 10000 0.35 53 15:21 07.02.2021
2829 Clouds 3 1014 29 10000 0.35 53 14:39 07.02.2021
2830 Clouds 3 1015 28 10000 0.01 300 14:21 07.02.2021
2831 Clouds 7 1014 22 10000 0.01 300 13:37 07.02.2021
2832 Clouds 8 1015 20 10000 0.12 280 13:19 07.02.2021
2833 Clouds 14 1013 33 10000 0.12 280 12:39 07.02.2021
2834 Clear 9 1015 19 10000 1.79 295 12:20 07.02.2021
2835 Clear 9 1015 19 10000 1.79 295 12:20 07.02.2021
2836 Clear 8 1016 19 10000 0.45 289 11:41 07.02.2021
2837 Clear 6 1016 22 10000 0.89 295 11:23 07.02.2021
2838 Clear 4 1016 25 10000 1.34 302 10:29 07.02.2021
2839 Clear 15 1015 31 10000 0.72 36 09:55 07.02.2021
2840 Clear 15 1015 31 10000 0.72 36 09:37 07.02.2021
2841 Clear 16 1015 30 10000 0.4 23 09:18 07.02.2021
2842 Clear 7 1017 18 10000 0.03 306 07:56 07.02.2021
2843 Clear 17 1016 28 10000 0.12 219 06:25 07.02.2021
2844 Clear 18 1016 27 10000 0.18 190 04:36 07.02.2021
2845 Clear 10 1016 20 10000 1.28 180 02:52 07.02.2021
2846 Clear 22 1015 20 10000 1.12 163 00:39 07.02.2021
2847 Clear 22 1016 20 10000 0.89 157 23:53 06.02.2021
2848 Clear 22 1016 20 10000 0.39 142 22:59 06.02.2021
2849 Clear 22 1017 21 10000 0.33 26 22:25 06.02.2021
2850 Clear 22 1017 21 10000 0.33 26 21:38 06.02.2021
2851 Clear 21 1019 22 10000 1.15 19 21:20 06.02.2021
2852 Clear 21 1019 22 10000 1.15 19 20:44 06.02.2021
2853 Clear 20 1019 23 10000 1.79 15 20:23 06.02.2021
2854 Clear 20 1019 23 10000 1.79 15 19:51 06.02.2021
2855 Clear 19 1020 25 10000 2.22 10 19:26 06.02.2021
2856 Clear 19 1020 25 10000 2.22 10 18:46 06.02.2021
2857 Clear 18 1020 27 10000 2.48 11 18:27 06.02.2021
2858 Clear 18 1020 27 10000 2.48 11 17:41 06.02.2021
2859 Clear 16 1020 31 10000 1.82 1 17:21 06.02.2021
2860 Clear 6 1020 24 10000 0.45 289 16:57 06.02.2021
2861 Clear 5 1019 25 10000 1.82 1 16:34 06.02.2021
2862 Clear 4 1019 26 10000 1.34 343 15:55 06.02.2021
2863 Clear 5 1018 25 10000 1.34 319 15:36 06.02.2021
2864 Clear 4 1019 27 10000 1.79 334 15:18 06.02.2021
2865 Clear 3 1018 28 10000 0.45 27 14:43 06.02.2021
2866 Clear 4 1018 27 10000 0.45 82 14:22 06.02.2021
2867 Clear 4 1018 27 10000 0.45 82 14:22 06.02.2021
2868 Clear 7 1018 24 10000 0.89 306 13:47 06.02.2021
2869 Clear 15 1020 33 10000 2.38 357 12:51 06.02.2021
2870 Clear 3 1018 31 10000 3.13 340 12:21 06.02.2021
2871 Clear 15 1019 32 10000 2.37 353 11:45 06.02.2021
2872 Clear 4 1019 32 10000 2.39 356 11:22 06.02.2021
2873 Clear 5 1019 30 10000 0.89 332 10:54 06.02.2021
2874 Clear 7 1019 26 10000 2.24 333 10:28 06.02.2021
2875 Clear 4 1019 32 10000 0.89 297 09:56 06.02.2021
2876 Clear 4 1019 33 10000 0.45 320 09:36 06.02.2021
2877 Clear 4 1020 33 10000 0.89 279 09:18 06.02.2021
2878 Clear 6 1019 29 10000 0.45 146 08:29 06.02.2021
2879 Clear 7 1019 26 10000 2.09 359 07:56 06.02.2021
2880 Clear 9 1018 18 10000 0.45 263 05:43 06.02.2021
2881 Clear 18 1016 27 10000 0.95 2 03:53 06.02.2021
2882 Clear 20 1015 23 10000 0.39 141 01:42 06.02.2021
2883 Clear 22 1015 20 10000 0.31 137 00:47 06.02.2021
2884 Clear 22 1015 19 10000 0.34 94 00:19 06.02.2021
2885 Clear 22 1015 19 10000 0.34 94 23:42 05.02.2021
2886 Clear 21 1015 20 10000 0.48 70 23:24 05.02.2021
2887 Clear 21 1015 20 10000 0.48 70 22:47 05.02.2021
2888 Clear 21 1017 21 10000 0.26 122 22:20 05.02.2021
2889 Clear 21 1017 21 10000 0.26 122 21:45 05.02.2021
2890 Clear 20 1018 22 10000 0.46 117 21:26 05.02.2021
2891 Clear 20 1018 22 10000 0.46 117 20:45 05.02.2021
2892 Clear 19 1019 23 10000 0.8 24 19:52 05.02.2021
2893 Clear 18 1020 24 10000 1.64 6 19:20 05.02.2021
2894 Clear 18 1020 24 10000 1.64 6 18:53 05.02.2021
2895 Clear 17 1021 26 10000 1.7 10 18:27 05.02.2021
2896 Clear 17 1021 26 10000 1.7 10 17:44 05.02.2021
2897 Clear 15 1021 31 10000 1.39 353 17:24 05.02.2021
2898 Clear 7 1023 35 10000 1.34 335 16:49 05.02.2021
2899 Clear 5 1023 37 10000 1.34 338 16:24 05.02.2021
2900 Clear 5 1023 37 10000 0.45 313 15:57 05.02.2021
2901 Clear 5 1023 37 10000 1.34 329 15:27 05.02.2021
2902 Clear 6 1023 35 10000 0.89 305 14:55 05.02.2021
2903 Clear 6 1023 35 10000 2.24 326 14:36 05.02.2021
2904 Clear 6 1023 34 10000 1.79 325 14:18 05.02.2021
2905 Clear 5 1023 35 10000 1.34 317 13:38 05.02.2021
2906 Clear 4 1024 36 10000 2.68 324 13:18 05.02.2021
2907 Clear 3 1025 39 10000 0.89 314 12:40 05.02.2021
2908 Clear 3 1025 40 10000 0.89 315 11:58 05.02.2021
2909 Clear 3 1025 39 10000 0.45 320 11:36 05.02.2021
2910 Clear 4 1025 38 10000 0.89 320 11:18 05.02.2021
2911 Clear 4 1025 39 10000 0.89 317 10:41 05.02.2021
2912 Clear 4 1025 36 10000 2.31 354 10:21 05.02.2021
2913 Clear 6 1025 34 10000 0.89 270 09:41 05.02.2021
2914 Clear 6 1025 34 10000 2.24 347 09:21 05.02.2021
2915 Clear 7 1025 31 10000 2.68 6 08:37 05.02.2021
2916 Clear 2 1025 43 10000 1.86 358 07:40 05.02.2021
2917 Clear 3 1025 42 10000 1.82 345 07:19 05.02.2021
2918 Clear 15 1023 30 10000 2.38 353 05:40 05.02.2021
2919 Clear 16 1023 29 10000 2.31 350 04:59 05.02.2021
2920 Clear 11 1023 23 10000 2.24 6 02:25 05.02.2021
2921 Clear 19 1020 23 10000 4.45 354 00:57 05.02.2021
2922 Clear 19 1020 23 10000 4.45 354 00:36 05.02.2021
2923 Clear 19 1020 23 10000 4.79 354 00:18 05.02.2021
2924 Clear 19 1020 23 10000 4.79 354 23:40 04.02.2021
2925 Clear 19 1020 24 10000 5.6 353 23:22 04.02.2021
2926 Clear 19 1020 24 10000 5.6 353 22:54 04.02.2021
2927 Clear 19 1020 24 10000 5.6 353 22:30 04.02.2021
2928 Clear 18 1022 25 10000 6.4 353 21:55 04.02.2021
2929 Clear 18 1022 25 10000 6.4 353 21:37 04.02.2021
2930 Clear 17 1022 27 10000 6.46 355 20:58 04.02.2021
2931 Clear 17 1022 27 10000 6.46 355 20:34 04.02.2021
2932 Clear 16 1024 29 10000 6.52 355 19:52 04.02.2021
2933 Clear 15 1024 31 10000 6.88 356 19:26 04.02.2021
2934 Clear 6 1024 39 10000 4.92 333 18:46 04.02.2021
2935 Clear 6 1024 39 10000 5.36 3 18:24 04.02.2021
2936 Clear 5 1024 41 10000 5.36 343 17:47 04.02.2021
2937 Clear 4 1024 45 10000 5.36 341 17:22 04.02.2021
2938 Clear 2 1023 50 10000 4.47 348 16:50 04.02.2021
2939 Clear 2 1023 50 10000 4.47 348 16:50 04.02.2021
2940 Clear 1 1022 52 10000 3.13 343 16:21 04.02.2021
2941 Clear 1 1021 52 10000 2.68 354 15:41 04.02.2021
2942 Clear 1 1021 51 10000 4.02 317 15:22 04.02.2021
2943 Clear 1 1021 52 10000 3.13 343 14:58 04.02.2021
2944 Clear 1 1021 52 10000 1.79 304 14:40 04.02.2021
2945 Clear 1 1021 51 10000 1.79 323 14:20 04.02.2021
2946 Clear 2 1020 48 10000 1.79 312 13:44 04.02.2021
2947 Clear 2 1020 47 10000 4.02 354 12:58 04.02.2021
2948 Clear 1 1020 49 10000 3.13 340 12:34 04.02.2021
2949 Clear 1 1019 51 10000 4.02 320 11:53 04.02.2021
2950 Clear 1 1019 50 10000 2.68 343 11:33 04.02.2021
2951 Clear 2 1019 48 10000 3.58 335 10:51 04.02.2021
2952 Clear 3 1019 43 10000 2.68 339 10:21 04.02.2021
2953 Clear 3 1019 43 10000 2.24 326 09:44 04.02.2021
2954 Clear 3 1019 44 10000 2.24 336 09:19 04.02.2021
2955 Clear 3 1019 43 10000 3.13 337 08:48 04.02.2021
2956 Clear 4 1018 41 10000 2.24 316 08:24 04.02.2021
2957 Clear 5 1017 37 10000 2.68 333 07:50 04.02.2021
2958 Clear 6 1017 35 10000 2.24 299 07:32 04.02.2021
2959 Clouds 7 1016 36 10000 2.24 331 06:44 04.02.2021
2960 Clouds 8 1015 33 10000 2.68 341 05:31 04.02.2021
2961 Clouds 10 1012 31 10000 1.34 28 02:30 04.02.2021
2962 Clouds 13 1011 27 10000 2.24 64 01:20 04.02.2021
2963 Clouds 21 1012 24 10000 0.86 150 23:54 03.02.2021
2964 Clouds 21 1012 24 10000 0.86 150 23:30 03.02.2021
2965 Clouds 21 1012 24 10000 0.86 150 23:30 03.02.2021
2966 Clouds 21 1012 25 10000 0.97 145 22:38 03.02.2021
2967 Clouds 21 1013 26 10000 0.31 84 22:19 03.02.2021
2968 Clouds 21 1013 26 10000 0.31 84 21:46 03.02.2021
2969 Clouds 12 1011 38 10000 3.58 54 21:23 03.02.2021
2970 Clouds 12 1011 33 10000 2.24 45 20:50 03.02.2021
2971 Clouds 21 1014 27 10000 0.18 31 20:31 03.02.2021
2972 Clouds 12 1012 38 10000 2.24 50 19:55 03.02.2021
2973 Clouds 20 1014 31 10000 1.05 190 19:25 03.02.2021
2974 Clouds 19 1014 32 10000 1.22 171 18:57 03.02.2021
2975 Clouds 19 1014 32 10000 1.22 171 18:37 03.02.2021
2976 Clouds 18 1015 35 10000 0.05 15 18:19 03.02.2021
2977 Clouds 18 1015 35 10000 0.05 15 17:43 03.02.2021
2978 Clouds 17 1014 38 10000 1.17 244 17:19 03.02.2021
2979 Clouds 8 1014 26 10000 0.89 305 16:40 03.02.2021
2980 Clouds 15 1014 40 10000 2.5 200 16:20 03.02.2021
2981 Clouds 15 1014 40 10000 2.5 200 15:39 03.02.2021
2982 Clear 2 1014 51 10000 2.55 214 15:20 03.02.2021
2983 Clear 1 1014 54 10000 2.55 214 14:44 03.02.2021
2984 Clear 1 1014 53 10000 3.24 210 14:22 03.02.2021
2985 Clear 3 1014 48 10000 3.24 210 13:47 03.02.2021
2986 Clear 4 1014 52 10000 1.79 84 13:21 03.02.2021
2987 Clouds 6 1014 36 10000 3.73 208 12:42 03.02.2021
2988 Clouds 7 1015 34 10000 0.45 325 12:21 03.02.2021
2989 Clouds 7 1015 33 10000 0.45 167 11:42 03.02.2021
2990 Clouds 7 1015 32 10000 0.45 193 11:23 03.02.2021
2991 Clouds 7 1015 33 10000 4.93 199 10:42 03.02.2021
2992 Clouds 8 1015 31 10000 0.45 208 10:20 03.02.2021
2993 Clouds 19 1015 35 10000 5 193 09:43 03.02.2021
2994 Clouds 9 1016 30 10000 1.34 186 09:20 03.02.2021
2995 Clouds 8 1016 31 10000 1.79 162 08:48 03.02.2021
2996 Clouds 9 1017 32 10000 1.79 216 07:59 03.02.2021
2997 Clouds 9 1017 32 10000 1.79 220 07:26 03.02.2021
2998 Clear 8 1017 39 10000 1.34 173 06:38 03.02.2021
2999 Clear 8 1016 47 10000 0.45 222 04:50 03.02.2021
3000 Clouds 9 1016 49 10000 1.34 212 04:27 03.02.2021
3001 Clouds 21 1015 33 10000 2.91 194 02:42 03.02.2021
3002 Clear 23 1014 30 10000 3.79 179 01:58 03.02.2021
3003 Clear 24 1015 26 10000 4.15 171 00:27 03.02.2021
3004 Clear 24 1015 26 10000 4.15 171 23:47 02.02.2021
3005 Clear 24 1015 26 10000 2.96 173 23:28 02.02.2021
3006 Clear 24 1015 26 10000 2.96 173 22:52 02.02.2021
3007 Clear 23 1016 26 10000 2.27 171 22:22 02.02.2021
3008 Clear 23 1016 26 10000 2.27 171 21:54 02.02.2021
3009 Clear 22 1017 26 10000 1.7 166 21:29 02.02.2021
3010 Clear 22 1017 26 10000 1.7 166 20:52 02.02.2021
3011 Clear 21 1018 26 10000 1.42 170 20:27 02.02.2021
3012 Clear 21 1018 26 10000 1.42 170 19:59 02.02.2021
3013 Clear 21 1018 26 10000 1.42 170 19:40 02.02.2021
3014 Clouds 20 1019 27 10000 1.42 164 19:22 02.02.2021
3015 Clouds 20 1019 27 10000 1.42 164 18:43 02.02.2021
3016 Clouds 19 1019 28 10000 1.02 168 18:24 02.02.2021
3017 Clouds 9 1019 48 10000 0.89 86 17:48 02.02.2021
3018 Clouds 7 1019 55 10000 1.79 100 17:21 02.02.2021
3019 Clouds 4 1019 63 10000 0.89 83 16:55 02.02.2021
3020 Clouds 3 1019 63 10000 1.34 93 16:36 02.02.2021
3021 Clouds 3 1019 64 10000 1.34 79 15:58 02.02.2021
3022 Clouds 2 1019 66 10000 0.89 91 15:40 02.02.2021
3023 Clouds 3 1019 62 10000 0.88 152 15:20 02.02.2021
3024 Clouds 4 1018 61 10000 1.34 93 14:39 02.02.2021
3025 Clouds 4 1019 63 10000 1.79 87 14:18 02.02.2021
3026 Clouds 4 1019 61 10000 1.34 87 13:44 02.02.2021
3027 Clouds 4 1019 62 10000 0.45 146 13:25 02.02.2021
3028 Clouds 4 1019 65 10000 1.34 137 12:55 02.02.2021
3029 Clear 4 1019 63 10000 0.87 133 12:24 02.02.2021
3030 Clear 4 1019 60 10000 0.45 174 11:40 02.02.2021
3031 Clear 4 1019 59 10000 0.45 140 11:19 02.02.2021
3032 Clear 3 1019 59 10000 0.45 89 10:47 02.02.2021
3033 Clear 4 1019 56 10000 1.2 149 10:26 02.02.2021
3034 Clear 5 1019 53 10000 1.34 93 09:46 02.02.2021
3035 Clear 5 1019 51 10000 1.34 101 09:24 02.02.2021
3036 Clear 6 1020 50 10000 0.89 79 08:43 02.02.2021
3037 Clear 7 1020 48 10000 1.34 111 07:58 02.02.2021
3038 Clouds 7 1020 48 10000 0.89 131 07:27 02.02.2021
3039 Clouds 6 1020 50 10000 0.89 80 06:41 02.02.2021
3040 Clouds 7 1020 48 10000 1.79 116 05:51 02.02.2021
3041 Clouds 6 1019 48 10000 1.34 84 04:36 02.02.2021
3042 Clouds 8 1018 40 10000 1.34 77 02:25 02.02.2021
3043 Clouds 13 1018 31 10000 1.79 40 01:23 02.02.2021
3044 Clouds 21 1018 23 10000 2.21 161 00:18 02.02.2021
3045 Clouds 21 1018 23 10000 1.66 164 23:18 01.02.2021
3046 Clouds 21 1018 23 10000 1.66 164 22:40 01.02.2021
3047 Clouds 20 1019 24 10000 1.68 168 22:21 01.02.2021
3048 Clouds 13 1020 34 10000 3.13 139 21:48 01.02.2021
3049 Clouds 20 1020 25 10000 1.32 169 21:26 01.02.2021
3050 Clouds 20 1020 25 10000 1.32 169 20:45 01.02.2021
3051 Clouds 12 1021 32 10000 2.24 55 20:25 01.02.2021
3052 Clouds 11 1022 34 10000 1.34 50 19:55 01.02.2021
3053 Clouds 11 1022 34 10000 1.34 98 19:37 01.02.2021
3054 Clouds 10 1022 35 10000 2.24 50 19:18 01.02.2021
3055 Clouds 9 1022 34 10000 1.34 33 18:41 01.02.2021
3056 Clouds 8 1022 37 10000 2.24 89 18:22 01.02.2021
3057 Clouds 6 1022 48 10000 1.49 143 17:45 01.02.2021
3058 Clouds 6 1022 46 10000 1.18 165 17:22 01.02.2021
3059 Clouds 5 1022 43 10000 1.18 165 16:42 01.02.2021
3060 Clouds 5 1022 45 10000 0.72 179 16:23 01.02.2021
3061 Clouds 4 1022 45 10000 0.89 66 15:42 01.02.2021
3062 Clouds 4 1022 47 10000 1.79 69 15:19 01.02.2021
3063 Clouds 4 1022 56 10000 0.89 74 14:51 01.02.2021
3064 Clouds 4 1022 54 10000 1.08 9 14:24 01.02.2021
3065 Clouds 4 1022 54 10000 1.08 9 14:24 01.02.2021
3066 Clouds 4 1022 52 10000 1.08 9 13:45 01.02.2021
3067 Clouds 4 1022 49 10000 0.81 355 13:26 01.02.2021
3068 Clouds 4 1022 52 10000 1.13 7 12:45 01.02.2021
3069 Clouds 4 1023 51 10000 1.05 6 12:25 01.02.2021
3070 Clouds 4 1023 51 10000 1.05 6 12:25 01.02.2021
3071 Clouds 4 1023 53 10000 1.05 6 11:47 01.02.2021
3072 Clouds 4 1024 52 10000 0.65 15 11:21 01.02.2021
3073 Clouds 4 1024 52 10000 0.45 329 10:52 01.02.2021
3074 Clouds 3 1024 53 10000 1.28 21 10:22 01.02.2021
3075 Clouds 3 1025 58 10000 1.28 21 09:55 01.02.2021
3076 Clouds 3 1025 58 10000 1.28 21 09:35 01.02.2021
3077 Clouds 4 1025 52 10000 0.3 11 08:56 01.02.2021
3078 Clouds 3 1026 54 10000 0.88 357 08:26 01.02.2021
3079 Clouds 4 1027 53 10000 0.88 357 07:32 01.02.2021
3080 Clouds 4 1027 52 10000 1.12 341 05:20 01.02.2021
3081 Clouds 7 1026 42 10000 0.89 33 02:40 01.02.2021
3082 Clouds 18 1022 27 10000 1.21 10 00:26 01.02.2021
3083 Clouds 18 1022 27 10000 1.67 10 23:26 31.01.2021
3084 Clouds 18 1022 27 10000 1.67 10 22:41 31.01.2021
3085 Clouds 18 1023 28 10000 2.39 18 22:22 31.01.2021
3086 Clouds 18 1023 28 10000 2.39 18 21:47 31.01.2021
3087 Clouds 17 1024 30 10000 2.17 22 21:21 31.01.2021
3088 Clouds 17 1024 30 10000 2.17 22 20:44 31.01.2021
3089 Clouds 17 1025 31 10000 1.97 22 20:21 31.01.2021
3090 Clouds 17 1025 31 10000 1.97 22 19:41 31.01.2021
3091 Clouds 16 1026 33 10000 1.92 24 19:23 31.01.2021
3092 Clouds 16 1026 33 10000 2.09 17 19:23 31.01.2021
3093 Clouds 7 1029 49 10000 0.45 291 18:57 31.01.2021
3094 Clouds 7 1029 51 10000 1.92 24 18:38 31.01.2021
3095 Clouds 6 1029 56 10000 0.45 291 18:19 31.01.2021
3096 Clouds 2 1029 72 10000 1.77 6 17:44 31.01.2021
3097 Clouds 1 1028 77 10000 1.37 9 17:23 31.01.2021
3098 Clouds 13 1025 40 10000 1.37 9 16:46 31.01.2021
3099 Clouds 11 1025 47 10000 1.06 360 16:27 31.01.2021
3100 Clouds 11 1025 47 10000 1.06 360 15:51 31.01.2021
3101 Clouds 11 1025 47 10000 1.06 360 15:32 31.01.2021
3102 Clouds 11 1025 46 10000 1.12 17 14:42 31.01.2021
3103 Clouds 11 1025 45 10000 1.15 18 14:22 31.01.2021
3104 Clouds 11 1025 45 10000 1.15 18 13:52 31.01.2021
3105 Clouds 11 1025 45 10000 1.15 18 13:34 31.01.2021
3106 Clear -2 1027 78 10000 1.12 27 12:48 31.01.2021
3107 Clear 11 1025 44 10000 0.88 360 12:22 31.01.2021
3108 Clear 11 1025 44 10000 0.88 360 11:44 31.01.2021
3109 Clear 12 1025 42 10000 1.26 16 11:24 31.01.2021
3110 Clear 12 1025 42 10000 1.26 16 10:54 31.01.2021
3111 Clear 12 1025 42 10000 1.26 16 10:34 31.01.2021
3112 Clear -2 1028 79 10000 0.75 341 09:51 31.01.2021
3113 Clear 12 1025 42 10000 1.12 12 09:25 31.01.2021
3114 Clear 12 1025 42 10000 1.12 12 08:33 31.01.2021
3115 Clear 13 1024 41 10000 0.84 3 06:57 31.01.2021
3116 Clear 1 1027 66 10000 0.58 2 05:40 31.01.2021
3117 Clouds 16 1021 32 10000 0.24 115 00:47 31.01.2021
3118 Clouds 17 1020 32 10000 0.61 106 00:22 31.01.2021
3119 Clouds 17 1020 32 10000 0.61 106 23:34 30.01.2021
3120 Clouds 16 1020 32 10000 0.6 102 22:57 30.01.2021
3121 Clouds 16 1020 32 10000 0.6 102 22:31 30.01.2021
3122 Clouds 16 1020 32 10000 0.6 102 22:31 30.01.2021
3123 Clouds 16 1021 33 10000 0.47 92 21:42 30.01.2021
3124 Clear 15 1022 34 10000 0.53 69 21:23 30.01.2021
3125 Clear 15 1022 34 10000 0.53 69 20:48 30.01.2021
3126 Clear 15 1023 37 10000 0.43 78 20:29 30.01.2021
3127 Clear 15 1023 37 10000 0.43 78 19:54 30.01.2021
3128 Clear 15 1023 37 10000 0.43 78 19:36 30.01.2021
3129 Clouds 14 1023 41 10000 0.7 63 19:18 30.01.2021
3130 Clouds 4 1026 58 10000 0.89 202 18:39 30.01.2021
3131 Clouds 4 1026 61 10000 0.45 201 18:19 30.01.2021
3132 Clear 2 1025 71 10000 1.34 331 17:23 30.01.2021
3133 Clear 12 1022 45 10000 0.13 116 16:57 30.01.2021
3134 Clear 12 1022 45 10000 0.13 116 16:37 30.01.2021
3135 Clear -3 1025 89 10000 0.45 88 16:19 30.01.2021
3136 Clear -3 1024 87 10000 0.09 89 15:42 30.01.2021
3137 Clear 9 1021 52 10000 0.25 143 15:22 30.01.2021
3138 Clear 9 1021 52 10000 0.25 143 14:52 30.01.2021
3139 Clear 10 1020 50 10000 0.54 139 14:22 30.01.2021
3140 Clear 10 1020 50 10000 0.54 139 13:42 30.01.2021
3141 Clear 10 1019 49 10000 0.94 164 13:20 30.01.2021
3142 Clear 10 1019 48 10000 0.95 174 12:42 30.01.2021
3143 Clear 11 1019 47 10000 1.31 153 12:21 30.01.2021
3144 Clear 11 1019 47 10000 1.31 153 11:40 30.01.2021
3145 Clear 11 1019 45 10000 1.57 151 10:54 30.01.2021
3146 Clear 11 1018 43 10000 1.47 159 09:57 30.01.2021
3147 Clear 11 1018 43 10000 1.47 159 09:39 30.01.2021
3148 Clear 12 1018 42 10000 1.34 166 09:21 30.01.2021
3149 Clear 12 1018 42 10000 1.34 166 08:41 30.01.2021
3150 Clear 12 1017 41 10000 1.55 177 07:40 30.01.2021
3151 Clear -2 1017 81 10000 0.81 259 06:21 30.01.2021
3152 Clear 1 1015 68 10000 1.38 312 03:43 30.01.2021
3153 Clear 3 1013 58 10000 0.89 122 02:40 30.01.2021
3154 Clear 4 1013 56 10000 0.89 123 02:21 30.01.2021
3155 Clouds 7 1012 49 10000 1.34 175 00:53 30.01.2021
3156 Clouds 7 1011 52 10000 1.34 213 00:21 30.01.2021
3157 Clouds 7 1011 55 10000 2.24 204 23:50 29.01.2021
3158 Clouds 7 1011 56 10000 2.68 140 23:27 29.01.2021
3159 Clouds 6 1010 56 10000 3.58 252 22:46 29.01.2021
3160 Clouds 6 1010 61 10000 2.68 180 22:28 29.01.2021
3161 Clouds 6 1010 65 10000 2.68 137 21:56 29.01.2021
3162 Clouds 5 1010 66 10000 3.58 228 21:26 29.01.2021
3163 Clouds 4 1011 74 10000 2.24 229 20:43 29.01.2021
3164 Clouds 3 1011 75 10000 3.13 197 20:22 29.01.2021
3165 Clouds 2 1011 79 10000 0.89 140 19:40 29.01.2021
3166 Clouds 2 1011 78 10000 1.79 228 19:21 29.01.2021
3167 Clouds 3 1011 81 10000 3.13 222 18:53 29.01.2021
3168 Clouds 1 1010 88 10000 1.79 198 17:50 29.01.2021
3169 Clouds 0 1010 88 10000 0.89 129 17:23 29.01.2021
3170 Clouds 0 1009 88 10000 1.79 90 16:53 29.01.2021
3171 Clouds 1 1009 79 10000 1.34 83 16:24 29.01.2021
3172 Clouds 0 1009 88 10000 3.13 179 15:55 29.01.2021
3173 Clouds -1 1009 91 10000 4.02 357 15:37 29.01.2021
3174 Clouds -1 1009 90 10000 1.79 5 15:19 29.01.2021
3175 Clouds -1 1009 90 10000 0.45 148 14:23 29.01.2021
3176 Clouds -1 1008 90 10000 6.89 180 13:50 29.01.2021
3177 Clouds -1 1009 89 10000 0.45 110 13:31 29.01.2021
3178 Clouds 0 1008 89 10000 1.34 164 12:43 29.01.2021
3179 Rain -1 1008 91 10000 1.79 158 12:19 29.01.2021
3180 Rain 0 1009 91 10000 0.45 163 11:44 29.01.2021
3181 Rain 1 1009 90 10000 1.34 219 11:18 29.01.2021
3182 Clouds 1 1008 89 10000 1.79 219 10:46 29.01.2021
3183 Rain 2 1008 89 10000 1.34 158 10:25 29.01.2021
3184 Clouds 2 1009 89 10000 2.24 133 09:41 29.01.2021
3185 Clouds 1 1009 90 10000 4.9 198 08:52 29.01.2021
3186 Clouds 1 1010 89 10000 1.79 185 08:27 29.01.2021
3187 Clouds 2 1010 85 10000 3.58 223 07:51 29.01.2021
3188 Clouds 2 1010 82 10000 3.58 186 07:31 29.01.2021
3189 Clouds 3 1010 73 10000 3.58 216 06:49 29.01.2021
3190 Clouds 4 1010 62 10000 3.13 242 05:18 29.01.2021
3191 Clouds 6 1011 58 10000 3.13 223 02:48 29.01.2021
3192 Clouds 7 1012 54 10000 3.58 251 00:38 29.01.2021
3193 Clouds 8 1012 51 10000 2.68 234 00:19 29.01.2021
3194 Clouds 9 1013 48 10000 3.58 184 23:41 28.01.2021
3195 Clouds 9 1013 49 10000 2.24 266 23:23 28.01.2021
3196 Clouds 8 1014 51 10000 2.68 172 22:45 28.01.2021
3197 Clouds 8 1014 52 10000 2.68 204 22:25 28.01.2021
3198 Clouds 8 1015 51 10000 4.92 187 21:53 28.01.2021
3199 Clouds 8 1015 51 10000 4.02 213 21:33 28.01.2021
3200 Clouds 8 1016 52 10000 4.47 206 20:55 28.01.2021
3201 Clouds 8 1016 53 10000 2.68 198 20:37 28.01.2021
3202 Clouds 8 1017 52 10000 4.02 241 20:18 28.01.2021
3203 Clouds 7 1017 57 10000 1.79 167 19:40 28.01.2021
3204 Clouds 6 1018 59 10000 2.68 166 19:19 28.01.2021
3205 Clouds 4 1018 62 10000 2.24 87 18:43 28.01.2021
3206 Clouds 3 1018 65 10000 2.24 104 18:20 28.01.2021
3207 Clouds 2 1018 70 10000 1.79 73 17:45 28.01.2021
3208 Clouds 1 1018 75 10000 1.34 65 17:26 28.01.2021
3209 Clouds -1 1018 76 10000 1.34 85 16:45 28.01.2021
3210 Clouds -1 1018 76 10000 1.34 97 16:23 28.01.2021
3211 Clouds 0 1018 76 10000 1.34 56 15:43 28.01.2021
3212 Clouds 0 1018 77 10000 1.34 105 15:19 28.01.2021
3213 Clouds 0 1018 76 10000 2.24 103 14:42 28.01.2021
3214 Clouds 0 1018 76 10000 1.34 65 14:23 28.01.2021
3215 Clouds 0 1018 75 10000 2.68 347 13:48 28.01.2021
3216 Clouds 0 1019 74 10000 1.79 96 12:59 28.01.2021
3217 Clouds 0 1019 76 10000 1.79 88 12:40 28.01.2021
3218 Clouds 0 1019 75 10000 0.89 64 12:21 28.01.2021
3219 Clouds 1 1020 75 10000 1.79 87 11:43 28.01.2021
3220 Clouds 0 1020 76 10000 0.89 67 11:20 28.01.2021
3221 Clouds 0 1020 76 10000 0.89 67 11:20 28.01.2021
3222 Clouds 0 1020 75 10000 2.24 95 10:54 28.01.2021
3223 Clouds 0 1020 75 10000 1.79 76 10:35 28.01.2021
3224 Clouds 0 1020 77 10000 1.79 8 09:59 28.01.2021
3225 Clouds 0 1020 76 10000 2.24 63 09:30 28.01.2021
3226 Clouds 0 1021 76 10000 1.34 64 08:57 28.01.2021
3227 Clouds 1 1021 75 10000 0.89 86 08:38 28.01.2021
3228 Clouds 1 1021 74 10000 1.79 89 07:45 28.01.2021
3229 Clouds 1 1021 73 10000 0.89 113 06:51 28.01.2021
3230 Clouds 1 1021 72 10000 3.67 168 06:31 28.01.2021
3231 Clouds 1 1021 69 10000 3.17 175 04:30 28.01.2021
3232 Clouds 2 1020 58 10000 6.06 162 01:40 28.01.2021
3233 Clouds 1 1021 70 10000 0.45 155 23:56 27.01.2021
3234 Clouds -1 1021 77 10000 2.24 251 23:24 27.01.2021
3235 Clouds 0 1021 74 10000 2.68 170 22:44 27.01.2021
3236 Clouds 0 1021 73 10000 2.24 193 22:24 27.01.2021
3237 Clouds 0 1021 72 10000 2.24 209 21:44 27.01.2021
3238 Clouds -1 1021 74 10000 2.68 206 21:24 27.01.2021
3239 Clouds -1 1022 74 10000 3.13 186 20:55 27.01.2021
3240 Clouds 0 1022 74 10000 2.24 256 20:31 27.01.2021
3241 Clouds -1 1022 79 10000 2.24 209 19:57 27.01.2021
3242 Clouds -1 1022 76 10000 2.68 175 19:37 27.01.2021
3243 Clouds -1 1022 76 10000 3.13 260 19:18 27.01.2021
3244 Clouds -2 1021 79 10000 3.58 154 18:41 27.01.2021
3245 Clouds -2 1021 80 10000 4.47 163 18:22 27.01.2021
3246 Clouds -2 1021 82 10000 4.02 164 17:44 27.01.2021
3247 Clouds -2 1020 81 10000 4.02 243 17:18 27.01.2021
3248 Clouds -2 1020 82 10000 3.58 169 16:47 27.01.2021
3249 Clouds -3 1020 86 10000 3.58 170 16:28 27.01.2021
3250 Clouds -3 1020 85 10000 3.13 146 15:50 27.01.2021
3251 Clouds -3 1020 86 10000 1.79 158 15:30 27.01.2021
3252 Clouds -3 1020 83 10000 0.89 108 14:42 27.01.2021
3253 Clouds -3 1020 83 10000 1.34 102 14:22 27.01.2021
3254 Clouds -3 1020 82 10000 1.79 161 13:43 27.01.2021
3255 Clouds -3 1020 79 10000 1.34 218 12:58 27.01.2021
3256 Clouds -3 1020 77 10000 2.24 174 12:38 27.01.2021
3257 Clouds -2 1020 71 10000 2.68 155 12:18 27.01.2021
3258 Clouds -1 1020 53 10000 3.13 213 11:41 27.01.2021
3259 Clouds -1 1020 48 10000 4.02 197 11:21 27.01.2021
3260 Clouds -1 1019 53 10000 2.68 163 10:38 27.01.2021
3261 Clouds -1 1019 57 10000 3.13 185 10:19 27.01.2021
3262 Clouds -1 1019 49 10000 2.68 240 09:40 27.01.2021
3263 Clouds -1 1019 51 10000 2.68 152 08:57 27.01.2021
3264 Clouds -1 1019 46 10000 2.24 202 08:31 27.01.2021
3265 Clouds -1 1019 48 10000 0.89 152 07:43 27.01.2021
3266 Clouds 0 1019 35 10000 1.79 265 06:58 27.01.2021
3267 Clouds -1 1018 35 10000 0.89 148 06:19 27.01.2021
3268 Clouds -2 1018 43 10000 3.41 178 05:39 27.01.2021
3269 Clouds -1 1017 49 10000 1.97 155 03:34 27.01.2021
3270 Clouds 1 1017 44 10000 0.89 133 02:23 27.01.2021
3271 Clouds 3 1017 39 10000 2.24 143 01:49 27.01.2021
3272 Clear 4 1016 30 10000 2.68 204 00:33 27.01.2021
3273 Clear 4 1015 33 10000 2.68 176 23:49 26.01.2021
3274 Clear 5 1015 36 10000 2.24 152 23:28 26.01.2021
3275 Clear 6 1016 38 10000 2.24 153 22:50 26.01.2021
3276 Clear 6 1016 34 10000 1.79 130 22:23 26.01.2021
3277 Clear 6 1015 36 10000 0.89 148 21:54 26.01.2021
3278 Clear 6 1016 34 10000 0.89 129 21:34 26.01.2021
3279 Clear 4 1016 42 10000 0.89 146 20:58 26.01.2021
3280 Clear 3 1016 37 10000 0.89 237 20:40 26.01.2021
3281 Clear 3 1016 39 10000 0.89 285 20:21 26.01.2021
3282 Clear 2 1016 43 10000 0.45 264 19:45 26.01.2021
3283 Clouds 1 1016 46 10000 1.34 308 19:22 26.01.2021
3284 Clouds 1 1016 47 10000 1.34 306 18:48 26.01.2021
3285 Clouds 1 1015 48 10000 0.89 287 18:28 26.01.2021
3286 Clouds -1 1015 52 10000 1.79 354 17:55 26.01.2021
3287 Clouds -1 1015 54 10000 1.79 326 17:37 26.01.2021
3288 Clouds -4 1014 64 10000 2.68 334 16:56 26.01.2021
3289 Clouds -5 1013 64 10000 3.13 335 16:37 26.01.2021
3290 Clouds -5 1013 64 10000 2.24 333 16:19 26.01.2021
3291 Clouds -5 1012 64 10000 3.58 347 15:46 26.01.2021
3292 Clouds -5 1011 65 10000 2.68 331 15:24 26.01.2021
3293 Clouds -5 1010 66 10000 3.13 334 14:46 26.01.2021
3294 Clouds -5 1010 67 10000 3.13 320 14:28 26.01.2021
3295 Clouds -4 1009 66 10000 3.13 314 13:37 26.01.2021
3296 Clouds -4 1009 67 10000 2.24 293 13:18 26.01.2021
3297 Clouds -5 1009 69 10000 3.58 324 12:42 26.01.2021
3298 Clouds -5 1008 68 10000 2.24 1 12:22 26.01.2021
3299 Clouds -4 1008 67 10000 2.68 313 11:51 26.01.2021
3300 Clouds -4 1007 66 10000 2.24 313 11:30 26.01.2021
3301 Clouds -4 1007 67 10000 3.58 339 10:45 26.01.2021
3302 Clouds -4 1006 67 10000 3.13 330 10:26 26.01.2021
3303 Clouds -3 1005 66 10000 2.24 344 09:42 26.01.2021
3304 Clouds -3 1006 66 10000 1.79 310 09:23 26.01.2021
3305 Clouds -3 1005 67 10000 2.68 317 08:50 26.01.2021
3306 Clouds -3 1005 67 10000 3.13 346 08:21 26.01.2021
3307 Clouds -3 1004 68 10000 1.79 329 07:39 26.01.2021
3308 Clouds -2 1003 67 10000 0.89 323 05:59 26.01.2021
3309 Clouds -2 1003 68 10000 1.34 329 05:41 26.01.2021
3310 Clouds 0 1002 64 10000 4.47 351 03:58 26.01.2021
3311 Rain -1 1001 68 2778 4.02 12 02:21 26.01.2021
3312 Clouds 11 1000 53 10000 1.05 184 00:54 26.01.2021
3313 Clouds 11 1000 53 10000 0.44 301 23:36 25.01.2021
3314 Clouds 11 1000 54 9565 1.6 343 22:57 25.01.2021
3315 Clouds 11 1000 54 9565 1.6 343 22:36 25.01.2021
3316 Clouds -1 1000 83 2703 1.64 330 21:50 25.01.2021
3317 Rain -1 1000 86 2563 1.57 318 21:26 25.01.2021
3318 Clouds -1 1001 87 2563 0.89 241 20:51 25.01.2021
3319 Clouds -1 1001 88 2563 0.45 212 20:33 25.01.2021
3320 Clouds -1 1001 86 10000 0.45 216 19:51 25.01.2021
3321 Clouds -1 1001 85 10000 0.56 292 19:31 25.01.2021
3322 Clouds 1 1001 75 10000 0.45 3 18:49 25.01.2021
3323 Rain 1 1001 77 10000 0.82 187 18:28 25.01.2021
3324 Clouds -1 1001 78 10000 0.82 187 17:58 25.01.2021
3325 Clouds -1 1001 79 10000 0.82 187 17:40 25.01.2021
3326 Clouds -2 1001 80 10000 1.32 167 17:22 25.01.2021
3327 Clouds -3 1001 80 10000 0.45 2 16:41 25.01.2021
3328 Clouds -2 1001 79 10000 1.49 150 16:22 25.01.2021
3329 Clouds -2 1002 79 10000 1.79 350 15:49 25.01.2021
3330 Clouds -2 1002 78 10000 0.45 67 15:29 25.01.2021
3331 Clouds -2 1002 76 10000 0.89 95 14:46 25.01.2021
3332 Clouds -2 1002 76 10000 1.34 114 14:19 25.01.2021
3333 Clouds -2 1002 78 10000 1.79 97 13:52 25.01.2021
3334 Clouds -1 1002 73 10000 0.89 96 13:28 25.01.2021
3335 Clouds -1 1003 71 10000 1.79 156 12:46 25.01.2021
3336 Clouds -1 1003 69 10000 1.34 154 12:24 25.01.2021
3337 Clouds -1 1003 66 10000 0.89 159 11:48 25.01.2021
3338 Clouds -1 1004 66 10000 0.89 108 11:19 25.01.2021
3339 Clouds -2 1004 68 10000 0.45 35 10:42 25.01.2021
3340 Clouds -2 1004 67 10000 2.34 175 10:20 25.01.2021
3341 Clouds -1 1005 65 10000 2.34 175 09:46 25.01.2021
3342 Clouds -1 1005 64 10000 2.39 170 09:27 25.01.2021
3343 Clouds -1 1006 66 10000 2.39 170 08:30 25.01.2021
3344 Clouds -2 1006 65 10000 2.2 168 07:45 25.01.2021
3345 Clouds -1 1006 63 10000 1.57 156 07:25 25.01.2021
3346 Clouds 2 1006 54 10000 1.34 123 04:58 25.01.2021
3347 Clouds 4 1007 42 10000 1.34 214 01:33 25.01.2021
3348 Clear 8 1008 30 10000 1.79 210 23:52 24.01.2021
3349 Clear 8 1008 28 10000 2.68 210 23:20 24.01.2021
3350 Clear 17 1006 28 10000 2.36 165 22:44 24.01.2021
3351 Clear 16 1008 30 10000 1.87 161 22:25 24.01.2021
3352 Clear 16 1008 30 10000 1.87 161 21:51 24.01.2021
3353 Clear 16 1009 31 10000 1.09 164 21:24 24.01.2021
3354 Clear 8 1011 34 10000 1.34 147 20:46 24.01.2021
3355 Clear 7 1012 37 10000 0.45 166 20:22 24.01.2021
3356 Clear 6 1012 39 10000 0.89 229 19:55 24.01.2021
3357 Clear 5 1012 42 10000 1.34 255 19:28 24.01.2021
3358 Clear 4 1013 48 10000 0.45 247 18:59 24.01.2021
3359 Clear 4 1013 46 10000 0.45 254 18:40 24.01.2021
3360 Clear 4 1013 48 10000 1.34 240 18:21 24.01.2021
3361 Clear 2 1013 54 10000 0.34 293 17:57 24.01.2021
3362 Clear 2 1013 55 10000 0.34 293 17:38 24.01.2021
3363 Clear 1 1013 58 10000 0.45 285 17:18 24.01.2021
3364 Clear 10 1012 45 10000 0.49 303 16:41 24.01.2021
3365 Clear -3 1013 71 10000 0.45 293 16:20 24.01.2021
3366 Clear -3 1013 70 10000 0.45 274 15:45 24.01.2021
3367 Clear -3 1013 70 10000 0.89 301 15:20 24.01.2021
3368 Clear -3 1012 70 10000 0.89 304 14:47 24.01.2021
3369 Clear -2 1012 69 10000 1.47 342 14:24 24.01.2021
3370 Clear -2 1013 67 10000 1.79 322 13:34 24.01.2021
3371 Clouds -2 1013 66 10000 1.79 326 12:51 24.01.2021
3372 Clouds -2 1013 65 10000 1.34 324 12:23 24.01.2021
3373 Clouds -1 1014 64 10000 1.34 326 11:59 24.01.2021
3374 Clouds -2 1014 65 10000 2.24 337 11:41 24.01.2021
3375 Clouds -2 1013 65 10000 0.89 287 11:20 24.01.2021
3376 Clouds -2 1014 66 10000 1.34 308 10:35 24.01.2021
3377 Clouds -1 1014 63 10000 2.68 341 09:47 24.01.2021
3378 Clouds -1 1014 62 10000 1.79 316 09:20 24.01.2021
3379 Clouds -1 1014 59 10000 1.79 354 08:47 24.01.2021
3380 Clouds 1 1013 56 10000 1.79 343 05:18 24.01.2021
3381 Clouds 2 1012 63 10000 1.34 360 02:20 24.01.2021
3382 Clouds 3 1012 59 10000 0.45 311 00:58 24.01.2021
3383 Clouds 3 1012 66 10000 1.34 332 00:22 24.01.2021
3384 Clouds 3 1011 66 10000 0.89 251 23:46 23.01.2021
3385 Clouds 5 1011 56 10000 1.34 309 23:22 23.01.2021
3386 Clouds 15 1010 35 10000 0.62 78 22:41 23.01.2021
3387 Clouds 14 1010 35 10000 0.21 125 22:21 23.01.2021
3388 Clouds 14 1010 35 10000 0.21 125 21:47 23.01.2021
3389 Clouds 6 1011 47 10000 1.34 33 21:19 23.01.2021
3390 Clouds 14 1011 36 10000 0.13 74 20:40 23.01.2021
3391 Clouds 14 1012 38 10000 0.35 119 20:21 23.01.2021
3392 Clouds 14 1012 38 10000 0.35 119 19:45 23.01.2021
3393 Clouds 13 1012 40 10000 0.84 133 19:20 23.01.2021
3394 Clouds 13 1012 41 10000 0.56 137 18:44 23.01.2021
3395 Clouds 12 1012 44 10000 0.69 149 18:24 23.01.2021
3396 Clouds 2 1012 68 10000 0.45 277 17:45 23.01.2021
3397 Clouds -1 1012 74 10000 0.99 145 17:26 23.01.2021
3398 Clouds -2 1011 78 10000 0.99 145 16:47 23.01.2021
3399 Clouds -2 1011 79 10000 1.27 149 16:24 23.01.2021
3400 Clouds -2 1010 75 10000 0.45 35 15:40 23.01.2021
3401 Clouds -2 1010 70 10000 1.71 145 15:20 23.01.2021
3402 Clouds -2 1010 68 10000 1.71 145 14:31 23.01.2021
3403 Clouds -2 1009 70 10000 0.45 117 13:52 23.01.2021
3404 Clouds -2 1009 68 10000 1.33 157 13:34 23.01.2021
3405 Clouds -2 1009 70 10000 1.04 176 12:49 23.01.2021
3406 Clear -3 1009 68 10000 0.48 219 12:27 23.01.2021
3407 Clear -4 1009 69 10000 0.48 219 11:45 23.01.2021
3408 Clear -4 1009 68 10000 0.45 124 11:25 23.01.2021
3409 Clear -3 1009 65 10000 0.84 228 10:48 23.01.2021
3410 Clear -4 1009 63 10000 1.52 199 10:19 23.01.2021
3411 Clear -3 1008 58 10000 1.52 199 09:46 23.01.2021
3412 Clear -1 1008 57 10000 0.89 143 08:54 23.01.2021
3413 Clear -1 1008 52 10000 0.89 124 08:31 23.01.2021
3414 Clear 1 1007 46 10000 0.45 223 07:25 23.01.2021
3415 Clear 3 1007 52 10000 1.79 223 03:36 23.01.2021
3416 Clouds 8 1006 28 10000 6.71 236 00:42 23.01.2021
3417 Clouds 11 1006 24 10000 7.15 192 23:41 22.01.2021
3418 Clouds 11 1006 20 10000 4.92 188 22:57 22.01.2021
3419 Clouds 12 1007 21 10000 3.58 200 22:38 22.01.2021
3420 Clouds 11 1007 24 10000 4.02 210 21:46 22.01.2021
3421 Clouds 12 1008 22 10000 3.13 234 21:27 22.01.2021
3422 Clouds 12 1009 23 10000 2.68 131 20:57 22.01.2021
3423 Clouds 11 1009 25 10000 2.68 202 20:38 22.01.2021
3424 Clouds 11 1009 25 10000 2.68 202 20:38 22.01.2021
3425 Clouds 8 1010 31 10000 2.68 152 19:56 22.01.2021
3426 Clouds 8 1010 35 10000 2.24 131 19:24 22.01.2021
3427 Clouds 6 1010 47 10000 1.79 59 18:57 22.01.2021
3428 Clouds 6 1010 43 10000 3.13 60 18:39 22.01.2021
3429 Clouds 6 1011 42 10000 1.79 83 18:20 22.01.2021
3430 Clouds 6 1011 47 10000 1.34 58 17:43 22.01.2021
3431 Clouds 3 1011 51 10000 2.69 168 17:20 22.01.2021
3432 Clouds 2 1011 56 10000 0.45 85 16:39 22.01.2021
3433 Clouds 2 1011 56 10000 1.79 93 16:19 22.01.2021
3434 Clouds 2 1011 58 10000 0.89 159 15:28 22.01.2021
3435 Clouds 2 1011 60 10000 2.06 164 14:58 22.01.2021
3436 Clouds 2 1011 58 10000 2.06 164 14:30 22.01.2021
3437 Clouds 3 1011 61 10000 0.89 87 13:47 22.01.2021
3438 Clouds 2 1011 63 10000 1.34 119 13:28 22.01.2021
3439 Clouds 2 1011 64 10000 0.89 121 12:45 22.01.2021
3440 Clouds 2 1012 65 10000 1.34 160 12:22 22.01.2021
3441 Clouds 2 1012 63 10000 1.76 156 11:46 22.01.2021
3442 Clouds 3 1013 62 10000 0.45 244 10:55 22.01.2021
3443 Clouds 3 1013 63 10000 0.45 239 10:35 22.01.2021
3444 Clouds 2 1013 65 10000 1.92 155 09:59 22.01.2021
3445 Clouds 14 1013 43 10000 1.59 142 09:29 22.01.2021
3446 Clouds 14 1013 43 10000 1.59 142 08:50 22.01.2021
3447 Clouds 14 1013 43 10000 1.3 145 08:27 22.01.2021
3448 Clouds 14 1013 43 10000 1.3 145 07:34 22.01.2021
3449 Clouds 5 1015 45 10000 1.07 152 03:40 22.01.2021
3450 Clear 22 1013 24 10000 0.98 160 00:40 22.01.2021
3451 Clear 22 1013 23 10000 1.11 147 23:56 21.01.2021
3452 Clear 22 1013 23 10000 1.11 147 23:38 21.01.2021
3453 Clear 22 1013 23 10000 1.11 145 22:54 21.01.2021
3454 Clear 22 1013 23 10000 1.11 145 22:36 21.01.2021
3455 Clear 22 1014 23 10000 1.44 155 21:44 21.01.2021
3456 Clear 22 1014 23 10000 1.44 155 21:44 21.01.2021
3457 Clear 21 1015 23 10000 1.53 161 21:22 21.01.2021
3458 Clear 21 1015 23 10000 1.53 161 20:55 21.01.2021
3459 Clear 21 1015 23 10000 1.53 161 20:36 21.01.2021
3460 Clear 21 1017 25 10000 1.43 166 20:18 21.01.2021
3461 Clear 21 1017 25 10000 1.43 166 19:43 21.01.2021
3462 Clear 19 1017 26 10000 1.43 166 19:23 21.01.2021
3463 Clear 12 1020 34 10000 1.34 326 18:41 21.01.2021
3464 Clear 18 1018 28 10000 1.46 169 18:21 21.01.2021
3465 Clear 9 1020 40 10000 1.34 318 17:57 21.01.2021
3466 Clear 5 1020 54 10000 0.89 309 17:21 21.01.2021
3467 Clear 1 1019 61 10000 1.05 168 16:54 21.01.2021
3468 Clear 15 1017 36 10000 1.05 168 16:36 21.01.2021
3469 Clear 2 1019 55 10000 0.62 158 16:18 21.01.2021
3470 Clear 10 1017 54 10000 0.62 158 15:45 21.01.2021
3471 Clear 10 1017 54 10000 0.08 141 15:22 21.01.2021
3472 Clear 3 1019 56 10000 0.89 318 14:39 21.01.2021
3473 Clear 3 1019 58 10000 0.45 320 14:21 21.01.2021
3474 Clear 2 1019 67 10000 0.45 313 13:42 21.01.2021
3475 Clear 1 1019 72 10000 0.89 313 13:22 21.01.2021
3476 Clear 10 1018 54 10000 0.47 349 12:42 21.01.2021
3477 Clear 11 1018 51 10000 0.4 336 12:23 21.01.2021
3478 Clear 11 1018 51 10000 0.4 336 11:51 21.01.2021
3479 Clear 11 1018 49 10000 0.98 350 11:28 21.01.2021
3480 Clear 11 1018 49 10000 0.98 350 10:52 21.01.2021
3481 Clear -1 1019 69 10000 0.98 350 10:33 21.01.2021
3482 Clear 0 1019 65 10000 1.28 351 09:45 21.01.2021
3483 Clear 12 1018 47 10000 1.11 353 09:25 21.01.2021
3484 Clear 2 1019 56 10000 1.11 353 08:45 21.01.2021
3485 Clear 2 1019 56 10000 1.11 353 08:45 21.01.2021
3486 Clear 3 1019 54 10000 1.37 352 08:24 21.01.2021
3487 Clear 2 1019 60 10000 0.9 348 07:28 21.01.2021
3488 Clear 2 1019 53 10000 0.9 348 06:54 21.01.2021
3489 Clear 3 1019 50 10000 0.89 341 05:22 21.01.2021
3490 Clear 8 1019 40 10000 1.34 351 02:58 21.01.2021
3491 Clear 20 1018 26 10000 1.42 354 00:57 21.01.2021
3492 Clear 20 1018 25 10000 0.72 15 23:56 20.01.2021
3493 Clear 20 1018 25 10000 0.72 15 23:36 20.01.2021
3494 Clear 20 1018 25 10000 2.01 9 23:18 20.01.2021
3495 Clear 20 1018 25 10000 2.01 9 22:46 20.01.2021
3496 Clear 20 1019 25 10000 2.6 8 22:28 20.01.2021
3497 Clear 20 1019 25 10000 2.6 8 21:43 20.01.2021
3498 Clear 19 1020 26 10000 2.71 11 21:22 20.01.2021
3499 Clear 19 1020 26 10000 2.71 11 20:50 20.01.2021
3500 Clear 11 1024 28 10000 0.89 270 20:20 20.01.2021
3501 Clear 10 1024 26 10000 1.34 290 19:46 20.01.2021
3502 Clouds 8 1025 29 10000 3.13 346 19:27 20.01.2021
3503 Clouds 7 1025 30 10000 2.68 329 18:42 20.01.2021
3504 Clouds 7 1025 31 10000 3.13 347 18:19 20.01.2021
3505 Clouds 6 1024 32 10000 4.92 351 17:43 20.01.2021
3506 Clouds 6 1024 32 10000 4.02 333 17:24 20.01.2021
3507 Clouds 4 1024 34 10000 4.92 342 16:45 20.01.2021
3508 Clouds 11 1023 42 10000 2.28 6 15:56 20.01.2021
3509 Clouds 11 1023 42 10000 2.28 6 15:36 20.01.2021
3510 Clouds 11 1023 42 10000 1.29 11 14:57 20.01.2021
3511 Clouds 11 1023 42 10000 1.29 11 14:38 20.01.2021
3512 Clouds 4 1024 34 10000 3.58 345 14:18 20.01.2021
3513 Clouds 4 1024 34 10000 3.13 342 13:36 20.01.2021
3514 Clouds 5 1024 32 10000 4.47 339 12:55 20.01.2021
3515 Clouds 5 1024 32 10000 5.36 356 12:22 20.01.2021
3516 Clouds 5 1024 32 10000 2.68 345 11:40 20.01.2021
3517 Clouds 5 1024 32 10000 3.13 331 11:19 20.01.2021
3518 Clouds 6 1025 32 10000 3.13 336 10:45 20.01.2021
3519 Clouds 14 1022 35 10000 4.5 352 10:22 20.01.2021
3520 Clouds 5 1024 32 10000 3.58 348 09:38 20.01.2021
3521 Clouds 4 1024 32 10000 3.13 342 09:19 20.01.2021
3522 Clouds 5 1024 32 10000 3.13 322 08:41 20.01.2021
3523 Clouds 5 1024 32 10000 5.36 348 08:21 20.01.2021
3524 Clouds 5 1024 32 10000 6.26 314 07:38 20.01.2021
3525 Clouds 4 1024 33 10000 5.81 341 07:18 20.01.2021
3526 Clouds 4 1023 32 10000 4.47 325 04:29 20.01.2021
3527 Clouds 3 1022 34 10000 4.47 314 02:34 20.01.2021
3528 Clouds 4 1021 31 10000 4.47 351 00:58 20.01.2021
3529 Clouds 6 1020 30 10000 4.92 310 23:54 19.01.2021
3530 Clouds 6 1020 30 10000 4.92 294 23:35 19.01.2021
3531 Clouds 5 1020 31 10000 4.47 339 22:59 19.01.2021
3532 Clouds 4 1020 33 10000 4.92 4 22:40 19.01.2021
3533 Clouds 3 1020 34 10000 7.15 345 22:21 19.01.2021
3534 Clouds 3 1019 35 10000 5.81 356 21:55 19.01.2021
3535 Clouds 3 1019 36 10000 6.26 342 21:35 19.01.2021
3536 Clouds 3 1019 31 10000 5.36 345 20:50 19.01.2021
3537 Clouds 2 1019 32 10000 3.58 354 20:30 19.01.2021
3538 Clouds 2 1019 32 10000 5.36 324 19:56 19.01.2021
3539 Clouds 3 1019 31 10000 5.81 324 19:37 19.01.2021
3540 Clouds 3 1019 31 10000 5.81 324 19:37 19.01.2021
3541 Clouds 2 1019 32 10000 4.92 329 19:18 19.01.2021
3542 Clouds 1 1018 34 10000 6.26 345 18:39 19.01.2021
3543 Clouds 1 1018 35 10000 5.81 339 18:20 19.01.2021
3544 Clouds 0 1016 36 10000 6.26 342 17:44 19.01.2021
3545 Clouds 0 1016 36 10000 6.26 342 17:22 19.01.2021
3546 Clouds 0 1015 36 10000 6.71 346 16:41 19.01.2021
3547 Clouds 0 1014 36 10000 5.81 330 16:23 19.01.2021
3548 Clouds 0 1014 36 10000 7.15 297 15:52 19.01.2021
3549 Clouds 0 1014 36 10000 6.26 325 15:33 19.01.2021
3550 Clouds 1 1013 36 10000 6.26 316 14:49 19.01.2021
3551 Clouds 1 1013 35 10000 7.6 350 14:28 19.01.2021
3552 Clouds 1 1012 34 10000 6.26 7 13:52 19.01.2021
3553 Clouds 1 1012 34 10000 6.26 7 13:52 19.01.2021
3554 Clouds 1 1012 32 10000 6.71 355 13:28 19.01.2021
3555 Clouds 2 1012 30 10000 5.36 357 12:58 19.01.2021
3556 Clouds 2 1012 30 10000 5.36 357 12:34 19.01.2021
3557 Clouds 2 1013 30 10000 4.92 340 11:57 19.01.2021
3558 Clouds 2 1013 31 10000 3.13 347 11:37 19.01.2021
3559 Clouds 2 1013 33 10000 1.79 3 11:19 19.01.2021
3560 Clouds 3 1012 33 10000 4.02 343 10:41 19.01.2021
3561 Clouds 4 1012 32 10000 3.58 9 10:19 19.01.2021
3562 Clouds 4 1012 31 10000 4.47 351 09:46 19.01.2021
3563 Clouds 4 1012 31 10000 4.47 351 09:46 19.01.2021
3564 Clouds 5 1011 30 10000 3.13 318 09:20 19.01.2021
3565 Clouds 6 1011 27 10000 4.02 356 08:34 19.01.2021
3566 Clouds 6 1012 23 10000 2.24 341 07:53 19.01.2021
3567 Clear 7 1011 21 10000 2.68 339 07:18 19.01.2021
3568 Clear 9 1011 21 10000 6.71 333 04:48 19.01.2021
3569 Clear 11 1010 20 10000 3.13 7 02:23 19.01.2021
3570 Clouds 23 1011 18 10000 7.4 5 00:41 19.01.2021
3571 Clouds 24 1011 17 10000 7.73 4 23:55 18.01.2021
3572 Clouds 24 1012 16 10000 6.69 1 23:27 18.01.2021
3573 Clouds 17 1013 10 10000 4.02 334 22:44 18.01.2021
3574 Clear 24 1012 16 10000 6.18 1 22:22 18.01.2021
3575 Clear 24 1012 16 10000 6.18 1 21:47 18.01.2021
3576 Clear 24 1014 17 10000 6.78 3 21:23 18.01.2021
3577 Clear 24 1014 17 10000 6.78 3 20:57 18.01.2021
3578 Clear 24 1014 17 10000 6.78 3 20:34 18.01.2021
3579 Clear 23 1015 19 10000 7.3 2 19:54 18.01.2021
3580 Clear 23 1015 19 10000 7.3 2 19:35 18.01.2021
3581 Clouds 22 1016 21 10000 7.16 2 18:51 18.01.2021
3582 Clouds 22 1016 21 10000 7.16 2 18:32 18.01.2021
3583 Clouds 21 1016 24 10000 5.91 2 17:52 18.01.2021
3584 Clouds 21 1016 24 10000 5.91 2 17:32 18.01.2021
3585 Clouds 6 1015 44 10000 2.68 323 16:54 18.01.2021
3586 Clouds 6 1015 44 10000 2.68 323 16:33 18.01.2021
3587 Clouds 6 1015 44 10000 2.68 323 15:56 18.01.2021
3588 Clouds 6 1015 44 10000 2.68 323 15:37 18.01.2021
3589 Clear 6 1015 44 10000 1.79 347 15:19 18.01.2021
3590 Clear 6 1015 40 10000 2.24 293 14:42 18.01.2021
3591 Clear 6 1014 39 10000 2.24 324 14:23 18.01.2021
3592 Clear 7 1015 35 10000 2.24 277 13:45 18.01.2021
3593 Clear 7 1015 35 10000 2.24 314 13:22 18.01.2021
3594 Clear 7 1014 33 10000 3.58 326 12:47 18.01.2021
3595 Clear 9 1014 29 10000 2.24 331 12:19 18.01.2021
3596 Clear 11 1014 28 10000 4.47 336 11:48 18.01.2021
3597 Clear 17 1015 29 10000 2.47 357 11:27 18.01.2021
3598 Clear 17 1015 29 10000 2.47 357 10:51 18.01.2021
3599 Clear 17 1015 29 10000 2.47 357 10:30 18.01.2021
3600 Clear 16 1015 32 10000 1.83 360 09:43 18.01.2021
3601 Clear 16 1016 32 10000 1.49 2 09:18 18.01.2021
3602 Clear 9 1015 26 10000 2.24 346 08:31 18.01.2021
3603 Clear 8 1015 24 10000 1.74 355 07:55 18.01.2021
3604 Clear 7 1015 22 10000 1.55 343 06:44 18.01.2021
3605 Clear 10 1015 14 10000 0.63 341 04:54 18.01.2021
3606 Clear 16 1016 31 10000 0.58 341 04:29 18.01.2021
3607 Clear 16 1016 31 10000 0.58 341 03:53 18.01.2021
3608 Clear 16 1016 31 10000 0.58 341 03:30 18.01.2021
3609 Clear 17 1016 30 10000 0.83 341 02:59 18.01.2021
3610 Clear 19 1017 26 10000 1.54 7 02:20 18.01.2021
3611 Clear 25 1017 17 10000 2.46 1 00:42 18.01.2021
3612 Clear 26 1017 16 10000 3.03 1 00:20 18.01.2021
3613 Clear 26 1017 16 10000 3.03 1 23:44 17.01.2021
3614 Clear 26 1018 16 10000 3.33 359 23:20 17.01.2021
3615 Clear 26 1019 16 10000 3.92 359 22:26 17.01.2021
3616 Clear 26 1019 16 10000 3.92 359 22:26 17.01.2021
3617 Clear 26 1019 16 10000 3.92 359 21:58 17.01.2021
3618 Clear 26 1019 16 10000 3.92 359 21:39 17.01.2021
3619 Clear 25 1021 17 10000 3.85 0 21:21 17.01.2021
3620 Clear 25 1021 17 10000 3.85 0 20:44 17.01.2021
3621 Clear 24 1022 18 10000 4.1 3 20:25 17.01.2021
3622 Clear 24 1022 18 10000 4.1 3 19:42 17.01.2021
3623 Clear 23 1022 20 10000 3.52 4 19:19 17.01.2021
3624 Clear 23 1022 20 10000 3.21 4 18:38 17.01.2021
3625 Clear 22 1022 21 10000 2.67 8 18:19 17.01.2021
3626 Clear 22 1022 21 10000 2.67 8 17:43 17.01.2021
3627 Clear 18 1022 27 10000 2.07 355 17:23 17.01.2021
3628 Clear 18 1022 27 10000 2.07 355 17:23 17.01.2021
3629 Clear 18 1022 27 10000 2.07 355 16:43 17.01.2021
3630 Clear 14 1022 37 10000 1.85 355 16:19 17.01.2021
3631 Clear 14 1022 37 10000 1.85 355 15:41 17.01.2021
3632 Clear 14 1022 36 10000 1.88 353 15:21 17.01.2021
3633 Clear 14 1022 36 10000 1.88 353 14:47 17.01.2021
3634 Clear 15 1022 35 10000 2.11 350 14:26 17.01.2021
3635 Clear 15 1022 35 10000 2.11 350 13:44 17.01.2021
3636 Clear 15 1022 34 10000 2.12 351 13:26 17.01.2021
3637 Clear 15 1021 35 10000 1.88 350 12:52 17.01.2021
3638 Clear 15 1021 35 10000 1.88 350 12:30 17.01.2021
3639 Clear 15 1021 34 10000 1.94 352 11:54 17.01.2021
3640 Clear 15 1022 34 10000 1.89 354 11:22 17.01.2021
3641 Clear 15 1022 34 10000 1.89 354 10:46 17.01.2021
3642 Clear 16 1021 33 10000 1.96 351 10:21 17.01.2021
3643 Clear 17 1022 31 10000 2.11 355 09:21 17.01.2021
3644 Clear 17 1022 31 10000 2.11 355 08:43 17.01.2021
3645 Clouds 17 1022 30 10000 2.07 356 06:52 17.01.2021
3646 Clear 12 1020 34 10000 0.89 291 04:28 17.01.2021
3647 Clear 20 1020 24 10000 2.39 353 02:46 17.01.2021
3648 Clouds 26 1020 16 10000 3.91 350 00:48 17.01.2021
3649 Clouds 27 1020 15 10000 4.65 356 00:18 17.01.2021
3650 Clouds 27 1020 15 10000 4.65 356 23:49 16.01.2021
3651 Clouds 27 1020 15 10000 4.88 358 23:19 16.01.2021
3652 Clouds 27 1020 15 10000 4.88 358 22:36 16.01.2021
3653 Clouds 27 1020 15 10000 4.97 357 21:58 16.01.2021
3654 Clouds 27 1020 15 10000 4.97 357 21:37 16.01.2021
3655 Clouds 27 1021 16 10000 5.43 4 21:18 16.01.2021
3656 Clouds 27 1021 16 10000 5.43 4 20:42 16.01.2021
3657 Clouds 26 1022 16 10000 5.29 11 20:21 16.01.2021
3658 Clouds 26 1022 16 10000 5.29 11 19:44 16.01.2021
3659 Clouds 25 1022 17 10000 4.98 8 19:24 16.01.2021
3660 Clouds 17 1022 25 10000 3.13 345 18:43 16.01.2021
3661 Clouds 17 1022 25 10000 3.13 345 18:43 16.01.2021
3662 Clouds 16 1021 28 10000 4.02 320 18:24 16.01.2021
3663 Clouds 16 1021 27 10000 3.13 331 17:47 16.01.2021
3664 Clouds 21 1021 22 10000 2.67 355 17:28 16.01.2021
3665 Clouds 21 1021 22 10000 2.67 355 16:47 16.01.2021
3666 Clouds 18 1020 27 10000 2.88 352 16:27 16.01.2021
3667 Clouds 18 1020 27 10000 2.88 352 15:54 16.01.2021
3668 Clouds 17 1020 29 10000 2.48 350 15:22 16.01.2021
3669 Clouds 17 1019 30 10000 2.21 347 14:25 16.01.2021
3670 Clouds 17 1019 30 10000 2.21 347 13:49 16.01.2021
3671 Clouds 17 1019 31 10000 1.88 2 13:25 16.01.2021
3672 Clouds 10 1020 25 10000 0.45 221 12:46 16.01.2021
3673 Clouds 9 1020 28 10000 1.34 312 12:21 16.01.2021
3674 Clouds 7 1020 30 10000 0.94 343 11:49 16.01.2021
3675 Clouds 8 1020 26 10000 1.57 348 11:25 16.01.2021
3676 Clouds 10 1021 23 10000 1.57 348 10:47 16.01.2021
3677 Clouds 17 1020 30 10000 1.29 355 10:28 16.01.2021
3678 Clouds 17 1020 30 10000 1.29 355 09:40 16.01.2021
3679 Clouds 11 1021 23 10000 3.58 333 09:19 16.01.2021
3680 Clouds 17 1021 30 10000 1.74 344 07:51 16.01.2021
3681 Clouds 11 1021 26 10000 0.85 344 06:44 16.01.2021
3682 Clouds 8 1021 29 10000 0.44 186 04:51 16.01.2021
3683 Clouds 12 1022 24 10000 0.18 283 02:56 16.01.2021
3684 Clouds 19 1022 27 10000 0.93 328 02:25 16.01.2021
3685 Clouds 18 1021 18 10000 2.24 60 00:44 16.01.2021
3686 Clouds 19 1021 17 10000 2.24 25 00:20 16.01.2021
3687 Clouds 27 1022 15 10000 1.21 4 23:28 15.01.2021
3688 Clear 27 1024 15 10000 1.9 6 22:27 15.01.2021
3689 Clear 27 1024 15 10000 1.9 6 21:53 15.01.2021
3690 Clear 27 1024 15 10000 1.9 6 21:34 15.01.2021
3691 Clear 27 1025 16 10000 2.8 3 20:47 15.01.2021
3692 Clear 26 1027 17 10000 3.03 3 20:23 15.01.2021
3693 Clear 26 1027 17 10000 3.03 3 19:47 15.01.2021
3694 Clear 24 1028 18 10000 3 6 19:26 15.01.2021
3695 Clear 24 1027 18 10000 2.97 3 18:45 15.01.2021
3696 Clear 23 1028 20 10000 2.88 0 18:20 15.01.2021
3697 Clear 16 1028 22 10000 0.45 343 17:58 15.01.2021
3698 Clear 16 1028 22 10000 0.45 343 17:58 15.01.2021
3699 Clear 13 1028 25 10000 2.88 0 17:40 15.01.2021
3700 Clear 8 1028 34 10000 2.05 355 17:19 15.01.2021
3701 Clear 8 1028 31 10000 2.05 355 16:44 15.01.2021
3702 Clear 9 1028 30 10000 0.45 339 16:23 15.01.2021
3703 Clear 5 1028 36 10000 0.89 315 15:41 15.01.2021
3704 Clear 5 1028 36 10000 0.89 315 15:19 15.01.2021
3705 Clear 7 1028 32 10000 0.45 298 14:42 15.01.2021
3706 Clear 7 1028 31 10000 2.5 351 14:24 15.01.2021
3707 Clear 6 1028 33 10000 2.5 351 13:41 15.01.2021
3708 Clouds 7 1027 30 10000 2.18 352 13:20 15.01.2021
3709 Clouds 7 1028 32 10000 0.89 87 12:49 15.01.2021
3710 Clouds 7 1028 33 10000 0.45 87 12:31 15.01.2021
3711 Clouds 7 1028 30 10000 2.03 353 11:46 15.01.2021
3712 Clouds 9 1028 25 10000 2.22 354 11:27 15.01.2021
3713 Clouds 17 1028 31 10000 2.22 354 10:54 15.01.2021
3714 Clouds 17 1028 31 10000 2.22 354 10:34 15.01.2021
3715 Clouds 7 1028 32 10000 1.79 341 09:54 15.01.2021
3716 Clouds 8 1028 27 10000 2.2 355 09:34 15.01.2021
3717 Clouds 11 1028 22 10000 1.88 359 08:42 15.01.2021
3718 Clouds 17 1028 30 10000 2.04 1 08:19 15.01.2021
3719 Clouds 17 1028 30 10000 2.04 1 07:41 15.01.2021
3720 Clouds 18 1028 29 10000 1.73 1 07:19 15.01.2021
3721 Clouds 13 1027 17 10000 1.79 354 04:33 15.01.2021
3722 Clear 22 1026 21 10000 3.11 353 01:48 15.01.2021
3723 Clouds 27 1025 16 10000 4.33 352 23:55 14.01.2021
3724 Clouds 27 1024 16 10000 4.24 352 23:23 14.01.2021
3725 Clouds 27 1024 16 10000 4.24 352 22:44 14.01.2021
3726 Clouds 27 1025 16 10000 4.6 352 22:25 14.01.2021
3727 Clouds 27 1025 16 10000 4.6 352 21:48 14.01.2021
3728 Clouds 26 1026 17 10000 4 357 21:21 14.01.2021
3729 Clouds 26 1026 17 10000 4 357 20:51 14.01.2021
3730 Clouds 25 1027 18 10000 4.03 4 20:27 14.01.2021
3731 Clouds 25 1027 18 10000 4.03 4 19:48 14.01.2021
3732 Clouds 24 1028 20 10000 3.71 3 19:29 14.01.2021
3733 Clouds 16 1028 30 10000 0.45 123 18:55 14.01.2021
3734 Clouds 16 1028 30 10000 0.45 123 18:32 14.01.2021
3735 Clouds 13 1028 37 10000 2.68 323 17:54 14.01.2021
3736 Clouds 11 1027 45 10000 0.45 127 17:28 14.01.2021
3737 Clouds 9 1027 48 10000 0.89 121 16:50 14.01.2021
3738 Clouds 16 1027 38 10000 2.37 355 16:26 14.01.2021
3739 Clouds 16 1027 38 10000 2.37 355 15:52 14.01.2021
3740 Clouds 16 1026 36 10000 2.7 358 15:27 14.01.2021
3741 Clouds 16 1026 36 10000 2.7 358 14:42 14.01.2021
3742 Clouds 16 1025 36 10000 2.6 346 14:21 14.01.2021
3743 Clouds 6 1026 52 10000 2.6 346 13:54 14.01.2021
3744 Clouds 8 1026 45 10000 2.66 351 13:23 14.01.2021
3745 Clouds 9 1026 44 10000 0.45 324 12:56 14.01.2021
3746 Clouds 9 1026 42 10000 0.89 322 12:21 14.01.2021
3747 Clouds 9 1027 42 10000 1.79 326 11:55 14.01.2021
3748 Clouds 9 1027 43 10000 0.89 326 11:28 14.01.2021
3749 Clouds 8 1027 44 10000 1.34 280 10:58 14.01.2021
3750 Clouds 9 1027 42 10000 0.89 262 10:40 14.01.2021
3751 Clouds 9 1027 39 10000 0.45 256 10:18 14.01.2021
3752 Clouds 15 1025 34 10000 1.8 358 09:42 14.01.2021
3753 Clouds 15 1025 34 10000 1.52 352 09:20 14.01.2021
3754 Clouds 15 1025 34 10000 1.52 352 08:33 14.01.2021
3755 Clouds 14 1026 35 10000 0.78 356 07:57 14.01.2021
3756 Clouds 14 1026 35 10000 0.78 356 07:31 14.01.2021
3757 Clouds 9 1027 40 10000 3.13 345 06:34 14.01.2021
3758 Clouds 9 1026 32 10000 0.42 334 04:57 14.01.2021
3759 Clouds 23 1023 18 10000 0.51 27 00:27 14.01.2021
3760 Clouds 23 1023 18 10000 0.51 27 23:31 13.01.2021
3761 Clouds 23 1023 18 10000 0.28 54 22:51 13.01.2021
3762 Clouds 23 1024 18 10000 0.59 174 22:23 13.01.2021
3763 Clouds 23 1024 18 10000 0.59 174 21:48 13.01.2021
3764 Clouds 22 1026 19 10000 0.3 46 21:22 13.01.2021
3765 Clouds 22 1026 19 10000 0.3 46 20:51 13.01.2021
3766 Clouds 21 1027 20 10000 0.49 29 20:26 13.01.2021
3767 Clouds 21 1027 20 10000 0.49 29 19:52 13.01.2021
3768 Clouds 14 1030 20 10000 0.89 186 19:27 13.01.2021
3769 Clouds 13 1030 23 10000 0.6 328 18:53 13.01.2021
3770 Clouds 13 1030 23 10000 0.6 328 18:53 13.01.2021
3771 Clouds 14 1030 22 10000 0.89 302 18:34 13.01.2021
3772 Clouds 11 1031 26 10000 1.34 323 17:51 13.01.2021
3773 Clouds 9 1030 29 10000 1.34 316 17:19 13.01.2021
3774 Clouds 8 1031 31 10000 2.24 323 16:47 13.01.2021
3775 Clear 10 1027 46 10000 0.47 339 16:21 13.01.2021
3776 Clear 1 1030 43 10000 0.47 339 15:51 13.01.2021
3777 Clear 1 1030 41 10000 0.47 339 15:32 13.01.2021
3778 Clear 1 1030 41 10000 0.45 325 14:34 13.01.2021
3779 Clear 3 1029 37 10000 0.38 5 13:50 13.01.2021
3780 Clouds 4 1030 34 10000 0.23 339 13:26 13.01.2021
3781 Clouds 9 1027 46 10000 0.28 358 12:46 13.01.2021
3782 Clouds 6 1031 34 10000 0.89 326 12:28 13.01.2021
3783 Clouds 6 1031 32 10000 0.68 348 11:53 13.01.2021
3784 Clouds 7 1031 32 10000 0.45 326 11:34 13.01.2021
3785 Clouds 10 1027 47 10000 0.31 20 10:50 13.01.2021
3786 Clouds 10 1027 47 10000 0.31 20 10:32 13.01.2021
3787 Clouds 6 1031 34 10000 1.79 317 09:53 13.01.2021
3788 Clouds 6 1031 33 10000 1.34 318 09:30 13.01.2021
3789 Clouds 5 1031 34 10000 2.24 332 08:50 13.01.2021
3790 Clouds 5 1031 34 10000 1.79 340 08:28 13.01.2021
3791 Clouds 3 1031 40 10000 2.24 3 07:34 13.01.2021
3792 Clouds 10 1027 44 10000 0.54 8 06:54 13.01.2021
3793 Clouds 3 1030 37 10000 0.77 356 04:20 13.01.2021
3794 Clouds 4 1029 34 10000 0.77 356 03:45 13.01.2021
3795 Clouds 5 1029 34 10000 0.7 342 03:27 13.01.2021
3796 Clouds 9 1028 29 10000 0.45 58 01:19 13.01.2021
3797 Clouds 10 1027 27 10000 1.34 63 23:55 12.01.2021
3798 Clouds 11 1028 26 10000 1.34 63 23:22 12.01.2021
3799 Clouds 11 1028 27 10000 0.45 69 22:46 12.01.2021
3800 Clouds 10 1028 28 10000 0.89 69 22:24 12.01.2021
3801 Clouds 11 1029 27 10000 1.34 71 21:49 12.01.2021
3802 Clouds 11 1029 26 10000 0.89 78 21:30 12.01.2021
3803 Clouds 19 1026 23 10000 0.47 96 20:49 12.01.2021
3804 Clear 18 1027 24 10000 0.53 20 20:27 12.01.2021
3805 Clear 18 1027 24 10000 0.53 20 19:55 12.01.2021
3806 Clear 18 1027 24 10000 0.53 20 19:35 12.01.2021
3807 Clouds 9 1030 30 10000 0.45 356 18:46 12.01.2021
3808 Clouds 9 1029 30 10000 0.64 58 18:24 12.01.2021
3809 Clouds 7 1029 36 10000 0.64 58 17:44 12.01.2021
3810 Clouds 4 1029 43 10000 0.89 356 17:25 12.01.2021
3811 Clouds 12 1026 38 10000 0.03 83 16:44 12.01.2021
3812 Clouds -2 1028 56 10000 0.18 68 16:24 12.01.2021
3813 Clouds -2 1028 54 10000 0.18 68 15:41 12.01.2021
3814 Clouds -1 1028 52 10000 0.47 50 15:21 12.01.2021
3815 Clouds -1 1027 54 10000 0.47 50 14:43 12.01.2021
3816 Clouds -2 1027 59 10000 0.89 356 14:23 12.01.2021
3817 Clouds -2 1027 57 10000 0.52 98 13:52 12.01.2021
3818 Clouds -2 1027 56 10000 0.65 122 13:18 12.01.2021
3819 Clouds -1 1027 54 10000 0.64 122 12:24 12.01.2021
3820 Clouds -1 1027 53 10000 0.64 122 11:41 12.01.2021
3821 Clouds -1 1027 53 10000 0.49 73 10:55 12.01.2021
3822 Clouds -1 1027 52 10000 0.76 113 10:25 12.01.2021
3823 Clouds 0 1027 52 10000 0.76 113 09:58 12.01.2021
3824 Clouds 0 1027 49 10000 0.76 113 09:38 12.01.2021
3825 Clear 0 1028 52 10000 0.5 148 09:18 12.01.2021
3826 Clear -1 1027 51 10000 0.48 125 08:26 12.01.2021
3827 Clear 0 1028 50 10000 0.48 125 07:37 12.01.2021
3828 Clouds 1 1028 47 10000 0.36 143 06:50 12.01.2021
3829 Clouds 0 1027 47 10000 0.54 59 05:34 12.01.2021
3830 Clouds 5 1026 34 10000 0.45 20 03:28 12.01.2021
3831 Clouds 5 1026 34 10000 0.45 20 03:28 12.01.2021
3832 Clouds 8 1026 31 10000 1.55 355 02:21 12.01.2021
3833 Clouds 13 1024 35 10000 1.55 355 01:31 12.01.2021
3834 Clear 20 1023 23 10000 1.14 1 00:19 12.01.2021
3835 Clear 20 1023 23 10000 1.14 1 23:37 11.01.2021
3836 Clear 20 1023 23 10000 1.63 2 23:18 11.01.2021
3837 Clear 20 1023 23 10000 1.63 2 22:45 11.01.2021
3838 Clear 20 1024 23 10000 1.72 5 22:27 11.01.2021
3839 Clear 20 1024 23 10000 1.72 5 21:43 11.01.2021
3840 Clear 19 1025 24 10000 1.99 21 21:25 11.01.2021
3841 Clear 19 1025 24 10000 2.61 9 20:50 11.01.2021
3842 Clear 19 1025 24 10000 2.61 9 20:31 11.01.2021
3843 Clear 18 1026 25 10000 2.81 6 19:59 11.01.2021
3844 Clear 18 1026 25 10000 2.81 6 19:37 11.01.2021
3845 Clear 17 1026 27 10000 2.04 15 19:19 11.01.2021
3846 Clear 7 1028 41 10000 0.89 85 18:41 11.01.2021
3847 Clear 7 1028 41 10000 0.89 85 18:22 11.01.2021
3848 Clear 7 1028 41 10000 0.89 85 17:42 11.01.2021
3849 Clear 5 1028 47 10000 0.89 321 17:23 11.01.2021
3850 Clear 1 1028 58 10000 0.89 321 16:47 11.01.2021
3851 Clear -2 1027 63 10000 1.24 353 16:28 11.01.2021
3852 Clear -2 1027 60 10000 1.24 353 15:50 11.01.2021
3853 Clear 0 1027 55 10000 1.24 353 15:32 11.01.2021
3854 Clear 2 1027 49 10000 1.06 3 14:41 11.01.2021
3855 Clear 3 1027 51 10000 0.45 23 14:22 11.01.2021
3856 Clear 2 1027 52 10000 1.27 14 13:44 11.01.2021
3857 Clouds 2 1027 46 10000 1.11 346 13:21 11.01.2021
3858 Clouds 3 1027 48 10000 1.79 337 12:42 11.01.2021
3859 Clear 1 1028 49 10000 0.45 91 12:23 11.01.2021
3860 Clear 1 1028 42 10000 0.45 110 11:45 11.01.2021
3861 Clear 3 1028 32 10000 0.45 116 10:55 11.01.2021
3862 Clear 3 1028 31 10000 1.15 1 10:35 11.01.2021
3863 Clear 4 1029 29 10000 0.89 333 09:54 11.01.2021
3864 Clear 4 1029 29 10000 2.24 322 09:36 11.01.2021
3865 Clear 9 1025 47 10000 1.25 354 08:52 11.01.2021
3866 Clear 4 1029 33 10000 3.13 327 08:33 11.01.2021
3867 Clear -1 1029 40 10000 1.31 353 07:45 11.01.2021
3868 Clouds 10 1025 46 10000 0.88 341 07:25 11.01.2021
3869 Clouds 10 1025 47 10000 1.11 353 06:49 11.01.2021
3870 Clouds 6 1025 27 10000 0.89 31 02:31 11.01.2021
3871 Clouds 17 1021 28 10000 0.5 177 00:41 11.01.2021
3872 Clouds 18 1021 26 10000 0.78 167 23:48 10.01.2021
3873 Clouds 18 1022 26 10000 0.46 90 22:59 10.01.2021
3874 Clouds 18 1022 26 10000 0.46 90 22:40 10.01.2021
3875 Clouds 18 1022 27 10000 1.09 33 22:19 10.01.2021
3876 Clouds 18 1022 27 10000 1.09 33 21:40 10.01.2021
3877 Clouds 17 1023 28 10000 1.04 27 21:19 10.01.2021
3878 Clouds 17 1023 28 10000 1.04 27 20:49 10.01.2021
3879 Clouds 16 1025 30 10000 1.62 25 20:27 10.01.2021
3880 Clouds 16 1025 30 10000 1.62 25 19:42 10.01.2021
3881 Clouds 15 1025 32 10000 1.44 33 19:23 10.01.2021
3882 Clouds 8 1028 25 10000 1.45 33 18:45 10.01.2021
3883 Clouds 8 1027 25 10000 0.45 303 18:21 10.01.2021
3884 Clouds 1 1027 40 10000 1.16 10 17:26 10.01.2021
3885 Clouds 11 1026 41 10000 1.16 10 16:58 10.01.2021
3886 Clouds 11 1026 41 10000 1.16 10 16:32 10.01.2021
3887 Clouds 8 1026 52 10000 1.17 9 15:43 10.01.2021
3888 Clouds 9 1025 49 10000 1.82 360 15:24 10.01.2021
3889 Clouds 9 1025 49 10000 1.82 360 14:43 10.01.2021
3890 Clouds -2 1026 42 10000 1.96 3 14:24 10.01.2021
3891 Clouds -2 1026 43 10000 1.96 3 13:54 10.01.2021
3892 Clouds 9 1025 48 10000 1.96 3 13:36 10.01.2021
3893 Clouds 9 1025 47 10000 1.92 360 13:18 10.01.2021
3894 Clouds -2 1026 41 10000 1.92 360 12:41 10.01.2021
3895 Clouds -2 1026 40 10000 2.16 352 11:58 10.01.2021
3896 Clouds -1 1026 40 10000 0.89 316 11:22 10.01.2021
3897 Clouds -1 1026 39 10000 0.45 312 10:58 10.01.2021
3898 Clear -1 1025 37 10000 0.45 314 10:28 10.01.2021
3899 Clear 10 1025 43 10000 2.12 347 09:58 10.01.2021
3900 Clear -1 1025 36 10000 2.12 355 09:18 10.01.2021
3901 Clear 2 1025 32 10000 1.87 356 08:20 10.01.2021
3902 Clouds 3 1025 28 10000 1.34 345 07:28 10.01.2021
3903 Clouds 5 1026 26 10000 2.68 22 06:19 10.01.2021
3904 Clouds 11 1024 40 10000 2 358 05:35 10.01.2021
3905 Clouds 6 1024 22 10000 4.02 345 02:56 10.01.2021
3906 Clouds 18 1022 23 10000 4.29 353 00:52 10.01.2021
3907 Clear 19 1021 21 10000 4.93 351 23:48 09.01.2021
3908 Clear 19 1021 21 10000 5.08 351 23:29 09.01.2021
3909 Clear 19 1021 21 10000 5.08 351 22:47 09.01.2021
3910 Clear 19 1022 22 10000 5.08 357 22:18 09.01.2021
3911 Clear 19 1022 22 10000 5.08 357 21:57 09.01.2021
3912 Clear 19 1022 22 10000 5.08 357 21:38 09.01.2021
3913 Clear 18 1023 22 10000 5.7 1 21:18 09.01.2021
3914 Clear 18 1023 22 10000 5.7 1 20:44 09.01.2021
3915 Clear 18 1024 24 10000 6.23 2 19:45 09.01.2021
3916 Clear 16 1024 27 10000 5.96 2 19:22 09.01.2021
3917 Clear 8 1026 21 10000 4.02 356 18:52 09.01.2021
3918 Clear 8 1026 22 10000 6.26 339 18:33 09.01.2021
3919 Clouds 6 1025 31 10000 6.26 337 17:48 09.01.2021
3920 Clouds 4 1025 37 10000 6.71 276 17:30 09.01.2021
3921 Clouds 2 1024 41 10000 7.6 343 16:36 09.01.2021
3922 Clear 2 1024 42 10000 6.71 316 15:53 09.01.2021
3923 Clear 2 1024 43 10000 5.36 342 15:33 09.01.2021
3924 Clear 1 1023 41 10000 0.89 156 14:42 09.01.2021
3925 Clear 1 1023 38 10000 0.45 170 14:21 09.01.2021
3926 Clear 1 1023 38 10000 2.9 356 13:50 09.01.2021
3927 Clear 2 1022 37 10000 2.9 356 13:31 09.01.2021
3928 Clear 11 1022 40 10000 3.09 354 12:59 09.01.2021
3929 Clear 4 1022 33 10000 3.58 320 12:27 09.01.2021
3930 Clear 3 1022 24 10000 3.14 357 11:57 09.01.2021
3931 Clear 4 1022 23 10000 3.14 357 11:36 09.01.2021
3932 Clear 13 1022 34 10000 3.16 356 10:56 09.01.2021
3933 Clear 13 1022 34 10000 3.16 356 10:37 09.01.2021
3934 Clouds 13 1021 32 10000 2.6 356 10:18 09.01.2021
3935 Clouds 2 1021 26 10000 0.89 330 09:42 09.01.2021
3936 Clear 1 1021 26 10000 1.87 344 09:18 09.01.2021
3937 Clear 2 1022 27 10000 0.89 357 07:46 09.01.2021
3938 Clear 11 1019 40 10000 0.67 354 06:42 09.01.2021
3939 Clear 1 1022 25 10000 0.08 45 06:23 09.01.2021
3940 Clear 12 1019 36 10000 0.82 175 03:49 09.01.2021
3941 Clear 6 1022 16 10000 0.65 176 02:40 09.01.2021
3942 Clear 7 1022 16 10000 0.89 45 02:22 09.01.2021
3943 Clouds 13 1022 12 10000 1.34 29 01:24 09.01.2021
3944 Clouds 15 1021 11 10000 1.34 79 00:28 09.01.2021
3945 Clouds 22 1018 17 10000 0.95 158 23:41 08.01.2021
3946 Clouds 22 1018 17 10000 0.2 188 22:39 08.01.2021
3947 Clouds 21 1019 17 10000 0.19 66 21:52 08.01.2021
3948 Clouds 21 1021 18 10000 0.71 342 20:59 08.01.2021
3949 Clouds 21 1021 18 10000 0.71 342 20:35 08.01.2021
3950 Clouds 13 1025 11 10000 0.45 165 19:57 08.01.2021
3951 Clouds 11 1025 12 10000 0.45 316 19:25 08.01.2021
3952 Clouds 8 1025 16 10000 1.34 322 18:54 08.01.2021
3953 Clouds 8 1025 16 10000 1.34 322 18:54 08.01.2021
3954 Clouds 8 1026 18 10000 1.34 274 18:32 08.01.2021
3955 Clouds 6 1026 19 10000 2.68 349 17:54 08.01.2021
3956 Clouds 6 1025 19 10000 2.68 320 17:25 08.01.2021
3957 Clouds 4 1025 16 10000 0.89 326 16:48 08.01.2021
3958 Clouds 11 1022 38 10000 1.3 335 15:52 08.01.2021
3959 Clouds 11 1022 38 10000 1.3 335 15:32 08.01.2021
3960 Clouds 12 1021 33 10000 1.52 357 14:40 08.01.2021
3961 Clouds 11 1021 36 10000 1.3 351 13:55 08.01.2021
3962 Clouds 12 1021 34 10000 1.41 3 13:22 08.01.2021
3963 Clouds 2 1023 18 10000 1.31 357 12:52 08.01.2021
3964 Clouds 2 1023 18 10000 1.79 349 12:22 08.01.2021
3965 Clouds 2 1023 18 10000 1.79 349 12:22 08.01.2021
3966 Clouds 2 1023 18 10000 1.44 338 11:50 08.01.2021
3967 Clouds 2 1023 18 10000 0.89 2 11:30 08.01.2021
3968 Clouds 1 1023 19 10000 1.52 351 10:57 08.01.2021
3969 Clouds 1 1023 18 10000 1.52 351 10:38 08.01.2021
3970 Clear 11 1021 38 10000 1.44 355 09:54 08.01.2021
3971 Clear 11 1021 38 10000 1.44 355 09:36 08.01.2021
3972 Clear 0 1023 19 10000 1.49 335 09:18 08.01.2021
3973 Clouds 12 1021 35 10000 1.79 350 07:30 08.01.2021
3974 Clouds 12 1021 37 10000 1.38 344 06:46 08.01.2021
3975 Clouds 20 1019 22 10000 1.23 359 00:44 08.01.2021
3976 Clouds 22 1019 19 10000 2.04 353 23:43 07.01.2021
3977 Clouds 15 1022 10 10000 0.45 180 22:55 07.01.2021
3978 Clouds 15 1022 10 10000 1.34 182 22:36 07.01.2021
3979 Clouds 14 1023 11 10000 0.45 131 21:50 07.01.2021
3980 Clouds 22 1020 19 10000 2.21 0 21:31 07.01.2021
3981 Clouds 22 1021 19 10000 2.38 350 20:55 07.01.2021
3982 Clouds 22 1021 19 10000 2.38 350 20:36 07.01.2021
3983 Clouds 12 1024 13 10000 1.79 332 19:49 07.01.2021
3984 Clouds 11 1025 13 10000 3.13 346 19:26 07.01.2021
3985 Clouds 12 1025 13 10000 2.68 327 18:50 07.01.2021
3986 Clouds 10 1026 20 10000 0.45 286 18:21 07.01.2021
3987 Clouds 8 1026 22 10000 1.34 8 17:36 07.01.2021
3988 Clouds 7 1025 27 10000 1.79 355 17:18 07.01.2021
3989 Clouds 2 1025 36 10000 1.05 342 16:42 07.01.2021
3990 Clouds 3 1025 34 10000 1.09 346 16:18 07.01.2021
3991 Clouds 10 1022 44 10000 1.09 346 15:31 07.01.2021
3992 Clouds 10 1022 44 10000 1.09 346 15:31 07.01.2021
3993 Clouds 11 1022 43 10000 1.34 356 14:39 07.01.2021
3994 Clouds 6 1024 30 10000 1.34 329 14:20 07.01.2021
3995 Clouds 6 1024 31 10000 0.89 333 13:31 07.01.2021
3996 Clouds 5 1024 34 10000 2.24 343 12:57 07.01.2021
3997 Clouds 6 1024 33 10000 0.89 284 12:29 07.01.2021
3998 Clouds 6 1025 34 10000 2.68 332 11:48 07.01.2021
3999 Clouds 6 1024 34 10000 2.68 315 11:29 07.01.2021
4000 Clouds 6 1025 36 10000 1.34 312 10:39 07.01.2021
4001 Clouds 5 1025 36 10000 0.45 276 10:19 07.01.2021
4002 Clouds 2 1024 40 10000 0.45 4 09:44 07.01.2021
4003 Clouds 2 1024 39 10000 1.11 2 09:18 07.01.2021
4004 Clouds 1 1024 41 10000 0.53 4 08:25 07.01.2021
4005 Clouds 12 1022 40 10000 0.53 4 07:44 07.01.2021
4006 Clouds 1 1024 40 10000 0.86 338 06:59 07.01.2021
4007 Clouds 4 1024 34 10000 0.7 5 03:35 07.01.2021
4008 Clouds 11 1022 23 10000 1.34 59 00:27 07.01.2021
4009 Clouds 14 1022 17 10000 1.34 54 23:36 06.01.2021
4010 Clouds 21 1019 20 10000 0.03 360 22:37 06.01.2021
4011 Clouds 21 1019 21 10000 0.35 111 21:43 06.01.2021
4012 Clouds 20 1021 21 10000 0.69 85 21:23 06.01.2021
4013 Clouds 20 1021 21 10000 0.69 85 20:51 06.01.2021
4014 Clouds 20 1023 22 10000 1.1 55 20:24 06.01.2021
4015 Clouds 13 1024 20 10000 1.79 6 19:54 06.01.2021
4016 Clouds 12 1025 22 10000 1.79 40 19:36 06.01.2021
4017 Clouds 12 1025 22 10000 1.79 74 19:18 06.01.2021
4018 Clouds 11 1025 24 10000 1.79 12 18:40 06.01.2021
4019 Clouds 8 1025 28 10000 0.89 59 18:21 06.01.2021
4020 Clouds 3 1026 39 10000 1.13 28 17:42 06.01.2021
4021 Clouds 3 1026 39 10000 1.12 27 17:22 06.01.2021
4022 Clouds 2 1026 38 10000 1.12 27 16:41 06.01.2021
4023 Clouds 2 1026 38 10000 0.82 38 16:19 06.01.2021
4024 Clouds 11 1023 41 10000 0.82 38 15:52 06.01.2021
4025 Clouds 11 1023 41 10000 0.82 38 15:31 06.01.2021
4026 Clouds 11 1023 41 10000 0.67 30 14:48 06.01.2021
4027 Clouds 12 1022 39 10000 1.11 4 14:20 06.01.2021
4028 Clouds 12 1022 39 10000 1.11 4 13:45 06.01.2021
4029 Clouds 11 1022 41 10000 1.37 23 13:23 06.01.2021
4030 Clouds 11 1022 43 10000 1.22 27 12:48 06.01.2021
4031 Clouds 11 1022 43 10000 1.12 26 12:20 06.01.2021
4032 Clouds 0 1026 39 10000 1.12 26 11:36 06.01.2021
4033 Clouds -1 1026 39 10000 1.18 16 11:18 06.01.2021
4034 Clouds -1 1026 42 10000 1.35 30 10:22 06.01.2021
4035 Clouds 11 1022 42 10000 1.35 30 09:50 06.01.2021
4036 Clouds 12 1023 41 10000 1.03 29 08:58 06.01.2021
4037 Clouds 0 1026 41 10000 1.03 29 08:38 06.01.2021
4038 Clouds 13 1023 39 10000 1.41 346 07:58 06.01.2021
4039 Clouds 1 1026 35 10000 1.55 4 06:55 06.01.2021
4040 Clouds 2 1025 33 10000 1.25 5 05:34 06.01.2021
4041 Clouds 12 1023 39 10000 1.04 353 04:35 06.01.2021
4042 Clouds 6 1025 34 10000 1.23 7 02:47 06.01.2021
4043 Clouds 8 1025 31 10000 2.27 352 02:26 06.01.2021
4044 Clouds 13 1025 25 10000 2.24 71 01:23 06.01.2021
4045 Clouds 22 1021 20 10000 3.39 356 23:34 05.01.2021
4046 Clouds 22 1021 21 10000 3.62 2 22:45 05.01.2021
4047 Clouds 22 1021 21 10000 3.3 357 22:22 05.01.2021
4048 Clouds 22 1021 21 10000 3.3 357 21:58 05.01.2021
4049 Clear 21 1021 23 10000 3.08 1 21:18 05.01.2021
4050 Clear 20 1022 25 10000 3.22 357 20:29 05.01.2021
4051 Clear 20 1022 25 10000 3.22 357 19:45 05.01.2021
4052 Clouds 19 1023 27 10000 2.47 353 19:24 05.01.2021
4053 Clouds 19 1023 27 10000 2.47 353 18:47 05.01.2021
4054 Clouds 10 1025 33 10000 1.64 358 18:28 05.01.2021
4055 Clouds 7 1025 41 10000 1.64 358 17:54 05.01.2021
4056 Clouds 6 1025 46 10000 1.64 358 17:31 05.01.2021
4057 Clouds 13 1022 43 10000 0.95 354 16:54 05.01.2021
4058 Clouds 10 1021 55 10000 1.27 355 16:24 05.01.2021
4059 Clouds 10 1021 55 10000 1.27 355 15:59 05.01.2021
4060 Clouds 10 1021 55 10000 1.27 355 15:35 05.01.2021
4061 Clouds -1 1022 67 10000 0.76 1 14:48 05.01.2021
4062 Clouds -2 1022 71 10000 0.45 279 14:18 05.01.2021
4063 Clouds -2 1021 67 10000 0.25 295 13:43 05.01.2021
4064 Clouds -2 1021 63 10000 0.22 32 13:20 05.01.2021
4065 Clouds -2 1021 64 10000 0.45 281 12:46 05.01.2021
4066 Clear -1 1021 62 10000 0.45 281 12:20 05.01.2021
4067 Clear -1 1021 59 10000 0.89 6 11:33 05.01.2021
4068 Clear -1 1021 61 10000 0.45 283 11:31 05.01.2021
4069 Clear 0 1021 58 10000 0.74 351 10:46 05.01.2021
4070 Clear 1 1021 55 10000 0.45 287 10:25 05.01.2021
4071 Clear 3 1021 50 10000 1.15 345 09:48 05.01.2021
4072 Clear 1 1020 57 10000 0.42 322 09:27 05.01.2021
4073 Clear 2 1020 52 10000 0.65 214 08:23 05.01.2021
4074 Clouds 6 1018 45 10000 2.24 27 06:46 05.01.2021
4075 Clouds 5 1020 45 10000 0.45 28 03:56 05.01.2021
4076 Clouds 11 1019 33 10000 1.66 11 00:48 05.01.2021
4077 Clear 14 1018 26 10000 2.68 56 23:45 04.01.2021
4078 Clear 13 1018 27 10000 2.68 56 23:25 04.01.2021
4079 Clear 14 1018 25 10000 2.24 58 22:51 04.01.2021
4080 Clear 13 1018 26 10000 2.24 77 22:32 04.01.2021
4081 Clear 12 1019 28 10000 2.24 61 21:49 04.01.2021
4082 Clear 12 1019 27 10000 2.68 85 21:31 04.01.2021
4083 Clear 12 1019 28 10000 2.24 6 20:44 04.01.2021
4084 Clear 12 1020 29 10000 2.68 64 20:25 04.01.2021
4085 Clear 12 1021 29 10000 2.24 45 19:52 04.01.2021
4086 Clouds 11 1021 31 10000 1.79 64 19:25 04.01.2021
4087 Clouds 9 1022 32 10000 2.24 64 18:55 04.01.2021
4088 Clouds 8 1022 34 10000 1.79 15 18:24 04.01.2021
4089 Clouds 7 1023 37 10000 1.34 45 17:44 04.01.2021
4090 Clouds 6 1022 39 10000 2.24 65 17:25 04.01.2021
4091 Clouds 4 1022 44 10000 2.24 87 16:47 04.01.2021
4092 Clouds 3 1022 46 10000 1.34 94 16:27 04.01.2021
4093 Clouds 3 1022 46 10000 1.34 100 15:50 04.01.2021
4094 Clouds 3 1022 46 10000 1.34 100 15:31 04.01.2021
4095 Clouds 4 1022 44 10000 0.81 158 14:46 04.01.2021
4096 Clouds 4 1022 43 10000 0.71 166 13:48 04.01.2021
4097 Clouds 4 1022 42 10000 2.24 112 13:25 04.01.2021
4098 Clouds 4 1022 43 10000 1.34 91 12:44 04.01.2021
4099 Clouds 4 1023 44 10000 0.88 174 11:58 04.01.2021
4100 Clouds 4 1023 45 10000 0.89 76 11:29 04.01.2021
4101 Clouds 4 1024 44 10000 0.89 76 10:53 04.01.2021
4102 Clouds 5 1023 41 10000 0.89 76 10:29 04.01.2021
4103 Clouds 6 1024 39 10000 0.89 76 09:58 04.01.2021
4104 Clouds 6 1024 42 10000 0.89 105 09:22 04.01.2021
4105 Clouds 4 1024 45 10000 0.46 171 08:47 04.01.2021
4106 Clouds 2 1025 49 10000 0.39 121 08:18 04.01.2021
4107 Clouds 2 1025 48 10000 0.45 112 07:44 04.01.2021
4108 Clouds 3 1025 45 10000 0.31 236 05:34 04.01.2021
4109 Clouds 3 1025 45 10000 0.45 112 04:31 04.01.2021
4110 Clouds 12 1024 27 10000 1.34 56 00:48 04.01.2021
4111 Clouds 19 1019 25 10000 0.19 44 23:51 03.01.2021
4112 Clouds 19 1019 25 10000 0.35 69 23:25 03.01.2021
4113 Clouds 19 1019 25 10000 0.35 69 22:56 03.01.2021
4114 Clouds 19 1019 25 10000 0.35 69 22:33 03.01.2021
4115 Clouds 19 1020 25 10000 0.28 91 21:57 03.01.2021
4116 Clouds 19 1020 25 10000 0.28 91 21:30 03.01.2021
4117 Clouds 18 1021 26 10000 0.39 137 20:53 03.01.2021
4118 Clouds 18 1021 26 10000 0.39 137 20:34 03.01.2021
4119 Clouds 11 1025 30 10000 0.45 220 19:58 03.01.2021
4120 Clouds 10 1025 30 10000 0.89 223 19:37 03.01.2021
4121 Clouds 16 1023 30 10000 0.9 343 19:18 03.01.2021
4122 Clouds 8 1026 33 10000 0.45 291 18:41 03.01.2021
4123 Clouds 8 1026 34 10000 0.89 310 18:21 03.01.2021
4124 Clouds 6 1025 38 10000 0.52 354 17:49 03.01.2021
4125 Clouds 3 1025 46 10000 0.6 68 17:26 03.01.2021
4126 Clouds 12 1022 39 10000 0.6 68 16:44 03.01.2021
4127 Clouds -2 1024 59 10000 0.71 1 16:20 03.01.2021
4128 Clouds -2 1024 56 10000 0.71 1 15:48 03.01.2021
4129 Clouds -1 1024 54 10000 0.41 342 15:29 03.01.2021
4130 Clouds 0 1023 52 10000 0.41 342 14:58 03.01.2021
4131 Clouds 1 1024 49 10000 0.41 342 14:30 03.01.2021
4132 Clouds 2 1023 48 10000 0.25 101 13:45 03.01.2021
4133 Clouds 2 1023 47 10000 0.42 54 13:23 03.01.2021
4134 Clouds 2 1023 48 10000 0.42 54 12:50 03.01.2021
4135 Clouds 1 1023 53 10000 0.31 63 11:43 03.01.2021
4136 Clouds 0 1023 52 10000 0.19 33 11:24 03.01.2021
4137 Clouds 0 1023 53 10000 0.19 33 10:52 03.01.2021
4138 Clouds 1 1024 50 10000 0.19 33 10:30 03.01.2021
4139 Clouds 1 1024 50 10000 0.55 52 09:41 03.01.2021
4140 Clouds 0 1024 52 10000 1.79 324 09:23 03.01.2021
4141 Clouds 0 1025 51 10000 1.34 360 07:54 03.01.2021
4142 Clouds 1 1024 48 10000 0.89 349 05:59 03.01.2021
4143 Clouds 4 1024 37 10000 0.74 230 02:28 03.01.2021
4144 Clouds 6 1024 36 10000 1.34 40 01:48 03.01.2021
4145 Clouds 18 1021 26 10000 0.71 13 00:21 03.01.2021
4146 Clouds 10 1023 27 10000 1.34 23 23:30 02.01.2021
4147 Clouds 11 1023 27 10000 1.34 10 22:59 02.01.2021
4148 Clouds 10 1023 28 10000 1.79 50 22:33 02.01.2021
4149 Clouds 18 1021 26 10000 0.34 39 21:55 02.01.2021
4150 Clouds 18 1021 26 10000 0.34 39 21:37 02.01.2021
4151 Clouds 17 1023 27 10000 0.14 48 21:19 02.01.2021
4152 Clouds 17 1023 27 10000 0.14 48 20:40 02.01.2021
4153 Clouds 17 1024 28 10000 0.72 63 20:20 02.01.2021
4154 Clouds 17 1024 28 10000 0.72 63 19:43 02.01.2021
4155 Clouds 16 1025 30 10000 0.46 52 19:19 02.01.2021
4156 Clouds 8 1026 31 10000 0.45 309 18:42 02.01.2021
4157 Clouds 15 1024 31 10000 1.16 183 18:24 02.01.2021
4158 Clouds 6 1025 38 10000 0.89 309 17:45 02.01.2021
4159 Clouds 3 1025 45 10000 0.44 186 17:22 02.01.2021
4160 Clouds -1 1025 52 10000 0.44 186 16:38 02.01.2021
4161 Clouds -1 1025 52 10000 0.68 46 16:19 02.01.2021
4162 Clouds -3 1025 58 10000 0.45 158 15:42 02.01.2021
4163 Clouds -3 1024 58 10000 0.45 142 15:24 02.01.2021
4164 Clouds -2 1024 55 10000 0.63 16 14:37 02.01.2021
4165 Clouds -1 1024 55 10000 0.38 25 13:59 02.01.2021
4166 Clouds -1 1024 54 10000 0.38 25 13:39 02.01.2021
4167 Clouds -1 1023 54 10000 0.46 28 12:54 02.01.2021
4168 Clouds -1 1023 53 10000 0.39 101 12:32 02.01.2021
4169 Clouds -1 1023 53 10000 0.45 139 11:49 02.01.2021
4170 Clouds -1 1023 53 10000 0.89 139 11:22 02.01.2021
4171 Clouds -1 1023 52 10000 0.29 26 10:56 02.01.2021
4172 Clouds 0 1024 49 10000 0.29 26 10:31 02.01.2021
4173 Clouds -1 1023 52 10000 0.45 148 09:54 02.01.2021
4174 Clouds -1 1023 51 10000 0.14 118 09:28 02.01.2021
4175 Clouds 1 1023 47 10000 0.14 118 08:53 02.01.2021
4176 Clouds 1 1023 46 10000 0.45 148 08:34 02.01.2021
4177 Clouds 2 1023 44 10000 1.66 154 07:53 02.01.2021
4178 Clouds 2 1023 44 10000 0.45 124 07:22 02.01.2021
4179 Clouds 1 1023 46 10000 1.5 185 06:56 02.01.2021
4180 Clouds 1 1022 46 10000 1.34 91 05:54 02.01.2021
4181 Clouds 11 1021 43 10000 0.75 17 01:37 02.01.2021
4182 Clear 17 1021 28 10000 1.23 355 00:38 02.01.2021
4183 Clear 18 1020 26 10000 1.85 5 23:58 01.01.2021
4184 Clear 18 1020 26 10000 2.6 1 23:23 01.01.2021
4185 Clear 18 1020 26 10000 2.6 1 22:50 01.01.2021
4186 Clear 18 1021 26 10000 3.55 4 22:27 01.01.2021
4187 Clear 18 1021 26 10000 3.55 4 21:59 01.01.2021
4188 Clear 18 1021 26 10000 3.55 4 21:41 01.01.2021
4189 Clear 17 1022 28 10000 4.2 2 21:19 01.01.2021
4190 Clear 17 1022 28 10000 4.2 2 20:48 01.01.2021
4191 Clear 16 1023 30 10000 4.29 5 20:18 01.01.2021
4192 Clear 16 1023 30 10000 4.29 5 19:42 01.01.2021
4193 Clear 15 1024 32 10000 4.61 5 19:22 01.01.2021
4194 Clear 15 1024 32 10000 4.61 5 18:45 01.01.2021
4195 Clear 6 1025 35 10000 3.13 312 18:23 01.01.2021
4196 Clear 5 1024 39 10000 4.02 329 17:47 01.01.2021
4197 Clear 11 1024 42 10000 3.06 5 17:23 01.01.2021
4198 Clear 3 1024 44 10000 2.68 332 16:50 01.01.2021
4199 Clear 2 1023 46 10000 3.13 320 16:26 01.01.2021
4200 Clear 8 1023 51 10000 2.77 3 15:42 01.01.2021
4201 Clear 2 1022 47 10000 5.36 305 14:49 01.01.2021
4202 Clear 2 1022 47 10000 4.92 338 14:28 01.01.2021
4203 Clear 2 1022 47 10000 4.47 328 13:40 01.01.2021
4204 Clear 1 1022 53 10000 3.58 348 12:57 01.01.2021
4205 Clear 2 1022 52 10000 3.13 274 12:36 01.01.2021
4206 Clear 2 1022 51 10000 2.24 6 12:18 01.01.2021
4207 Clear 2 1022 52 10000 2.24 351 11:38 01.01.2021
4208 Clear 2 1022 52 10000 2.24 76 11:18 01.01.2021
4209 Clear 2 1022 50 10000 2.24 23 10:34 01.01.2021
4210 Clear 2 1021 51 10000 4.92 346 09:46 01.01.2021
4211 Clear 2 1022 49 10000 2.68 21 08:54 01.01.2021
4212 Clear 3 1022 47 10000 4.02 11 08:25 01.01.2021
4213 Clear 4 1021 39 10000 5.36 345 04:52 01.01.2021
4214 Clear 4 1021 40 10000 5.42 1 02:26 01.01.2021
4215 Clear 7 1020 34 10000 1.34 333 01:35 01.01.2021
4216 Clear 19 1015 26 10000 8.35 2 00:28 01.01.2021
4217 Clear 19 1015 26 10000 8.22 355 23:22 31.12.2020
4218 Clear 19 1015 26 10000 8.22 355 22:58 31.12.2020
4219 Clear 19 1015 26 10000 8.22 355 22:38 31.12.2020
4220 Clear 19 1015 26 10000 8.52 352 22:19 31.12.2020
4221 Clear 11 1018 31 10000 5.81 333 21:47 31.12.2020
4222 Clear 11 1018 31 10000 5.81 333 21:47 31.12.2020
4223 Clear 11 1018 34 10000 3.58 355 21:23 31.12.2020
4224 Clear 9 1018 36 10000 4.47 310 20:49 31.12.2020
4225 Clear 9 1019 36 10000 6.26 308 20:18 31.12.2020
4226 Clear 8 1019 37 10000 6.26 316 19:46 31.12.2020
4227 Clouds 8 1018 38 10000 4.02 327 19:28 31.12.2020
4228 Clouds 8 1019 35 10000 3.58 347 18:49 31.12.2020
4229 Clouds 6 1018 34 10000 4.47 305 18:24 31.12.2020
4230 Clouds 4 1018 36 10000 4.02 347 17:44 31.12.2020
4231 Clouds 4 1018 32 10000 4.92 333 17:23 31.12.2020
4232 Clouds 3 1017 34 10000 1.34 4 16:43 31.12.2020
4233 Clouds 3 1017 31 10000 3.58 349 16:25 31.12.2020
4234 Clouds 2 1016 33 10000 3.13 338 15:49 31.12.2020
4235 Clouds 0 1016 38 10000 2.68 345 15:23 31.12.2020
4236 Clouds -1 1015 42 10000 0.45 295 14:58 31.12.2020
4237 Clouds 0 1015 40 10000 0.89 267 14:39 31.12.2020
4238 Clouds -1 1015 39 10000 1.73 355 14:21 31.12.2020
4239 Clouds 8 1015 43 10000 1.73 355 13:39 31.12.2020
4240 Clouds 8 1015 42 10000 1.9 351 13:21 31.12.2020
4241 Clouds -2 1015 43 10000 1.9 351 12:54 31.12.2020
4242 Clouds -2 1015 43 10000 1.9 351 12:54 31.12.2020
4243 Clouds -2 1016 40 10000 2.01 342 12:35 31.12.2020
4244 Clouds -4 1016 47 10000 1.33 7 11:52 31.12.2020
4245 Clouds -4 1016 46 10000 0.89 15 11:32 31.12.2020
4246 Clouds 8 1017 43 10000 0.83 151 10:50 31.12.2020
4247 Clouds -1 1018 38 10000 0.83 151 10:30 31.12.2020
4248 Clouds 1 1019 34 10000 0.45 15 09:58 31.12.2020
4249 Clouds 1 1019 31 10000 0.45 18 09:38 31.12.2020
4250 Clouds 2 1019 31 10000 0.89 16 09:20 31.12.2020
4251 Clouds 1 1020 34 10000 0.89 4 08:45 31.12.2020
4252 Clouds 1 1020 35 10000 0.45 197 08:27 31.12.2020
4253 Clouds 1 1021 33 10000 0.45 193 07:51 31.12.2020
4254 Clouds 2 1022 32 10000 0.45 266 06:49 31.12.2020
4255 Clouds 1 1024 39 10000 1.3 167 05:30 31.12.2020
4256 Clouds 1 1024 38 10000 0.36 199 03:24 31.12.2020
4257 Clouds 4 1025 29 10000 0.44 149 02:26 31.12.2020
4258 Clouds 10 1022 36 10000 0.44 149 01:49 31.12.2020
4259 Clouds 10 1022 36 10000 0.44 149 01:31 31.12.2020
4260 Clouds 15 1022 25 10000 0.69 145 00:52 31.12.2020
4261 Clouds 10 1025 17 10000 2.24 21 23:55 30.12.2020
4262 Clouds 18 1021 21 10000 0.16 225 23:20 30.12.2020
4263 Clouds 12 1024 15 10000 0.89 67 22:56 30.12.2020
4264 Clouds 18 1021 21 10000 0.16 225 22:34 30.12.2020
4265 Clouds 18 1022 21 10000 0.11 47 21:50 30.12.2020
4266 Clouds 17 1024 22 10000 0.87 1 21:25 30.12.2020
4267 Clouds 17 1024 22 10000 0.87 1 20:53 30.12.2020
4268 Clouds 16 1025 23 10000 1.95 12 20:27 30.12.2020
4269 Clouds 16 1025 23 10000 1.95 12 19:58 30.12.2020
4270 Clouds 16 1025 23 10000 1.95 12 19:58 30.12.2020
4271 Clouds 16 1025 23 10000 1.95 12 19:36 30.12.2020
4272 Clouds 15 1027 25 10000 2.82 4 19:18 30.12.2020
4273 Clouds 8 1029 15 10000 0.45 347 18:38 30.12.2020
4274 Clouds 7 1029 17 10000 0.45 347 18:19 30.12.2020
4275 Clouds 6 1029 21 10000 1.68 4 17:42 30.12.2020
4276 Clouds 10 1027 37 10000 1.98 1 17:22 30.12.2020
4277 Clouds 1 1029 25 10000 0.89 347 16:43 30.12.2020
4278 Clouds -1 1028 31 10000 1.94 357 15:51 30.12.2020
4279 Clouds -2 1029 32 10000 0.89 241 15:30 30.12.2020
4280 Clouds 0 1029 29 10000 0.45 234 14:58 30.12.2020
4281 Clouds -1 1029 30 10000 2.26 1 14:39 30.12.2020
4282 Clouds -2 1029 32 10000 1.76 6 14:19 30.12.2020
4283 Clear -2 1028 35 10000 2.18 354 13:19 30.12.2020
4284 Clear -2 1028 36 10000 0.89 279 12:26 30.12.2020
4285 Clear -1 1028 33 10000 0.89 263 11:45 30.12.2020
4286 Clear 1 1028 30 10000 0.45 258 11:22 30.12.2020
4287 Clear 2 1028 28 10000 2.24 349 10:58 30.12.2020
4288 Clear 2 1028 28 10000 2.24 349 10:58 30.12.2020
4289 Clear 2 1028 30 10000 3.13 335 10:38 30.12.2020
4290 Clear 2 1028 30 10000 3.13 335 10:38 30.12.2020
4291 Clear 2 1028 30 10000 4.02 360 10:18 30.12.2020
4292 Clear 2 1028 30 10000 4.02 360 10:18 30.12.2020
4293 Clear 2 1028 32 10000 3.13 298 09:42 30.12.2020
4294 Clear 2 1028 29 10000 2.24 322 08:54 30.12.2020
4295 Clear 3 1028 30 10000 3.58 314 07:53 30.12.2020
4296 Clouds 3 1029 29 10000 3.13 264 07:27 30.12.2020
4297 Clear 3 1029 33 10000 4.92 336 06:40 30.12.2020
4298 Clear 3 1029 35 10000 4.02 351 05:49 30.12.2020
4299 Clear 4 1028 33 10000 4.92 311 05:30 30.12.2020
4300 Clear 3 1027 44 10000 3.58 325 03:43 30.12.2020
4301 Clear 2 1027 47 10000 3.13 350 03:23 30.12.2020
4302 Clear 3 1027 48 10000 3.13 335 02:35 30.12.2020
4303 Clear 4 1027 46 10000 4.47 348 01:47 30.12.2020
4304 Clear 6 1026 41 10000 1.79 294 01:29 30.12.2020
4305 Clear 8 1026 38 10000 1.79 333 00:45 30.12.2020
4306 Clear 8 1026 39 10000 1.79 265 00:26 30.12.2020
4307 Clear 9 1026 31 10000 2.24 270 23:50 29.12.2020
4308 Clear 8 1026 33 10000 2.24 276 23:32 29.12.2020
4309 Clear 8 1025 35 10000 3.13 326 22:49 29.12.2020
4310 Clear 8 1025 34 10000 1.79 271 22:31 29.12.2020
4311 Clear 9 1025 30 10000 3.58 272 21:56 29.12.2020
4312 Clear 9 1025 34 10000 4.02 344 21:37 29.12.2020
4313 Clear 8 1025 35 10000 3.13 283 21:19 29.12.2020
4314 Clear 8 1025 36 10000 3.58 333 20:42 29.12.2020
4315 Clear 8 1025 36 10000 4.92 331 20:22 29.12.2020
4316 Clear 7 1026 42 10000 5.36 310 19:45 29.12.2020
4317 Clear 6 1025 47 10000 4.02 247 19:21 29.12.2020
4318 Clear 6 1025 47 10000 4.02 247 19:21 29.12.2020
4319 Clear 5 1025 46 10000 5.36 314 18:50 29.12.2020
4320 Clear 4 1025 52 10000 4.92 354 18:28 29.12.2020
4321 Clear 3 1024 57 10000 5.81 344 17:47 29.12.2020
4322 Clear 3 1023 58 10000 6.26 304 17:23 29.12.2020
4323 Clear 0 1023 70 10000 3.13 316 16:54 29.12.2020
4324 Clouds -1 1023 73 10000 1.79 324 16:26 29.12.2020
4325 Clouds 0 1022 72 10000 1.34 277 15:46 29.12.2020
4326 Clouds 1 1022 70 10000 1.34 321 15:26 29.12.2020
4327 Clouds 1 1021 70 10000 4.47 297 14:45 29.12.2020
4328 Clouds 1 1021 73 10000 4.47 315 14:27 29.12.2020
4329 Clouds 0 1020 78 10000 2.24 322 13:56 29.12.2020
4330 Clouds 1 1020 77 10000 3.13 299 13:25 29.12.2020
4331 Clouds 1 1019 76 10000 2.24 323 12:45 29.12.2020
4332 Clouds 1 1019 75 10000 2.24 306 12:26 29.12.2020
4333 Clouds 1 1019 75 10000 2.24 306 12:26 29.12.2020
4334 Clouds 1 1019 77 10000 1.34 335 11:59 29.12.2020
4335 Clouds 2 1019 75 10000 2.24 352 11:32 29.12.2020
4336 Clouds 1 1018 83 10000 0.89 312 10:52 29.12.2020
4337 Clouds 1 1018 85 10000 1.79 315 10:20 29.12.2020
4338 Clouds 1 1018 84 10000 0.89 313 09:41 29.12.2020
4339 Clouds 1 1018 84 10000 0.89 312 09:19 29.12.2020
4340 Clouds 1 1017 85 10000 1.34 320 08:49 29.12.2020
4341 Clouds 0 1017 87 10000 0.89 319 07:40 29.12.2020
4342 Clouds 0 1017 88 10000 0.89 319 07:18 29.12.2020
4343 Clouds 0 1016 84 10000 0.45 323 05:44 29.12.2020
4344 Clouds 1 1013 84 10000 0.89 318 02:33 29.12.2020
4345 Clouds 2 1012 84 10000 1.79 80 00:43 29.12.2020
4346 Clouds 3 1011 75 10000 1.79 134 23:39 28.12.2020
4347 Clouds 3 1010 73 10000 2.24 162 22:56 28.12.2020
4348 Clouds 4 1010 73 10000 1.79 100 22:22 28.12.2020
4349 Clouds 2 1010 78 10000 2.68 202 21:42 28.12.2020
4350 Clouds 2 1010 80 4446 2.24 195 21:21 28.12.2020
4351 Clouds 2 1010 81 4446 2.68 159 20:40 28.12.2020
4352 Clouds 2 1011 80 5702 2.68 140 20:21 28.12.2020
4353 Clouds 2 1010 82 5702 2.24 251 19:42 28.12.2020
4354 Clouds 2 1011 80 10000 1.79 122 19:23 28.12.2020
4355 Clouds 3 1011 77 10000 0.89 119 18:50 28.12.2020
4356 Clouds 2 1010 79 10000 0.89 108 18:28 28.12.2020
4357 Clouds 1 1010 87 10000 0.89 126 17:42 28.12.2020
4358 Clouds 1 1010 87 10000 0.89 126 17:42 28.12.2020
4359 Rain -1 1010 90 5954 0.45 124 17:20 28.12.2020
4360 Rain -1 1009 92 5954 3.68 156 16:38 28.12.2020
4361 Rain -1 1009 92 10000 2.19 156 16:20 28.12.2020
4362 Clouds -1 1009 90 10000 0.45 15 15:45 28.12.2020
4363 Clouds -1 1009 90 10000 0.45 105 14:56 28.12.2020
4364 Clouds 1 1009 86 10000 0.89 152 13:56 28.12.2020
4365 Clouds 1 1009 79 10000 0.45 102 13:32 28.12.2020
4366 Clouds 2 1009 64 10000 1.34 11 12:51 28.12.2020
4367 Clouds 2 1009 66 10000 1.34 27 12:23 28.12.2020
4368 Clouds 1 1010 68 10000 1.34 349 11:47 28.12.2020
4369 Clouds 1 1010 71 10000 0.89 8 11:24 28.12.2020
4370 Clouds -1 1010 76 10000 0.89 8 10:49 28.12.2020
4371 Clouds -1 1010 78 10000 1.11 21 10:27 28.12.2020
4372 Clouds -1 1011 77 10000 1.11 21 09:46 28.12.2020
4373 Clouds -1 1011 77 10000 1.08 23 09:20 28.12.2020
4374 Clouds -1 1011 78 10000 1.08 23 08:52 28.12.2020
4375 Clouds 0 1012 77 10000 0.45 83 06:51 28.12.2020
4376 Clouds 1 1013 75 10000 1.08 16 04:41 28.12.2020
4377 Clouds 3 1014 65 10000 0.45 108 02:44 28.12.2020
4378 Clouds 4 1013 60 10000 0.45 73 01:46 28.12.2020
4379 Clouds 5 1013 65 10000 0.7 353 23:50 27.12.2020
4380 Clouds 4 1013 67 10000 0.72 304 23:20 27.12.2020
4381 Clouds 3 1015 73 10000 0.52 334 21:59 27.12.2020
4382 Clouds 3 1016 73 10000 0.45 261 21:27 27.12.2020
4383 Clouds 3 1016 77 10000 0.45 231 20:56 27.12.2020
4384 Clouds 3 1018 72 10000 2.24 205 19:49 27.12.2020
4385 Clouds 3 1018 68 10000 1.79 224 19:23 27.12.2020
4386 Clouds 3 1018 69 10000 3.13 208 18:49 27.12.2020
4387 Clouds 3 1018 69 10000 3.13 209 18:20 27.12.2020
4388 Clouds 3 1018 69 10000 3.13 209 18:20 27.12.2020
4389 Clouds 14 1019 37 10000 1.62 291 17:54 27.12.2020
4390 Clouds 4 1018 32 10000 0.45 233 17:34 27.12.2020
4391 Clouds 4 1018 34 10000 1.3 334 16:55 27.12.2020
4392 Clouds 4 1018 32 10000 0.45 229 16:22 27.12.2020
4393 Clouds 4 1018 31 10000 0.89 291 15:31 27.12.2020
4394 Clouds 4 1018 30 10000 1.34 308 14:50 27.12.2020
4395 Clouds 5 1018 31 10000 2.68 321 14:31 27.12.2020
4396 Clouds 5 1018 31 10000 4.47 6 13:36 27.12.2020
4397 Clouds 5 1018 31 10000 4.02 347 12:56 27.12.2020
4398 Clouds 6 1018 30 10000 4.02 2 12:25 27.12.2020
4399 Clouds 6 1019 30 10000 4.47 339 11:42 27.12.2020
4400 Clouds 6 1019 29 10000 3.58 343 11:20 27.12.2020
4401 Clouds 6 1019 29 10000 3.58 343 11:20 27.12.2020
4402 Clouds 6 1019 28 10000 5.36 340 10:45 27.12.2020
4403 Clouds 6 1019 29 10000 4.02 342 10:19 27.12.2020
4404 Clouds 6 1020 27 10000 5.36 352 09:37 27.12.2020
4405 Clouds 6 1020 26 10000 3.13 335 08:28 27.12.2020
4406 Clouds 14 1020 35 10000 3.46 358 07:29 27.12.2020
4407 Clouds 13 1020 36 10000 3.14 353 06:48 27.12.2020
4408 Clouds 15 1019 32 10000 3.69 354 05:38 27.12.2020
4409 Clouds 14 1016 34 10000 2.53 349 03:26 27.12.2020
4410 Clouds 7 1018 32 10000 2.68 40 02:30 27.12.2020
4411 Clouds 18 1015 25 10000 2.78 338 00:58 27.12.2020
4412 Clouds 20 1015 21 10000 2.64 1 23:44 26.12.2020
4413 Clouds 21 1014 21 10000 1.72 1 23:25 26.12.2020
4414 Clouds 21 1014 21 10000 1.72 1 22:46 26.12.2020
4415 Clouds 16 1017 17 10000 3.58 235 22:20 26.12.2020
4416 Clouds 16 1018 14 10000 3.58 264 21:54 26.12.2020
4417 Clouds 14 1018 16 10000 0.45 233 21:31 26.12.2020
4418 Clouds 13 1019 15 10000 1.79 258 20:46 26.12.2020
4419 Clouds 14 1019 18 10000 2.68 245 20:26 26.12.2020
4420 Clouds 19 1018 23 10000 0.25 119 19:50 26.12.2020
4421 Clouds 18 1019 24 10000 0.4 132 19:22 26.12.2020
4422 Clouds 13 1020 34 10000 6.26 266 18:36 26.12.2020
4423 Clouds 17 1019 26 10000 0.36 128 17:59 26.12.2020
4424 Clouds 17 1019 26 10000 0.36 128 17:39 26.12.2020
4425 Clear 12 1019 35 10000 0.19 338 17:18 26.12.2020
4426 Clear 12 1019 35 10000 0.19 338 16:31 26.12.2020
4427 Clear 1 1021 28 10000 1.79 88 15:25 26.12.2020
4428 Clear 1 1021 38 10000 0.11 221 14:46 26.12.2020
4429 Clear 1 1021 34 10000 0.45 74 14:22 26.12.2020
4430 Clear -1 1021 35 10000 1.34 67 13:43 26.12.2020
4431 Clouds -1 1021 36 10000 0.45 61 13:24 26.12.2020
4432 Clouds -2 1022 35 10000 0.45 13 12:44 26.12.2020
4433 Clear -2 1022 31 10000 0.86 166 12:22 26.12.2020
4434 Clear 8 1020 49 10000 0.86 166 11:51 26.12.2020
4435 Clear 8 1020 50 10000 0.9 173 11:22 26.12.2020
4436 Clear -2 1023 26 10000 0.9 173 10:54 26.12.2020
4437 Clear -2 1023 23 10000 0.45 356 10:27 26.12.2020
4438 Clear -2 1023 22 10000 0.7 176 09:50 26.12.2020
4439 Clear -2 1023 20 10000 0.81 199 09:25 26.12.2020
4440 Clear 0 1023 21 10000 0.43 162 08:29 26.12.2020
4441 Clear 0 1024 21 10000 0.43 162 07:52 26.12.2020
4442 Clouds -1 1023 21 10000 0.34 213 06:31 26.12.2020
4443 Clouds 2 1023 13 10000 0.59 20 03:19 26.12.2020
4444 Clouds 10 1020 34 10000 0.99 329 01:33 26.12.2020
4445 Clouds 11 1022 8 10000 2.24 83 00:26 26.12.2020
4446 Clouds 18 1019 20 10000 0.87 166 23:40 25.12.2020
4447 Clouds 13 1023 6 10000 1.79 50 23:22 25.12.2020
4448 Clouds 13 1023 6 10000 1.79 54 22:42 25.12.2020
4449 Clouds 12 1024 6 10000 1.79 62 21:58 25.12.2020
4450 Clouds 12 1024 6 10000 1.79 62 21:58 25.12.2020
4451 Clouds 10 1024 8 10000 1.79 79 21:34 25.12.2020
4452 Clouds 11 1025 7 10000 1.79 58 20:56 25.12.2020
4453 Clouds 9 1026 8 10000 2.68 33 20:37 25.12.2020
4454 Clear 10 1026 8 10000 1.79 45 19:49 25.12.2020
4455 Clear 10 1026 8 10000 2.24 71 19:26 25.12.2020
4456 Clear 16 1024 20 10000 0.54 54 18:39 25.12.2020
4457 Clear 8 1027 9 10000 0.89 88 17:53 25.12.2020
4458 Clear 7 1027 10 10000 0.72 20 17:34 25.12.2020
4459 Clear 10 1025 30 10000 0.44 34 16:33 25.12.2020
4460 Clear -3 1026 18 10000 0.5 288 15:59 25.12.2020
4461 Clear -3 1026 18 10000 0.5 288 15:36 25.12.2020
4462 Clear -2 1027 16 10000 0.32 81 14:58 25.12.2020
4463 Clear -1 1027 16 10000 0.32 81 14:30 25.12.2020
4464 Clear -1 1027 15 10000 0.08 198 13:45 25.12.2020
4465 Clouds 5 1024 55 10000 0.27 209 13:26 25.12.2020
4466 Clouds 6 1024 52 10000 0.22 272 12:47 25.12.2020
4467 Clouds 0 1027 14 10000 0.7 25 12:24 25.12.2020
4468 Clouds -2 1027 16 10000 0.7 25 11:45 25.12.2020
4469 Clouds -1 1027 15 10000 0.98 6 11:20 25.12.2020
4470 Clouds -1 1027 15 10000 0.98 6 10:30 25.12.2020
4471 Clouds -1 1027 15 10000 1.2 2 09:47 25.12.2020
4472 Clouds 0 1027 15 10000 1.01 336 08:49 25.12.2020
4473 Clouds 0 1027 15 10000 1.16 334 08:28 25.12.2020
4474 Clouds 1 1028 16 10000 0.96 12 06:48 25.12.2020
4475 Clouds 8 1025 37 10000 0.2 38 05:24 25.12.2020
4476 Clouds 9 1026 35 10000 0.46 278 02:19 25.12.2020
4477 Clouds 17 1025 21 10000 0.29 18 00:19 25.12.2020
4478 Clouds 8 1030 9 10000 1.34 73 23:29 24.12.2020
4479 Clouds 10 1030 7 10000 1.79 40 22:53 24.12.2020
4480 Clouds 11 1030 6 10000 0.89 123 22:24 24.12.2020
4481 Clouds 10 1031 7 10000 0.89 139 21:43 24.12.2020
4482 Clouds 9 1032 8 10000 0.45 198 20:58 24.12.2020
4483 Clouds 8 1033 9 10000 1.97 14 19:41 24.12.2020
4484 Clouds 3 1033 14 10000 1.19 4 18:21 24.12.2020
4485 Clouds 13 1031 27 10000 1.19 4 17:38 24.12.2020
4486 Clouds -2 1033 18 10000 1 349 17:20 24.12.2020
4487 Clouds -3 1032 18 10000 0.96 8 16:25 24.12.2020
4488 Clouds -3 1032 18 10000 0.96 8 15:45 24.12.2020
4489 Clouds -3 1032 19 10000 0.76 1 15:23 24.12.2020
4490 Clouds -3 1031 19 10000 0.76 1 14:56 24.12.2020
4491 Clouds -3 1032 18 10000 1.07 11 14:25 24.12.2020
4492 Clouds -2 1032 18 10000 1.07 11 13:49 24.12.2020
4493 Clouds -2 1032 18 10000 1.07 11 13:30 24.12.2020
4494 Clouds -2 1032 17 10000 0.9 14 12:58 24.12.2020
4495 Clouds -1 1032 16 10000 0.9 14 12:38 24.12.2020
4496 Clouds -1 1032 17 10000 0.45 343 12:18 24.12.2020
4497 Clouds -2 1032 18 10000 1.04 10 11:38 24.12.2020
4498 Clouds -2 1032 18 10000 1.3 360 11:19 24.12.2020
4499 Clouds -1 1033 16 10000 1.3 360 10:43 24.12.2020
4500 Clouds 7 1032 48 10000 1.5 357 09:59 24.12.2020
4501 Clouds 7 1032 48 10000 1.5 357 09:40 24.12.2020
4502 Clouds 0 1033 18 10000 1.34 329 08:50 24.12.2020
4503 Clouds -2 1033 16 10000 1.29 10 07:54 24.12.2020
4504 Clouds -1 1033 15 10000 1.29 10 07:35 24.12.2020
4505 Clouds 8 1032 39 10000 1.73 16 06:23 24.12.2020
4506 Clouds 0 1031 16 10000 0.89 333 03:50 24.12.2020
4507 Clouds 10 1030 34 10000 1.95 12 01:51 24.12.2020
4508 Clouds 15 1029 25 10000 2.5 18 01:20 24.12.2020
4509 Clouds 16 1028 24 10000 2.77 5 00:31 24.12.2020
4510 Clouds 18 1027 21 10000 4.26 14 23:59 23.12.2020
4511 Clouds 18 1027 21 10000 4.26 14 23:39 23.12.2020
4512 Clouds 18 1027 21 10000 3.92 9 23:20 23.12.2020
4513 Clouds 18 1027 21 10000 3.92 9 22:43 23.12.2020
4514 Clouds 18 1027 22 10000 4.5 11 22:23 23.12.2020
4515 Clouds 18 1027 22 10000 4.5 11 21:46 23.12.2020
4516 Clear 17 1028 24 10000 5.63 11 21:22 23.12.2020
4517 Clear 17 1028 24 10000 5.63 11 20:46 23.12.2020
4518 Clear 16 1029 26 10000 5.3 11 20:28 23.12.2020
4519 Clear 16 1029 26 10000 5.3 11 19:45 23.12.2020
4520 Clear 15 1030 28 10000 5.17 9 19:24 23.12.2020
4521 Clear 15 1029 27 10000 5.19 10 18:56 23.12.2020
4522 Clear 15 1029 27 10000 5.19 10 18:36 23.12.2020
4523 Clear 14 1029 31 10000 4.5 4 17:58 23.12.2020
4524 Clear 14 1029 31 10000 4.5 4 17:36 23.12.2020
4525 Clear 11 1028 38 10000 3.7 3 17:18 23.12.2020
4526 Clear 4 1026 20 10000 6.71 344 16:40 23.12.2020
4527 Clear 9 1028 45 10000 3.28 356 16:22 23.12.2020
4528 Clear 9 1028 45 10000 3.28 356 15:46 23.12.2020
4529 Clear 9 1027 42 10000 3.53 359 15:26 23.12.2020
4530 Clear 9 1027 42 10000 3.53 359 14:58 23.12.2020
4531 Clear 9 1027 42 10000 3.53 359 14:37 23.12.2020
4532 Clear 3 1024 28 10000 2.68 302 14:19 23.12.2020
4533 Clear 4 1024 28 10000 3.13 354 13:43 23.12.2020
4534 Clear 11 1025 38 10000 3.82 3 13:19 23.12.2020
4535 Clear 3 1023 35 10000 1.79 339 12:47 23.12.2020
4536 Clear 3 1023 34 10000 3.13 310 12:24 23.12.2020
4537 Clear 3 1023 32 10000 1.79 282 11:46 23.12.2020
4538 Clear 4 1023 29 10000 2.68 348 11:19 23.12.2020
4539 Clear 12 1023 37 10000 3.22 359 10:43 23.12.2020
4540 Clear 5 1021 24 10000 2.24 242 10:25 23.12.2020
4541 Clear 6 1021 22 10000 1.79 320 09:35 23.12.2020
4542 Clear 6 1021 20 10000 1.34 312 08:48 23.12.2020
4543 Clear 5 1021 28 10000 1.79 317 08:21 23.12.2020
4544 Clear 15 1020 31 10000 2.58 19 07:27 23.12.2020
4545 Clear 15 1020 30 10000 2.54 10 06:41 23.12.2020
4546 Clear 3 1018 20 10000 1.95 12 05:39 23.12.2020
4547 Clear 4 1017 17 10000 0.45 304 04:58 23.12.2020
4548 Clear 20 1014 23 10000 0.32 257 00:48 23.12.2020
4549 Clear 24 1014 17 10000 0.76 13 00:21 23.12.2020
4550 Clear 24 1014 17 10000 0.76 13 00:21 23.12.2020
4551 Clear 24 1014 17 10000 0.76 13 00:21 23.12.2020
4552 Clear 24 1014 17 10000 0.76 13 23:36 22.12.2020
4553 Clear 25 1014 17 10000 1.01 20 23:18 22.12.2020
4554 Clear 25 1014 17 10000 1.01 20 22:41 22.12.2020
4555 Clear 24 1014 17 10000 0.49 126 22:20 22.12.2020
4556 Clear 24 1014 17 10000 0.49 126 21:44 22.12.2020
4557 Clear 24 1015 18 10000 1.25 23 21:20 22.12.2020
4558 Clear 24 1015 18 10000 1.25 23 20:49 22.12.2020
4559 Clear 23 1016 19 10000 1.2 16 20:22 22.12.2020
4560 Clear 23 1016 19 10000 1.2 16 19:49 22.12.2020
4561 Clouds 22 1016 21 10000 0.64 336 19:26 22.12.2020
4562 Clouds 12 1016 18 10000 0.45 196 18:57 22.12.2020
4563 Clouds 11 1016 19 10000 0.45 193 18:38 22.12.2020
4564 Clouds 11 1016 18 10000 0.29 344 18:19 22.12.2020
4565 Clouds 8 1014 23 10000 0.29 344 17:36 22.12.2020
4566 Clouds 7 1014 25 10000 0.89 164 17:18 22.12.2020
4567 Clouds 3 1014 29 10000 0.45 200 16:46 22.12.2020
4568 Clouds 11 1015 46 10000 0.34 259 16:19 22.12.2020
4569 Clouds 11 1015 46 10000 0.34 259 15:45 22.12.2020
4570 Clear 11 1014 44 10000 0.26 138 15:27 22.12.2020
4571 Clear 11 1014 44 10000 0.26 138 14:55 22.12.2020
4572 Clear 11 1014 44 10000 0.26 138 14:37 22.12.2020
4573 Clear 4 1012 26 10000 0.74 194 14:18 22.12.2020
4574 Clear 12 1014 44 10000 0.74 194 13:42 22.12.2020
4575 Clouds 13 1015 42 10000 0.38 297 13:18 22.12.2020
4576 Clear 2 1014 33 10000 1.79 24 12:43 22.12.2020
4577 Clear 3 1014 30 10000 0.79 176 12:25 22.12.2020
4578 Clear 4 1014 29 10000 0.79 176 11:57 22.12.2020
4579 Clear 4 1014 28 10000 1.34 89 11:38 22.12.2020
4580 Clear 4 1014 30 10000 0.45 89 11:19 22.12.2020
4581 Clear 5 1014 26 10000 0.45 89 10:47 22.12.2020
4582 Clear 6 1014 23 10000 0.45 89 10:24 22.12.2020
4583 Clear 7 1015 28 10000 0.89 87 09:55 22.12.2020
4584 Clear 7 1015 29 10000 1.61 158 09:23 22.12.2020
4585 Clear 8 1015 29 10000 0.45 218 08:51 22.12.2020
4586 Clear 7 1015 33 10000 0.89 204 08:29 22.12.2020
4587 Clear 8 1016 32 10000 0.45 155 07:48 22.12.2020
4588 Clear 16 1016 33 10000 1.31 167 06:48 22.12.2020
4589 Clear 7 1016 33 10000 1.52 159 05:44 22.12.2020
4590 Clear 6 1016 24 10000 1.22 168 03:40 22.12.2020
4591 Clear 16 1015 10 10000 1.79 82 00:47 22.12.2020
4592 Clear 18 1016 9 10000 2.24 77 23:54 21.12.2020
4593 Clear 18 1016 9 10000 2.24 77 23:54 21.12.2020
4594 Clear 20 1016 9 10000 2.24 94 23:36 21.12.2020
4595 Clear 26 1015 15 10000 0.55 157 22:39 21.12.2020
4596 Clear 26 1015 15 10000 0.51 55 22:20 21.12.2020
4597 Clear 26 1015 15 10000 0.51 55 21:59 21.12.2020
4598 Clear 26 1015 15 10000 0.51 55 21:40 21.12.2020
4599 Clear 25 1017 15 10000 0.97 22 21:22 21.12.2020
4600 Clear 25 1017 15 10000 0.97 22 20:36 21.12.2020
4601 Clear 24 1018 16 10000 1.2 19 20:18 21.12.2020
4602 Clear 24 1018 16 10000 1.2 19 20:18 21.12.2020
4603 Clear 24 1018 16 10000 1.2 19 19:44 21.12.2020
4604 Clear 23 1019 17 10000 1.11 13 19:20 21.12.2020
4605 Clear 23 1019 17 10000 1.23 11 18:53 21.12.2020
4606 Clear 23 1019 17 10000 1.23 11 18:34 21.12.2020
4607 Clear 14 1020 10 10000 0.93 13 17:56 21.12.2020
4608 Clear 12 1021 12 10000 0.93 13 17:37 21.12.2020
4609 Clear 8 1020 15 10000 0.8 352 17:19 21.12.2020
4610 Clear 17 1020 25 10000 0.8 352 16:38 21.12.2020
4611 Clear 2 1020 19 10000 0.78 353 16:18 21.12.2020
4612 Clear 2 1020 17 10000 0.78 353 15:40 21.12.2020
4613 Clear 3 1020 16 10000 0.83 341 14:57 21.12.2020
4614 Clear 3 1020 16 10000 1 357 14:22 21.12.2020
4615 Clear 4 1020 15 10000 1 357 13:49 21.12.2020
4616 Clear 4 1020 15 10000 1 357 13:31 21.12.2020
4617 Clear 3 1020 16 10000 1 354 12:47 21.12.2020
4618 Clear 4 1020 15 10000 1.02 350 12:25 21.12.2020
4619 Clear 5 1020 13 10000 1.02 350 11:59 21.12.2020
4620 Clear 5 1020 13 10000 1.02 350 11:40 21.12.2020
4621 Clear 4 1021 13 10000 1.06 351 11:22 21.12.2020
4622 Clear 5 1021 13 10000 1.06 351 10:55 21.12.2020
4623 Clear 5 1021 12 10000 0.45 4 10:36 21.12.2020
4624 Clear 4 1021 12 10000 0.82 345 09:55 21.12.2020
4625 Clear 6 1021 11 10000 0.82 345 09:37 21.12.2020
4626 Clear 7 1021 11 10000 1.06 356 09:18 21.12.2020
4627 Clear 13 1022 39 10000 1.1 348 08:18 21.12.2020
4628 Clear 8 1023 10 10000 0.85 353 06:48 21.12.2020
4629 Clear 13 1022 38 10000 0.67 339 04:59 21.12.2020
4630 Clear 13 1022 38 10000 0.37 331 04:27 21.12.2020
4631 Clear 19 1021 22 10000 0.31 207 00:36 21.12.2020
4632 Clear 24 1021 16 10000 0.17 19 23:39 20.12.2020
4633 Clear 24 1021 16 10000 0.69 14 23:20 20.12.2020
4634 Clear 24 1021 16 10000 0.69 14 22:43 20.12.2020
4635 Clear 24 1022 16 10000 0.91 7 22:23 20.12.2020
4636 Clear 24 1022 16 10000 0.91 7 21:42 20.12.2020
4637 Clear 24 1024 17 10000 1.48 9 21:22 20.12.2020
4638 Clear 24 1024 17 10000 1.48 9 20:59 20.12.2020
4639 Clear 24 1024 17 10000 1.48 9 20:40 20.12.2020
4640 Clear 23 1026 18 10000 1.78 1 20:21 20.12.2020
4641 Clear 23 1026 18 10000 1.78 1 19:42 20.12.2020
4642 Clouds 21 1027 19 10000 1.94 2 19:20 20.12.2020
4643 Clouds 21 1026 19 10000 1.51 2 18:47 20.12.2020
4644 Clouds 20 1027 21 10000 1.38 8 18:29 20.12.2020
4645 Clouds 20 1027 21 10000 1.38 8 17:47 20.12.2020
4646 Clouds 14 1027 31 10000 1.03 344 17:28 20.12.2020
4647 Clouds 14 1027 31 10000 1.03 344 16:48 20.12.2020
4648 Clouds 8 1026 52 10000 1.07 349 16:29 20.12.2020
4649 Clouds 8 1026 52 10000 1.07 349 15:51 20.12.2020
4650 Clouds 8 1026 52 10000 0.98 360 15:28 20.12.2020
4651 Clouds 8 1026 52 10000 0.98 360 14:56 20.12.2020
4652 Clouds 8 1026 52 10000 0.98 360 14:36 20.12.2020
4653 Clouds 8 1026 51 10000 0.68 354 13:57 20.12.2020
4654 Clouds 8 1026 51 10000 0.68 354 13:37 20.12.2020
4655 Clear 9 1026 50 10000 0.88 349 13:18 20.12.2020
4656 Clouds 9 1026 51 10000 0.73 345 12:44 20.12.2020
4657 Clear 8 1027 52 10000 0.42 29 12:22 20.12.2020
4658 Clear 8 1027 52 10000 0.42 29 11:49 20.12.2020
4659 Clear 8 1027 52 10000 0.21 265 11:26 20.12.2020
4660 Clear 8 1027 52 10000 0.21 265 10:49 20.12.2020
4661 Clear 9 1027 51 10000 0.28 184 10:21 20.12.2020
4662 Clear 9 1027 51 10000 0.28 184 09:55 20.12.2020
4663 Clear 9 1027 51 10000 0.28 184 09:36 20.12.2020
4664 Clear 9 1027 52 10000 0.28 11 09:18 20.12.2020
4665 Clear 1 1031 26 10000 0.28 11 08:44 20.12.2020
4666 Clear 2 1031 26 10000 0.46 2 08:25 20.12.2020
4667 Clear 4 1032 23 10000 0.45 200 07:21 20.12.2020
4668 Clear 3 1029 28 10000 0.27 86 02:47 20.12.2020
4669 Clouds 17 1025 27 10000 1.09 191 01:25 20.12.2020
4670 Clear 14 1027 17 10000 2.24 54 23:58 19.12.2020
4671 Clear 16 1027 16 10000 1.79 71 23:18 19.12.2020
4672 Clear 16 1027 16 10000 1.79 71 23:18 19.12.2020
4673 Clear 20 1024 21 10000 0.64 137 22:44 19.12.2020
4674 Clear 20 1025 22 10000 0.58 82 22:25 19.12.2020
4675 Clear 20 1025 22 10000 0.58 82 21:58 19.12.2020
4676 Clear 20 1025 22 10000 0.58 82 21:38 19.12.2020
4677 Clouds 19 1027 23 10000 0.5 168 21:20 19.12.2020
4678 Clouds 19 1027 23 10000 0.5 168 20:39 19.12.2020
4679 Clear 18 1028 25 10000 0.73 21 20:18 19.12.2020
4680 Clear 18 1028 25 10000 0.73 21 19:49 19.12.2020
4681 Clear 12 1031 20 10000 0.58 49 19:24 19.12.2020
4682 Clear 11 1032 22 10000 0.74 36 18:34 19.12.2020
4683 Clear 7 1031 28 10000 0.33 33 17:58 19.12.2020
4684 Clear 6 1031 29 10000 0.45 94 17:40 19.12.2020
4685 Clear 4 1031 33 10000 0.89 76 17:20 19.12.2020
4686 Clear 11 1029 38 10000 0.74 347 16:42 19.12.2020
4687 Clear -2 1030 47 10000 0.89 45 16:24 19.12.2020
4688 Clear -4 1030 47 10000 1.12 351 15:54 19.12.2020
4689 Clear -3 1029 45 10000 1.12 351 15:33 19.12.2020
4690 Clear -3 1029 43 10000 0.76 6 14:40 19.12.2020
4691 Clear -3 1029 44 10000 0.56 357 14:21 19.12.2020
4692 Clear -2 1029 43 10000 0.56 357 13:41 19.12.2020
4693 Clear -2 1029 42 10000 1.56 347 13:19 19.12.2020
4694 Clear -2 1029 42 10000 0.45 334 12:43 19.12.2020
4695 Clear -2 1029 43 10000 2.12 348 12:25 19.12.2020
4696 Clear -1 1029 38 10000 2.12 348 11:57 19.12.2020
4697 Clear -1 1029 39 10000 2.12 348 11:35 19.12.2020
4698 Clear -1 1029 40 10000 1.22 355 10:43 19.12.2020
4699 Clear -1 1029 37 10000 1.14 360 10:24 19.12.2020
4700 Clear 1 1029 36 10000 1.14 360 09:53 19.12.2020
4701 Clear 1 1029 37 10000 1.14 360 09:35 19.12.2020
4702 Clear 1 1029 36 10000 1.74 357 08:36 19.12.2020
4703 Clear 10 1029 43 10000 1.78 2 07:25 19.12.2020
4704 Clear 10 1028 45 10000 1.54 0 06:53 19.12.2020
4705 Clear 10 1028 44 10000 1.57 4 06:20 19.12.2020
4706 Clear 10 1027 43 10000 1.55 0 05:18 19.12.2020
4707 Clear 12 1026 35 10000 2.5 350 03:20 19.12.2020
4708 Clear 18 1023 25 10000 3.12 336 00:40 19.12.2020
4709 Clear 19 1022 23 10000 4.54 342 00:18 19.12.2020
4710 Clear 19 1022 23 10000 4.54 342 23:48 18.12.2020
4711 Clear 19 1023 23 10000 5.09 350 23:23 18.12.2020
4712 Clear 19 1023 23 10000 5.09 350 22:46 18.12.2020
4713 Clear 19 1023 24 10000 5.36 352 22:24 18.12.2020
4714 Clear 19 1023 24 10000 5.36 352 21:50 18.12.2020
4715 Clear 19 1023 24 10000 5.36 352 21:31 18.12.2020
4716 Clear 18 1025 25 10000 5.19 356 20:43 18.12.2020
4717 Clear 17 1025 28 10000 5.19 1 20:22 18.12.2020
4718 Clear 17 1025 28 10000 5.19 1 19:45 18.12.2020
4719 Clear 16 1025 31 10000 5.05 1 19:21 18.12.2020
4720 Clear 7 1026 31 10000 4.92 338 18:45 18.12.2020
4721 Clear 7 1026 32 10000 4.47 329 18:24 18.12.2020
4722 Clear 15 1025 34 10000 4.47 359 17:30 18.12.2020
4723 Clear 3 1025 45 10000 4.92 347 16:57 18.12.2020
4724 Clear 2 1025 48 10000 4.47 350 16:38 18.12.2020
4725 Clear 9 1024 51 10000 2.63 355 16:20 18.12.2020
4726 Clear 9 1024 51 10000 2.63 355 15:43 18.12.2020
4727 Clear 10 1023 49 10000 2.92 353 15:24 18.12.2020
4728 Clear 10 1023 49 10000 2.92 353 14:55 18.12.2020
4729 Clear 10 1022 48 10000 3.1 353 14:23 18.12.2020
4730 Clear 10 1022 48 10000 3.1 353 13:51 18.12.2020
4731 Clear 10 1022 48 10000 3.1 353 13:32 18.12.2020
4732 Clear 10 1022 46 10000 3.04 354 12:57 18.12.2020
4733 Clear 10 1022 46 10000 3.04 354 12:34 18.12.2020
4734 Clear 1 1020 57 10000 1.79 308 11:28 18.12.2020
4735 Clear 1 1019 59 10000 1.79 316 10:40 18.12.2020
4736 Clear 1 1019 58 10000 3.58 326 10:21 18.12.2020
4737 Clear 2 1019 57 10000 2.68 312 09:58 18.12.2020
4738 Clear 2 1019 57 10000 2.68 348 09:37 18.12.2020
4739 Clear 2 1019 58 10000 2.24 322 09:18 18.12.2020
4740 Clear 2 1019 57 10000 0.89 295 08:46 18.12.2020
4741 Clear 3 1018 52 10000 2.24 312 07:58 18.12.2020
4742 Clear 4 1017 50 10000 3.13 346 07:20 18.12.2020
4743 Clear 4 1017 51 10000 2.24 316 06:59 18.12.2020
4744 Clear 4 1016 55 10000 1.34 343 05:44 18.12.2020
4745 Clear 11 1015 51 10000 1.21 319 05:23 18.12.2020
4746 Clear 11 1015 51 10000 1.21 319 04:42 18.12.2020
4747 Clear 15 1012 35 10000 3.01 351 01:46 18.12.2020
4748 Clouds 19 1010 27 10000 5.24 1 00:31 18.12.2020
4749 Clouds 12 1010 35 10000 1.79 322 23:53 17.12.2020
4750 Clouds 12 1009 32 10000 3.13 279 23:25 17.12.2020
4751 Clouds 12 1009 32 10000 2.68 298 22:49 17.12.2020
4752 Clouds 12 1008 32 10000 2.68 270 22:28 17.12.2020
4753 Clouds 12 1009 36 10000 2.68 266 21:47 17.12.2020
4754 Clouds 12 1009 36 10000 2.68 266 21:47 17.12.2020
4755 Clear 12 1008 31 10000 3.58 249 21:22 17.12.2020
4756 Clear 12 1009 28 10000 4.47 254 20:55 17.12.2020
4757 Clear 22 1010 23 10000 4.91 238 20:37 17.12.2020
4758 Clear 11 1009 37 10000 4.02 227 20:18 17.12.2020
4759 Clear 11 1010 37 10000 4.47 199 19:44 17.12.2020
4760 Clouds 11 1010 37 10000 4.47 231 19:22 17.12.2020
4761 Clouds 11 1011 36 10000 3.58 236 18:41 17.12.2020
4762 Clouds 11 1011 35 10000 4.02 260 18:22 17.12.2020
4763 Clouds 11 1011 35 10000 4.02 260 18:22 17.12.2020
4764 Clouds 10 1011 32 10000 4.02 258 17:51 17.12.2020
4765 Clouds 9 1012 33 10000 3.58 238 17:32 17.12.2020
4766 Clouds 6 1012 49 10000 0.89 213 16:44 17.12.2020
4767 Clouds 6 1012 49 10000 2.68 212 16:24 17.12.2020
4768 Clouds 13 1013 37 10000 1.83 162 15:52 17.12.2020
4769 Clouds 6 1013 43 10000 1.79 140 15:30 17.12.2020
4770 Clouds 13 1014 38 10000 1.46 163 14:54 17.12.2020
4771 Clouds 13 1014 38 10000 1.46 163 14:31 17.12.2020
4772 Clouds 6 1014 43 10000 1.34 224 13:52 17.12.2020
4773 Clouds 6 1014 42 10000 1.16 149 13:33 17.12.2020
4774 Clouds 12 1015 41 10000 1.06 174 12:47 17.12.2020
4775 Clouds 6 1016 44 10000 2.24 218 12:25 17.12.2020
4776 Clouds 6 1017 45 10000 2.24 183 11:45 17.12.2020
4777 Clouds 14 1016 37 10000 1.22 149 11:25 17.12.2020
4778 Clouds 4 1017 46 10000 1.34 105 10:55 17.12.2020
4779 Clouds 14 1016 36 10000 1.49 157 10:19 17.12.2020
4780 Clouds 5 1018 41 10000 0.89 75 09:28 17.12.2020
4781 Clouds 4 1020 46 10000 1.34 112 07:54 17.12.2020
4782 Clouds 3 1021 45 10000 0.45 115 07:35 17.12.2020
4783 Clouds 2 1022 51 10000 1.34 159 06:54 17.12.2020
4784 Clouds 1 1022 51 10000 1.34 159 06:32 17.12.2020
4785 Clouds 0 1022 52 10000 1.13 152 05:59 17.12.2020
4786 Clear 12 1022 27 10000 1.34 67 00:40 17.12.2020
4787 Clear 14 1022 22 10000 1.79 78 23:57 16.12.2020
4788 Clear 20 1019 23 10000 0.64 134 23:22 16.12.2020
4789 Clear 20 1019 23 10000 0.64 134 22:57 16.12.2020
4790 Clear 20 1019 23 10000 0.64 134 22:36 16.12.2020
4791 Clear 20 1020 23 10000 0.31 105 21:54 16.12.2020
4792 Clear 20 1020 23 10000 0.31 105 21:36 16.12.2020
4793 Clear 19 1022 24 10000 0.49 85 20:59 16.12.2020
4794 Clear 19 1022 24 10000 0.49 85 20:41 16.12.2020
4795 Clear 18 1023 25 10000 0.73 32 20:19 16.12.2020
4796 Clear 12 1027 29 10000 0.89 189 19:20 16.12.2020
4797 Clear 17 1024 27 10000 0.63 15 18:57 16.12.2020
4798 Clear 17 1024 27 10000 0.63 15 18:57 16.12.2020
4799 Clear 17 1024 27 10000 0.45 17 18:31 16.12.2020
4800 Clear 9 1027 32 10000 0.45 40 17:57 16.12.2020
4801 Clear 7 1027 35 10000 0.72 32 17:31 16.12.2020
4802 Clear 12 1024 38 10000 0.51 357 16:42 16.12.2020
4803 Clear -1 1027 52 10000 0.11 17 16:22 16.12.2020
4804 Clear -1 1027 52 10000 0.11 17 16:22 16.12.2020
4805 Clear -1 1027 49 10000 0.89 324 15:52 16.12.2020
4806 Clear 5 1024 62 10000 0.11 17 15:32 16.12.2020
4807 Clear 5 1023 61 10000 0.31 16 14:55 16.12.2020
4808 Clear 5 1023 61 10000 0.31 16 14:37 16.12.2020
4809 Clear 6 1023 60 10000 0.16 76 14:19 16.12.2020
4810 Clear 0 1026 47 10000 0.45 304 13:37 16.12.2020
4811 Clear 6 1024 59 10000 0.55 326 13:18 16.12.2020
4812 Clear 6 1024 60 10000 0.65 349 12:42 16.12.2020
4813 Clear -2 1027 52 10000 0.39 359 11:43 16.12.2020
4814 Clear -2 1027 53 10000 0.34 6 11:23 16.12.2020
4815 Clear -2 1027 48 10000 0.45 348 10:52 16.12.2020
4816 Clear -2 1027 51 10000 0.89 347 10:27 16.12.2020
4817 Clear -2 1027 51 10000 0.89 347 10:27 16.12.2020
4818 Clear -2 1027 50 10000 0.53 357 09:50 16.12.2020
4819 Clear -2 1027 49 10000 0.21 359 09:24 16.12.2020
4820 Clear -2 1027 49 10000 0.22 99 08:22 16.12.2020
4821 Clear -2 1027 49 10000 0.22 99 07:42 16.12.2020
4822 Clouds -2 1027 47 10000 0.36 189 07:20 16.12.2020
4823 Clouds 8 1024 49 10000 0.49 343 03:35 16.12.2020
4824 Clouds 11 1024 40 10000 1.5 358 01:57 16.12.2020
4825 Clouds 18 1023 25 10000 1.82 3 23:46 15.12.2020
4826 Clouds 17 1023 25 10000 2.25 13 23:18 15.12.2020
4827 Clouds 17 1023 25 10000 2.25 13 22:40 15.12.2020
4828 Clear 17 1024 26 10000 2.93 14 22:20 15.12.2020
4829 Clear 17 1024 26 10000 2.93 14 21:45 15.12.2020
4830 Clear 17 1025 27 10000 4.1 2 21:22 15.12.2020
4831 Clear 17 1025 27 10000 4.1 2 20:45 15.12.2020
4832 Clear 16 1027 29 10000 4.21 2 20:26 15.12.2020
4833 Clear 16 1027 29 10000 4.21 2 19:55 15.12.2020
4834 Clear 8 1028 30 10000 0.89 172 19:33 15.12.2020
4835 Clear 6 1028 36 10000 0.89 213 18:41 15.12.2020
4836 Clear 13 1027 37 10000 3.67 4 18:22 15.12.2020
4837 Clear 6 1027 36 10000 1.34 326 17:58 15.12.2020
4838 Clear 4 1028 41 10000 3.13 322 17:40 15.12.2020
4839 Clear 3 1028 44 10000 3.13 314 17:19 15.12.2020
4840 Clear 2 1027 50 10000 3.58 328 16:32 15.12.2020
4841 Clear 6 1027 59 10000 2.29 2 15:51 15.12.2020
4842 Clear 6 1027 59 10000 2.29 2 15:30 15.12.2020
4843 Clear 6 1026 58 10000 2.25 358 14:47 15.12.2020
4844 Clear 7 1026 56 10000 2.42 354 14:21 15.12.2020
4845 Clear 7 1026 56 10000 2.42 354 13:52 15.12.2020
4846 Clear 7 1026 56 10000 2.42 354 13:32 15.12.2020
4847 Clear 8 1025 53 10000 3.2 357 12:47 15.12.2020
4848 Clear 8 1025 52 10000 3.05 354 12:22 15.12.2020
4849 Clear 8 1025 52 10000 3.05 354 11:56 15.12.2020
4850 Clear 8 1024 52 10000 2.82 356 11:26 15.12.2020
4851 Clear 8 1024 52 10000 2.82 356 10:57 15.12.2020
4852 Clear 8 1024 52 10000 2.82 356 10:35 15.12.2020
4853 Clear 1 1024 51 10000 1.79 337 09:53 15.12.2020
4854 Clear 8 1023 51 10000 2.54 359 09:32 15.12.2020
4855 Clear 8 1023 51 10000 2.54 359 09:32 15.12.2020
4856 Clear 8 1023 51 10000 2.54 359 09:32 15.12.2020
4857 Clear 1 1025 50 10000 2.68 349 08:58 15.12.2020
4858 Clear 2 1025 48 10000 2.68 358 08:30 15.12.2020
4859 Clear 9 1024 49 10000 2.25 8 07:54 15.12.2020
4860 Clear 1 1024 50 10000 1.79 337 07:33 15.12.2020
4861 Clear -1 1024 55 10000 1.79 319 06:37 15.12.2020
4862 Clear 3 1023 43 10000 1.34 350 04:22 15.12.2020
4863 Clear 16 1017 29 10000 2.07 359 00:37 15.12.2020
4864 Clear 18 1016 25 10000 1.99 359 23:28 14.12.2020
4865 Clear 18 1016 25 10000 1.99 359 22:59 14.12.2020
4866 Clear 18 1016 25 10000 1.99 359 22:38 14.12.2020
4867 Clear 17 1017 26 10000 1.82 17 21:55 14.12.2020
4868 Clear 11 1021 23 10000 4.02 297 21:36 14.12.2020
4869 Clear 10 1021 25 10000 3.58 292 20:56 14.12.2020
4870 Clear 10 1021 26 10000 4.47 324 20:38 14.12.2020
4871 Clear 16 1019 28 10000 2.2 6 20:18 14.12.2020
4872 Clear 9 1022 28 10000 3.58 331 19:32 14.12.2020
4873 Clear 6 1022 34 10000 3.13 244 18:57 14.12.2020
4874 Clear 5 1022 37 10000 2.24 237 18:38 14.12.2020
4875 Clear 4 1022 42 10000 1.79 245 17:58 14.12.2020
4876 Clear 3 1021 45 10000 2.24 312 17:33 14.12.2020
4877 Clear 1 1021 53 10000 3.58 350 16:56 14.12.2020
4878 Clear 0 1021 59 10000 3.58 346 16:36 14.12.2020
4879 Clear 5 1020 58 10000 1.38 346 16:18 14.12.2020
4880 Clear -4 1021 57 10000 0.45 223 15:32 14.12.2020
4881 Clear -2 1020 49 10000 0.45 213 14:46 14.12.2020
4882 Clear -1 1020 49 10000 0.89 91 14:27 14.12.2020
4883 Clear 7 1019 49 10000 2.42 355 13:55 14.12.2020
4884 Clear -1 1019 51 10000 2.24 326 13:34 14.12.2020
4885 Clouds -1 1019 71 10000 1.79 318 12:56 14.12.2020
4886 Clouds -2 1019 74 10000 1.34 351 12:31 14.12.2020
4887 Clouds -2 1019 69 10000 1.34 335 11:54 14.12.2020
4888 Clouds -2 1019 59 10000 2.24 328 11:23 14.12.2020
4889 Clouds -3 1018 44 10000 0.53 28 10:27 14.12.2020
4890 Clouds -2 1018 45 10000 0.53 28 09:53 14.12.2020
4891 Clouds -1 1019 39 10000 0.45 64 08:57 14.12.2020
4892 Clouds -1 1019 42 10000 0.82 13 08:39 14.12.2020
4893 Clouds 1 1020 36 10000 2.24 83 07:59 14.12.2020
4894 Clouds 2 1020 41 10000 0.89 94 07:19 14.12.2020
4895 Clouds 8 1020 44 10000 0.73 89 06:42 14.12.2020
4896 Clouds 9 1021 39 10000 1.05 107 03:57 14.12.2020
4897 Clouds 3 1024 30 10000 0.45 111 02:23 14.12.2020
4898 Clouds 4 1025 27 10000 2.24 35 00:49 14.12.2020
4899 Clouds 6 1024 24 10000 0.45 185 00:27 14.12.2020
4900 Clouds 9 1026 21 10000 1.34 85 23:44 13.12.2020
4901 Clouds 8 1027 22 10000 0.89 59 23:18 13.12.2020
4902 Clouds 9 1026 21 10000 2.24 28 22:43 13.12.2020
4903 Clouds 10 1026 20 10000 2.68 58 22:18 13.12.2020
4904 Clouds 8 1026 22 10000 1.79 33 21:42 13.12.2020
4905 Clouds 8 1026 22 10000 2.24 45 21:18 13.12.2020
4906 Clouds 8 1027 24 10000 2.68 4 20:33 13.12.2020
4907 Clouds 7 1028 25 10000 2.68 83 19:50 13.12.2020
4908 Clouds 7 1029 25 10000 2.24 78 19:25 13.12.2020
4909 Clouds 6 1029 28 10000 1.79 20 18:57 13.12.2020
4910 Clouds 4 1029 29 10000 2.24 102 18:39 13.12.2020
4911 Clouds 4 1029 30 10000 1.79 89 18:19 13.12.2020
4912 Clouds 3 1029 33 10000 0.45 242 17:45 13.12.2020
4913 Clouds 1 1030 37 10000 0.72 74 17:18 13.12.2020
4914 Clouds -1 1029 42 10000 0.45 263 16:53 13.12.2020
4915 Clouds 9 1029 40 10000 0.72 74 16:34 13.12.2020
4916 Clouds -4 1029 50 10000 0.45 251 15:48 13.12.2020
4917 Clouds -4 1029 50 10000 0.87 73 15:27 13.12.2020
4918 Clouds -4 1029 50 10000 0.87 73 14:50 13.12.2020
4919 Clouds -4 1029 51 10000 0.93 29 14:29 13.12.2020
4920 Clouds -5 1029 51 10000 0.93 29 13:58 13.12.2020
4921 Clouds -4 1029 50 10000 0.93 29 13:36 13.12.2020
4922 Clouds -4 1029 49 10000 0.71 20 13:18 13.12.2020
4923 Clouds -4 1029 48 10000 0.78 19 12:36 13.12.2020
4924 Clouds -4 1029 50 10000 0.9 38 12:18 13.12.2020
4925 Clouds -4 1028 51 10000 0.9 38 11:34 13.12.2020
4926 Clouds -4 1028 48 10000 1.26 22 10:46 13.12.2020
4927 Clouds -3 1028 47 10000 1.22 24 10:24 13.12.2020
4928 Clouds -3 1028 47 10000 1.22 24 09:51 13.12.2020
4929 Clouds -2 1028 45 10000 0.45 251 08:53 13.12.2020
4930 Clouds -2 1027 48 10000 0.45 251 08:31 13.12.2020
4931 Clear -2 1027 47 10000 1.71 19 07:27 13.12.2020
4932 Clear 12 1021 37 10000 3.04 7 03:26 13.12.2020
4933 Clear 12 1021 37 10000 3.04 7 02:32 13.12.2020
4934 Clear 14 1020 32 10000 4.36 15 01:37 13.12.2020
4935 Clear 18 1017 26 10000 7.02 9 00:46 13.12.2020
4936 Clear 19 1016 25 10000 6.41 353 23:45 12.12.2020
4937 Clear 19 1015 25 10000 7.3 3 23:27 12.12.2020
4938 Clear 19 1015 25 10000 7.3 3 22:39 12.12.2020
4939 Clear 18 1014 27 10000 5.63 357 21:49 12.12.2020
4940 Clear 18 1014 27 10000 5.63 357 21:31 12.12.2020
4941 Clear 18 1013 27 10000 5.15 11 20:48 12.12.2020
4942 Clear 16 1013 29 10000 3.29 10 20:24 12.12.2020
4943 Clear 9 1018 21 10000 1.79 75 19:55 12.12.2020
4944 Clear 9 1018 21 10000 1.79 75 19:35 12.12.2020
4945 Clouds 10 1016 21 10000 1.34 97 18:59 12.12.2020
4946 Clouds 10 1016 22 10000 1.34 90 18:41 12.12.2020
4947 Clouds 14 1012 35 10000 0.94 152 18:22 12.12.2020
4948 Clouds 6 1015 27 10000 0.94 152 17:42 12.12.2020
4949 Clear 12 1012 39 10000 0.13 286 16:54 12.12.2020
4950 Clear -2 1014 40 10000 0.45 327 15:59 12.12.2020
4951 Clear -2 1015 41 10000 1.3 325 15:41 12.12.2020
4952 Clear -3 1015 42 10000 1.05 41 14:55 12.12.2020
4953 Clear -3 1015 42 10000 1.05 41 14:35 12.12.2020
4954 Clear -4 1015 41 10000 0.96 144 13:47 12.12.2020
4955 Clouds -3 1015 41 10000 1.67 167 13:27 12.12.2020
4956 Clouds -3 1015 40 10000 0.51 167 12:43 12.12.2020
4957 Clouds -2 1016 37 10000 0.84 139 11:43 12.12.2020
4958 Clouds -1 1016 35 10000 1.12 179 10:53 12.12.2020
4959 Clear -2 1016 37 10000 0.09 15 09:32 12.12.2020
4960 Clear -2 1017 33 10000 0.39 78 08:53 12.12.2020
4961 Clear 2 1019 25 10000 0.76 190 02:53 12.12.2020
4962 Clouds 18 1014 28 10000 1.93 174 23:54 11.12.2020
4963 Clouds 13 1017 14 10000 1.79 62 22:24 11.12.2020
4964 Clouds 9 1018 18 10000 1.34 58 20:40 11.12.2020
4965 Clouds 16 1017 30 10000 0.9 134 17:58 11.12.2020
4966 Clear 8 1016 53 10000 0.77 159 14:53 11.12.2020
4967 Clear -3 1016 35 10000 1.32 179 13:59 11.12.2020
4968 Clear -3 1016 36 10000 1.49 170 13:23 11.12.2020
4969 Clear -2 1016 33 10000 1.38 175 12:18 11.12.2020
4970 Clear -2 1016 33 10000 1.38 175 12:18 11.12.2020
4971 Clear -2 1016 30 10000 1.38 175 11:50 11.12.2020
4972 Clear -2 1016 32 10000 1.33 171 10:46 11.12.2020
4973 Clear 0 1015 28 10000 0.78 169 08:48 11.12.2020
4974 Clear 15 1013 29 10000 1.77 185 05:42 11.12.2020
4975 Clear 1 1014 27 10000 1.78 176 04:52 11.12.2020
4976 Clear 13 1012 37 10000 0.81 198 01:38 11.12.2020
4977 Clear 24 1010 16 10000 0.16 36 00:23 11.12.2020
4978 Clear 24 1010 15 10000 0.42 62 22:52 10.12.2020
4979 Clear 16 1012 12 10000 0.45 2 21:36 10.12.2020
4980 Clear 14 1013 14 10000 0.89 295 20:42 10.12.2020
4981 Clear 14 1014 14 10000 1.79 341 19:43 10.12.2020
4982 Clouds 12 1015 17 10000 1.79 322 18:57 10.12.2020
4983 Clouds 11 1015 18 10000 0.45 320 18:21 10.12.2020
4984 Clouds 6 1014 23 10000 4.47 326 16:32 10.12.2020
4985 Clouds 6 1013 20 10000 1.79 337 15:27 10.12.2020
4986 Clouds 13 1012 32 10000 0.41 160 14:51 10.12.2020
4987 Clouds 6 1013 19 10000 1.79 240 14:28 10.12.2020
4988 Clouds 13 1012 38 10000 0.29 116 12:54 10.12.2020
4989 Clouds 13 1012 37 10000 0.34 330 11:39 10.12.2020
4990 Clouds 13 1013 39 10000 0.22 357 08:57 10.12.2020
4991 Clouds 14 1014 30 10000 0.56 6 07:51 10.12.2020
4992 Clouds 6 1017 21 10000 0.48 338 06:42 10.12.2020
4993 Clouds 6 1016 19 10000 0.45 94 03:36 10.12.2020
4994 Clouds 9 1016 14 10000 0.3 240 02:24 10.12.2020
4995 Clouds 16 1016 9 10000 0.89 87 00:23 10.12.2020
4996 Clouds 17 1016 9 10000 1.34 59 22:48 09.12.2020
4997 Clouds 17 1020 9 10000 0.89 57 20:30 09.12.2020
4998 Clouds 17 1021 9 10000 0.45 70 19:32 09.12.2020
4999 Clouds 22 1020 16 10000 0.8 26 17:44 09.12.2020
5000 Clouds 17 1020 23 10000 0.33 25 16:52 09.12.2020
5001 Clouds 4 1021 20 10000 0.2 68 16:23 09.12.2020
5002 Clouds 3 1021 21 10000 0.2 68 15:31 09.12.2020
5003 Clouds 3 1021 20 10000 0.29 32 14:40 09.12.2020
5004 Clouds 4 1021 19 10000 0.66 13 14:18 09.12.2020
5005 Clouds 5 1021 19 10000 0.79 7 13:19 09.12.2020
5006 Clouds 5 1021 19 10000 0.69 24 12:45 09.12.2020
5007 Clouds 4 1021 19 10000 0.65 28 11:54 09.12.2020
5008 Clouds 5 1022 18 10000 0.71 25 11:23 09.12.2020
5009 Clouds 4 1022 19 10000 0.69 17 09:39 09.12.2020
5010 Clouds 5 1023 18 10000 0.65 12 08:26 09.12.2020
5011 Clouds 14 1022 34 10000 0.68 356 05:57 09.12.2020
5012 Clouds 17 1022 23 10000 0.72 16 04:20 09.12.2020
5013 Clouds 17 1022 23 10000 1.61 344 01:59 09.12.2020
5014 Clouds 25 1021 13 10000 2.04 349 23:45 08.12.2020
5015 Clouds 25 1021 13 10000 2.58 6 23:21 08.12.2020
5016 Clouds 25 1022 13 10000 3.59 9 21:35 08.12.2020
5017 Clouds 24 1025 15 10000 4.71 1 19:46 08.12.2020
5018 Clouds 24 1025 15 10000 4.71 1 19:46 08.12.2020
5019 Clear 22 1026 17 10000 4.42 5 18:59 08.12.2020
5020 Clear 20 1026 20 10000 3.77 4 18:27 08.12.2020
5021 Clear 6 1026 24 10000 2.68 333 15:54 08.12.2020
5022 Clear 14 1026 31 10000 3.12 355 14:31 08.12.2020
5023 Clear 7 1026 23 10000 4.02 308 13:36 08.12.2020
5024 Clear 14 1025 31 10000 3.06 1 12:32 08.12.2020
5025 Clear 15 1025 29 10000 3.49 1 11:52 08.12.2020
5026 Clear 8 1026 22 10000 4.02 350 10:49 08.12.2020
5027 Clear 16 1025 27 10000 3.7 360 10:29 08.12.2020
5028 Clear 8 1027 22 10000 2.24 331 08:57 08.12.2020
5029 Clear 18 1025 23 10000 4.69 354 07:25 08.12.2020
5030 Clouds 19 1023 21 10000 4.48 352 03:43 08.12.2020
5031 Clouds 19 1023 21 10000 3.14 338 01:36 08.12.2020
5032 Clouds 12 1025 21 10000 4.47 321 00:43 08.12.2020
5033 Clouds 25 1021 16 10000 6.53 343 22:48 07.12.2020
5034 Clouds 24 1021 17 10000 6.59 345 22:18 07.12.2020
5035 Clouds 14 1025 25 10000 4.02 341 20:45 07.12.2020
5036 Clouds 8 1026 40 10000 2.68 318 18:48 07.12.2020
5037 Clouds 6 1026 42 10000 1.79 318 17:31 07.12.2020
5038 Clouds 5 1025 38 10000 3.13 323 16:59 07.12.2020
5039 Clouds 5 1025 37 10000 4.02 313 16:19 07.12.2020
5040 Clouds 6 1024 37 10000 5.36 338 15:24 07.12.2020
5041 Clouds 5 1024 38 10000 2.68 343 14:26 07.12.2020
5042 Clouds 6 1023 33 10000 2.24 302 13:35 07.12.2020
5043 Clouds 5 1024 34 10000 1.34 316 11:52 07.12.2020
5044 Clouds 5 1023 33 10000 0.89 323 11:32 07.12.2020
5045 Clouds 17 1021 22 10000 2.3 346 10:22 07.12.2020
5046 Clouds 7 1024 14 10000 2.24 341 08:32 07.12.2020
5047 Clouds 16 1022 23 10000 1.33 359 06:51 07.12.2020
5048 Clouds 4 1024 14 10000 1.28 348 05:26 07.12.2020
5049 Clouds 7 1023 11 10000 1.79 23 02:18 07.12.2020
5050 Clouds 17 1019 20 10000 0.62 164 00:33 07.12.2020
5051 Clouds 13 1024 6 10000 1.34 40 22:46 06.12.2020
5052 Clouds 16 1025 5 10000 1.79 35 21:44 06.12.2020
5053 Clouds 16 1026 6 10000 1.79 64 20:35 06.12.2020
5054 Clear 15 1026 6 10000 1.34 40 19:57 06.12.2020
5055 Clear 13 1027 7 10000 0.89 29 18:53 06.12.2020
5056 Clear 6 1028 13 10000 0.17 178 17:28 06.12.2020
5057 Clear 15 1024 24 10000 0.17 178 16:33 06.12.2020
5058 Clouds -3 1027 20 10000 0.49 117 14:46 06.12.2020
5059 Clouds 9 1025 48 10000 0.54 17 12:53 06.12.2020
5060 Clouds 9 1025 48 10000 0.54 17 12:30 06.12.2020
5061 Clouds -1 1028 17 10000 0.54 353 11:41 06.12.2020
5062 Clouds 0 1028 16 10000 0.47 28 11:22 06.12.2020
5063 Clouds 2 1028 14 10000 0.47 28 10:32 06.12.2020
5064 Clouds 1 1029 15 10000 0.42 346 08:59 06.12.2020
5065 Clouds 9 1025 45 10000 0.41 149 07:26 06.12.2020
5066 Clear 1 1029 15 10000 0.45 324 04:41 06.12.2020
5067 Clear 16 1024 22 10000 0.37 240 00:45 06.12.2020
5068 Clear 15 1027 7 10000 1.34 64 00:26 06.12.2020
5069 Clear 16 1026 6 10000 1.79 63 23:55 05.12.2020
5070 Clear 17 1026 6 10000 1.79 34 22:24 05.12.2020
5071 Clear 17 1026 6 10000 1.79 50 21:53 05.12.2020
5072 Clear 16 1027 7 10000 2.24 50 21:28 05.12.2020
5073 Clear 21 1026 16 10000 0.8 43 19:54 05.12.2020
5074 Clouds 20 1027 16 10000 0.97 32 18:45 05.12.2020
5075 Clouds 9 1028 13 10000 0.92 22 17:39 05.12.2020
5076 Clouds 14 1027 24 10000 0.83 357 16:44 05.12.2020
5077 Clouds -4 1028 25 10000 0.81 357 16:24 05.12.2020
5078 Clouds -4 1027 27 10000 0.87 355 14:30 05.12.2020
5079 Clear -2 1026 23 10000 1.15 359 12:35 05.12.2020
5080 Clear -2 1026 23 10000 0.88 359 11:50 05.12.2020
5081 Clear -1 1026 22 10000 0.7 4 10:34 05.12.2020
5082 Clear 8 1024 50 10000 0.74 4 08:40 05.12.2020
5083 Clear 1 1026 21 10000 0.71 353 07:47 05.12.2020
5084 Clear 2 1025 17 10000 0.45 316 05:33 05.12.2020
5085 Clear 22 1021 15 10000 0.09 4 23:59 04.12.2020
5086 Clear 22 1021 15 10000 0.51 19 23:23 04.12.2020
5087 Clear 22 1022 15 10000 0.97 15 21:34 04.12.2020
5088 Clear 19 1026 19 10000 1.48 3 19:21 04.12.2020
5089 Clear 19 1026 18 10000 1.57 4 18:30 04.12.2020
5090 Clear 11 1028 11 10000 2.24 329 17:47 04.12.2020
5091 Clear 13 1026 26 10000 1.04 348 16:32 04.12.2020
5092 Clear 5 1026 58 10000 1.18 354 15:23 04.12.2020
5093 Clear 6 1026 57 10000 1.33 347 13:36 04.12.2020
5094 Clear 5 1026 59 10000 0.96 345 13:18 04.12.2020
5095 Clear 5 1026 59 10000 0.62 353 12:22 04.12.2020
5096 Clear 5 1026 58 10000 0.56 355 10:37 04.12.2020
5097 Clear 6 1026 56 10000 0.67 353 09:24 04.12.2020
5098 Clear 6 1027 56 10000 0.37 21 06:40 04.12.2020
5099 Clear 7 1027 53 10000 0.18 6 04:53 04.12.2020
5100 Clear 9 1026 48 10000 1.1 331 01:53 04.12.2020
5101 Clear 19 1026 20 10000 1.71 3 22:49 03.12.2020
5102 Clear 19 1026 21 10000 2.07 6 21:37 03.12.2020
5103 Clear 18 1028 22 10000 2.47 4 20:46 03.12.2020
5104 Clear 16 1030 26 10000 2.52 3 19:24 03.12.2020
5105 Clear 16 1030 26 10000 2.52 3 18:47 03.12.2020
5106 Clear 4 1030 24 10000 1.28 357 17:21 03.12.2020
5107 Clear -4 1030 36 10000 0.45 353 15:59 03.12.2020
5108 Clear -3 1030 33 10000 1.55 8 15:33 03.12.2020
5109 Clear -2 1029 31 10000 0.45 355 14:49 03.12.2020
5110 Clear 6 1030 54 10000 1.54 5 13:55 03.12.2020
5111 Clear 6 1031 54 10000 1.26 8 12:50 03.12.2020
5112 Clear -1 1028 33 10000 1.79 357 12:23 03.12.2020
5113 Clear 7 1030 50 10000 1.53 30 10:55 03.12.2020
5114 Clear 9 1030 41 10000 1.94 19 08:49 03.12.2020
5115 Clear 14 1027 29 10000 3.62 356 04:21 03.12.2020
5116 Clear 15 1025 28 10000 2.84 3 02:20 03.12.2020
5117 Clear 19 1024 21 10000 3.2 26 00:32 03.12.2020
5118 Clear 21 1022 18 10000 2.9 7 22:47 02.12.2020
5119 Clear 21 1023 19 10000 2.53 10 21:56 02.12.2020
5120 Clear 20 1023 20 10000 2.68 25 20:52 02.12.2020
5121 Clear 20 1023 20 10000 2.68 25 20:34 02.12.2020
5122 Clear 19 1024 21 10000 2.64 27 19:55 02.12.2020
5123 Clear 18 1024 24 10000 3.03 27 17:53 02.12.2020
5124 Clear 12 1022 19 10000 3.03 27 17:34 02.12.2020
5125 Clear 4 1022 30 10000 2.27 13 16:57 02.12.2020
5126 Clear 2 1021 33 10000 0.45 3 14:47 02.12.2020
5127 Clear 2 1021 29 10000 0.45 282 11:34 02.12.2020
5128 Clear 5 1021 26 10000 2.09 359 10:28 02.12.2020
5129 Clear 14 1023 32 10000 1.96 4 08:29 02.12.2020
5130 Clear 16 1020 27 10000 1.66 357 01:39 02.12.2020
5131 Clear 26 1020 14 10000 4.09 6 22:21 01.12.2020
5132 Clear 25 1021 15 10000 4.16 355 20:46 01.12.2020
5133 Clear 24 1022 16 10000 4.45 0 19:34 01.12.2020
5134 Clear 14 1023 14 10000 0.45 121 17:49 01.12.2020
5135 Clear 11 1021 45 10000 1.28 336 15:44 01.12.2020
5136 Clear 10 1021 46 10000 1.06 342 13:38 01.12.2020
5137 Clear 10 1021 46 10000 0.55 336 11:46 01.12.2020
5138 Clear 11 1021 46 10000 0.33 288 11:26 01.12.2020
5139 Clear 11 1021 46 10000 0.33 288 10:38 01.12.2020
5140 Clear 11 1022 44 10000 0.65 14 08:21 01.12.2020
5141 Clear 2 1024 30 10000 0.45 60 06:47 01.12.2020
5142 Clear 13 1021 39 10000 0.45 250 01:52 01.12.2020
5143 Clear 19 1020 23 10000 0.4 249 00:56 01.12.2020
5144 Clear 24 1020 16 10000 0.45 71 23:21 30.11.2020
5145 Clear 24 1020 16 10000 0.45 71 22:44 30.11.2020
5146 Clear 24 1021 16 10000 0.33 79 22:25 30.11.2020
5147 Clear 24 1022 17 10000 0.5 23 20:48 30.11.2020
5148 Clear 23 1023 18 10000 0.9 14 19:42 30.11.2020
5149 Clouds 20 1024 21 10000 1.04 353 18:24 30.11.2020
5150 Clouds 12 1027 20 10000 0.45 310 17:48 30.11.2020
5151 Clouds 17 1023 26 10000 0.96 25 16:55 30.11.2020
5152 Clouds -1 1026 38 10000 0.76 1 15:59 30.11.2020
5153 Clouds 1 1025 35 10000 0.75 30 14:47 30.11.2020
5154 Clouds 3 1025 32 10000 0.83 20 13:53 30.11.2020
5155 Clouds 1 1025 36 10000 0.89 332 12:27 30.11.2020
5156 Clouds 1 1025 34 10000 0.75 31 11:58 30.11.2020
5157 Clouds 2 1025 32 10000 0.45 44 10:30 30.11.2020
5158 Clouds 2 1025 32 10000 0.47 61 09:51 30.11.2020
5159 Clear 1 1025 31 10000 0.55 341 07:26 30.11.2020
5160 Clear 19 1021 24 10000 0.22 305 00:54 30.11.2020
5161 Clear 24 1021 17 10000 1.81 11 22:19 29.11.2020
5162 Clear 24 1021 17 10000 1.81 11 21:42 29.11.2020
5163 Clear 23 1022 18 10000 2 5 21:24 29.11.2020
5164 Clear 12 1026 17 10000 4.02 318 17:48 29.11.2020
5165 Clear 9 1026 20 10000 2.68 340 16:57 29.11.2020
5166 Clear 10 1022 47 10000 1.58 349 13:24 29.11.2020
5167 Clear 9 1022 49 10000 1.45 350 12:27 29.11.2020
5168 Clear 9 1022 51 10000 1.02 357 11:22 29.11.2020
5169 Clear 9 1022 51 10000 0.44 347 08:52 29.11.2020
5170 Clear 9 1022 51 10000 0.44 347 08:34 29.11.2020
5171 Clear 11 1021 44 10000 0.48 237 01:43 29.11.2020
5172 Clear 21 1021 20 10000 0.38 45 22:57 28.11.2020
5173 Clear 20 1023 21 10000 0.61 48 20:56 28.11.2020
5174 Clear 19 1024 23 10000 0.89 19 19:53 28.11.2020
5175 Clear 18 1025 24 10000 1.07 19 19:25 28.11.2020
5176 Clear 18 1025 24 10000 0.91 21 18:52 28.11.2020
5177 Clear 9 1027 20 10000 0.69 20 17:52 28.11.2020
5178 Clear 15 1026 29 10000 0.31 36 16:52 28.11.2020
5179 Clear -2 1026 36 10000 0.35 34 14:58 28.11.2020
5180 Clear 7 1025 57 10000 0.48 29 13:31 28.11.2020
5181 Clear 8 1025 54 10000 0.33 48 11:24 28.11.2020
5182 Clear 2 1027 26 10000 0.93 12 08:18 28.11.2020
5183 Clear 10 1025 41 10000 1.28 9 03:34 28.11.2020
5184 Clear 12 1024 33 10000 2.07 350 01:51 28.11.2020
5185 Clear 19 1023 21 10000 3.71 359 23:19 27.11.2020
5186 Clear 19 1024 21 10000 4.12 5 21:57 27.11.2020
5187 Clear 18 1025 22 10000 4.45 4 20:38 27.11.2020
5188 Clear 17 1026 24 10000 4.57 2 19:31 27.11.2020
5189 Clear 15 1027 27 10000 4.45 5 18:57 27.11.2020
5190 Clear 8 1028 43 10000 2.97 3 15:50 27.11.2020
5191 Clear 8 1027 43 10000 3.06 1 14:22 27.11.2020
5192 Clear 1 1027 29 10000 0.89 357 13:18 27.11.2020
5193 Clear 8 1027 43 10000 2.9 1 12:46 27.11.2020
5194 Clear 9 1026 41 10000 3.09 3 10:53 27.11.2020
5195 Clear 9 1026 41 10000 3.09 3 10:32 27.11.2020
5196 Clear 10 1026 37 10000 3.8 354 09:27 27.11.2020
5197 Clear 18 1020 21 10000 10.6 358 23:18 26.11.2020
5198 Clear 18 1020 22 10000 10.95 356 22:24 26.11.2020
5199 Clear 9 1024 21 10000 4.47 346 21:42 26.11.2020
5200 Clear 9 1025 24 10000 4.92 340 20:43 26.11.2020
5201 Clear 6 1024 31 10000 4.92 3 18:36 26.11.2020
5202 Clear 4 1024 37 10000 5.36 341 17:20 26.11.2020
5203 Clear -1 1021 51 10000 2.24 329 13:44 26.11.2020
5204 Clear -1 1021 51 10000 1.79 300 12:57 26.11.2020
5205 Clouds 0 1021 50 10000 2.24 313 12:38 26.11.2020
5206 Clouds 2 1020 47 10000 1.79 338 10:50 26.11.2020
5207 Clouds 2 1020 49 10000 2.24 304 10:23 26.11.2020
5208 Clouds 2 1019 50 10000 4.02 332 09:37 26.11.2020
5209 Clouds 3 1019 51 10000 4.02 10 08:58 26.11.2020
5210 Clouds 3 1019 46 10000 2.24 339 08:34 26.11.2020
5211 Clouds 14 1014 36 10000 1.51 345 02:19 26.11.2020
5212 Clear 22 1014 20 10000 2.31 149 22:20 25.11.2020
5213 Clear 21 1015 21 10000 2.26 159 20:38 25.11.2020
5214 Clear 19 1018 24 10000 2.28 167 19:26 25.11.2020
5215 Clear 17 1019 29 10000 1.55 156 17:29 25.11.2020
5216 Clear -2 1019 56 10000 0.76 145 15:47 25.11.2020
5217 Clear -2 1019 56 10000 0.34 129 15:23 25.11.2020
5218 Clear -2 1019 53 10000 0.34 134 13:46 25.11.2020
5219 Clear 0 1019 46 10000 0.46 133 12:59 25.11.2020
5220 Clear 1 1019 45 10000 1.01 162 11:27 25.11.2020
5221 Clear -1 1020 48 10000 0.93 149 09:22 25.11.2020
5222 Clear -1 1020 49 10000 0.93 149 08:50 25.11.2020
5223 Clear 0 1020 45 10000 0.9 153 08:29 25.11.2020
5224 Clear 4 1020 35 10000 0.45 171 03:55 25.11.2020
5225 Clear 12 1018 39 10000 0.2 218 01:50 25.11.2020
5226 Clear 21 1017 21 10000 1.42 6 00:22 25.11.2020
5227 Clear 21 1017 21 10000 1.42 6 23:36 24.11.2020
5228 Clear 21 1017 21 10000 2.07 2 22:57 24.11.2020
5229 Clear 21 1017 22 10000 2.38 358 21:51 24.11.2020
5230 Clear 20 1018 23 10000 2.84 4 21:28 24.11.2020
5231 Clear 19 1019 25 10000 3.16 9 20:19 24.11.2020
5232 Clear 11 1020 27 10000 3.58 310 18:39 24.11.2020
5233 Clear 17 1020 29 10000 2.9 12 17:30 24.11.2020
5234 Clear 6 1019 36 10000 4.02 347 16:39 24.11.2020
5235 Clear 11 1020 43 10000 2.29 355 15:58 24.11.2020
5236 Clear 11 1020 43 10000 2.29 355 15:40 24.11.2020
5237 Clear 11 1019 44 10000 2.46 351 15:18 24.11.2020
5238 Clear 11 1019 44 10000 2.46 351 14:33 24.11.2020
5239 Clear 12 1018 41 10000 2.85 351 12:44 24.11.2020
5240 Clear 4 1017 44 10000 0.89 4 12:22 24.11.2020
5241 Clear 4 1016 47 10000 2.68 355 11:38 24.11.2020
5242 Clear 4 1016 46 10000 0.89 299 10:39 24.11.2020
5243 Clear 4 1016 46 10000 0.89 320 10:19 24.11.2020
5244 Clear 4 1016 44 10000 0.45 287 09:35 24.11.2020
5245 Clear 5 1015 40 10000 0.45 310 07:57 24.11.2020
5246 Clear 16 1011 31 10000 2.06 0 04:19 24.11.2020
5247 Clear 24 1007 18 10000 2.68 1 22:29 23.11.2020
5248 Clear 24 1007 18 10000 2.68 1 21:37 23.11.2020
5249 Clear 23 1008 19 10000 1.98 3 20:50 23.11.2020
5250 Clear 22 1009 21 10000 1.62 21 20:26 23.11.2020
5251 Clouds 21 1010 23 10000 1.33 23 19:20 23.11.2020
5252 Clouds 9 1011 32 10000 3.13 321 17:26 23.11.2020
5253 Clouds 2 1010 44 10000 0.74 171 16:28 23.11.2020
5254 Clouds 2 1010 44 10000 0.74 171 16:28 23.11.2020
5255 Clouds 2 1010 43 10000 0.91 175 14:48 23.11.2020
5256 Clouds 2 1010 44 10000 0.45 229 13:33 23.11.2020
5257 Clouds 3 1009 43 10000 0.71 160 12:38 23.11.2020
5258 Clouds 2 1010 43 10000 0.86 182 11:48 23.11.2020
5259 Clear 3 1010 43 10000 0.54 139 11:21 23.11.2020
5260 Clear 2 1011 42 10000 0.29 201 09:32 23.11.2020
5261 Clear 1 1011 45 10000 0.22 217 08:49 23.11.2020
5262 Clear 3 1012 40 10000 0.75 161 07:28 23.11.2020
5263 Clear 17 1012 18 10000 2.68 8 00:39 23.11.2020
5264 Clear 19 1012 17 10000 2.24 18 23:38 22.11.2020
5265 Clear 19 1013 17 10000 2.68 351 22:18 22.11.2020
5266 Clear 25 1014 16 10000 0.82 58 20:54 22.11.2020
5267 Clear 24 1015 17 10000 1.4 44 19:58 22.11.2020
5268 Clear 16 1017 21 10000 0.89 125 18:56 22.11.2020
5269 Clear 14 1018 26 10000 2.33 15 17:33 22.11.2020
5270 Clear 2 1018 44 10000 1.91 355 15:58 22.11.2020
5271 Clear 3 1018 42 10000 1.68 3 14:54 22.11.2020
5272 Clouds 2 1018 46 10000 1.64 350 12:50 22.11.2020
5273 Clouds 2 1018 44 10000 1.63 348 12:18 22.11.2020
5274 Clouds 2 1019 43 10000 1.63 348 11:36 22.11.2020
5275 Clouds 3 1019 40 10000 1.5 354 10:47 22.11.2020
5276 Clouds 4 1020 39 10000 1.63 355 10:29 22.11.2020
5277 Clouds 19 1020 25 10000 2.04 354 01:50 22.11.2020
5278 Clouds 26 1019 16 10000 2.92 358 23:54 21.11.2020
5279 Clouds 27 1019 16 10000 3.26 0 22:40 21.11.2020
5280 Clear 26 1019 16 10000 3.79 2 21:30 21.11.2020
5281 Clear 26 1021 17 10000 3.92 2 20:49 21.11.2020
5282 Clear 25 1022 18 10000 3.82 359 20:18 21.11.2020
5283 Clear 25 1022 18 10000 3.82 359 19:39 21.11.2020
5284 Clouds 24 1023 19 10000 3.95 359 18:50 21.11.2020
5285 Clouds 12 1025 27 10000 0.89 346 17:30 21.11.2020
5286 Clouds 8 1025 34 10000 2.24 327 16:44 21.11.2020
5287 Clouds 6 1024 41 10000 1.34 300 15:40 21.11.2020
5288 Clouds 6 1024 40 10000 3.13 307 15:20 21.11.2020
5289 Clouds 14 1022 37 10000 1.81 343 14:40 21.11.2020
5290 Clouds 15 1022 36 10000 1.72 350 12:44 21.11.2020
5291 Clear 14 1022 37 10000 1.5 346 12:21 21.11.2020
5292 Clear 14 1022 37 10000 1.5 346 11:49 21.11.2020
5293 Clouds 2 1024 45 10000 2.05 354 10:28 21.11.2020
5294 Clouds 3 1024 42 10000 1.5 351 08:52 21.11.2020
5295 Clouds 3 1024 42 10000 1.21 345 08:19 21.11.2020
5296 Clouds 5 1024 35 10000 0.83 356 05:42 21.11.2020
5297 Clouds 12 1023 26 10000 0.89 50 01:59 21.11.2020
5298 Clouds 14 1022 24 10000 0.89 57 00:22 21.11.2020
5299 Clouds 25 1019 18 10000 1 12 22:45 20.11.2020
5300 Clouds 16 1023 24 10000 0.45 292 21:45 20.11.2020
5301 Clouds 16 1023 24 10000 0.45 292 21:21 20.11.2020
5302 Clouds 16 1023 24 10000 0.45 292 21:21 20.11.2020
5303 Clouds 14 1024 27 10000 0.89 319 19:55 20.11.2020
5304 Clouds 13 1025 29 10000 0.45 262 18:55 20.11.2020
5305 Clouds 12 1024 31 10000 1.34 272 18:27 20.11.2020
5306 Clouds 11 1024 35 10000 1.34 266 17:30 20.11.2020
5307 Clouds 9 1024 40 10000 0.89 295 16:47 20.11.2020
5308 Clouds 7 1023 43 10000 0.89 299 15:59 20.11.2020
5309 Clouds 7 1023 45 10000 1.79 306 15:39 20.11.2020
5310 Clouds 7 1023 49 10000 1.34 315 13:54 20.11.2020
5311 Clouds 14 1021 53 10000 1.42 342 13:19 20.11.2020
5312 Clouds 4 1023 62 10000 1.34 360 12:50 20.11.2020
5313 Clouds 2 1023 64 10000 1.04 352 11:52 20.11.2020
5314 Clouds 3 1022 62 10000 0.3 359 11:21 20.11.2020
5315 Clouds 3 1022 63 10000 0.3 41 09:47 20.11.2020
5316 Clear 3 1023 60 10000 0.5 318 08:29 20.11.2020
5317 Clear 3 1023 59 10000 0.5 318 07:49 20.11.2020
5318 Clear 7 1022 50 10000 0.58 155 05:18 20.11.2020
5319 Clear 24 1018 25 10000 0.67 59 23:38 19.11.2020
5320 Clear 24 1018 26 10000 0.88 57 22:30 19.11.2020
5321 Clear 24 1018 28 10000 0.8 53 21:52 19.11.2020
5322 Clear 23 1019 31 10000 0.79 60 20:57 19.11.2020
5323 Clear 22 1020 34 10000 0.83 49 20:20 19.11.2020
5324 Clear 21 1021 37 10000 0.51 71 19:26 19.11.2020
5325 Clear 14 1022 42 10000 0.65 35 18:47 19.11.2020
5326 Clear 9 1022 60 10000 0.45 343 17:27 19.11.2020
5327 Clear 18 1021 41 10000 0.74 357 16:32 19.11.2020
5328 Clear 0 1019 86 10000 0.08 198 15:29 19.11.2020
5329 Clear 1 1018 85 10000 0.27 244 13:51 19.11.2020
5330 Clear 1 1018 87 10000 0.27 244 13:33 19.11.2020
5331 Clear 1 1017 81 10000 0.46 168 12:52 19.11.2020
5332 Clear 1 1017 84 10000 0.46 168 12:33 19.11.2020
5333 Clear 1 1017 84 10000 0.41 183 11:40 19.11.2020
5334 Clear 1 1017 83 10000 0.98 164 11:21 19.11.2020
5335 Clear 2 1016 78 10000 0.98 164 10:31 19.11.2020
5336 Clear 1 1016 80 10000 1.4 154 09:48 19.11.2020
5337 Clear 1 1016 77 10000 1.65 159 09:27 19.11.2020
5338 Clear 2 1016 74 10000 1.65 159 08:37 19.11.2020
5339 Clear 3 1015 69 10000 1.82 161 07:35 19.11.2020
5340 Clear 22 1013 35 10000 4.55 207 01:48 19.11.2020
5341 Clouds 17 1009 36 10000 3.58 210 00:32 19.11.2020
5342 Clouds 18 1009 33 10000 3.58 254 23:32 18.11.2020
5343 Clouds 18 1010 33 10000 3.13 231 22:59 18.11.2020
5344 Clouds 19 1010 31 10000 3.13 189 22:29 18.11.2020
5345 Clouds 18 1010 30 10000 2.24 195 21:43 18.11.2020
5346 Clear 19 1010 29 10000 1.79 162 21:25 18.11.2020
5347 Clear 18 1011 29 10000 2.24 235 20:35 18.11.2020
5348 Clear 17 1012 26 10000 3.13 204 19:42 18.11.2020
5349 Clouds 17 1012 26 10000 2.24 190 19:22 18.11.2020
5350 Clouds 16 1012 25 10000 3.13 137 18:40 18.11.2020
5351 Clouds 25 1015 17 10000 9.71 182 17:44 18.11.2020
5352 Clouds 13 1011 29 10000 0.89 93 16:52 18.11.2020
5353 Clouds 10 1011 33 10000 1.34 99 16:18 18.11.2020
5354 Clear 21 1013 21 10000 7.51 182 14:41 18.11.2020
5355 Clear 11 1011 27 10000 2.24 101 14:19 18.11.2020
5356 Clouds 11 1011 27 10000 2.68 104 13:22 18.11.2020
5357 Clouds 22 1013 20 10000 7.41 181 12:43 18.11.2020
5358 Clouds 22 1013 19 10000 7.37 180 11:51 18.11.2020
5359 Clouds 22 1013 19 10000 7.13 179 10:57 18.11.2020
5360 Clouds 12 1012 27 10000 1.79 105 10:30 18.11.2020
5361 Clouds 12 1013 25 10000 2.68 107 08:41 18.11.2020
5362 Clouds 12 1014 25 10000 0.45 168 06:49 18.11.2020
5363 Clouds 23 1013 19 10000 5.44 184 04:34 18.11.2020
5364 Clouds 18 1013 14 10000 4.02 177 00:20 18.11.2020
5365 Clouds 18 1013 14 10000 4.92 220 23:24 17.11.2020
5366 Clouds 19 1014 16 10000 4.02 249 22:44 17.11.2020
5367 Clouds 20 1014 15 10000 4.47 156 22:25 17.11.2020
5368 Clouds 19 1014 16 10000 4.47 270 21:46 17.11.2020
5369 Clear 19 1014 15 10000 5.81 274 21:23 17.11.2020
5370 Clear 19 1015 15 10000 5.81 192 20:43 17.11.2020
5371 Clear 19 1015 15 10000 6.26 236 20:23 17.11.2020
5372 Clouds 18 1015 17 10000 5.81 233 19:24 17.11.2020
5373 Clouds 18 1016 17 10000 5.81 229 18:23 17.11.2020
5374 Clouds 16 1016 18 10000 3.13 233 17:28 17.11.2020
5375 Clouds 11 1017 24 10000 0.89 222 16:35 17.11.2020
5376 Clouds 11 1017 24 10000 0.45 220 15:57 17.11.2020
5377 Clouds 11 1017 24 10000 0.89 217 15:35 17.11.2020
5378 Clouds 8 1016 27 10000 2.07 169 14:58 17.11.2020
5379 Clear 9 1016 25 10000 0.45 175 14:29 17.11.2020
5380 Clear 8 1016 26 10000 0.45 133 13:45 17.11.2020
5381 Clear 7 1016 28 10000 0.45 133 13:21 17.11.2020
5382 Clear 7 1017 28 10000 1.66 167 12:41 17.11.2020
5383 Clear 7 1018 28 10000 0.45 87 11:44 17.11.2020
5384 Clear 7 1018 27 10000 1.24 174 10:57 17.11.2020
5385 Clear 7 1018 27 10000 1.24 174 10:37 17.11.2020
5386 Clear 6 1018 28 10000 0.45 87 09:51 17.11.2020
5387 Clear 6 1018 28 10000 1 159 09:32 17.11.2020
5388 Clear 7 1019 28 10000 0.47 181 08:25 17.11.2020
5389 Clear 7 1019 27 10000 0.47 181 07:50 17.11.2020
5390 Clear 7 1020 27 10000 0.42 124 07:26 17.11.2020
5391 Clear 8 1020 27 10000 0.3 39 04:28 17.11.2020
5392 Clear 11 1020 21 10000 0.27 4 02:59 17.11.2020
5393 Clear 18 1018 34 10000 0.15 294 02:21 17.11.2020
5394 Clear 25 1018 17 10000 0.36 298 00:56 17.11.2020
5395 Clear 29 1018 13 10000 0.85 349 23:52 16.11.2020
5396 Clear 29 1018 13 10000 1.22 360 23:29 16.11.2020
5397 Clear 29 1018 13 10000 1.22 360 22:48 16.11.2020
5398 Clear 29 1019 13 10000 1.24 14 22:22 16.11.2020
5399 Clear 29 1019 13 10000 1.24 14 21:50 16.11.2020
5400 Clear 28 1020 14 10000 1.35 10 21:27 16.11.2020
5401 Clear 28 1020 14 10000 1.35 10 20:59 16.11.2020
5402 Clear 27 1022 15 10000 1.23 9 20:25 16.11.2020
5403 Clear 22 1024 15 10000 1.34 73 19:45 16.11.2020
5404 Clear 26 1023 16 10000 1.2 14 19:27 16.11.2020
5405 Clear 26 1023 16 10000 1.2 14 18:47 16.11.2020
5406 Clear 18 1025 20 10000 0.45 14 17:57 16.11.2020
5407 Clear 14 1025 25 10000 0.45 14 17:26 16.11.2020
5408 Clear 23 1023 19 10000 0.91 4 16:57 16.11.2020
5409 Clear 23 1023 19 10000 0.91 4 16:38 16.11.2020
5410 Clear 3 1025 44 10000 0.45 14 16:18 16.11.2020
5411 Clear 15 1022 32 10000 0.92 357 15:41 16.11.2020
5412 Clear 2 1025 46 10000 0.9 353 15:22 16.11.2020
5413 Clear 2 1025 46 10000 0.9 353 14:42 16.11.2020
5414 Clear 2 1025 47 10000 0.96 356 13:37 16.11.2020
5415 Clear 2 1024 41 10000 0.98 0 12:45 16.11.2020
5416 Clear 2 1024 41 10000 0.98 0 12:45 16.11.2020
5417 Clear 3 1025 41 10000 0.81 357 12:23 16.11.2020
5418 Clear 3 1025 44 10000 0.81 357 11:38 16.11.2020
5419 Clear 2 1025 43 10000 0.8 358 11:19 16.11.2020
5420 Clear 3 1025 39 10000 0.8 358 10:41 16.11.2020
5421 Clear 3 1025 39 10000 0.9 358 10:23 16.11.2020
5422 Clear 4 1025 37 10000 0.9 358 09:43 16.11.2020
5423 Clear 4 1025 41 10000 0.8 357 09:22 16.11.2020
5424 Clear 3 1025 41 10000 0.8 357 08:40 16.11.2020
5425 Clear 3 1025 36 10000 0.82 357 07:44 16.11.2020
5426 Clear 4 1025 34 10000 0.86 359 06:50 16.11.2020
5427 Clear 3 1025 37 10000 0.89 349 05:58 16.11.2020
5428 Clear 5 1024 31 10000 1.01 360 04:43 16.11.2020
5429 Clear 16 1021 33 10000 0.52 349 02:30 16.11.2020
5430 Clear 17 1021 29 10000 0.74 325 01:41 16.11.2020
5431 Clear 26 1020 16 10000 0.36 355 23:58 15.11.2020
5432 Clear 26 1020 16 10000 0.38 57 23:22 15.11.2020
5433 Clear 26 1020 16 10000 0.38 57 22:50 15.11.2020
5434 Clear 26 1021 16 10000 0.33 60 22:22 15.11.2020
5435 Clear 26 1021 16 10000 0.33 60 21:45 15.11.2020
5436 Clear 25 1022 17 10000 0.23 46 21:24 15.11.2020
5437 Clear 18 1024 19 10000 0.89 237 20:44 15.11.2020
5438 Clear 24 1023 18 10000 0.5 115 20:22 15.11.2020
5439 Clear 18 1025 20 10000 0.89 264 19:48 15.11.2020
5440 Clear 23 1024 19 10000 1.27 9 19:22 15.11.2020
5441 Clear 14 1026 24 10000 0.45 282 18:58 15.11.2020
5442 Clear 15 1026 23 10000 1.34 258 18:40 15.11.2020
5443 Clear 15 1026 23 10000 1.34 326 18:20 15.11.2020
5444 Clear 13 1025 26 10000 1.14 8 17:46 15.11.2020
5445 Clear 12 1025 29 10000 0.35 48 17:24 15.11.2020
5446 Clear 21 1024 22 10000 0.35 48 16:50 15.11.2020
5447 Clear 2 1025 48 10000 0.58 344 16:21 15.11.2020
5448 Clear 4 1024 43 10000 0.58 344 15:56 15.11.2020
5449 Clear 5 1024 40 10000 0.58 344 15:37 15.11.2020
5450 Clear 12 1023 47 10000 0.54 345 15:19 15.11.2020
5451 Clear 12 1023 47 10000 0.54 345 14:36 15.11.2020
5452 Clear 12 1023 47 10000 0.12 35 14:18 15.11.2020
5453 Clear 12 1023 47 10000 0.12 35 13:39 15.11.2020
5454 Clear 2 1024 47 10000 0.16 128 12:52 15.11.2020
5455 Clear 2 1023 49 10000 0.45 232 12:26 15.11.2020
5456 Clear 2 1023 50 10000 0.22 178 11:55 15.11.2020
5457 Clear 1 1023 51 10000 0.22 178 11:37 15.11.2020
5458 Clear 1 1023 49 10000 0.31 154 11:18 15.11.2020
5459 Clear 2 1023 47 10000 0.31 154 10:43 15.11.2020
5460 Clear 2 1023 46 10000 0.56 180 10:24 15.11.2020
5461 Clear 2 1024 45 10000 0.56 180 09:41 15.11.2020
5462 Clear 3 1024 43 10000 0.89 196 09:20 15.11.2020
5463 Clear 3 1023 44 10000 0.89 196 08:53 15.11.2020
5464 Clear 3 1024 44 10000 0.79 196 08:28 15.11.2020
5465 Clear 3 1023 44 10000 0.79 196 07:43 15.11.2020
5466 Clear 6 1023 38 10000 0.36 187 05:18 15.11.2020
5467 Clear 5 1023 36 10000 0.36 187 04:49 15.11.2020
5468 Clouds 22 1020 21 10000 0.25 170 00:49 15.11.2020
5469 Clear 24 1019 19 10000 0.08 190 00:28 15.11.2020
5470 Clear 24 1019 19 10000 0.08 190 23:37 14.11.2020
5471 Clear 24 1019 18 10000 0.18 60 22:50 14.11.2020
5472 Clear 24 1019 18 10000 0.18 60 22:31 14.11.2020
5473 Clear 23 1019 19 10000 0.55 16 21:44 14.11.2020
5474 Clear 23 1020 20 10000 1.33 22 21:22 14.11.2020
5475 Clear 23 1020 20 10000 1.33 22 20:57 14.11.2020
5476 Clear 22 1021 21 10000 1.88 25 20:28 14.11.2020
5477 Clear 22 1021 21 10000 1.88 25 19:55 14.11.2020
5478 Clear 22 1021 21 10000 1.88 25 19:35 14.11.2020
5479 Clear 21 1022 23 10000 2.05 10 18:44 14.11.2020
5480 Clear 20 1022 25 10000 1.57 13 18:25 14.11.2020
5481 Clear 20 1022 25 10000 1.57 13 17:59 14.11.2020
5482 Clear 20 1022 25 10000 1.57 13 17:41 14.11.2020
5483 Clear 18 1021 28 10000 1.23 3 17:20 14.11.2020
5484 Clear 8 1021 24 10000 0.89 312 16:44 14.11.2020
5485 Clear 12 1020 41 10000 0.77 20 16:24 14.11.2020
5486 Clear 3 1020 33 10000 0.45 315 15:52 14.11.2020
5487 Clear 10 1019 52 10000 0.12 33 15:29 14.11.2020
5488 Clear 10 1019 52 10000 0.12 33 14:49 14.11.2020
5489 Clear 10 1018 51 10000 0.14 28 14:26 14.11.2020
5490 Clear 10 1018 51 10000 0.14 28 13:49 14.11.2020
5491 Clouds 11 1017 49 10000 0.65 43 13:25 14.11.2020
5492 Clouds 11 1017 49 10000 0.65 43 12:48 14.11.2020
5493 Clouds 11 1017 49 10000 0.65 43 12:30 14.11.2020
5494 Clouds 12 1017 42 10000 1.21 186 11:46 14.11.2020
5495 Clouds 5 1016 41 10000 1.79 326 11:25 14.11.2020
5496 Clouds 6 1016 43 10000 1.34 91 10:49 14.11.2020
5497 Clouds 2 1015 49 10000 0.41 167 10:26 14.11.2020
5498 Clouds 2 1015 46 10000 0.41 167 09:56 14.11.2020
5499 Clouds 3 1015 45 10000 0.41 167 09:38 14.11.2020
5500 Clouds 3 1015 43 10000 0.45 283 09:19 14.11.2020
5501 Clouds 4 1015 42 10000 1.42 171 08:39 14.11.2020
5502 Clouds 15 1014 34 10000 1.82 179 07:52 14.11.2020
5503 Clouds 6 1014 40 10000 2.24 14 07:31 14.11.2020
5504 Clouds 7 1014 27 10000 1.41 182 06:36 14.11.2020
5505 Clouds 7 1014 27 10000 1.41 182 06:36 14.11.2020
5506 Clouds 7 1014 27 10000 2.24 2 05:52 14.11.2020
5507 Clouds 8 1014 26 10000 0.45 40 04:30 14.11.2020
5508 Clouds 13 1014 18 10000 2.24 80 01:25 14.11.2020
5509 Clouds 14 1014 16 10000 2.68 34 23:54 13.11.2020
5510 Clouds 16 1015 16 10000 3.13 35 23:33 13.11.2020
5511 Clear 14 1015 18 10000 3.13 35 22:56 13.11.2020
5512 Clear 15 1015 17 10000 2.68 67 22:38 13.11.2020
5513 Clear 15 1015 16 10000 2.24 10 22:19 13.11.2020
5514 Clear 16 1016 16 10000 2.24 2 21:42 13.11.2020
5515 Clear 15 1016 17 10000 3.13 8 21:22 13.11.2020
5516 Clear 15 1017 17 10000 1.79 40 20:50 13.11.2020
5517 Clear 16 1018 17 10000 1.79 34 20:23 13.11.2020
5518 Clear 15 1018 17 10000 1.79 71 19:47 13.11.2020
5519 Clear 21 1017 20 10000 2.02 167 19:24 13.11.2020
5520 Clear 13 1019 19 10000 1.34 34 18:59 13.11.2020
5521 Clear 13 1019 20 10000 1.34 72 18:32 13.11.2020
5522 Clear 9 1019 25 10000 0.45 31 17:43 13.11.2020
5523 Clear 9 1019 25 10000 0.45 31 17:43 13.11.2020
5524 Clear 8 1019 27 10000 1.09 153 17:21 13.11.2020
5525 Clear 19 1018 23 10000 1.09 153 16:50 13.11.2020
5526 Clear 0 1019 44 10000 0.5 209 16:25 13.11.2020
5527 Clear 12 1018 35 10000 0.5 209 15:58 13.11.2020
5528 Clear 12 1018 35 10000 0.5 209 15:33 13.11.2020
5529 Clear 0 1018 41 10000 1 149 14:55 13.11.2020
5530 Clear 0 1018 42 10000 0.45 40 14:36 13.11.2020
5531 Clear 1 1018 39 10000 0.48 124 14:18 13.11.2020
5532 Clear 0 1017 43 10000 0.48 124 13:31 13.11.2020
5533 Clear 1 1018 38 10000 0.12 343 12:52 13.11.2020
5534 Clear 0 1018 42 10000 0.45 87 12:27 13.11.2020
5535 Clear -1 1018 38 10000 0.58 153 11:58 13.11.2020
5536 Clear 0 1017 37 10000 0.58 153 11:39 13.11.2020
5537 Clear 0 1018 40 10000 0.54 145 11:19 13.11.2020
5538 Clear 0 1018 40 10000 0.54 145 10:41 13.11.2020
5539 Clear 0 1018 40 10000 0.99 151 10:23 13.11.2020
5540 Clear 0 1018 40 10000 0.99 151 09:47 13.11.2020
5541 Clear 1 1018 39 10000 0.79 160 09:27 13.11.2020
5542 Clear 1 1018 39 10000 0.79 160 09:27 13.11.2020
5543 Clear 1 1018 39 10000 0.79 160 09:27 13.11.2020
5544 Clear 0 1018 40 10000 0.79 160 08:53 13.11.2020
5545 Clear 1 1018 37 10000 0.66 161 08:26 13.11.2020
5546 Clear 0 1018 39 10000 0.66 161 07:50 13.11.2020
5547 Clear 1 1018 37 10000 0.65 163 07:27 13.11.2020
5548 Clear 1 1018 37 10000 0.65 163 06:55 13.11.2020
5549 Clear 1 1018 37 10000 0.46 170 06:36 13.11.2020
5550 Clear 3 1018 33 10000 0.56 155 05:41 13.11.2020
5551 Clear 7 1017 28 10000 0.89 90 03:41 13.11.2020
5552 Clear 15 1015 30 10000 0.78 167 01:42 13.11.2020
5553 Clear 21 1014 20 10000 1.13 160 00:36 13.11.2020
5554 Clear 23 1014 18 10000 1.9 165 23:50 12.11.2020
5555 Clear 16 1016 17 10000 2.24 2 23:21 12.11.2020
5556 Clear 23 1014 18 10000 1.59 164 22:55 12.11.2020
5557 Clear 23 1014 18 10000 1.59 164 22:37 12.11.2020
5558 Clear 23 1015 18 10000 1.05 152 21:58 12.11.2020
5559 Clear 23 1015 18 10000 1.05 152 21:40 12.11.2020
5560 Clear 22 1016 19 10000 0.72 126 21:21 12.11.2020
5561 Clear 22 1016 19 10000 0.72 126 20:41 12.11.2020
5562 Clear 22 1017 20 10000 0.59 88 20:23 12.11.2020
5563 Clear 22 1017 20 10000 0.59 88 19:53 12.11.2020
5564 Clear 22 1017 20 10000 0.59 88 19:34 12.11.2020
5565 Clouds 20 1017 22 10000 0.63 63 18:59 12.11.2020
5566 Clouds 21 1018 22 10000 0.84 40 18:41 12.11.2020
5567 Clouds 19 1017 23 10000 0.51 41 18:20 12.11.2020
5568 Clouds 12 1019 24 10000 0.45 333 17:40 12.11.2020
5569 Clouds 11 1019 26 10000 0.52 9 17:22 12.11.2020
5570 Clouds 8 1019 30 10000 0.45 340 16:45 12.11.2020
5571 Clouds 3 1018 38 10000 0.45 2 16:23 12.11.2020
5572 Clouds 3 1018 38 10000 0.45 12 15:52 12.11.2020
5573 Clouds 3 1018 35 10000 0.45 10 15:28 12.11.2020
5574 Clouds 3 1018 34 10000 0.27 26 14:56 12.11.2020
5575 Clouds 3 1017 34 10000 0.27 26 14:37 12.11.2020
5576 Clouds 10 1016 48 10000 0.28 358 14:18 12.11.2020
5577 Clouds 10 1016 48 10000 0.28 358 13:45 12.11.2020
5578 Clouds 10 1016 45 10000 0.5 3 13:19 12.11.2020
5579 Clouds 10 1016 45 10000 0.5 3 12:48 12.11.2020
5580 Clouds 3 1017 35 10000 0.73 354 12:25 12.11.2020
5581 Clouds 3 1018 35 10000 0.73 354 11:57 12.11.2020
5582 Clouds 3 1018 35 10000 0.45 128 11:39 12.11.2020
5583 Clouds 3 1018 35 10000 0.91 356 10:54 12.11.2020
5584 Clouds 3 1019 35 10000 0.91 356 10:35 12.11.2020
5585 Clouds 3 1018 35 10000 0.62 1 09:58 12.11.2020
5586 Clouds 3 1018 34 10000 0.62 1 09:38 12.11.2020
5587 Clouds 3 1018 34 10000 0.68 28 09:18 12.11.2020
5588 Clouds 4 1018 31 10000 0.68 28 08:40 12.11.2020
5589 Clouds 4 1018 31 10000 0.73 350 08:20 12.11.2020
5590 Clouds 5 1019 31 10000 0.73 350 07:55 12.11.2020
5591 Clouds 5 1019 32 10000 0.73 350 07:36 12.11.2020
5592 Clouds 5 1018 30 10000 0.45 329 06:52 12.11.2020
5593 Clouds 5 1018 30 10000 0.78 179 06:27 12.11.2020
5594 Clouds 6 1018 28 10000 0.6 127 03:50 12.11.2020
5595 Clouds 6 1018 28 10000 0.62 142 03:20 12.11.2020
5596 Clouds 11 1017 23 10000 1.34 50 00:45 12.11.2020
5597 Clouds 12 1017 21 10000 2.24 25 23:46 11.11.2020
5598 Clouds 12 1017 21 10000 2.24 64 23:25 11.11.2020
5599 Clouds 13 1017 19 10000 2.24 45 22:56 11.11.2020
5600 Clouds 13 1017 19 10000 2.24 45 22:38 11.11.2020
5601 Clouds 14 1017 18 10000 2.24 35 22:18 11.11.2020
5602 Clouds 21 1013 22 10000 0.8 139 21:41 11.11.2020
5603 Clouds 20 1014 22 10000 0.99 141 21:21 11.11.2020
5604 Clouds 20 1014 22 10000 0.99 141 20:55 11.11.2020
5605 Clouds 14 1018 19 10000 1.79 81 20:36 11.11.2020
5606 Clouds 20 1015 23 10000 1.03 136 20:18 11.11.2020
5607 Clouds 20 1015 23 10000 1.03 136 19:46 11.11.2020
5608 Clear 19 1016 25 10000 1.03 158 19:28 11.11.2020
5609 Clear 12 1020 22 10000 0.89 69 18:47 11.11.2020
5610 Clouds 17 1017 27 10000 0.32 75 18:27 11.11.2020
5611 Clouds 9 1020 27 10000 0.45 334 17:41 11.11.2020
5612 Clear 8 1020 27 10000 0.89 324 17:22 11.11.2020
5613 Clear 6 1020 32 10000 1.34 308 16:47 11.11.2020
5614 Clear 2 1020 39 10000 2.24 331 16:28 11.11.2020
5615 Clear 0 1020 43 10000 0.45 324 15:47 11.11.2020
5616 Clear -3 1020 50 10000 0.45 337 15:26 11.11.2020
5617 Clear -3 1019 46 10000 0.28 51 14:52 11.11.2020
5618 Clear -2 1019 46 10000 0.28 51 14:33 11.11.2020
5619 Clear -1 1019 40 10000 0.44 48 13:55 11.11.2020
5620 Clear 0 1019 42 10000 0.89 339 13:33 11.11.2020
5621 Clouds 1 1020 41 10000 0.89 327 12:42 11.11.2020
5622 Clouds -1 1020 43 10000 0.45 355 12:20 11.11.2020
5623 Clouds 0 1020 38 10000 0.62 2 11:49 11.11.2020
5624 Clouds 0 1020 39 10000 0.23 52 11:29 11.11.2020
5625 Clouds -1 1021 42 10000 0.23 52 10:42 11.11.2020
5626 Clouds -1 1021 42 10000 0.51 163 10:22 11.11.2020
5627 Clouds -1 1021 42 10000 0.51 163 09:46 11.11.2020
5628 Clouds -1 1021 41 10000 0.6 158 09:28 11.11.2020
5629 Clouds 9 1017 48 10000 0.6 158 08:46 11.11.2020
5630 Clouds 10 1017 48 10000 0.55 177 08:28 11.11.2020
5631 Clouds 10 1017 48 10000 0.55 177 07:52 11.11.2020
5632 Clouds 10 1017 48 10000 0.55 177 07:32 11.11.2020
5633 Clouds -1 1022 39 10000 0.69 161 06:28 11.11.2020
5634 Clouds 2 1022 34 10000 1.15 164 04:32 11.11.2020
5635 Clouds 12 1017 36 10000 1.51 203 01:32 11.11.2020
5636 Clear 18 1017 24 10000 0.94 173 00:36 11.11.2020
5637 Clear 19 1017 22 10000 0.45 135 23:56 10.11.2020
5638 Clear 19 1017 22 10000 0.39 37 23:24 10.11.2020
5639 Clear 19 1017 22 10000 0.39 37 22:57 10.11.2020
5640 Clear 18 1018 23 10000 0.99 29 22:28 10.11.2020
5641 Clear 18 1018 23 10000 0.99 29 21:56 10.11.2020
5642 Clear 18 1018 23 10000 0.99 29 21:38 10.11.2020
5643 Clear 18 1019 24 10000 1.55 12 21:19 10.11.2020
5644 Clear 18 1019 24 10000 1.55 12 20:42 10.11.2020
5645 Clear 17 1021 25 10000 1.91 7 20:23 10.11.2020
5646 Clear 17 1021 25 10000 1.91 7 19:56 10.11.2020
5647 Clear 17 1021 25 10000 1.91 7 19:37 10.11.2020
5648 Clear 16 1022 27 10000 2.55 0 19:18 10.11.2020
5649 Clear 9 1026 23 10000 1.34 67 18:41 10.11.2020
5650 Clear 15 1024 30 10000 2.4 359 18:20 10.11.2020
5651 Clear 5 1026 30 10000 2.4 359 17:44 10.11.2020
5652 Clear 5 1026 30 10000 1.95 9 17:26 10.11.2020
5653 Clear 1 1026 38 10000 0.45 322 16:58 10.11.2020
5654 Clear 13 1024 32 10000 1.95 9 16:38 10.11.2020
5655 Clear -3 1026 45 10000 0.86 0 16:20 10.11.2020
5656 Clear -2 1025 41 10000 0.86 0 15:47 10.11.2020
5657 Clear 6 1023 60 10000 1.16 346 15:27 10.11.2020
5658 Clear 6 1023 60 10000 1.16 346 14:43 10.11.2020
5659 Clear 6 1022 60 10000 1.01 356 14:23 10.11.2020
5660 Clear -2 1026 42 10000 0.45 308 13:58 10.11.2020
5661 Clear -2 1026 41 10000 0.89 308 13:37 10.11.2020
5662 Clouds 6 1022 60 10000 0.8 347 13:19 10.11.2020
5663 Clouds -2 1025 43 10000 1.34 316 12:44 10.11.2020
5664 Clouds -4 1026 50 10000 0.89 336 12:24 10.11.2020
5665 Clouds -6 1025 52 10000 0.65 2 11:41 10.11.2020
5666 Clouds -6 1025 51 10000 0.43 0 11:21 10.11.2020
5667 Clouds -6 1025 49 10000 0.43 0 10:56 10.11.2020
5668 Clouds -6 1025 47 10000 0.45 14 10:36 10.11.2020
5669 Clouds -6 1025 47 10000 0.47 345 10:18 10.11.2020
5670 Clouds -6 1025 48 10000 0.47 345 09:41 10.11.2020
5671 Clouds 7 1022 54 10000 0.93 348 09:23 10.11.2020
5672 Clouds -5 1025 48 10000 0.93 348 08:52 10.11.2020
5673 Clear -6 1025 49 10000 0.37 337 08:26 10.11.2020
5674 Clear -4 1025 45 10000 0.37 337 07:44 10.11.2020
5675 Clear -4 1025 44 10000 0.19 222 07:21 10.11.2020
5676 Clear -3 1025 43 10000 0.14 245 06:40 10.11.2020
5677 Clear -2 1025 38 10000 0.39 120 05:41 10.11.2020
5678 Clear 7 1021 51 10000 0.38 148 04:54 10.11.2020
5679 Clear 3 1022 30 10000 0.89 45 02:28 10.11.2020
5680 Clear 15 1018 28 10000 0.22 52 01:29 10.11.2020
5681 Clear 16 1018 27 10000 0.56 72 23:54 09.11.2020
5682 Clear 16 1018 27 10000 0.56 72 23:30 09.11.2020
5683 Clear 16 1017 27 10000 0.64 46 22:47 09.11.2020
5684 Clear 16 1018 28 10000 0.83 49 22:24 09.11.2020
5685 Clear 8 1021 22 10000 0.45 239 21:46 09.11.2020
5686 Clear 15 1018 29 10000 1.17 29 21:27 09.11.2020
5687 Clear 15 1018 29 10000 1.17 29 21:27 09.11.2020
5688 Clear 15 1018 29 10000 1.17 29 20:58 09.11.2020
5689 Clear 7 1021 25 10000 0.45 294 20:36 09.11.2020
5690 Clear 6 1021 26 10000 1.34 302 20:18 09.11.2020
5691 Clear 14 1019 31 10000 1.52 5 19:40 09.11.2020
5692 Clear 13 1019 34 10000 2.2 1 19:21 09.11.2020
5693 Clear 3 1021 35 10000 1.79 305 18:41 09.11.2020
5694 Clear 3 1021 37 10000 1.79 245 18:20 09.11.2020
5695 Clear 2 1020 38 10000 2.24 255 17:52 09.11.2020
5696 Clear 1 1020 41 10000 2.68 255 17:31 09.11.2020
5697 Clear -1 1020 50 10000 2.24 272 16:46 09.11.2020
5698 Clear -3 1019 58 10000 0.89 291 16:28 09.11.2020
5699 Clear -4 1018 60 10000 0.89 281 15:56 09.11.2020
5700 Clear -3 1018 59 10000 0.45 292 15:38 09.11.2020
5701 Clear -4 1018 60 10000 1.34 283 15:20 09.11.2020
5702 Clear -4 1018 59 10000 2.68 319 14:41 09.11.2020
5703 Clear -4 1017 59 10000 1.79 316 14:23 09.11.2020
5704 Clear -4 1017 59 10000 2.24 326 13:43 09.11.2020
5705 Clouds -4 1017 59 10000 1.34 318 13:20 09.11.2020
5706 Clear -3 1016 57 10000 2.68 357 12:47 09.11.2020
5707 Clear -3 1016 56 10000 1.79 317 12:21 09.11.2020
5708 Clear -3 1015 56 10000 2.24 328 11:56 09.11.2020
5709 Clear -3 1015 56 10000 1.34 354 11:37 09.11.2020
5710 Clear -3 1015 55 10000 0.89 332 11:18 09.11.2020
5711 Clear -3 1015 54 10000 3.13 329 10:42 09.11.2020
5712 Clear -3 1014 54 10000 2.68 333 10:23 09.11.2020
5713 Clear -3 1014 54 10000 3.58 339 09:41 09.11.2020
5714 Clear -3 1014 53 10000 1.79 322 09:23 09.11.2020
5715 Clear -3 1013 53 10000 1.79 304 08:38 09.11.2020
5716 Clouds -3 1013 53 10000 4.02 327 08:19 09.11.2020
5717 Clouds -2 1012 53 10000 3.13 324 07:38 09.11.2020
5718 Clouds -2 1012 52 10000 3.13 340 07:18 09.11.2020
5719 Clouds -2 1012 54 10000 1.79 316 06:23 09.11.2020
5720 Clouds 1 1008 55 10000 4.47 345 03:19 09.11.2020
5721 Clouds 11 1004 41 10000 1.66 345 01:43 09.11.2020
5722 Clouds 16 1002 30 10000 0.97 253 00:58 09.11.2020
5723 Clouds 7 1002 25 10000 3.13 254 23:51 08.11.2020
5724 Clouds 8 1002 24 10000 3.13 256 23:29 08.11.2020
5725 Clouds 8 1001 21 10000 3.13 260 22:46 08.11.2020
5726 Clouds 7 1002 23 10000 3.58 249 22:23 08.11.2020
5727 Clouds 6 1002 24 10000 2.24 212 21:55 08.11.2020
5728 Clouds 8 1002 24 10000 3.13 229 21:37 08.11.2020
5729 Clouds 8 1002 26 10000 3.58 211 21:18 08.11.2020
5730 Clouds 8 1002 23 10000 1.79 226 20:39 08.11.2020
5731 Clouds 8 1002 23 10000 1.79 226 20:39 08.11.2020
5732 Clouds 8 1002 23 10000 1.79 226 20:39 08.11.2020
5733 Clouds 14 1004 36 10000 0.97 234 20:20 08.11.2020
5734 Clouds 14 1004 36 10000 0.97 234 20:20 08.11.2020
5735 Clouds 14 1004 36 10000 0.97 234 19:56 08.11.2020
5736 Clouds 8 1003 29 10000 2.24 212 19:37 08.11.2020
5737 Clouds 13 1004 41 10000 2.26 188 19:19 08.11.2020
5738 Clear 13 1004 40 10000 1.16 250 18:45 08.11.2020
5739 Clear 12 1005 42 10000 1.96 192 18:21 08.11.2020
5740 Clear 5 1003 41 10000 2.68 218 17:57 08.11.2020
5741 Clear 4 1003 54 10000 1.96 192 17:37 08.11.2020
5742 Clear 11 1005 46 10000 1.79 162 17:19 08.11.2020
5743 Clear 1 1003 72 10000 1.34 50 16:48 08.11.2020
5744 Clear -2 1004 79 10000 0.45 212 16:21 08.11.2020
5745 Clear -2 1004 82 10000 2.24 1 15:57 08.11.2020
5746 Clear -2 1004 78 10000 0.45 324 15:38 08.11.2020
5747 Clear -2 1004 79 10000 1.34 20 15:20 08.11.2020
5748 Clear -3 1004 78 10000 0.89 289 14:40 08.11.2020
5749 Clear -3 1004 80 10000 0.89 247 14:21 08.11.2020
5750 Clear -3 1004 80 10000 0.45 224 13:45 08.11.2020
5751 Clear -4 1003 83 10000 1.57 157 13:22 08.11.2020
5752 Clouds -4 1004 85 10000 0.45 25 12:43 08.11.2020
5753 Clouds -4 1004 82 10000 1.49 160 12:25 08.11.2020
5754 Clouds -4 1004 87 10000 0.89 26 11:58 08.11.2020
5755 Clouds -4 1004 86 10000 1.49 160 11:39 08.11.2020
5756 Clouds -4 1004 88 10000 1.77 155 11:20 08.11.2020
5757 Clouds -4 1004 84 10000 1.77 155 10:49 08.11.2020
5758 Clouds -4 1004 80 10000 2.08 158 10:18 08.11.2020
5759 Clouds -2 1004 77 10000 2.08 158 09:44 08.11.2020
5760 Clouds -2 1004 76 10000 2.72 164 09:24 08.11.2020
5761 Clouds -1 1003 78 10000 0.89 20 08:58 08.11.2020
5762 Clouds -1 1003 78 10000 0.45 334 08:39 08.11.2020
5763 Clear -2 1003 81 10000 0.89 11 08:18 08.11.2020
5764 Clear -1 1003 77 10000 3.74 164 07:51 08.11.2020
5765 Clear 0 1002 76 10000 0.89 9 07:21 08.11.2020
5766 Clear 1 1002 71 10000 1.34 25 05:56 08.11.2020
5767 Clear 1 1002 68 10000 0.89 25 05:31 08.11.2020
5768 Clear 2 1002 67 10000 1.34 130 04:18 08.11.2020
5769 Clear 4 1000 55 10000 1.34 119 01:50 08.11.2020
5770 Clouds 7 1000 44 10000 1.34 205 01:18 08.11.2020
5771 Clouds 8 999 41 10000 0.89 75 00:27 08.11.2020
5772 Clouds 8 999 41 10000 0.89 75 00:27 08.11.2020
5773 Clouds 8 999 38 10000 1.79 10 23:46 07.11.2020
5774 Clouds 18 1000 30 10000 2.46 177 23:28 07.11.2020
5775 Rain 18 1000 30 10000 2.46 177 22:43 07.11.2020
5776 Clouds 18 1001 29 10000 2.82 178 22:25 07.11.2020
5777 Clouds 18 1001 29 10000 2.82 178 21:46 07.11.2020
5778 Clouds 17 1002 29 10000 2.31 201 21:23 07.11.2020
5779 Clouds 17 1002 29 10000 2.31 201 20:55 07.11.2020
5780 Clouds 8 999 38 10000 0.89 173 20:37 07.11.2020
5781 Clouds 8 999 38 10000 0.89 150 20:19 07.11.2020
5782 Clouds 8 999 40 10000 1.79 34 19:43 07.11.2020
5783 Clear 18 1003 28 10000 3.06 196 19:24 07.11.2020
5784 Clear 7 999 34 10000 0.45 181 18:40 07.11.2020
5785 Clear 6 998 37 10000 1.79 201 18:22 07.11.2020
5786 Clear 6 998 39 10000 1.79 231 17:46 07.11.2020
5787 Clear 15 1004 34 10000 4.39 184 17:27 07.11.2020
5788 Clear 15 1004 34 10000 4.39 184 17:27 07.11.2020
5789 Clear 3 997 47 10000 3.58 109 16:45 07.11.2020
5790 Clear 13 1003 38 10000 5.54 182 16:25 07.11.2020
5791 Clear 2 996 43 10000 0.45 194 15:51 07.11.2020
5792 Clear 13 1002 39 10000 6 179 15:25 07.11.2020
5793 Clear 13 1002 39 10000 6 179 14:59 07.11.2020
5794 Clear 13 1002 39 10000 6 179 14:41 07.11.2020
5795 Clear 13 1002 38 10000 7.09 179 14:20 07.11.2020
5796 Clear 13 1002 38 10000 7.09 179 13:43 07.11.2020
5797 Clouds 3 994 36 10000 3.58 268 13:23 07.11.2020
5798 Clouds 3 994 37 10000 3.58 218 12:37 07.11.2020
5799 Clouds 15 1001 34 10000 7.55 181 11:54 07.11.2020
5800 Clouds 15 1001 34 10000 7.55 181 11:36 07.11.2020
5801 Clouds 5 994 50 10000 3.58 171 11:18 07.11.2020
5802 Clouds 5 994 52 10000 2.24 203 10:42 07.11.2020
5803 Clouds 6 994 51 10000 2.24 190 10:23 07.11.2020
5804 Clouds 18 999 35 10000 7.37 180 09:48 07.11.2020
5805 Clouds 8 993 44 10000 3.58 258 09:23 07.11.2020
5806 Clouds 19 999 42 10000 7.51 178 08:49 07.11.2020
5807 Clouds 8 994 46 10000 4.47 168 08:30 07.11.2020
5808 Clouds 9 994 48 10000 4.92 191 07:48 07.11.2020
5809 Clouds 9 994 64 10000 4.47 220 06:55 07.11.2020
5810 Clouds 10 994 58 10000 4.47 205 05:55 07.11.2020
5811 Clouds 22 996 31 10000 7.29 180 04:32 07.11.2020
5812 Clouds 16 994 27 10000 4.92 247 02:53 07.11.2020
5813 Clouds 18 995 20 10000 3.13 213 01:28 07.11.2020
5814 Clouds 18 995 20 10000 3.13 213 01:28 07.11.2020
5815 Clouds 19 995 16 10000 4.02 239 00:39 07.11.2020
5816 Clouds 21 995 14 10000 4.47 223 23:45 06.11.2020
5817 Clouds 21 996 12 10000 3.58 237 23:19 06.11.2020
5818 Clouds 22 996 10 10000 4.47 174 22:40 06.11.2020
5819 Clouds 22 996 10 10000 5.81 241 22:19 06.11.2020
5820 Clouds 22 997 11 10000 4.47 211 21:43 06.11.2020
5821 Clouds 22 997 12 10000 4.92 193 21:21 06.11.2020
5822 Clouds 22 997 12 10000 4.92 193 21:21 06.11.2020
5823 Clouds 22 998 12 10000 3.58 187 20:51 06.11.2020
5824 Clouds 22 999 13 10000 4.02 242 20:20 06.11.2020
5825 Clouds 22 999 13 10000 4.02 189 19:55 06.11.2020
5826 Clouds 22 999 13 10000 4.92 206 19:37 06.11.2020
5827 Clouds 22 999 13 10000 3.58 182 19:19 06.11.2020
5828 Clouds 19 1000 17 10000 2.24 176 18:44 06.11.2020
5829 Clouds 18 1000 20 10000 6.52 183 18:22 06.11.2020
5830 Clouds 17 1001 21 10000 0.45 245 17:50 06.11.2020
5831 Clouds 16 1001 23 10000 0.89 250 17:25 06.11.2020
5832 Clouds 16 1001 23 10000 0.89 206 16:49 06.11.2020
5833 Clouds 16 1001 23 10000 2.68 212 16:27 06.11.2020
5834 Clouds 16 1002 23 10000 2.24 206 15:49 06.11.2020
5835 Clouds 16 1002 23 10000 1.79 178 15:28 06.11.2020
5836 Clouds 16 1002 22 10000 1.34 214 14:53 06.11.2020
5837 Clouds 16 1003 23 10000 2.24 197 14:26 06.11.2020
5838 Clouds 16 1003 24 10000 1.79 182 13:45 06.11.2020
5839 Clouds 15 1003 24 10000 0.45 212 13:24 06.11.2020
5840 Clouds 15 1004 24 10000 3.2 174 12:46 06.11.2020
5841 Clouds 16 1004 23 10000 2.7 169 12:23 06.11.2020
5842 Clouds 16 1004 23 10000 1.79 240 11:55 06.11.2020
5843 Clouds 14 1005 25 10000 0.45 19 11:35 06.11.2020
5844 Clouds 12 1006 28 10000 0.89 18 10:46 06.11.2020
5845 Clouds 12 1007 27 10000 1.9 178 10:25 06.11.2020
5846 Clouds 13 1007 26 10000 1.9 178 09:49 06.11.2020
5847 Clouds 14 1008 25 10000 1.81 173 09:22 06.11.2020
5848 Clouds 14 1008 25 10000 1.81 173 08:51 06.11.2020
5849 Clouds 14 1008 25 10000 1.71 171 08:29 06.11.2020
5850 Clouds 14 1008 25 10000 1.71 171 08:29 06.11.2020
5851 Clouds 14 1009 25 10000 1.71 171 07:54 06.11.2020
5852 Clouds 14 1009 24 10000 1.71 171 07:34 06.11.2020
5853 Clouds 14 1010 25 10000 1.42 170 06:59 06.11.2020
5854 Clouds 14 1010 25 10000 1.39 179 06:24 06.11.2020
5855 Clouds 14 1011 25 10000 1.39 179 05:36 06.11.2020
5856 Clouds 22 1013 14 10000 0.45 18 01:23 06.11.2020
5857 Clouds 25 1013 12 10000 0.89 18 00:23 06.11.2020
5858 Clouds 25 1014 12 10000 1.34 36 23:39 05.11.2020
5859 Clouds 34 1016 10 10000 0.57 157 22:59 05.11.2020
5860 Clouds 34 1016 10 10000 0.57 157 22:41 05.11.2020
5861 Clouds 34 1017 10 10000 0.53 52 22:22 05.11.2020
5862 Clouds 34 1017 10 10000 0.53 52 21:44 05.11.2020
5863 Clouds 34 1018 10 10000 1.44 29 21:23 05.11.2020
5864 Clouds 34 1018 10 10000 1.44 29 20:58 05.11.2020
5865 Clouds 34 1018 10 10000 1.44 29 20:39 05.11.2020
5866 Clouds 33 1020 11 10000 2.26 20 20:21 05.11.2020
5867 Clouds 33 1020 11 10000 2.26 20 19:43 05.11.2020
5868 Clear 32 1021 11 10000 2.7 11 19:25 05.11.2020
5869 Clear 32 1021 11 10000 2.09 9 18:50 05.11.2020
5870 Clear 32 1021 11 10000 2.09 9 18:32 05.11.2020
5871 Clear 31 1022 12 10000 2.32 8 17:56 05.11.2020
5872 Clear 31 1022 12 10000 2.32 8 17:38 05.11.2020
5873 Clear 29 1023 13 10000 2.11 3 17:20 05.11.2020
5874 Clear 16 1020 20 10000 0.89 333 16:43 05.11.2020
5875 Clear 13 1020 24 10000 1.65 347 16:22 05.11.2020
5876 Clear 15 1020 20 10000 1.65 347 15:50 05.11.2020
5877 Clear 20 1023 29 10000 1.49 348 15:26 05.11.2020
5878 Clear 20 1023 29 10000 1.49 348 14:49 05.11.2020
5879 Clear 20 1023 29 10000 1.49 348 14:31 05.11.2020
5880 Clear 20 1023 29 10000 1.45 353 13:51 05.11.2020
5881 Clear 20 1023 29 10000 1.45 353 13:33 05.11.2020
5882 Clear 21 1023 27 10000 1.43 351 12:54 05.11.2020
5883 Clear 20 1023 28 10000 1.31 354 12:30 05.11.2020
5884 Clear 21 1023 27 10000 1.57 348 11:58 05.11.2020
5885 Clear 21 1023 27 10000 1.57 348 11:39 05.11.2020
5886 Clear 21 1023 30 10000 1.43 355 11:21 05.11.2020
5887 Clear 21 1023 30 10000 1.43 355 10:47 05.11.2020
5888 Clear 21 1023 31 10000 1.3 351 10:26 05.11.2020
5889 Clear 21 1023 31 10000 1.3 351 09:48 05.11.2020
5890 Clear 21 1023 36 10000 1.03 333 09:24 05.11.2020
5891 Clear 21 1023 36 10000 1.03 333 09:24 05.11.2020
5892 Clear 21 1023 36 10000 1.03 333 08:48 05.11.2020
5893 Clear 21 1023 36 10000 1.04 354 08:29 05.11.2020
5894 Clear 21 1023 36 10000 1.04 354 07:46 05.11.2020
5895 Clear 22 1023 40 10000 0.9 354 07:27 05.11.2020
5896 Clear 21 1023 41 10000 0.62 356 06:42 05.11.2020
5897 Clear 22 1023 41 10000 0.43 337 05:55 05.11.2020
5898 Clear 23 1020 20 10000 0.71 313 01:42 05.11.2020
5899 Clear 32 1020 12 10000 0.63 350 00:35 05.11.2020
5900 Clear 34 1019 10 10000 0.92 19 23:47 04.11.2020
5901 Clear 34 1019 10 10000 0.93 32 23:27 04.11.2020
5902 Clear 34 1019 10 10000 0.93 32 22:57 04.11.2020
5903 Clear 34 1019 10 10000 0.93 32 22:37 04.11.2020
5904 Clear 34 1019 11 10000 0.96 37 22:19 04.11.2020
5905 Clear 34 1019 11 10000 0.96 37 21:43 04.11.2020
5906 Clear 34 1020 11 10000 1.02 32 21:25 04.11.2020
5907 Clear 34 1020 11 10000 1.02 32 20:46 04.11.2020
5908 Clear 33 1021 12 10000 1.12 26 20:28 04.11.2020
5909 Clear 33 1021 12 10000 1.12 26 19:55 04.11.2020
5910 Clear 33 1021 12 10000 1.12 26 19:37 04.11.2020
5911 Clear 32 1022 12 10000 1.16 24 19:19 04.11.2020
5912 Clear 24 1021 16 10000 1.34 302 18:39 04.11.2020
5913 Clear 31 1022 13 10000 0.98 18 18:21 04.11.2020
5914 Clear 21 1022 19 10000 2.68 345 17:46 04.11.2020
5915 Clear 19 1022 20 10000 3.13 345 17:25 04.11.2020
5916 Clear 17 1021 24 10000 1.79 317 16:45 04.11.2020
5917 Clear 22 1021 22 10000 0.54 355 16:25 04.11.2020
5918 Clear 22 1021 22 10000 0.54 355 15:55 04.11.2020
5919 Clear 22 1021 22 10000 0.54 355 15:37 04.11.2020
5920 Clear 18 1020 44 10000 0.45 333 15:18 04.11.2020
5921 Clear 18 1020 44 10000 0.45 333 14:42 04.11.2020
5922 Clear 19 1020 44 10000 0.17 239 14:24 04.11.2020
5923 Clear 19 1020 44 10000 0.17 239 13:50 04.11.2020
5924 Clear 19 1019 43 10000 0.13 169 13:21 04.11.2020
5925 Clear 19 1019 43 10000 0.13 169 12:57 04.11.2020
5926 Clear 19 1019 43 10000 0.3 346 12:39 04.11.2020
5927 Clear 19 1019 43 10000 0.14 26 12:21 04.11.2020
5928 Clear 19 1019 43 10000 0.14 26 11:44 04.11.2020
5929 Clear 12 1019 34 10000 0.89 315 11:21 04.11.2020
5930 Clear 12 1019 33 10000 0.51 356 10:48 04.11.2020
5931 Clear 9 1019 39 10000 0.82 349 10:23 04.11.2020
5932 Clear 9 1019 41 10000 0.82 349 09:55 04.11.2020
5933 Clear 8 1019 44 10000 0.5 335 09:28 04.11.2020
5934 Clear 8 1019 40 10000 0.5 335 08:48 04.11.2020
5935 Clear 9 1019 38 10000 0.19 260 08:23 04.11.2020
5936 Clear 9 1019 38 10000 0.19 260 07:57 04.11.2020
5937 Clear 9 1019 38 10000 0.45 2 07:31 04.11.2020
5938 Clear 11 1018 35 10000 0.23 218 06:59 04.11.2020
5939 Clear 11 1018 34 10000 0.23 218 06:39 04.11.2020
5940 Clear 12 1017 32 10000 0.65 223 04:59 04.11.2020
5941 Clear 23 1016 24 10000 0.81 226 02:31 04.11.2020
5942 Clear 24 1015 20 10000 0.55 207 01:38 04.11.2020
5943 Clear 34 1014 11 10000 0.74 135 23:59 03.11.2020
5944 Clear 34 1014 11 10000 0.9 136 23:26 03.11.2020
5945 Clear 34 1014 11 10000 0.9 136 22:57 03.11.2020
5946 Clear 34 1014 11 10000 0.9 136 22:38 03.11.2020
5947 Clear 34 1014 11 10000 0.58 124 22:19 03.11.2020
5948 Clear 34 1014 11 10000 0.58 124 21:43 03.11.2020
5949 Clear 33 1015 11 10000 0.52 62 21:24 03.11.2020
5950 Clear 33 1015 11 10000 0.52 62 21:24 03.11.2020
5951 Clear 33 1015 11 10000 0.52 62 20:49 03.11.2020
5952 Clear 32 1016 12 10000 0.76 36 20:27 03.11.2020
5953 Clear 32 1016 12 10000 0.76 36 19:57 03.11.2020
5954 Clear 32 1016 12 10000 0.76 36 19:38 03.11.2020
5955 Clouds 31 1017 12 10000 1.01 18 19:19 03.11.2020
5956 Clouds 31 1017 12 10000 1.01 18 18:41 03.11.2020
5957 Clouds 30 1017 13 10000 0.88 19 18:19 03.11.2020
5958 Clouds 22 1017 20 10000 0.89 274 17:47 03.11.2020
5959 Clouds 29 1017 14 10000 0.1 83 17:29 03.11.2020
5960 Clouds 17 1017 29 10000 0.45 316 16:51 03.11.2020
5961 Clouds 13 1017 35 10000 0.1 83 16:31 03.11.2020
5962 Clouds 11 1016 37 10000 0.39 182 15:58 03.11.2020
5963 Clouds 9 1016 43 10000 0.45 333 15:40 03.11.2020
5964 Clouds 8 1016 46 10000 0.12 300 15:19 03.11.2020
5965 Clouds 10 1016 42 10000 0.12 300 14:43 03.11.2020
5966 Clouds 11 1016 40 10000 0.46 29 14:25 03.11.2020
5967 Clouds 8 1016 45 10000 0.46 29 13:42 03.11.2020
5968 Clouds 8 1016 48 10000 0.29 17 13:21 03.11.2020
5969 Clouds 7 1016 44 10000 0.29 17 12:47 03.11.2020
5970 Clouds 8 1016 43 10000 0.2 326 12:26 03.11.2020
5971 Clouds 8 1016 42 10000 0.2 326 11:55 03.11.2020
5972 Clouds 8 1016 41 10000 0.2 326 11:36 03.11.2020
5973 Clear 8 1017 41 10000 0.06 214 11:18 03.11.2020
5974 Clear 9 1017 38 10000 0.06 214 10:38 03.11.2020
5975 Clear 9 1017 39 10000 0.16 161 10:19 03.11.2020
5976 Clear 9 1017 37 10000 0.16 161 09:47 03.11.2020
5977 Clear 9 1017 36 10000 0.39 152 09:26 03.11.2020
5978 Clear 10 1017 33 10000 0.39 152 08:51 03.11.2020
5979 Clear 11 1017 32 10000 0.39 152 08:33 03.11.2020
5980 Clear 10 1017 30 10000 0.51 170 07:48 03.11.2020
5981 Clear 10 1018 27 10000 0.26 183 07:22 03.11.2020
5982 Clear 9 1017 26 10000 0.24 211 06:43 03.11.2020
5983 Clear 12 1017 21 10000 0.39 262 04:40 03.11.2020
5984 Clouds 25 1017 10 10000 1.34 17 00:46 03.11.2020
5985 Clouds 26 1017 8 10000 2.24 16 00:25 03.11.2020
5986 Clouds 26 1017 9 10000 1.34 9 23:47 02.11.2020
5987 Clouds 34 1016 10 10000 0.53 125 23:28 02.11.2020
5988 Clouds 34 1016 10 10000 0.53 125 22:48 02.11.2020
5989 Clouds 34 1016 10 10000 0.53 125 22:30 02.11.2020
5990 Clouds 34 1017 10 10000 0.59 51 21:58 02.11.2020
5991 Clouds 34 1017 10 10000 0.59 51 21:37 02.11.2020
5992 Clouds 34 1019 10 10000 1.21 25 21:19 02.11.2020
5993 Clouds 34 1019 10 10000 1.21 25 20:39 02.11.2020
5994 Clouds 33 1020 10 10000 2.02 19 20:20 02.11.2020
5995 Clouds 33 1020 10 10000 2.02 19 19:45 02.11.2020
5996 Clear 32 1021 11 10000 2.54 17 19:27 02.11.2020
5997 Clear 32 1021 11 10000 2.54 17 18:55 02.11.2020
5998 Clouds 32 1021 11 10000 2.24 15 18:37 02.11.2020
5999 Clouds 31 1022 11 10000 2.26 17 18:19 02.11.2020
6000 Clouds 23 1021 10 10000 1.34 271 17:40 02.11.2020
6001 Clouds 21 1021 11 10000 1.79 337 17:21 02.11.2020
6002 Clouds 16 1020 16 10000 1.79 19 16:49 02.11.2020
6003 Clear 13 1020 19 10000 1.72 358 16:29 02.11.2020
6004 Clear 13 1020 18 10000 1.72 358 15:57 02.11.2020
6005 Clear 14 1020 17 10000 0.45 233 15:38 02.11.2020
6006 Clear 21 1022 23 10000 1.48 357 15:19 02.11.2020
6007 Clear 12 1020 19 10000 0.45 314 14:43 02.11.2020
6008 Clear 9 1021 22 10000 0.45 308 14:19 02.11.2020
6009 Clear 9 1021 22 10000 1.49 2 13:48 02.11.2020
6010 Clouds 10 1020 21 10000 1.32 4 13:22 02.11.2020
6011 Clouds 11 1020 20 10000 1.32 4 12:51 02.11.2020
6012 Clouds 11 1020 20 10000 0.98 6 12:28 02.11.2020
6013 Clouds 11 1020 19 10000 0.98 6 11:46 02.11.2020
6014 Clouds 12 1021 19 10000 0.89 8 11:21 02.11.2020
6015 Clouds 11 1021 20 10000 0.89 8 10:48 02.11.2020
6016 Clouds 11 1021 19 10000 0.8 5 10:26 02.11.2020
6017 Clouds 11 1021 19 10000 0.8 5 09:56 02.11.2020
6018 Clouds 11 1021 19 10000 0.8 5 09:30 02.11.2020
6019 Clouds 11 1021 19 10000 0.8 5 09:30 02.11.2020
6020 Clouds 12 1021 18 10000 0.93 9 08:59 02.11.2020
6021 Clouds 12 1021 17 10000 0.93 9 08:39 02.11.2020
6022 Clouds 12 1021 18 10000 1.07 354 08:19 02.11.2020
6023 Clouds 12 1021 17 10000 1.07 354 07:42 02.11.2020
6024 Clouds 12 1021 17 10000 0.93 347 06:46 02.11.2020
6025 Clear 13 1021 16 10000 0.71 347 06:22 02.11.2020
6026 Clear 23 1020 17 10000 0.73 329 01:35 02.11.2020
6027 Clouds 23 1020 8 10000 1.79 25 00:42 02.11.2020
6028 Clouds 23 1020 8 10000 1.34 45 00:23 02.11.2020
6029 Clouds 26 1020 6 10000 1.79 1 23:40 01.11.2020
6030 Clouds 26 1020 6 10000 2.68 23 23:21 01.11.2020
6031 Clouds 34 1020 9 10000 0.72 103 22:45 01.11.2020
6032 Clouds 27 1020 5 10000 1.79 40 22:23 01.11.2020
6033 Clouds 34 1020 9 10000 0.88 46 21:46 01.11.2020
6034 Clouds 33 1021 9 10000 1.07 33 21:27 01.11.2020
6035 Clouds 33 1021 9 10000 1.07 33 20:52 01.11.2020
6036 Clouds 33 1021 9 10000 1.07 33 20:30 01.11.2020
6037 Clouds 32 1023 9 10000 0.96 60 19:59 01.11.2020
6038 Clouds 32 1023 9 10000 0.96 60 19:41 01.11.2020
6039 Clouds 32 1023 10 10000 1.67 30 19:21 01.11.2020
6040 Clouds 32 1023 10 10000 1.67 30 18:41 01.11.2020
6041 Clouds 30 1024 10 10000 1.72 15 18:19 01.11.2020
6042 Clouds 30 1024 10 10000 1.72 15 18:19 01.11.2020
6043 Clouds 30 1024 10 10000 1.72 15 17:57 01.11.2020
6044 Clouds 23 1023 6 10000 1.34 328 17:37 01.11.2020
6045 Clouds 21 1023 7 10000 0.89 306 17:19 01.11.2020
6046 Clouds 19 1022 9 10000 0.45 285 16:40 01.11.2020
6047 Clouds 16 1022 10 10000 1.34 322 16:19 01.11.2020
6048 Clouds 12 1022 13 10000 1.34 322 15:41 01.11.2020
6049 Clouds 12 1021 14 10000 1.43 352 15:21 01.11.2020
6050 Clouds 13 1021 13 10000 1.43 352 14:58 01.11.2020
6051 Clouds 14 1021 13 10000 1.43 352 14:39 01.11.2020
6052 Clouds 21 1022 18 10000 1.48 352 14:18 01.11.2020
6053 Clouds 12 1021 14 10000 1.48 352 13:47 01.11.2020
6054 Clouds 12 1021 14 10000 1.18 351 13:28 01.11.2020
6055 Clouds 11 1021 15 10000 1.18 351 12:43 01.11.2020
6056 Clouds 11 1021 15 10000 0.98 351 12:23 01.11.2020
6057 Clouds 11 1020 15 10000 0.98 351 11:51 01.11.2020
6058 Clouds 12 1020 14 10000 1.18 348 11:19 01.11.2020
6059 Clouds 19 1021 27 10000 1.18 348 10:55 01.11.2020
6060 Clouds 19 1021 27 10000 1.18 348 10:37 01.11.2020
6061 Clouds 19 1021 33 10000 0.55 7 10:19 01.11.2020
6062 Clouds 19 1021 33 10000 0.55 7 09:43 01.11.2020
6063 Clouds 11 1020 14 10000 0.45 13 08:47 01.11.2020
6064 Clouds 11 1020 13 10000 0.54 19 08:24 01.11.2020
6065 Clouds 11 1020 13 10000 0.54 19 07:43 01.11.2020
6066 Clouds 20 1020 34 10000 0.24 10 05:23 01.11.2020
6067 Clear 21 1018 24 10000 0.34 211 01:52 01.11.2020
6068 Clear 30 1018 10 10000 0.23 45 00:53 01.11.2020
6069 Clear 33 1017 9 10000 0.91 25 23:29 31.10.2020
6070 Clear 33 1017 9 10000 0.91 25 22:59 31.10.2020
6071 Clear 33 1017 9 10000 0.91 25 22:41 31.10.2020
6072 Clear 33 1017 9 10000 1.12 23 22:22 31.10.2020
6073 Clear 33 1017 9 10000 1.12 23 21:44 31.10.2020
6074 Clear 32 1018 10 10000 1.29 19 21:20 31.10.2020
6075 Clear 32 1018 10 10000 1.29 19 20:39 31.10.2020
6076 Clear 31 1019 10 10000 1.53 16 20:19 31.10.2020
6077 Clear 31 1019 10 10000 1.53 16 19:43 31.10.2020
6078 Clear 30 1020 11 10000 1.36 17 19:24 31.10.2020
6079 Clear 30 1020 11 10000 1.62 13 18:52 31.10.2020
6080 Clear 30 1020 11 10000 1.36 17 18:34 31.10.2020
6081 Clear 21 1020 8 10000 1.34 331 17:43 31.10.2020
6082 Clear 20 1020 9 10000 1.34 302 17:24 31.10.2020
6083 Clear 17 1020 11 10000 2.68 333 16:54 31.10.2020
6084 Clear 16 1020 12 10000 3.13 335 16:33 31.10.2020
6085 Clear 20 1020 22 10000 0.76 0 15:55 31.10.2020
6086 Clear 15 1019 40 10000 0.37 3 15:26 31.10.2020
6087 Clear 15 1019 40 10000 0.37 3 15:26 31.10.2020
6088 Clear 15 1019 40 10000 0.37 3 14:53 31.10.2020
6089 Clear 15 1019 40 10000 0.37 3 14:32 31.10.2020
6090 Clear 16 1018 40 10000 0.15 78 13:55 31.10.2020
6091 Clear 16 1018 40 10000 0.15 78 13:37 31.10.2020
6092 Clear 16 1018 40 10000 0.23 90 13:18 31.10.2020
6093 Clear 16 1017 40 10000 0.3 34 12:25 31.10.2020
6094 Clear 16 1017 40 10000 0.3 34 11:42 31.10.2020
6095 Clear 17 1017 40 10000 0.48 18 11:23 31.10.2020
6096 Clear 17 1017 40 10000 0.48 18 10:53 31.10.2020
6097 Clear 17 1017 40 10000 0.48 18 10:32 31.10.2020
6098 Clear 6 1018 23 10000 0.37 6 09:41 31.10.2020
6099 Clear 6 1018 22 10000 0.22 333 09:20 31.10.2020
6100 Clear 6 1018 22 10000 0.21 315 08:28 31.10.2020
6101 Clear 6 1018 23 10000 0.21 315 07:48 31.10.2020
6102 Clear 6 1018 23 10000 0.15 223 07:26 31.10.2020
6103 Clear 7 1018 20 10000 0.3 193 06:38 31.10.2020
6104 Clear 11 1017 15 10000 0.97 189 03:50 31.10.2020
6105 Clear 20 1015 24 10000 1.28 191 02:51 31.10.2020
6106 Clear 23 1015 8 10000 1.79 21 01:23 31.10.2020
6107 Clear 31 1014 11 10000 1.06 151 00:46 31.10.2020
6108 Clear 32 1014 10 10000 1.1 144 23:49 30.10.2020
6109 Clear 32 1014 10 10000 0.93 143 23:23 30.10.2020
6110 Clear 32 1014 10 10000 0.93 143 22:43 30.10.2020
6111 Clear 32 1015 11 10000 0.81 135 22:24 30.10.2020
6112 Clear 32 1015 11 10000 0.81 135 21:52 30.10.2020
6113 Clear 32 1015 11 10000 0.81 135 21:30 30.10.2020
6114 Clear 31 1016 11 10000 0.56 102 20:59 30.10.2020
6115 Clear 31 1016 11 10000 0.56 102 20:37 30.10.2020
6116 Clear 31 1017 11 10000 0.65 58 20:19 30.10.2020
6117 Clear 31 1017 11 10000 0.65 58 19:44 30.10.2020
6118 Clear 30 1018 12 10000 1 26 19:18 30.10.2020
6119 Clear 30 1018 12 10000 1 26 18:49 30.10.2020
6120 Clear 29 1019 13 10000 0.55 32 18:27 30.10.2020
6121 Clear 21 1018 8 10000 0.89 308 17:49 30.10.2020
6122 Clear 27 1019 14 10000 0.5 13 17:23 30.10.2020
6123 Clear 16 1018 11 10000 0.89 316 16:57 30.10.2020
6124 Clear 27 1019 14 10000 0.5 13 16:37 30.10.2020
6125 Clear 27 1019 14 10000 0.5 13 16:37 30.10.2020
6126 Clear 10 1017 16 10000 0.5 349 16:18 30.10.2020
6127 Clear 20 1018 22 10000 0.5 349 15:40 30.10.2020
6128 Clear 16 1018 41 10000 0.5 358 15:19 30.10.2020
6129 Clear 16 1018 41 10000 0.5 358 14:44 30.10.2020
6130 Clear 16 1018 41 10000 0.34 16 14:25 30.10.2020
6131 Clear 16 1018 41 10000 0.34 16 13:46 30.10.2020
6132 Clear 16 1017 41 10000 0.3 29 13:22 30.10.2020
6133 Clear 6 1017 22 10000 0.89 23 12:55 30.10.2020
6134 Clear 5 1016 22 10000 0.15 9 12:23 30.10.2020
6135 Clear 6 1017 22 10000 0.15 9 11:56 30.10.2020
6136 Clear 6 1017 21 10000 0.4 352 11:23 30.10.2020
6137 Clear 6 1017 22 10000 0.4 352 10:58 30.10.2020
6138 Clear 6 1017 21 10000 0.4 352 10:39 30.10.2020
6139 Clear 6 1016 20 10000 0.58 12 10:21 30.10.2020
6140 Clear 7 1016 19 10000 0.58 12 09:43 30.10.2020
6141 Clear 7 1016 19 10000 0.49 359 09:21 30.10.2020
6142 Clear 8 1016 17 10000 0.49 359 08:39 30.10.2020
6143 Clear 8 1016 17 10000 0.35 350 08:21 30.10.2020
6144 Clear 8 1016 18 10000 0.35 350 07:47 30.10.2020
6145 Clear 8 1016 18 10000 0.07 19 07:27 30.10.2020
6146 Clear 9 1016 17 10000 0.07 19 06:35 30.10.2020
6147 Clear 10 1015 16 10000 0.51 177 04:37 30.10.2020
6148 Clear 20 1015 22 10000 0.54 316 02:26 30.10.2020
6149 Clear 30 1015 11 10000 0.18 151 00:39 30.10.2020
6150 Clear 31 1015 10 10000 0.43 22 23:49 29.10.2020
6151 Clear 31 1015 10 10000 0.43 22 23:30 29.10.2020
6152 Clear 32 1016 10 10000 0.81 27 22:58 29.10.2020
6153 Clear 32 1016 10 10000 0.81 27 22:40 29.10.2020
6154 Clear 31 1017 10 10000 1.37 24 22:21 29.10.2020
6155 Clear 31 1017 10 10000 1.37 24 21:37 29.10.2020
6156 Clear 31 1018 11 10000 1.96 17 21:18 29.10.2020
6157 Clear 31 1018 11 10000 1.96 17 20:41 29.10.2020
6158 Clear 30 1019 11 10000 2.27 16 20:19 29.10.2020
6159 Clear 30 1019 11 10000 2.27 16 19:43 29.10.2020
6160 Clear 29 1020 12 10000 2.68 13 19:22 29.10.2020
6161 Clear 29 1020 12 10000 2.36 14 18:55 29.10.2020
6162 Clear 29 1020 12 10000 2.36 14 18:36 29.10.2020
6163 Clear 27 1021 13 10000 2.45 9 18:18 29.10.2020
6164 Clear 27 1021 13 10000 2.45 9 17:40 29.10.2020
6165 Clear 26 1021 14 10000 2.02 5 17:20 29.10.2020
6166 Clear 18 1017 11 10000 4.02 348 16:45 29.10.2020
6167 Clear 20 1020 20 10000 1.62 353 16:20 29.10.2020
6168 Clear 20 1020 20 10000 1.62 353 15:56 29.10.2020
6169 Clear 20 1020 20 10000 1.62 353 15:37 29.10.2020
6170 Clear 17 1019 30 10000 1.58 355 15:19 29.10.2020
6171 Clear 17 1019 30 10000 1.58 355 14:45 29.10.2020
6172 Clear 17 1019 29 10000 1.76 357 14:23 29.10.2020
6173 Clear 17 1019 29 10000 1.76 357 13:47 29.10.2020
6174 Clear 18 1019 28 10000 1.8 357 13:28 29.10.2020
6175 Clear 18 1019 26 10000 2 356 12:44 29.10.2020
6176 Clear 19 1019 24 10000 2.2 355 12:20 29.10.2020
6177 Clear 19 1019 24 10000 2.2 355 11:58 29.10.2020
6178 Clear 19 1019 24 10000 2.2 355 11:39 29.10.2020
6179 Clear 19 1019 24 10000 2.01 354 11:20 29.10.2020
6180 Clear 19 1019 24 10000 2.01 354 10:37 29.10.2020
6181 Clear 19 1019 24 10000 1.94 354 10:19 29.10.2020
6182 Clear 19 1019 24 10000 1.94 354 09:50 29.10.2020
6183 Clear 19 1018 24 10000 1.91 352 09:27 29.10.2020
6184 Clear 19 1018 24 10000 1.91 352 08:48 29.10.2020
6185 Clear 19 1018 27 10000 1.68 351 08:26 29.10.2020
6186 Clear 19 1018 27 10000 1.68 351 07:52 29.10.2020
6187 Clear 20 1018 26 10000 1.72 357 07:24 29.10.2020
6188 Clear 19 1018 26 10000 1.57 353 06:54 29.10.2020
6189 Clear 19 1017 35 10000 0.76 344 04:51 29.10.2020
6190 Clear 19 1016 38 10000 0.5 259 02:40 29.10.2020
6191 Clear 30 1014 12 10000 0.86 68 00:51 29.10.2020
6192 Clear 29 1014 12 10000 0.92 149 00:30 29.10.2020
6193 Clear 30 1014 11 10000 0.62 99 23:45 28.10.2020
6194 Clear 30 1014 11 10000 0.84 24 23:20 28.10.2020
6195 Clear 30 1014 11 10000 0.84 24 22:44 28.10.2020
6196 Clear 30 1014 11 10000 0.84 24 22:44 28.10.2020
6197 Clear 30 1015 11 10000 1.9 359 22:26 28.10.2020
6198 Clear 30 1015 11 10000 1.9 359 21:58 28.10.2020
6199 Clear 30 1015 11 10000 1.9 359 21:39 28.10.2020
6200 Clear 29 1017 12 10000 2.78 360 21:18 28.10.2020
6201 Clear 29 1017 12 10000 2.78 360 20:41 28.10.2020
6202 Clear 27 1018 13 10000 3.03 1 20:20 28.10.2020
6203 Clear 27 1018 13 10000 3.03 1 19:49 28.10.2020
6204 Clear 26 1019 15 10000 3 6 19:28 28.10.2020
6205 Clear 26 1019 15 10000 3 6 18:47 28.10.2020
6206 Clear 24 1020 17 10000 2.82 11 18:21 28.10.2020
6207 Clear 19 1019 10 10000 0.89 297 17:44 28.10.2020
6208 Clear 22 1020 19 10000 2.52 14 17:25 28.10.2020
6209 Clear 15 1019 15 10000 0.89 335 16:57 28.10.2020
6210 Clear 13 1019 17 10000 0.45 239 16:38 28.10.2020
6211 Clear 18 1020 26 10000 1.93 3 16:20 28.10.2020
6212 Clear 9 1019 21 10000 0.45 256 15:37 28.10.2020
6213 Clear 14 1020 34 10000 2.22 357 15:18 28.10.2020
6214 Clear 14 1020 34 10000 2.22 357 14:42 28.10.2020
6215 Clear 15 1020 32 10000 2.36 356 14:22 28.10.2020
6216 Clear 14 1019 34 10000 1.98 0 12:42 28.10.2020
6217 Clear 15 1019 33 10000 1.91 0 12:22 28.10.2020
6218 Clear 15 1019 33 10000 1.91 0 11:57 28.10.2020
6219 Clear 15 1019 33 10000 1.91 0 11:39 28.10.2020
6220 Clear 15 1019 31 10000 2.04 359 11:19 28.10.2020
6221 Clear 15 1019 31 10000 2.04 359 10:44 28.10.2020
6222 Clear 16 1019 31 10000 1.83 3 10:26 28.10.2020
6223 Clear 16 1019 31 10000 1.83 3 09:44 28.10.2020
6224 Clear 16 1019 29 10000 1.81 3 09:23 28.10.2020
6225 Clear 16 1019 29 10000 1.81 3 08:50 28.10.2020
6226 Clear 16 1019 29 10000 1.81 3 08:30 28.10.2020
6227 Clear 17 1020 29 10000 1.63 2 07:53 28.10.2020
6228 Clear 17 1020 29 10000 1.63 2 07:31 28.10.2020
6229 Clear 16 1019 32 10000 1.24 351 06:56 28.10.2020
6230 Clear 16 1019 32 10000 1.24 351 06:37 28.10.2020
6231 Clear 16 1018 30 10000 0.84 355 05:23 28.10.2020
6232 Clear 16 1018 30 10000 0.84 355 04:50 28.10.2020
6233 Clear 17 1018 27 10000 0.92 2 03:53 28.10.2020
6234 Clear 19 1017 23 10000 2.03 332 01:56 28.10.2020
6235 Clear 26 1017 15 10000 2.64 334 00:33 28.10.2020
6236 Clear 26 1017 14 10000 3.85 339 23:47 27.10.2020
6237 Clear 26 1017 14 10000 4.92 347 23:22 27.10.2020
6238 Clear 26 1017 14 10000 4.92 347 22:45 27.10.2020
6239 Clear 25 1018 15 10000 5.26 351 22:22 27.10.2020
6240 Clear 25 1018 15 10000 5.26 351 21:57 27.10.2020
6241 Clear 25 1018 15 10000 5.26 351 21:38 27.10.2020
6242 Clear 24 1019 15 10000 5.68 353 21:20 27.10.2020
6243 Clear 24 1019 15 10000 5.68 353 21:20 27.10.2020
6244 Clear 24 1019 15 10000 5.68 353 20:50 27.10.2020
6245 Clear 23 1021 16 10000 5.7 355 20:25 27.10.2020
6246 Clear 23 1021 16 10000 5.7 355 19:59 27.10.2020
6247 Clear 23 1021 16 10000 5.7 355 19:38 27.10.2020
6248 Clouds 21 1022 17 10000 5.61 356 19:20 27.10.2020
6249 Clouds 21 1021 17 10000 5.81 354 18:54 27.10.2020
6250 Clouds 21 1021 17 10000 5.81 354 18:36 27.10.2020
6251 Clouds 19 1022 18 10000 5.67 358 18:18 27.10.2020
6252 Clouds 12 1022 18 10000 5.81 317 17:40 27.10.2020
6253 Clouds 18 1023 19 10000 4.87 5 17:20 27.10.2020
6254 Clouds 11 1022 17 10000 6.26 332 16:46 27.10.2020
6255 Clouds 14 1023 22 10000 3.3 5 16:24 27.10.2020
6256 Clouds 14 1023 22 10000 3.3 5 15:43 27.10.2020
6257 Clouds 12 1022 26 10000 3.07 3 15:25 27.10.2020
6258 Clouds 12 1022 26 10000 3.07 3 14:52 27.10.2020
6259 Clouds 12 1022 26 10000 3.07 3 14:33 27.10.2020
6260 Clouds 12 1022 26 10000 3.22 5 13:59 27.10.2020
6261 Clouds 12 1022 26 10000 3.22 5 13:32 27.10.2020
6262 Clear 12 1022 27 10000 2.64 6 12:57 27.10.2020
6263 Clear 12 1022 27 10000 2.64 6 12:37 27.10.2020
6264 Clear 11 1022 27 10000 2.45 9 12:19 27.10.2020
6265 Clear 11 1022 27 10000 2.45 9 11:42 27.10.2020
6266 Clear 12 1022 26 10000 2.46 13 11:21 27.10.2020
6267 Clear 12 1022 26 10000 2.46 13 10:46 27.10.2020
6268 Clear 13 1022 25 10000 2.81 7 10:24 27.10.2020
6269 Clear 13 1022 25 10000 2.81 7 09:45 27.10.2020
6270 Clear 13 1022 24 10000 3.05 359 09:23 27.10.2020
6271 Clear 13 1022 24 10000 3.05 359 08:38 27.10.2020
6272 Clear 13 1022 23 10000 3.16 0 08:18 27.10.2020
6273 Clear 13 1022 23 10000 3.16 0 07:44 27.10.2020
6274 Clouds 14 1022 22 10000 2.99 3 07:25 27.10.2020
6275 Clouds 15 1021 21 10000 2.78 6 06:22 27.10.2020
6276 Clouds 15 1021 21 10000 2.78 6 06:22 27.10.2020
6277 Clouds 15 1021 21 10000 2.78 6 05:51 27.10.2020
6278 Clouds 15 1021 21 10000 2.78 6 05:33 27.10.2020
6279 Clouds 15 1020 21 10000 2.26 356 04:44 27.10.2020
6280 Clouds 8 1023 5 10000 1.79 347 02:30 27.10.2020
6281 Clear 13 1022 2 10000 2.68 342 00:57 27.10.2020
6282 Clear 21 1018 13 10000 8.97 354 23:44 26.10.2020
6283 Clear 21 1018 13 10000 9.76 353 23:22 26.10.2020
6284 Clear 21 1018 13 10000 9.76 353 22:47 26.10.2020
6285 Clear 20 1019 14 10000 9.75 355 22:26 26.10.2020
6286 Clear 13 1022 1 10000 6.26 356 21:49 26.10.2020
6287 Clear 12 1022 2 10000 6.26 335 21:21 26.10.2020
6288 Clear 12 1023 2 10000 5.81 320 20:58 26.10.2020
6289 Clear 12 1023 2 10000 5.81 332 20:39 26.10.2020
6290 Clear 11 1023 3 10000 6.71 345 20:19 26.10.2020
6291 Clear 10 1023 4 10000 7.15 345 19:47 26.10.2020
6292 Clear 9 1023 5 10000 6.71 4 19:24 26.10.2020
6293 Clear 8 1023 7 10000 6.26 336 18:46 26.10.2020
6294 Clear 7 1023 9 10000 5.36 354 18:25 26.10.2020
6295 Clear 6 1023 11 10000 4.92 271 17:59 26.10.2020
6296 Clear 5 1023 12 10000 4.92 331 17:39 26.10.2020
6297 Clear 4 1023 13 10000 4.02 338 17:21 26.10.2020
6298 Clear 2 1023 19 10000 3.58 329 16:43 26.10.2020
6299 Clear 1 1022 20 10000 2.68 260 16:22 26.10.2020
6300 Clear -1 1021 24 10000 1.79 326 15:43 26.10.2020
6301 Clear -1 1021 23 10000 0.89 330 15:25 26.10.2020
6302 Clear -1 1021 22 10000 3.13 284 14:54 26.10.2020
6303 Clear 8 1026 41 10000 4.53 356 14:35 26.10.2020
6304 Clear -1 1020 24 10000 5.36 349 13:46 26.10.2020
6305 Clear 0 1020 24 10000 6.26 351 13:28 26.10.2020
6306 Clear 0 1019 23 10000 2.68 360 12:58 26.10.2020
6307 Clear 1 1019 23 10000 4.47 341 12:36 26.10.2020
6308 Clear 1 1019 24 10000 4.02 324 12:18 26.10.2020
6309 Clear 1 1019 23 10000 4.47 337 11:45 26.10.2020
6310 Clear 1 1018 23 10000 4.92 342 11:23 26.10.2020
6311 Clear 1 1018 23 10000 4.92 342 11:23 26.10.2020
6312 Clear 1 1018 23 10000 5.81 4 10:57 26.10.2020
6313 Clear 1 1018 23 10000 4.92 346 10:38 26.10.2020
6314 Clear 1 1018 22 10000 3.13 342 10:18 26.10.2020
6315 Clear 2 1018 18 10000 4.47 320 09:32 26.10.2020
6316 Clear 3 1017 16 10000 6.26 351 08:58 26.10.2020
6317 Clear 3 1016 17 10000 6.26 349 08:27 26.10.2020
6318 Clear 4 1016 17 10000 3.58 329 07:52 26.10.2020
6319 Clear 4 1016 18 10000 4.92 351 07:31 26.10.2020
6320 Clouds 6 1012 27 10000 5.36 262 05:58 26.10.2020
6321 Clear 8 1010 27 10000 4.02 341 04:20 26.10.2020
6322 Clear 9 1008 31 10000 4.02 304 03:21 26.10.2020
6323 Clear 9 1008 31 10000 4.02 304 03:21 26.10.2020
6324 Clear 14 1005 27 10000 4.92 324 01:36 26.10.2020
6325 Clear 25 1006 17 10000 6.34 28 00:44 26.10.2020
6326 Clear 27 1004 17 10000 5.61 39 00:25 26.10.2020
6327 Clear 27 1004 17 10000 5.61 39 23:38 25.10.2020
6328 Clear 27 1004 21 10000 2.89 16 23:18 25.10.2020
6329 Clear 27 1004 21 10000 2.89 16 22:39 25.10.2020
6330 Clear 27 1004 25 10000 1.44 6 22:20 25.10.2020
6331 Clear 27 1004 25 10000 1.44 6 21:40 25.10.2020
6332 Clear 26 1005 29 10000 0.74 8 21:20 25.10.2020
6333 Clear 26 1005 29 10000 0.74 8 20:45 25.10.2020
6334 Clear 25 1005 32 10000 0.32 33 20:25 25.10.2020
6335 Clear 25 1005 32 10000 0.32 33 19:58 25.10.2020
6336 Clear 25 1005 32 10000 0.32 33 19:39 25.10.2020
6337 Clear 24 1007 33 10000 0.43 176 19:20 25.10.2020
6338 Clear 16 1004 39 10000 2.24 36 18:41 25.10.2020
6339 Clear 16 1005 40 10000 2.24 60 18:23 25.10.2020
6340 Clear 15 1004 41 10000 1.79 83 17:58 25.10.2020
6341 Clear 15 1004 42 10000 1.34 89 17:38 25.10.2020
6342 Clear 13 1004 46 10000 0.45 16 17:20 25.10.2020
6343 Clear 11 1004 53 10000 2.08 164 16:52 25.10.2020
6344 Clear 9 1005 59 10000 2.08 164 16:31 25.10.2020
6345 Clear 20 1007 42 10000 2.17 161 15:52 25.10.2020
6346 Clear 20 1007 42 10000 2.17 161 15:32 25.10.2020
6347 Clear 7 1004 61 10000 2.11 163 14:59 25.10.2020
6348 Clear 7 1004 61 10000 2.11 163 14:38 25.10.2020
6349 Clear 7 1005 62 10000 3 170 14:19 25.10.2020
6350 Clear 4 1004 69 10000 0.45 271 13:42 25.10.2020
6351 Clear 5 1004 66 10000 2.57 177 13:20 25.10.2020
6352 Clear 5 1005 67 10000 2.57 177 12:46 25.10.2020
6353 Clear 6 1005 64 10000 1.27 166 12:26 25.10.2020
6354 Clear 5 1005 65 10000 1.27 166 11:54 25.10.2020
6355 Clear 6 1005 64 10000 1.27 166 11:36 25.10.2020
6356 Clear 6 1005 64 10000 1.16 175 11:18 25.10.2020
6357 Clear 7 1005 58 10000 0.45 271 10:43 25.10.2020
6358 Clear 8 1005 56 10000 0.45 271 10:21 25.10.2020
6359 Clear 8 1005 55 10000 2.32 172 09:43 25.10.2020
6360 Clear 8 1005 54 10000 0.89 256 09:19 25.10.2020
6361 Clear 11 1005 47 10000 3.09 170 08:44 25.10.2020
6362 Clear 11 1005 47 10000 3.09 170 08:44 25.10.2020
6363 Clear 11 1005 45 10000 3.1 170 08:26 25.10.2020
6364 Clear 22 1008 34 10000 3.1 170 07:48 25.10.2020
6365 Clear 22 1008 28 10000 3.03 174 07:27 25.10.2020
6366 Clear 22 1008 28 10000 3.03 174 06:48 25.10.2020
6367 Clear 24 1008 24 10000 2.86 170 05:43 25.10.2020
6368 Clear 25 1008 22 10000 2.6 178 04:52 25.10.2020
6369 Clear 28 1007 19 10000 3.44 163 02:59 25.10.2020
6370 Clouds 24 1007 22 10000 1.79 29 01:20 25.10.2020
6371 Clouds 24 1007 21 10000 2.24 17 00:47 25.10.2020
6372 Clouds 25 1007 21 10000 2.24 357 00:18 25.10.2020
6373 Clouds 23 1008 23 10000 2.24 50 23:43 24.10.2020
6374 Clouds 24 1008 22 10000 2.68 14 23:24 24.10.2020
6375 Clouds 24 1009 22 10000 2.24 58 22:42 24.10.2020
6376 Clouds 23 1009 24 10000 2.24 2 22:24 24.10.2020
6377 Clouds 23 1010 22 10000 1.79 50 21:59 24.10.2020
6378 Clouds 23 1010 22 10000 2.68 20 21:39 24.10.2020
6379 Clouds 29 1011 24 10000 2.15 159 21:20 24.10.2020
6380 Clouds 29 1011 24 10000 2.15 159 20:47 24.10.2020
6381 Clouds 28 1012 27 10000 1.33 146 20:22 24.10.2020
6382 Clouds 22 1011 25 10000 1.34 69 19:47 24.10.2020
6383 Clouds 27 1013 27 10000 1.3 174 19:27 24.10.2020
6384 Clouds 19 1012 28 10000 0.89 75 18:56 24.10.2020
6385 Clouds 18 1012 28 10000 1.34 100 18:38 24.10.2020
6386 Clouds 17 1012 32 10000 0.45 84 18:19 24.10.2020
6387 Clouds 14 1012 37 10000 0.45 50 17:38 24.10.2020
6388 Clouds 12 1012 40 10000 0.44 150 17:20 24.10.2020
6389 Clouds 9 1012 45 10000 0.45 31 16:44 24.10.2020
6390 Clouds 8 1012 48 10000 1.15 185 16:21 24.10.2020
6391 Clouds 9 1011 46 10000 1.15 185 15:39 24.10.2020
6392 Clouds 9 1011 46 10000 0.62 166 15:19 24.10.2020
6393 Clouds 8 1011 46 10000 0.89 171 14:46 24.10.2020
6394 Clouds 9 1011 42 10000 0.47 183 14:27 24.10.2020
6395 Clouds 9 1011 41 10000 0.47 183 13:46 24.10.2020
6396 Clouds 9 1011 40 10000 0.58 200 13:24 24.10.2020
6397 Clouds 9 1011 39 10000 0.45 108 12:46 24.10.2020
6398 Clouds 10 1011 42 10000 0.22 127 12:21 24.10.2020
6399 Clouds 8 1012 47 10000 0.31 158 11:53 24.10.2020
6400 Clouds 8 1012 49 10000 0.22 127 11:35 24.10.2020
6401 Clouds 8 1012 46 10000 0.58 149 10:54 24.10.2020
6402 Clouds 8 1012 49 10000 0.58 149 10:33 24.10.2020
6403 Clouds 9 1012 48 10000 0.51 190 09:55 24.10.2020
6404 Clouds 9 1012 47 10000 0.51 190 09:37 24.10.2020
6405 Clouds 9 1012 51 10000 0.39 191 09:19 24.10.2020
6406 Clouds 9 1012 48 10000 0.28 53 08:20 24.10.2020
6407 Clouds 9 1012 45 10000 0.28 53 07:55 24.10.2020
6408 Clouds 10 1012 45 10000 0.28 53 07:37 24.10.2020
6409 Clouds 10 1012 43 10000 0.18 57 07:18 24.10.2020
6410 Clouds 12 1012 39 10000 0.26 156 06:23 24.10.2020
6411 Clouds 22 1012 22 10000 0.23 215 03:37 24.10.2020
6412 Clouds 22 1010 18 10000 0.89 62 02:18 24.10.2020
6413 Clouds 31 1010 13 10000 1.25 171 00:43 24.10.2020
6414 Clouds 31 1011 13 10000 0.91 162 00:22 24.10.2020
6415 Clouds 31 1011 13 10000 0.91 162 23:56 23.10.2020
6416 Clouds 31 1011 13 10000 0.91 162 23:36 23.10.2020
6417 Clouds 31 1012 13 10000 0.17 124 23:18 23.10.2020
6418 Clouds 24 1010 15 10000 2.68 13 22:42 23.10.2020
6419 Clouds 24 1010 16 10000 2.68 25 22:21 23.10.2020
6420 Clouds 30 1013 13 10000 0.92 7 21:52 23.10.2020
6421 Clear 29 1013 14 10000 1.76 14 21:28 23.10.2020
6422 Clear 29 1013 14 10000 1.76 14 20:44 23.10.2020
6423 Clear 28 1013 15 10000 2.77 11 20:25 23.10.2020
6424 Clear 28 1013 15 10000 2.77 11 19:59 23.10.2020
6425 Clear 28 1014 15 10000 3.07 13 19:37 23.10.2020
6426 Clear 26 1015 16 10000 3.81 7 19:18 23.10.2020
6427 Clear 19 1012 21 10000 0.45 218 18:39 23.10.2020
6428 Clear 18 1012 23 10000 0.45 279 18:20 23.10.2020
6429 Clear 15 1011 27 10000 1.79 330 17:44 23.10.2020
6430 Clear 14 1011 28 10000 1.79 341 17:21 23.10.2020
6431 Clear 13 1011 30 10000 1.34 315 16:47 23.10.2020
6432 Clear 19 1014 26 10000 2.6 354 16:26 23.10.2020
6433 Clear 19 1014 26 10000 2.6 354 15:55 23.10.2020
6434 Clear 19 1014 26 10000 2.6 354 15:36 23.10.2020
6435 Clear 19 1013 25 10000 2.55 358 15:18 23.10.2020
6436 Clear 19 1013 25 10000 2.55 358 14:41 23.10.2020
6437 Clear 12 1010 30 10000 2.68 336 14:22 23.10.2020
6438 Clear 12 1010 30 10000 2.68 336 14:22 23.10.2020
6439 Clear 20 1013 25 10000 2.66 0 13:40 23.10.2020
6440 Clear 13 1009 29 10000 3.13 333 13:21 23.10.2020
6441 Clear 13 1010 28 10000 3.58 318 12:48 23.10.2020
6442 Clear 22 1012 22 10000 2.54 358 12:29 23.10.2020
6443 Clear 22 1012 22 10000 2.54 358 11:49 23.10.2020
6444 Clear 10 1010 32 10000 2.13 355 11:25 23.10.2020
6445 Clear 10 1009 31 10000 2.13 355 10:50 23.10.2020
6446 Clear 10 1009 32 10000 2.19 336 10:26 23.10.2020
6447 Clear 11 1009 31 10000 2.19 336 09:57 23.10.2020
6448 Clear 11 1009 30 10000 2.19 336 09:38 23.10.2020
6449 Clear 11 1009 30 10000 1.35 336 09:19 23.10.2020
6450 Clear 10 1009 31 10000 1.35 336 08:49 23.10.2020
6451 Clear 10 1009 32 10000 0.72 345 08:23 23.10.2020
6452 Clear 11 1009 29 10000 0.64 171 07:26 23.10.2020
6453 Clear 12 1009 28 10000 0.64 171 06:46 23.10.2020
6454 Clear 12 1009 27 10000 0.62 193 06:19 23.10.2020
6455 Clear 24 1008 18 10000 0.85 160 03:37 23.10.2020
6456 Clear 26 1007 13 10000 1.34 28 02:26 23.10.2020
6457 Clear 35 1006 10 10000 1.69 150 00:49 23.10.2020
6458 Clear 35 1006 10 10000 1.85 153 00:21 23.10.2020
6459 Clear 35 1006 10 10000 1.85 153 23:37 22.10.2020
6460 Clear 34 1006 10 10000 1.63 150 23:18 22.10.2020
6461 Clear 34 1006 10 10000 1.63 150 22:44 22.10.2020
6462 Clear 34 1008 11 10000 1.29 140 22:22 22.10.2020
6463 Clear 34 1008 11 10000 1.29 140 21:49 22.10.2020
6464 Clear 34 1008 11 10000 1.29 140 21:31 22.10.2020
6465 Clear 33 1009 11 10000 0.99 125 20:59 22.10.2020
6466 Clear 33 1009 11 10000 0.99 125 20:41 22.10.2020
6467 Clear 31 1010 12 10000 0.62 113 20:21 22.10.2020
6468 Clear 31 1010 12 10000 0.62 113 19:42 22.10.2020
6469 Clear 30 1010 13 10000 0.63 138 19:20 22.10.2020
6470 Clear 22 1007 16 10000 0.45 283 18:44 22.10.2020
6471 Clear 21 1007 17 10000 0.38 178 18:22 22.10.2020
6472 Clear 16 1007 23 10000 0.38 178 17:48 22.10.2020
6473 Clear 11 1007 34 10000 0.36 225 17:26 22.10.2020
6474 Clear 24 1009 19 10000 0.36 225 16:59 22.10.2020
6475 Clear 24 1009 19 10000 0.36 225 16:41 22.10.2020
6476 Clear 8 1006 34 10000 0.64 192 16:23 22.10.2020
6477 Clear 7 1006 33 10000 0.64 192 15:48 22.10.2020
6478 Clouds 8 1005 31 10000 0.82 185 15:26 22.10.2020
6479 Clouds 9 1005 29 10000 0.82 185 14:50 22.10.2020
6480 Clear 11 1005 27 10000 0.42 183 14:27 22.10.2020
6481 Clear 11 1005 26 10000 0.42 183 13:57 22.10.2020
6482 Clear 12 1005 26 10000 0.45 320 13:38 22.10.2020
6483 Clear 20 1008 28 10000 0.25 213 13:20 22.10.2020
6484 Clear 21 1008 24 10000 0.22 173 12:28 22.10.2020
6485 Clear 21 1008 24 10000 0.22 173 11:54 22.10.2020
6486 Clear 13 1005 25 10000 0.89 328 11:36 22.10.2020
6487 Clear 11 1005 27 10000 0.89 35 11:18 22.10.2020
6488 Clear 11 1005 27 10000 0.68 157 10:44 22.10.2020
6489 Clear 11 1005 26 10000 0.61 148 10:23 22.10.2020
6490 Clear 12 1005 27 10000 0.45 89 09:42 22.10.2020
6491 Clear 12 1005 25 10000 0.91 146 09:18 22.10.2020
6492 Clear 12 1006 25 10000 0.91 146 08:39 22.10.2020
6493 Clear 12 1006 24 10000 0.45 90 08:19 22.10.2020
6494 Clear 13 1006 22 10000 1.73 160 07:43 22.10.2020
6495 Clear 13 1006 22 10000 1.47 161 07:18 22.10.2020
6496 Clear 13 1006 24 10000 1.47 161 06:38 22.10.2020
6497 Clear 14 1006 22 10000 1.57 167 06:18 22.10.2020
6498 Clear 16 1006 20 10000 1.57 167 05:37 22.10.2020
6499 Clear 22 1005 14 10000 1.34 88 03:25 22.10.2020
6500 Clear 38 1005 8 10000 3.26 172 00:50 22.10.2020
6501 Clear 29 1005 9 10000 1.79 73 00:21 22.10.2020
6502 Clear 38 1006 8 10000 3.03 169 23:42 21.10.2020
6503 Clear 30 1006 9 10000 2.24 40 23:19 21.10.2020
6504 Clear 30 1006 9 10000 2.24 50 22:38 21.10.2020
6505 Clear 36 1008 9 10000 2.18 163 22:19 21.10.2020
6506 Clear 36 1008 9 10000 2.18 163 22:19 21.10.2020
6507 Clear 36 1008 9 10000 2.18 163 21:46 21.10.2020
6508 Clear 35 1009 9 10000 1.58 157 21:20 21.10.2020
6509 Clear 35 1009 9 10000 1.58 157 20:57 21.10.2020
6510 Clear 35 1009 9 10000 1.58 157 20:39 21.10.2020
6511 Clear 34 1009 10 10000 1.16 142 20:18 21.10.2020
6512 Clear 27 1008 11 10000 1.25 148 19:41 21.10.2020
6513 Clear 25 1009 13 10000 0.79 137 19:22 21.10.2020
6514 Clear 24 1009 14 10000 0.89 322 18:53 21.10.2020
6515 Clear 20 1009 17 10000 0.79 137 18:30 21.10.2020
6516 Clear 18 1009 20 10000 0.45 270 17:51 21.10.2020
6517 Clear 17 1008 20 10000 0.45 291 17:22 21.10.2020
6518 Clear 16 1008 20 10000 0.45 279 16:59 21.10.2020
6519 Clear 16 1008 20 10000 0.45 317 16:39 21.10.2020
6520 Clear 20 1011 40 10000 0.02 100 16:20 21.10.2020
6521 Clear 20 1011 40 10000 0.02 100 15:46 21.10.2020
6522 Clear 21 1010 40 10000 0.62 353 15:22 21.10.2020
6523 Clear 21 1010 40 10000 0.62 353 14:56 21.10.2020
6524 Clear 21 1010 40 10000 0.62 353 14:38 21.10.2020
6525 Clear 21 1010 40 10000 0.6 356 14:19 21.10.2020
6526 Clear 21 1010 40 10000 0.6 356 13:41 21.10.2020
6527 Clear 21 1010 40 10000 0.35 347 13:20 21.10.2020
6528 Clear 21 1010 40 10000 0.35 347 12:41 21.10.2020
6529 Clear 22 1010 40 10000 0.15 334 12:20 21.10.2020
6530 Clear 12 1009 29 10000 1.34 330 11:47 21.10.2020
6531 Clear 10 1009 29 10000 0.15 213 11:21 21.10.2020
6532 Clear 10 1009 29 10000 0.15 213 10:58 21.10.2020
6533 Clear 10 1008 28 10000 0.15 213 10:40 21.10.2020
6534 Clear 10 1008 28 10000 0.29 226 10:20 21.10.2020
6535 Clear 11 1008 27 10000 0.29 226 09:44 21.10.2020
6536 Clear 11 1008 26 10000 0.38 236 09:25 21.10.2020
6537 Clear 12 1008 25 10000 0.38 236 08:40 21.10.2020
6538 Clear 12 1008 25 10000 0.38 269 08:22 21.10.2020
6539 Clear 12 1009 25 10000 0.38 269 07:55 21.10.2020
6540 Clear 12 1008 24 10000 0.52 210 07:24 21.10.2020
6541 Clear 13 1009 22 10000 0.52 210 06:46 21.10.2020
6542 Clear 14 1009 22 10000 0.55 203 06:24 21.10.2020
6543 Clear 25 1009 18 10000 0.64 200 03:38 21.10.2020
6544 Clear 37 1008 8 10000 1.04 163 00:49 21.10.2020
6545 Clear 37 1008 8 10000 0.58 154 23:37 20.10.2020
6546 Clear 36 1009 8 10000 0.3 50 22:47 20.10.2020
6547 Clear 36 1011 9 10000 1.13 21 22:25 20.10.2020
6548 Clear 36 1011 9 10000 1.13 21 21:48 20.10.2020
6549 Clear 28 1010 10 10000 0.89 262 21:20 20.10.2020
6550 Clear 28 1011 10 10000 1.34 327 20:44 20.10.2020
6551 Clear 34 1013 10 10000 2.88 5 20:25 20.10.2020
6552 Clear 26 1011 12 10000 0.89 336 19:57 20.10.2020
6553 Clear 24 1011 13 10000 0.89 260 19:39 20.10.2020
6554 Clear 24 1012 14 10000 0.89 314 19:20 20.10.2020
6555 Clear 23 1012 15 10000 0.89 252 18:45 20.10.2020
6556 Clear 22 1012 16 10000 1.79 326 18:26 20.10.2020
6557 Clear 19 1012 20 10000 2.24 345 17:42 20.10.2020
6558 Clear 18 1012 21 10000 2.24 343 17:23 20.10.2020
6559 Clear 16 1012 22 10000 2.68 356 16:47 20.10.2020
6560 Clear 16 1012 22 10000 2.68 356 16:47 20.10.2020
6561 Clear 21 1013 27 10000 1.42 357 16:26 20.10.2020
6562 Clear 21 1013 27 10000 1.42 357 15:50 20.10.2020
6563 Clear 21 1013 27 10000 1.42 357 15:31 20.10.2020
6564 Clear 22 1013 28 10000 1.13 352 14:56 20.10.2020
6565 Clear 22 1013 28 10000 1.13 352 14:37 20.10.2020
6566 Clear 22 1013 28 10000 1.08 355 14:19 20.10.2020
6567 Clear 22 1013 28 10000 1.08 355 13:42 20.10.2020
6568 Clear 22 1012 37 10000 0.81 347 13:22 20.10.2020
6569 Clear 22 1012 37 10000 0.81 347 12:56 20.10.2020
6570 Clear 22 1012 37 10000 0.81 347 12:38 20.10.2020
6571 Clear 23 1013 32 10000 0.95 350 12:19 20.10.2020
6572 Clear 23 1013 32 10000 0.95 350 11:37 20.10.2020
6573 Clear 23 1013 32 10000 0.98 355 11:18 20.10.2020
6574 Clear 13 1011 26 10000 0.75 343 10:29 20.10.2020
6575 Clear 13 1011 27 10000 0.75 343 09:51 20.10.2020
6576 Clear 13 1011 25 10000 0.86 339 09:21 20.10.2020
6577 Clear 14 1011 25 10000 0.45 303 08:58 20.10.2020
6578 Clear 14 1011 25 10000 0.45 303 08:36 20.10.2020
6579 Clear 13 1012 27 10000 0.45 355 07:52 20.10.2020
6580 Clear 13 1012 25 10000 0.64 181 07:25 20.10.2020
6581 Clear 13 1011 24 10000 0.64 181 06:30 20.10.2020
6582 Clear 15 1011 21 10000 0.98 206 05:43 20.10.2020
6583 Clear 26 1011 17 10000 0.92 178 03:55 20.10.2020
6584 Clear 28 1010 10 10000 2.24 24 02:18 20.10.2020
6585 Clear 37 1010 9 10000 1.05 152 00:59 20.10.2020
6586 Clear 37 1010 9 10000 1.05 152 00:41 20.10.2020
6587 Clear 37 1011 9 10000 0.75 144 00:20 20.10.2020
6588 Clear 37 1011 9 10000 0.75 144 23:47 19.10.2020
6589 Clear 37 1012 9 10000 0.82 147 23:23 19.10.2020
6590 Clear 37 1012 9 10000 0.82 147 22:44 19.10.2020
6591 Clear 36 1013 9 10000 0.53 121 22:22 19.10.2020
6592 Clear 36 1013 9 10000 0.53 121 21:45 19.10.2020
6593 Clear 35 1014 10 10000 0.74 39 21:22 19.10.2020
6594 Clear 35 1014 10 10000 0.74 39 20:48 19.10.2020
6595 Clear 34 1015 11 10000 1.26 21 20:29 19.10.2020
6596 Clear 34 1015 11 10000 1.07 26 19:54 19.10.2020
6597 Clear 34 1015 11 10000 1.26 21 19:36 19.10.2020
6598 Clear 32 1015 11 10000 0.81 22 19:18 19.10.2020
6599 Clear 24 1013 15 10000 2.68 323 18:42 19.10.2020
6600 Clear 21 1013 19 10000 0.89 311 18:18 19.10.2020
6601 Clear 31 1016 12 10000 0.75 31 17:44 19.10.2020
6602 Clear 16 1013 24 10000 0.31 48 17:24 19.10.2020
6603 Clear 14 1013 26 10000 0.31 48 16:46 19.10.2020
6604 Clear 20 1015 37 10000 0.07 135 16:28 19.10.2020
6605 Clear 20 1015 37 10000 0.07 135 15:44 19.10.2020
6606 Clear 21 1015 37 10000 0.58 4 15:25 19.10.2020
6607 Clear 21 1015 37 10000 0.58 4 14:52 19.10.2020
6608 Clear 22 1014 31 10000 0.96 358 14:27 19.10.2020
6609 Clear 22 1015 34 10000 0.89 357 13:54 19.10.2020
6610 Clear 22 1015 34 10000 0.89 357 13:34 19.10.2020
6611 Clear 22 1015 30 10000 0.87 352 12:59 19.10.2020
6612 Clear 12 1013 26 10000 0.45 16 12:40 19.10.2020
6613 Clear 12 1013 26 10000 0.45 16 12:22 19.10.2020
6614 Clear 12 1013 26 10000 0.75 349 11:40 19.10.2020
6615 Clear 13 1013 25 10000 0.64 3 11:19 19.10.2020
6616 Clear 13 1013 25 10000 0.64 3 10:43 19.10.2020
6617 Clear 13 1013 26 10000 0.66 4 10:21 19.10.2020
6618 Clear 12 1013 27 10000 0.66 4 09:50 19.10.2020
6619 Clear 13 1013 24 10000 0.52 358 09:23 19.10.2020
6620 Clear 13 1013 24 10000 0.52 358 08:49 19.10.2020
6621 Clear 14 1013 23 10000 1.04 3 08:24 19.10.2020
6622 Clear 14 1013 25 10000 0.82 15 07:55 19.10.2020
6623 Clear 13 1013 23 10000 0.76 18 07:20 19.10.2020
6624 Clear 16 1012 19 10000 0.43 197 06:20 19.10.2020
6625 Clear 19 1012 16 10000 1.48 201 04:30 19.10.2020
6626 Clear 27 1013 16 10000 1.73 194 03:44 19.10.2020
6627 Clear 31 1011 8 10000 1.79 35 00:59 19.10.2020
6628 Clear 38 1011 8 10000 1.18 132 00:25 19.10.2020
6629 Clear 38 1011 8 10000 1.18 132 23:48 18.10.2020
6630 Clear 37 1012 9 10000 1.28 140 23:26 18.10.2020
6631 Clear 37 1012 9 10000 1.28 140 22:57 18.10.2020
6632 Clear 37 1013 9 10000 1.38 142 22:24 18.10.2020
6633 Clear 37 1013 9 10000 1.38 142 21:59 18.10.2020
6634 Clear 37 1013 9 10000 1.38 142 21:37 18.10.2020
6635 Clear 36 1014 9 10000 1.53 147 21:18 18.10.2020
6636 Clear 36 1014 9 10000 1.53 147 20:42 18.10.2020
6637 Clear 35 1015 10 10000 1.45 152 20:22 18.10.2020
6638 Clear 28 1014 10 10000 1.28 147 19:49 18.10.2020
6639 Clear 26 1014 11 10000 1.01 145 19:26 18.10.2020
6640 Clear 24 1014 13 10000 0.45 206 18:51 18.10.2020
6641 Clear 23 1014 14 10000 0.45 206 18:30 18.10.2020
6642 Clear 32 1016 11 10000 0.54 136 17:59 18.10.2020
6643 Clear 32 1016 11 10000 0.54 136 17:40 18.10.2020
6644 Clear 14 1014 24 10000 0.35 169 17:21 18.10.2020
6645 Clear 14 1013 21 10000 0.35 169 16:42 18.10.2020
6646 Clear 21 1015 39 10000 0.27 134 16:23 18.10.2020
6647 Clear 21 1015 39 10000 0.27 134 15:43 18.10.2020
6648 Clear 22 1015 35 10000 0.5 151 15:19 18.10.2020
6649 Clear 22 1015 35 10000 0.5 151 14:57 18.10.2020
6650 Clear 22 1015 35 10000 0.5 151 14:31 18.10.2020
6651 Clear 14 1013 20 10000 1.34 337 13:59 18.10.2020